ECMWFFLT1_con_mucape_000.txt.gz
CAPE
2233 2234 2015 1980 1926 2021 1496 1488 1741 1741 1680 2063 2645 2221 2164 2642 2570 2372 2536 2947 3246 3556 3769 3825 4278 4345 4036 4009 3752 3541 3481 3466 3338 3182 2968 2914 2691 2360 2325 2196 2036 2176 1935 1802 1488 1461 1466 1078 970 828 695 563 510 471 394 227 129 64 70 76 66 105 79
2005 2148 2046 2018 2077 2085 1636 1549 1832 1827 2091 2337 2537 2384 2056 2505 2882 2378 2630 3505 4003 4238 3856 3619 4362 4706 4583 4604 4136 3926 3809 3768 3671 3478 2987 2883 2934 2875 2502 2565 2254 2186 2304 2017 1677 1568 1280 986 884 824 648 587 479 486 361 293 173 105 66 82 131 182 221
1795 1836 2016 2026 2019 1770 1934 1834 2056 2094 2149 1954 1906 2118 2309 2556 3082 3140 2948 3505 4348 4648 4026 3781 4339 4552 4574 4738 4513 4191 4068 3961 3734 3633 3197 2710 2870 2741 2638 2491 2599 2232 2420 2168 1913 1612 1409 1085 958 839 695 552 538 456 398 336 264 142 97 116 88 109 269
1747 1754 1924 2176 2176 2096 2075 2014 2219 2070 1710 1722 1812 1984 2410 2694 3161 3683 3614 3712 4145 4437 4176 3754 4315 4845 4810 4841 4808 4506 4528 4656 4037 3472 3128 2763 2604 2528 2459 2756 3082 2221 2520 2370 2000 1690 1312 1067 1025 818 651 647 620 525 421 314 218 183 125 137 116 86 110
1649 1660 1740 2095 2186 2244 2289 2192 2283 2180 1426 1381 1833 2190 2495 3050 3396 3720 3957 3785 3186 3603 3870 4020 3913 4563 5182 5322 5104 4663 4683 4680 4526 3930 3373 2986 2612 2646 2806 2624 3059 2208 2349 2644 2201 2040 1476 1122 1012 854 875 786 780 710 506 320 200 263 216 184 164 134 126
1610 1766 1720 1830 2018 2368 2495 2240 1875 1628 1262 1132 1362 2167 2572 2936 3004 2880 3469 3894 3469 2992 3942 4024 3716 4516 5152 5058 4908 5018 5036 5054 4728 4440 3985 3730 3590 3351 3299 3403 3179 3258 2935 2977 2408 2000 1878 1363 810 932 1010 930 751 599 486 380 302 267 338 295 299 138 100
1489 1914 1879 1924 1981 2260 2549 2258 1578 1096 1352 1186 1305 2137 2460 2274 2566 2437 2586 3182 3436 3258 3572 3834 3998 4416 5130 4957 4981 5011 5189 4906 4826 4541 4436 4533 4508 4105 3738 3841 3584 3187 3020 2662 2205 1758 1796 1524 1132 1212 1076 854 753 620 545 494 312 165 175 165 183 232 232
1516 1922 2140 2169 2164 2024 2048 2238 1836 1211 1359 1456 1363 1895 2478 2096 2164 2321 2347 2530 3177 3078 3283 3364 3952 4405 5149 5116 4920 5013 5155 5074 5138 4981 4878 4646 4449 4128 4035 3528 2987 2698 2575 2167 2057 1806 1678 1688 1467 1290 1130 842 847 775 569 511 391 75 50 62 156 241 209
1806 2281 2410 2282 2246 2003 1872 2023 2154 1691 1561 1926 1848 2111 2458 2462 2135 2314 2452 2374 2966 3320 3235 3070 3306 4320 5332 5111 4893 4932 5204 5157 4914 4684 4572 4447 4333 3689 3101 2887 2450 2252 2106 1466 1186 1356 1284 1370 1261 1530 1541 1290 1124 1012 805 542 319 160 22 78 245 293 239
2103 2550 2829 2458 2140 1913 1957 1823 2135 2714 2501 2854 2767 2744 2767 2932 2860 2499 2651 2839 3008 3475 3504 3313 2995 3988 5094 5072 4926 5118 5238 4663 4608 4352 4007 3822 3470 3096 2659 2358 1980 1966 1874 896 466 764 731 831 916 996 1162 1132 1165 1166 845 610 453 200 89 206 328 344 293
2180 2568 2668 2296 2195 2068 1846 1652 2043 2867 3078 3605 3464 3058 3150 3164 3313 2949 3005 3194 3180 3381 3552 3578 3113 3128 4574 4932 4798 5064 5148 4745 4258 3984 3784 3195 2842 2618 2003 1930 2554 2031 1209 426 410 468 676 680 652 768 977 1060 968 1022 817 475 440 378 275 307 351 401 286
3355 2820 3018 2760 2413 2220 2162 2604 3048 3500 3746 4125 3870 3455 3630 3808 3647 3491 3570 3725 3581 3508 3707 3751 3603 3141 3750 4565 4648 5308 4702 3889 3480 3356 2674 2685 2496 1930 1109 1405 1599 2130 1340 365 379 238 250 332 465 394 590 830 982 992 808 661 501 465 524 366 372 365 358
3150 3000 3042 2699 2747 2706 3122 3474 3819 4148 4556 4498 3934 3834 3872 3907 3889 3771 4034 4070 3781 3801 3956 4083 3989 3888 3586 4255 4754 5533 4548 3618 3186 2870 2741 2844 2446 1282 892 700 389 430 704 244 36 97 358 946 670 456 692 657 741 820 714 666 558 569 737 690 490 430 520
2481 2753 2762 2968 3058 3114 3456 3956 4520 4906 4946 4538 4329 4378 4374 4206 3905 3960 4262 4252 3996 3858 3984 4140 4274 4310 4425 4885 4613 5520 4199 3437 3301 2873 2764 2470 2892 1048 177 214 131 375 686 287 205 439 720 208 0 0 263 522 711 679 644 662 692 740 840 1028 729 602 603
2594 2415 2746 2793 3293 3668 4033 4419 4675 4731 4824 4684 4394 4484 4507 4518 4410 4397 4495 4310 4256 3985 4020 4214 4545 4872 4858 4958 4793 4535 3636 3249 2992 2762 2527 2620 2318 804 140 83 116 427 619 692 394 280 215 0 66 200 390 660 772 706 707 846 814 819 1125 1209 1027 932 774
2552 2494 2468 2576 3087 3499 3880 4120 4681 5027 5070 5037 4720 4842 4576 4659 4772 4661 4669 4536 4441 4337 4082 4235 4590 4962 4578 4334 3856 3488 3471 3212 2852 2542 2374 2430 2298 1183 455 176 320 735 662 458 259 83 38 0 0 214 368 573 678 742 849 852 820 1078 795 1000 1324 1328 1202
2517 2438 2412 2616 3040 3318 3808 4023 4357 4896 5008 5070 4991 5011 4852 5014 4948 4842 4504 4434 4430 4710 4360 4364 4800 5044 4647 4016 3455 3216 2994 2775 2606 2280 2168 2218 2260 2040 1546 1198 534 126 318 322 132 1 0 0 0 90 354 422 731 900 942 1010 955 667 602 619 654 1165 1264
2569 3032 2754 2677 2926 3216 3668 3634 4175 4788 4980 4949 4992 5159 5153 5236 5149 4972 4489 4566 4538 4596 4539 4508 4844 4715 4722 4387 3788 3641 3499 3279 2943 2852 2789 2720 2638 2361 1724 1346 784 512 622 514 249 103 70 63 104 284 351 512 769 580 462 924 700 370 364 358 308 276 781
2845 3148 3272 3203 3214 3335 3419 3434 4306 4775 4616 4555 4716 5132 5044 5270 5101 5205 4948 4907 4738 4635 4682 4634 4600 4465 4676 4315 3712 3500 3356 3090 2938 2839 2734 2615 2408 2146 1800 1586 1064 858 682 741 686 444 286 150 375 557 637 716 646 320 268 724 548 273 258 256 234 194 223
2037 2812 3167 3188 3244 3216 3259 3554 3708 3888 4035 4346 4602 4532 4646 4936 5000 5128 4874 4758 4762 4652 4775 4828 4688 4350 4464 3816 3212 3066 3051 3070 2958 2795 2626 2367 2124 2020 1838 1560 1080 656 478 440 557 586 548 577 616 678 887 828 669 504 649 882 511 223 192 188 216 332 383
2270 2498 2541 2954 3426 3166 3089 2912 3124 3595 3662 3746 3620 4060 4489 4597 4778 4866 4616 4815 4650 4760 4903 4855 4718 4640 4160 3442 3032 3021 3168 3297 3073 2874 2686 2470 2157 1930 1730 1303 1095 858 634 453 626 686 654 674 821 689 806 860 457 756 956 776 269 166 98 178 224 180 307
1428 2011 2117 2548 2895 3144 3156 3062 3338 3333 3488 3538 3984 3886 3898 4045 4186 4178 4350 4583 4820 4823 4942 4959 4752 4131 3875 3332 2938 3145 3267 3272 3137 2904 2708 2478 2166 1876 1480 1148 1015 913 874 612 546 462 542 700 630 714 726 531 458 585 960 466 134 97 117 135 114 153 303
1220 1738 1919 2351 2320 3037 3143 3034 3086 3067 3089 3227 3438 3494 3416 3474 3384 3354 3570 4199 4675 5068 5039 5002 4617 4093 3650 3146 2736 3072 3166 3204 3094 2930 2522 2371 2258 1890 1308 986 1002 1198 1237 961 516 607 570 588 527 595 758 646 702 639 595 576 288 84 95 135 225 252 803
1403 2249 2370 2580 3291 3195 2925 2553 2336 2650 2670 3216 3009 2687 2596 2758 3049 3508 3937 4376 4722 4732 4816 4873 4347 3722 3386 2896 2387 2825 2977 2917 2727 2696 2370 2287 2205 1754 1256 1300 1385 1368 1234 1045 732 580 596 591 614 738 726 497 597 533 664 553 484 42 81 116 123 434 940
1026 1684 2244 2600 2510 2254 2135 2430 2715 2719 3130 3228 2547 2930 3049 3382 3749 4084 4475 4489 4580 4712 4664 4373 4040 3530 3235 2908 2310 2464 2516 2486 2384 2241 2251 2224 2128 1529 1219 1223 1217 1178 1163 1061 972 894 911 608 459 589 642 466 334 282 149 131 546 130 5 68 80 489 1173
1861 1999 2149 2370 2294 2735 3316 3289 3113 3194 3318 3140 3988 4078 4202 4239 4384 4406 4542 4428 4449 4349 4159 4035 3808 3560 3186 2668 2362 2146 2206 2004 1862 1986 2056 2106 1872 1520 1030 898 902 929 990 934 887 766 619 505 498 412 449 377 302 280 164 28 528 576 63 9 22 113 985
2221 2395 2607 2844 3056 3104 3641 3556 3139 2342 2278 4412 4520 4412 4748 4660 4607 4558 4493 4303 3987 3764 3713 3764 3608 3225 2909 2567 2186 2072 1916 1941 1812 1840 2030 2171 1827 1222 847 687 866 859 847 664 533 600 487 290 216 287 354 167 86 64 40 18 13 1500 204 44 37 46 111
2531 2725 2945 3147 3196 2547 1822 1592 2391 2774 3757 4720 4670 4748 4840 4776 4790 4698 4227 3867 3507 3379 3583 3583 3496 3173 2782 2494 2140 2120 1940 1860 1833 1910 1958 1966 1950 1375 728 540 499 373 324 200 194 210 90 233 202 102 56 64 43 1 0 798 836 400 326 132 54 18 0
1988 1887 2096 2288 2296 1882 1516 2035 2579 3208 4002 4126 4220 4285 4560 4497 4817 4438 4152 3960 3623 3524 3756 3596 3419 3137 2776 2464 2160 2130 2279 2074 1726 1624 1779 1686 1622 1334 617 383 205 188 126 55 55 124 202 208 125 167 156 172 170 35 1204 1566 406 90 141 44 26 38 40
1032 966 663 563 574 840 1820 3755 4188 3931 3559 3267 3020 3367 3796 4922 4794 4554 4510 4372 4036 3838 3713 3532 3415 3060 2614 2239 2128 2258 2066 1896 1555 1688 1658 1573 1476 1126 482 346 202 191 122 90 122 272 358 259 120 56 48 50 42 650 1579 1414 1251 276 49 50 21 76 100
550 512 479 494 423 650 1030 2782 3628 3162 2728 2692 3202 3963 4645 4714 4477 4452 4832 4357 3729 3665 3516 3396 3156 2566 2142 2196 2100 1762 1840 1731 1804 1688 1518 1364 1180 708 434 305 106 209 285 266 338 370 226 130 80 130 68 6 75 780 1354 1288 1184 998 251 106 109 125 111
1727 904 662 1033 2106 1552 785 1171 1370 1900 2293 2436 2650 2828 3517 3517 3453 4341 3527 3174 3074 3241 3402 3230 2832 2436 2125 2033 1730 1765 1781 1677 1562 1462 1300 1201 722 504 436 303 270 381 506 336 234 248 112 176 98 225 188 324 513 772 1174 1228 973 929 810 227 163 109 28
2215 2391 2134 1891 2445 2194 1069 764 1124 1541 1826 2022 1974 1812 1950 2619 3296 3473 3168 3163 3243 3037 2856 2731 2555 2240 2094 1870 1760 1448 1277 1536 1679 1664 1350 973 790 656 555 417 501 524 694 529 418 411 391 377 430 522 296 352 554 860 1038 1062 1040 910 773 375 12 0 0
2440 2338 2240 2307 2520 2447 1718 1049 1036 1500 2046 2504 2407 2362 2214 2314 2565 2787 2838 2796 2762 2710 2514 2346 2139 1960 1953 1799 1589 1364 1596 1727 1734 1711 1630 1330 998 844 650 460 509 560 644 613 508 464 421 471 404 250 156 227 316 786 1106 1046 1267 1056 760 392 351 259 290
2177 2499 2486 2240 2394 2351 2000 1720 1568 1752 2081 2267 2400 2499 2812 2801 2742 2769 2734 2743 2619 2387 2008 1784 1818 1946 1716 1568 1638 1791 1867 1858 1739 1412 1330 1278 1075 886 732 714 764 656 599 1220 922 826 586 468 152 215 142 303 496 440 562 312 617 296 1200 1396 740 1872 320
1457 1597 2049 2219 2249 2352 2448 2267 2094 2029 2154 2314 2376 2434 2468 2466 2339 2311 2432 2641 2716 2631 2596 2445 2278 2126 2054 2017 2071 2069 1825 1630 1351 1227 1241 1147 862 720 476 173 0 0 0 101 0 0 0 0 429 268 249 76 48 791 518 584 1385 750 266 78 73 0 0
998 1014 1198 1736 2049 2081 2374 2700 2431 2388 2366 2382 2363 2194 2148 2240 2151 2158 2196 2629 2733 2582 2490 2400 2166 2028 1804 1743 1590 1511 1419 1311 947 966 911 829 634 531 376 0 0 0 0 0 0 0 0 0 0 111 0 0 412 19 166 0 84 268 44 0 0 0 0
100 502 641 713 1232 2035 2441 2519 2337 2402 2324 2317 2318 2201 2195 2010 2138 2166 2044 2400 2490 2431 2258 2044 1714 1469 1562 1403 1240 1145 1134 1356 1424 1441 1368 1161 1054 635 465 277 149 0 0 0 0 0 0 0 0 0 0 0 460 217 10 0 0 0 0 0 0 0 0

ECMWFFLT1_con_mucape_003.txt.gz
CAPE
937 402 673 1137 697 1192 1604 2224 2259 2035 1799 1748 1799 1751 1714 1979 2296 2293 2285 2806 3125 3492 3696 3617 3419 3244 3243 3272 3299 3293 3306 3433 3428 3425 3028 2949 2994 2866 2502 2368 2284 2054 1944 1986 1793 1530 1685 1029 776 428 435 388 354 453 497 360 254 87 94 100 52 124 126
175 290 108 780 943 1038 1553 1979 2323 2250 2097 1775 1636 1872 1850 2081 2162 1985 2297 2776 3158 3376 3752 3774 3679 3383 3413 3485 3349 3276 3302 3345 3446 3389 3048 3076 3096 3086 2680 2496 2351 2021 1925 1852 1720 1520 1234 860 697 612 537 414 366 455 514 477 272 138 87 103 73 80 60
1042 1190 834 548 1144 1263 1762 1782 2058 2132 2230 2044 2030 2075 2162 2448 2250 2286 2604 2890 3093 3215 3415 3788 3875 3719 3516 3646 3392 3377 3326 3278 3420 3271 2969 2828 2967 2657 2438 2387 2044 1901 1687 1570 1494 1414 1215 1197 758 774 611 512 398 445 409 253 171 143 119 140 95 70 152
14 988 900 940 1234 1750 1960 1772 1884 2088 2189 2075 2052 1968 2072 2510 2167 2186 2516 2687 2983 3216 3554 3843 3928 3930 3969 3850 3470 3350 3398 3529 3470 3241 3043 2771 2680 2638 2412 2191 2116 1803 1542 1062 1404 1388 1024 1038 1056 964 799 652 532 534 351 224 177 142 139 180 192 112 116
1 2 330 730 1084 1837 2414 1942 1900 2121 1932 1880 1869 2252 2387 2335 2240 2504 2558 2520 2606 3168 3169 3472 3524 3620 3835 3816 3593 3326 3340 3491 3516 3178 3015 2838 2646 2466 2039 1786 1912 1626 1480 1180 1654 1529 1291 1110 1054 918 782 733 614 518 304 223 186 320 185 178 216 196 94
0 47 834 874 1716 1909 2591 2256 1885 1860 1853 1774 1846 1864 1985 2399 2406 2610 2674 2681 2655 2952 3383 3452 3468 3596 3639 3573 3518 3317 3413 3705 3675 3630 3287 2967 2804 2201 1818 1712 2036 1487 1441 1778 1852 1760 1518 871 841 1096 736 627 490 388 272 245 192 178 238 309 370 144 86
4 179 782 1080 1473 1899 2664 2540 1966 1787 1837 1817 1757 1927 2436 2269 1927 1928 2380 2452 2264 2768 3452 3577 3307 3238 3515 3543 3711 3902 3553 3308 3468 3634 3174 2836 2600 2453 1920 1870 1994 1732 2362 2801 2553 2259 1764 1408 1145 1168 996 769 709 541 564 637 441 292 296 582 631 720 357
6 232 794 1059 805 1750 2617 2696 2094 1655 1715 1713 1788 2358 2270 1768 1480 1673 2090 2326 2218 2145 3216 2266 2940 3247 3660 3793 3534 3554 3730 3443 3241 3422 3336 2900 2890 2177 2115 2326 2059 2004 2852 2618 2426 2314 1687 1557 1044 976 1040 814 889 1074 966 1074 827 422 290 426 518 381 327
9 366 967 569 979 1084 2210 2498 2216 1854 1816 1770 1538 1719 1582 1519 1532 1534 1855 2182 2182 1907 2356 2291 1997 2660 3767 4058 4001 3970 3938 3647 3488 3535 3262 2395 2167 2253 2710 2578 2619 2672 2508 2320 2286 2310 1927 1713 1372 1445 1229 978 932 1029 793 844 686 526 381 287 272 270 219
1015 788 735 755 797 514 1726 2307 2463 2359 2116 1874 1581 1856 1710 1618 1384 1370 1526 1669 1602 1628 1675 1777 1768 1826 3154 3824 4053 4086 4254 4297 3718 3114 2821 2608 2879 3109 2558 3337 2583 2282 2358 2218 2422 2144 2283 2174 1660 1640 1500 1139 1008 904 963 940 676 630 374 178 105 164 264
781 1713 1904 1572 1866 1537 2011 2201 2741 3080 2508 2112 1807 1198 1841 1701 1431 1549 1378 1183 1114 1432 1423 1066 1058 992 1984 3105 4148 4167 4566 3924 3533 3333 3131 2959 2678 2596 3171 2624 2097 1770 1924 2006 1736 1610 1946 1961 2022 2110 1904 1500 1400 1386 1424 1106 999 766 263 68 55 112 256
1227 1006 1441 2597 2823 2305 2392 3128 3834 4782 3864 2593 2092 1040 2078 2303 1485 1028 1136 1228 1051 1059 1046 1160 1260 1018 1265 2949 4094 4123 4290 4431 3339 3820 3601 2572 2231 2707 2993 2300 1703 1716 1548 1251 888 1568 1772 1776 1683 1682 1907 1805 1766 1718 1496 1150 958 558 197 32 77 160 280
221 1652 1650 2098 3223 3095 3600 4191 3949 4233 4653 2910 1539 1239 1582 1770 1444 1150 1788 1596 1122 1053 1149 1674 1944 1834 1344 1844 3419 3880 4166 4106 3969 4279 3666 3154 3018 3241 2819 2207 1905 1747 1468 1383 1431 1464 1534 1326 1288 1226 1556 1580 1548 1417 1368 937 446 200 92 151 256 330 453
406 967 2870 3738 3482 3424 3528 4146 4345 4374 4356 3004 2081 1792 1490 1744 2008 1727 1741 1634 1506 1089 1359 2325 1811 1435 1718 2796 4323 4503 4560 4036 4188 3782 3781 3283 3634 3237 2655 2341 2095 1982 1952 2012 1924 1282 1112 1018 1031 1157 1030 1006 906 722 448 190 98 62 42 103 307 484 566
770 1159 2182 3654 3898 3885 3703 3434 3944 4202 3612 3384 2660 2209 1822 1917 2436 2658 2337 1770 2246 1479 2024 1998 2362 2320 1893 2721 3750 4166 4769 4829 4276 4088 3922 3791 3450 2940 2336 2301 2588 2685 2706 2252 1650 1096 951 793 805 766 522 451 307 147 143 119 176 144 59 68 373 608 564
0 1128 2539 2594 3709 3456 3768 3672 3732 3900 4234 4430 3405 3234 2780 3104 3628 2976 2676 2240 2046 2212 2117 2043 3231 3401 2630 2139 3226 4244 5476 5188 4461 4335 4068 4106 3664 3057 2478 2255 2360 2329 2432 2092 1584 1186 1037 812 795 714 464 494 448 270 128 146 176 46 0 64 362 771 887
0 0 0 30 731 3299 3997 4104 3965 4114 4452 4832 4561 4364 4204 3860 3431 2998 2894 3075 3178 3438 2446 2068 4301 4420 3976 3820 3766 4510 5106 4876 4355 4113 3815 3370 3074 2720 2746 2622 2628 2598 2342 2054 1932 1651 1505 1363 1439 912 635 554 593 438 419 357 64 0 0 19 568 912 1105
0 2 0 0 902 3198 4386 4452 4737 5181 5197 5096 4822 4761 4471 4684 4311 4152 3812 3822 3690 3545 2784 3483 3520 3612 4174 3939 5016 5596 4798 4153 3890 3706 3412 3002 2701 2493 2484 2570 2626 2473 2372 2140 1905 2060 1883 1793 1624 857 381 382 442 534 527 228 73 0 0 441 642 941 1068
0 1 0 1784 2000 2848 3771 4303 4716 5700 5616 5382 4775 4727 4601 4857 4583 4572 4072 4542 4401 4393 3740 3334 3632 4419 4224 5337 5268 4435 4470 4212 3951 3664 3377 3186 2988 2767 2622 2540 2442 2366 2290 2226 2087 1904 1893 1720 1392 854 462 518 597 469 350 195 0 0 376 578 641 619 738
0 0 0 1138 1934 1454 3165 4431 4452 5506 5764 5493 4915 4626 4860 5114 4890 4839 4516 4616 4574 4446 4555 4679 4744 5241 5219 5178 5002 4270 3943 3836 3607 3386 3190 3083 2938 2873 2776 2614 2558 2459 2378 2240 2046 2045 1802 1485 1262 1024 801 765 704 448 272 340 61 0 298 505 523 499 542
107 34 1866 1606 1417 1481 2927 4258 4360 5090 5556 5457 5035 4690 5246 5397 5301 5324 4659 4647 4678 5162 5558 5350 5550 5411 4979 4772 4611 4608 4365 3932 3532 3195 3135 3335 3178 2832 2652 2600 2542 2492 2331 2085 1742 1703 1580 1344 1134 1051 995 775 632 550 360 179 84 0 0 128 307 293 232
119 1386 1943 1607 3066 3531 3872 3946 4232 4148 4970 4776 4695 4962 4987 5348 5186 5007 3990 4121 4907 5252 5343 5528 5829 5173 4962 4538 3982 3957 3664 3428 3316 3268 3366 3293 3244 3161 3067 2887 2482 2356 2116 1821 1502 1566 1453 1204 804 797 921 867 691 647 535 346 0 0 0 12 282 202 102
159 141 412 1728 2195 2984 3531 4116 4014 4172 5368 4965 4496 4428 5052 5153 4630 4049 4286 4981 5224 5622 5509 5571 5293 5031 5380 4820 4046 3796 3622 3456 3358 3423 3330 3449 3399 3130 2876 2782 2911 2667 2394 1761 1330 1110 1101 1048 829 1016 1058 990 925 778 789 398 205 0 0 22 131 81 473
272 137 128 1000 1949 2411 4316 4404 4336 4779 5014 4768 4906 5220 4832 4588 5257 5284 5544 5505 5570 5791 5722 5483 5380 5442 5328 4730 4296 3879 3426 3113 2764 2946 3022 2908 2928 2914 2886 2782 2643 2526 2112 1932 1388 1020 796 935 1010 1099 1137 1018 947 756 646 473 892 0 0 160 158 80 574
204 34 578 1492 2088 3056 3902 3741 3822 4041 4540 4450 4220 4601 5341 5475 5340 5405 5386 5519 5767 5862 5509 5132 4891 4633 4420 4386 3890 3476 3344 2842 2894 3070 2804 2650 2627 2474 2323 2153 2079 1886 1821 1534 1593 1484 1143 712 710 669 759 482 751 488 560 390 1439 279 198 212 0 0 673
524 502 903 1020 1840 2920 3796 4086 4222 4341 4326 4751 5082 4611 4906 4800 5185 5281 5494 5753 5693 5341 5318 5143 4994 4502 4193 3595 3216 3408 3108 3042 3121 2889 2720 2700 2553 2398 2280 2003 1836 1416 1562 1477 1311 1085 1032 879 818 909 832 642 884 840 574 424 927 503 228 0 0 0 933
1286 1010 1081 1817 2641 3506 3972 4028 4076 3928 4074 3997 4491 4317 4700 5016 4972 5185 5452 5489 5470 5357 5203 5008 4498 4052 3780 3504 3188 2714 2860 3074 2867 2972 2938 2684 2486 2055 1874 1625 1754 1616 1586 1518 1260 847 1203 936 814 887 797 495 754 473 535 560 570 518 0 0 0 0 278
1558 1455 1985 2424 3293 3372 3440 3295 3418 3096 3489 4111 4218 4163 4277 4707 5158 5490 5491 5295 5367 5241 4936 4551 4258 4060 3708 3435 3238 3050 2910 2764 3012 2800 2839 2654 2541 2309 1616 1440 1719 1811 1846 1500 1197 966 950 864 851 718 605 462 406 193 405 430 555 1685 0 0 0 0 0
2049 1952 2273 3255 3354 3387 3164 3270 3219 3280 3892 3671 4090 4470 4630 5147 5392 5294 4852 4704 4388 4504 4879 4496 4335 3950 3576 3324 3114 2850 2699 2698 2710 2532 2562 2688 2681 2348 1921 1545 1744 1864 1758 1197 1032 1020 966 733 541 222 253 381 414 293 500 964 861 290 0 0 0 0 0
2908 3182 3733 3486 3206 3014 2694 3550 4485 4150 3696 3380 3520 3300 3813 4505 4315 3936 4052 4440 4323 4530 4422 4218 4022 3642 3267 2892 2679 2320 2177 2526 2583 2620 2403 2506 2408 2104 1706 1603 1640 1612 1388 919 609 502 567 596 457 280 210 185 174 247 235 791 1294 171 0 0 0 0 0
2988 2630 2386 2480 2720 3725 3846 3648 3639 3462 2894 2346 1887 1909 2505 3243 4067 4014 3934 4015 4458 4205 4002 3867 3628 3324 2992 2689 2385 2358 2432 2573 2439 2452 2480 1966 1751 1562 1472 1363 1190 1103 860 563 344 425 578 583 450 512 340 216 211 205 252 579 1256 710 0 0 0 0 0
1642 1856 2003 2320 2774 2970 3381 3567 3733 3863 3967 4119 4335 4844 5122 4387 4040 4278 4471 4615 4527 4317 4138 3738 3400 3039 2781 2640 2486 2543 2329 2607 2472 2302 1908 1940 1911 1614 1185 1155 912 781 602 300 222 414 578 693 477 405 296 218 152 145 333 461 644 646 4 0 0 0 0
1774 1238 1303 1320 1652 1670 1878 2120 2180 2236 2273 2502 3156 3525 4000 4541 4934 4931 4776 4516 4390 4100 3653 3124 2802 2674 2766 2844 2725 2681 2528 2271 2067 1655 1400 1455 1476 1614 1332 789 669 619 477 218 196 355 545 474 268 129 42 60 22 34 157 357 358 627 608 29 1 0 0
2589 1802 1396 1503 1664 1758 1614 1556 1843 2283 2316 2037 1810 2190 3149 4029 4080 4008 3990 3768 3448 3228 3148 2994 2753 2730 2778 2730 2663 2511 2228 1764 1368 1370 1237 1253 1126 1056 798 510 386 397 472 328 394 432 348 234 70 27 89 98 112 173 257 466 708 779 519 722 806 528 124
3183 3045 2127 1514 1501 1806 2093 2325 2538 2750 3042 3295 3500 3545 3508 3518 3596 3727 3730 3582 3367 3224 2933 2553 2200 2553 2436 2403 2380 2164 2037 1516 1287 1363 1204 1304 1179 1714 1585 1530 584 585 756 1488 1434 1103 471 604 323 323 242 215 252 300 295 522 654 964 556 1616 421 430 224
1994 2324 2304 1905 1732 2111 2570 2906 3115 3171 3199 3225 3340 3483 3545 3477 3408 3244 3019 2988 2648 2769 2566 2564 1978 2256 1955 1745 1652 1839 1561 1285 1177 1133 1106 836 950 498 454 466 536 616 1374 461 0 0 0 0 197 129 219 513 570 385 712 603 220 1118 591 532 219 0 6
1567 1906 2102 2277 2269 2224 2341 2466 2664 2879 2838 2910 3093 3179 3228 3290 2979 2772 2412 2451 2699 2542 2818 2475 2079 1962 1892 1555 1482 1351 1246 1161 1266 1345 1317 1025 817 757 676 557 457 462 375 218 0 0 0 0 0 0 0 13 334 4 0 290 256 275 33 106 210 0 0
920 1034 1382 2141 2534 2522 2402 2364 2600 2756 2660 2665 2775 2789 2814 2716 2835 2770 2486 2786 2500 2280 2582 2472 2292 2167 2019 1582 1441 1353 1434 1242 1033 946 1104 1024 939 862 746 644 544 426 298 0 0 0 0 0 0 0 0 112 186 16 79 168 297 297 237 234 0 0 0

ECMWFFLT1_con_mucape_006.txt.gz
CAPE
388 666 540 834 823 1342 1241 1556 1825 1888 2086 2510 2542 2412 2070 2365 2566 2751 2955 3736 3952 4219 4233 4252 4078 3908 3728 3520 3684 3863 4014 3988 3962 3870 3586 3458 3094 3491 3518 3067 2802 2880 2700 2540 2544 2359 2277 2170 1816 1488 1116 975 964 919 1184 760 1025 716 762 672 417 649 230
226 573 802 823 940 912 1306 1522 1671 2330 2266 2533 2659 2689 2325 2363 2721 2845 3010 3699 3947 4182 4264 4354 4173 3916 3649 3487 3565 3908 3991 3985 3977 3815 3665 3888 3683 3613 3355 3082 2822 3028 2966 2591 2772 2583 2007 1786 1553 1229 1306 1202 976 1145 926 1199 926 688 529 637 603 532 625
208 1079 1300 1324 1339 1337 1366 1256 2029 1744 1827 2075 2270 2389 2352 2466 2746 2915 3186 3736 4032 4248 4317 4299 4160 3910 3685 3686 3546 3838 3989 3966 4046 3937 3624 3698 3354 2661 2967 3190 2972 2965 2700 2828 2397 2218 1825 1582 1423 1262 1060 924 760 1164 992 1024 882 710 763 706 530 751 493
524 1420 1079 808 923 1250 1430 1428 2020 2312 2175 2196 1809 1798 2218 2606 2730 2868 3279 3568 3931 4197 4293 4185 4098 3862 3815 3878 3721 3826 3902 3956 4039 3688 3308 3154 3251 3040 3067 3214 2890 2528 2548 2015 2015 1689 1322 1474 1168 1400 1498 1089 1080 894 876 785 594 646 604 899 807 573 632
1136 748 451 644 792 1426 1766 1778 1824 2160 2008 1814 1648 1553 2280 2696 2733 2650 3270 3257 3357 3736 3968 3921 3501 3531 3718 3863 3697 3755 3776 3889 3963 3621 3395 3133 3343 3113 2905 2466 2600 2012 2224 1875 1818 1772 1677 1600 1077 1313 1240 1391 1089 908 799 830 629 700 582 744 1002 676 790
651 368 733 868 951 1364 1634 1353 1088 1166 1331 1952 1902 2096 2182 2280 2200 1868 2317 2872 3051 3275 3795 3799 3720 3681 3663 3645 3556 3624 3713 3845 3951 3801 3437 3401 3321 3104 2751 2457 2325 1916 1994 1698 1883 1828 1754 1327 1396 1176 1213 1130 634 742 673 625 525 643 734 619 643 583 422
420 542 670 608 604 875 1667 1670 1264 979 1171 1961 2170 1873 1861 1950 1945 1798 1784 2174 2452 2981 3266 3526 3460 3395 3681 3452 3688 3779 3752 3729 3883 3791 3504 3416 3360 2953 2687 2411 2293 1900 1695 1760 1708 1788 1627 1450 1519 1381 1245 786 748 632 560 572 484 578 758 703 737 750 606
1119 1120 1146 1072 725 557 1023 1608 1509 1193 1217 2290 2170 2055 1892 1765 1778 1825 1810 1844 1972 2481 2796 3367 3508 3665 3816 3712 3828 3756 3740 3477 3814 3773 3577 3327 3281 2812 2564 2401 2391 2224 1856 1785 2011 1818 1687 1718 1520 1450 1247 849 916 878 748 753 822 529 763 862 828 586 554
370 847 1073 534 168 191 770 1350 1404 1573 2020 2395 2427 2475 2031 1849 1902 1895 1780 1721 2052 2524 2900 2767 3157 3205 3945 3874 3850 3880 3766 3505 3662 3677 3508 3163 2973 2508 2338 2581 2442 2091 1895 1570 1986 1919 1884 1877 1429 1415 1283 1010 991 1038 971 1078 948 540 529 740 848 696 408
2485 317 353 221 139 398 1384 2089 2435 2319 1866 2254 2505 2678 2579 2482 2467 1970 1832 1713 2004 2482 2974 3015 2885 3239 3888 3862 3849 3820 3773 3650 3553 3254 3027 2792 2663 2188 2067 2132 2021 2000 2103 2002 2029 2151 2330 2332 1421 1446 1365 1200 1275 1166 1004 1206 1046 765 730 769 816 729 713
1866 1588 1474 1278 1375 1619 1933 1869 2632 2562 2443 2866 2661 2499 2606 2458 2367 1964 1812 1697 1953 2042 2272 2433 2672 2732 3377 3354 3316 3268 3722 3536 3442 3339 3080 2644 2392 2138 1770 1733 1584 1763 2572 2662 2343 2667 2872 2618 1606 1552 1451 1321 1556 1364 1204 1271 1148 1040 746 755 684 715 612
2095 1841 1668 1441 1713 1710 1274 1907 2151 2390 2466 2630 2890 2548 2586 2548 2489 2112 2100 2215 2087 1996 1996 2410 2638 2581 3017 2986 2910 3296 3504 3470 3148 2997 3102 2818 2622 2235 1974 1773 1698 1896 2167 2386 2620 2911 3002 2488 1764 1787 1598 1331 1339 1239 1227 1249 1214 1040 724 498 392 351 292
1707 2008 1536 1612 2074 2357 2073 2347 2340 2358 2431 2242 2498 2710 2726 2658 2444 2494 2663 2530 2271 1968 2034 2730 2729 3216 2750 2771 2774 3293 3282 3366 3286 3330 3310 3207 2987 2765 2317 1863 1719 1834 2320 2336 2552 2577 3134 2460 2062 1766 1405 1239 1068 1012 1098 1268 1191 1094 909 542 287 244 254
2469 2508 2498 2480 2512 2597 2667 2700 2585 2289 2481 2793 2980 2769 2855 2890 2724 2535 2278 2165 2239 1985 1937 2216 2759 2446 2343 2821 3011 3465 3468 3376 3543 3524 3421 3262 3132 2804 2414 2234 2278 2394 2620 2321 2212 2517 2880 2599 2159 1829 1563 1304 1249 1082 1212 1443 1250 1219 986 486 249 293 351
1472 1441 2350 2582 3310 2707 2518 2652 2680 2665 2755 3332 3143 2700 2648 2656 2492 2266 2338 2053 2025 2008 1962 2099 2183 2346 2518 2955 3285 3672 3762 3792 3914 3877 3738 3233 2884 2897 2758 2608 2866 3224 2960 2507 2279 2664 2602 2458 2361 2029 1773 1736 1680 1547 1571 1310 991 980 738 385 256 280 345
80 285 1212 3289 4002 4911 4862 4222 4147 4378 4502 4207 3265 2669 2257 2333 2327 2142 2222 2098 1971 1820 1831 2061 2140 2186 2230 2553 3029 3706 4132 4293 4340 4260 4050 3608 3172 3100 3169 2845 2913 3196 3046 2671 2461 2375 2300 2079 1886 1765 1660 1919 1792 1555 1541 1256 994 717 360 164 222 283 349
38 59 6 1949 3826 3699 4676 5294 5814 6693 6039 4755 3402 2663 1893 2231 2354 2424 1757 1639 1618 1665 1573 2206 2266 2110 1973 2096 2559 3660 4442 4662 4738 4614 4338 4018 3632 3308 3270 3322 3347 3138 2930 2708 2670 2470 2034 1674 1510 942 998 1530 1183 1127 997 994 547 18 0 0 52 240 395
29 291 376 2572 2857 3045 4770 5162 5242 5670 6186 5393 4144 2893 2152 2200 2376 2433 1729 1602 1468 1210 1385 2435 2587 2513 2271 2451 3096 4368 4694 4762 4881 4764 4670 4428 4127 3819 3644 3587 3466 3244 3032 3175 3202 2559 1931 1539 1090 719 744 1019 711 833 886 739 421 211 0 0 0 152 505
54 42 1886 1088 1994 3940 4131 4088 4459 5043 5168 4753 4176 3327 2576 2267 2442 2419 2022 1747 1575 1535 1316 2804 2844 2583 2512 2472 3275 4826 4929 4948 5082 4930 4767 4658 4429 4302 4208 3857 3687 3696 3701 3387 2980 2356 1914 1195 1223 1321 1472 1549 1376 1101 983 900 504 220 0 0 0 8 404
186 108 156 1008 1075 2114 3489 4053 3566 4091 4689 4466 4433 3695 3064 2406 2393 2581 2406 2192 2057 1955 1684 2758 2964 2938 2658 2657 3254 3977 4706 4878 5227 5128 4985 4776 4843 4783 4314 3848 3592 3338 3197 2977 2722 2573 2178 1540 1550 1686 1867 1901 1621 1402 1305 998 591 252 0 0 0 0 121
500 377 674 769 3040 2474 4005 5179 4977 4665 4628 3960 3543 3692 3600 3201 2836 2969 2885 2732 2634 2435 2361 2470 3680 3566 3334 3229 3917 5094 6050 5442 5810 5327 5168 5249 4842 4367 4146 3840 3655 3391 3151 2503 2442 2499 2432 2152 2154 2022 2114 2021 1902 1682 1376 874 480 90 0 0 0 0 21
151 327 343 183 2021 2503 4844 5002 5060 4391 5113 4286 4695 4334 3840 3357 2691 2463 2416 2339 3079 3140 3018 3199 4955 5531 4464 4051 5989 6418 5964 5852 5785 5206 4826 4516 4378 4264 4046 3764 3552 3284 3210 2917 2615 2481 2462 2466 2375 2328 2241 2125 1931 1653 1228 760 404 93 0 0 0 0 166
0 0 0 238 994 3447 5495 4580 5190 4189 5730 5770 4792 4717 4277 3858 3616 3250 3014 2722 3053 4353 4226 4253 5357 5587 5924 6752 5967 5738 5466 5282 5074 4740 4524 4365 4140 4078 3946 3756 3629 3568 3488 3119 2833 2689 2622 2532 2443 2370 2283 2186 1866 1482 1082 793 539 174 0 0 0 0 512
0 10 24 30 150 2607 4755 4834 5093 4692 5248 5698 5227 4509 4697 4267 4469 4351 4289 3944 4388 4758 4785 5259 7069 6216 6129 5990 5496 5249 5086 4990 4792 4625 4509 4308 4223 3935 3792 3807 3887 3900 3365 3188 2947 2781 2619 2468 2420 2282 2111 1910 1698 1407 1138 900 626 395 202 0 0 88 655
0 0 0 40 139 1761 3780 4209 3821 3490 4074 4423 4710 4784 5168 5054 4872 5019 4965 4639 4863 5305 5301 6058 6355 5894 5792 5616 5456 5321 4997 4548 4434 4331 4240 4132 4032 3917 3900 3787 3703 3533 3364 3150 2927 2753 2582 2416 2260 2019 1857 1614 1471 1250 1151 925 669 489 351 14 0 25 653
131 0 43 103 9 43 2655 4921 4802 3685 3589 4154 4934 5487 5693 5435 5587 5622 5440 5168 5399 5237 5419 5856 5970 5580 5484 5243 4891 4840 4581 4477 4434 4317 4208 3967 3970 3832 3793 3618 3520 3431 3148 2698 2525 2492 2389 2177 1453 1414 1114 1058 1334 1280 839 863 781 470 407 318 0 1 803
894 318 159 5 106 244 5105 5295 4857 4481 2989 3640 5385 5390 5715 6065 6116 5995 5590 5786 5761 5373 5113 5869 5776 5420 5073 4651 4630 4396 4191 4043 4066 4066 3947 3918 3921 3561 3253 2977 2998 2780 2708 2402 2085 2172 2059 1854 1246 1004 870 805 728 725 984 961 1266 798 570 392 0 0 130
990 591 543 501 1871 2654 4973 4107 4786 4724 4118 5460 6148 5700 5994 6312 6107 6220 6202 6135 6064 5930 5660 6023 5676 5396 5043 4748 4611 4364 4287 4142 3916 3810 3782 3497 3297 3340 2908 2526 2494 2164 1959 1835 1658 1906 1919 1727 1200 1049 1211 1186 1085 1348 1285 971 701 543 486 174 0 0 0
1204 719 753 919 2844 3723 4034 4043 3936 3804 4235 5004 5060 5221 6108 6091 6323 6480 6347 6370 5789 5266 5200 4968 4939 4684 4417 4249 4135 4106 4077 3936 3862 3582 3526 3203 3082 3071 2604 2512 2264 1999 1740 1994 1895 2050 1702 1784 1690 1451 1405 1595 1504 1232 1269 1366 828 530 0 0 0 0 0
890 677 427 436 591 3456 3958 4301 4498 4694 4576 4322 4883 5251 5538 5828 6137 5976 5856 5626 5483 4738 4449 4440 4716 4357 3982 3312 3344 3250 3256 3561 3425 3185 2884 2858 2784 2647 2558 2515 2531 2461 2269 2069 2034 2043 1909 1754 1517 1296 1141 679 810 805 1163 1676 1422 153 0 0 0 0 0
2130 1611 1540 1585 1198 2241 2974 4638 4832 4772 4791 4720 4961 5602 5897 6026 5668 5115 5158 5258 4540 4460 4378 4238 3914 3777 3569 3425 3243 3337 3489 3350 3153 2996 2622 2648 2757 2625 2357 2323 2489 2521 2446 1766 1782 1698 1763 1424 1102 946 1030 1017 917 828 1244 1376 1102 313 0 0 0 0 0
2319 2075 2069 1821 1717 1846 1857 3410 4058 4114 4611 4971 5483 5675 5414 5052 4885 4749 5140 4870 4306 4350 4228 3952 3767 3522 3373 3256 3320 3404 3329 3165 3057 2956 2814 2683 2546 2455 2425 2282 2026 2084 2011 1296 1110 1376 1380 1416 740 781 686 794 624 653 988 1561 837 160 0 0 0 0 0
1845 1969 2619 2377 2260 2734 2803 3141 3090 2934 3361 3935 4163 4122 4313 4168 4855 4795 4543 4085 3749 3650 3667 3294 3088 2881 3007 3036 2899 2889 2882 2794 2518 2481 2410 2262 2059 1931 1921 1823 1406 1413 1148 841 664 912 1112 802 758 664 474 608 553 559 989 1529 1190 604 376 0 0 0 0
1280 1604 1660 2194 2486 2536 2393 2486 2553 2283 2457 2952 3018 3709 3517 3762 4090 4166 4052 3807 3980 3555 3352 3063 2857 2737 2687 2556 2540 2524 2418 2307 2277 2385 2290 2266 2036 1700 1461 1273 1257 1036 958 641 720 874 908 771 759 585 404 447 294 486 1056 876 1199 804 313 18 0 0 0
1212 1421 1252 1208 1608 2076 2704 2717 3151 3014 2670 2320 2884 3518 3626 3793 4559 4267 4156 3841 3277 3065 2759 2501 2405 2537 2337 2255 2305 2260 2110 2175 2177 2158 2307 2168 2012 1698 1503 1643 1360 910 368 254 45 644 578 832 514 424 123 50 141 324 727 514 883 1088 470 179 17 28 1
1204 1206 1513 1457 1585 1916 1866 1822 1844 2036 2579 2902 3466 3930 4120 4337 4072 3783 3426 3095 2790 2762 2720 2692 2527 2516 2392 2303 2204 2095 1891 1997 1883 1856 1986 1960 1672 1348 1248 1081 800 707 460 316 35 0 323 661 146 192 610 580 1 536 205 757 771 742 534 202 381 0 0
1211 1222 1350 1573 2443 2600 2456 3006 3232 3560 3603 3580 3641 3622 3575 3576 3420 3548 3179 3245 2881 2661 2872 2842 2662 2363 2091 2148 1976 1863 1689 1557 1527 1646 1500 1481 1526 1335 1229 997 825 594 432 238 0 335 0 0 0 0 0 808 273 0 0 365 342 95 528 545 569 529 317
956 1366 1600 1745 2072 2574 2822 2816 2951 3072 3349 3410 3469 3359 3150 2447 2575 3200 3033 3042 2772 2736 2938 2852 2645 2387 2100 2050 1869 1685 1610 1466 1506 1536 1668 1185 1116 1114 1032 868 609 555 417 344 181 0 0 0 0 0 0 0 0 0 0 0 151 540 527 665 704 356 0

ECMWFFLT1_con_mucape_009.txt.gz
CAPE
38 15 309 390 380 629 695 1034 1223 1328 1430 1636 1750 1702 1674 1709 1826 2092 2434 2610 2726 2806 2838 2815 2825 2861 2855 2723 2656 2673 2770 2763 2788 2658 2300 2127 2194 2056 1967 2045 2037 1925 1877 1898 1744 1826 1742 1586 1483 1164 1087 600 409 198 174 95 234 60 44 321 110 20 54
113 183 253 374 500 466 758 1031 1267 1320 1358 1522 1755 1785 1695 1674 1746 1995 2450 2690 2845 2941 3029 2941 2951 2909 2877 2855 2720 2689 2822 2874 2821 2741 2412 2304 2031 2272 1897 1972 1925 1830 1730 1877 1706 1815 1695 1592 1355 1080 1088 236 107 132 30 19 128 53 14 35 40 120 12
271 385 394 430 740 693 933 1157 1348 1386 1397 1443 1649 1777 1732 1668 1624 1887 2354 2760 2909 3072 3172 3111 3016 2954 2840 2878 2802 2690 2810 2960 2885 2747 2577 2422 2150 2389 1964 1914 1952 1799 1781 1815 1676 1776 1586 1571 1312 1184 999 183 102 169 10 76 145 33 57 19 29 77 30
391 542 590 641 823 822 974 1281 1358 1411 1433 1426 1531 1708 1715 1658 1558 1830 2291 2755 2961 3104 3262 3218 3109 2998 2809 2772 2821 2750 2775 2935 2923 2767 2644 2470 2293 2400 2161 1888 2018 1781 1861 1753 1799 1408 1574 1488 1368 1129 809 569 170 129 68 126 121 62 64 17 56 43 4
301 614 660 700 839 891 863 1125 1352 1343 1363 1412 1434 1565 1650 1584 1521 1833 2239 2714 2938 3126 3262 3242 3153 3048 2908 2707 2712 2814 2824 2913 2898 2778 2668 2448 2401 2367 2234 1963 1980 1871 1908 1758 1815 1465 1416 1412 1262 1089 718 346 276 152 200 167 135 110 123 10 7 75 10
78 272 546 761 804 885 977 944 1024 1244 1299 1309 1332 1443 1517 1512 1594 1894 2135 2675 2905 3090 3234 3244 3165 3076 2971 2787 2666 2800 2876 2932 2898 2800 2691 2478 2404 2344 2217 2036 1956 1889 1992 1877 1702 1595 1277 1045 1146 978 562 307 339 208 246 171 141 111 148 178 53 46 30
35 68 211 645 812 863 967 1003 967 971 1114 1261 1386 1787 1808 1703 1765 1931 2130 2535 2903 3064 3205 3257 3206 3104 2991 2868 2670 2737 2898 2908 2914 2839 2703 2506 2447 2276 2152 2140 1993 1852 1913 1922 1679 1567 1444 1089 809 635 447 374 332 237 257 200 151 110 75 144 320 76 69
1 44 288 536 662 679 708 765 818 907 988 1140 1344 1758 2082 1939 1886 1972 2139 2422 2822 3065 3184 3251 3235 3124 3034 2899 2724 2656 2825 2906 2875 2891 2716 2534 2442 2276 2070 2158 2007 1847 1784 1793 1701 1530 1419 1249 902 648 546 476 270 205 221 226 180 136 100 78 84 180 183
3 152 539 766 814 812 800 804 791 774 1086 1124 1181 1606 2008 2097 2044 2050 2140 2367 2743 2978 3139 3231 3229 3144 3035 2931 2803 2668 2729 2812 2863 2870 2780 2574 2440 2376 2166 2087 1998 1849 1700 1602 1496 1439 1366 1191 930 722 597 486 314 211 209 338 262 174 160 119 66 99 186
141 442 684 848 884 865 793 847 932 952 1347 1388 1306 1488 1795 2075 2126 2088 2106 2287 2579 2851 3075 3186 3184 3093 3012 2939 2868 2772 2741 2744 2780 2845 2801 2628 2474 2427 2313 2122 2001 1857 1679 1535 1438 1344 1259 1120 900 786 661 495 381 337 292 276 278 217 199 172 155 90 114
220 508 583 727 765 794 735 827 1054 1173 1422 1541 1508 1640 1776 1914 2030 2037 2036 2122 2366 2625 2951 3090 3117 3048 2986 2938 2875 2850 2806 2747 2721 2765 2805 2659 2528 2469 2371 2213 2055 1906 1751 1602 1497 1400 1284 1084 967 876 725 563 413 323 291 303 194 177 221 238 241 162 124
329 369 453 613 630 585 589 1026 1154 1188 1279 1403 1487 1685 1737 1761 1816 1855 1872 1885 2059 2286 2616 2877 2991 2984 2978 2898 2850 2850 2852 2790 2720 2731 2773 2690 2548 2498 2374 2230 2081 1941 1805 1637 1522 1433 1312 1283 1113 982 858 691 562 471 329 360 262 189 168 250 278 229 173
446 453 535 551 511 529 725 1076 1246 1236 1202 1305 1674 1999 1830 1797 1842 1854 1821 1817 1747 2011 2244 2580 2854 3006 2971 2911 2831 2834 2876 2803 2714 2699 2746 2740 2583 2461 2369 2188 2045 1931 1837 1689 1526 1406 1293 1361 1226 1065 959 805 671 532 380 426 408 286 158 175 229 245 202
816 477 534 670 724 827 1091 1246 1252 1311 1406 1471 1742 2131 2158 2077 1989 1945 1946 1951 1891 1800 2010 2306 2644 2925 3026 2933 2822 2806 2883 2868 2730 2667 2691 2729 2660 2485 2360 2206 1982 1899 1823 1721 1579 1444 1433 1531 1400 1199 1030 888 747 610 480 446 502 349 217 242 280 276 134
726 621 810 1190 1098 1134 1392 1494 1520 1565 1650 1801 1967 2142 2257 2169 2123 2056 2050 2014 1957 1867 1804 2383 2620 2760 2949 2998 2855 2772 2846 2912 2839 2734 2712 2721 2682 2528 2362 2212 2023 1867 1781 1682 1598 1454 1538 1754 1645 1382 1204 1060 894 712 584 457 571 473 287 305 249 41 32
975 982 1114 1254 1267 1228 1421 1596 1693 1773 1785 1869 2098 2229 2356 2274 2187 2126 2056 2020 1982 1980 1921 2372 2616 2669 2809 3019 2910 2744 2745 2863 2874 2790 2772 2772 2714 2600 2436 2261 2051 1857 1749 1653 1588 1684 1773 2032 1913 1665 1455 1268 1085 886 702 580 648 669 400 345 289 193 177
1020 1015 966 1097 1128 1162 1278 1521 1672 1791 1871 1853 1939 2165 2341 2375 2253 2157 2092 2050 2061 2029 1903 2177 2492 2606 2684 2944 2957 2779 2689 2765 2816 2790 2777 2791 2790 2725 2569 2408 2217 1993 1757 1596 1600 1702 1859 2201 2181 2026 1814 1571 1328 1108 881 670 726 703 621 315 475 286 0
986 1054 918 1188 1272 1061 1128 1380 1549 1649 1844 1924 1957 2195 2319 2308 2305 2244 2172 2143 2097 2007 1868 1879 2255 2460 2538 2706 2884 2832 2706 2734 2820 2824 2773 2778 2829 2812 2732 2582 2423 2241 2001 1851 1876 1800 1906 2202 2261 2179 2029 1844 1602 1334 1046 669 480 638 519 526 380 0 61
862 1192 992 1130 1438 1227 1012 1222 1415 1646 1706 1892 2017 2058 2286 2387 2276 2220 2154 2078 2001 1917 1837 1926 2105 2438 2570 2551 2659 2744 2699 2717 2791 2869 2845 2825 2826 2835 2820 2732 2592 2415 2196 2244 2176 2036 2018 2162 2191 2150 2022 1850 1664 1464 1207 974 836 674 616 477 332 108 6
722 1292 1588 1878 1755 1549 1434 1470 1599 1708 1759 1858 2054 2165 2102 2273 2323 2198 2137 2132 2101 2042 2060 2075 2077 2223 2532 2590 2587 2609 2640 2740 2794 2862 2932 2928 2883 2835 2815 2776 2696 2577 2426 2352 2464 2336 2226 2156 2158 2151 2071 1959 1846 1703 1369 1320 1256 1213 1181 856 320 311 0
265 154 1551 1974 2250 2341 2154 2192 2239 2253 2161 2110 2262 2341 2245 2121 2189 2263 2158 2077 2044 2062 2086 2082 2096 2059 2219 2475 2557 2563 2609 2772 2852 2901 3018 3079 3048 2933 2817 2770 2726 2654 2546 2393 2522 2566 2514 2466 2409 2322 2186 1937 1826 1827 1718 1651 1636 1479 1237 1041 936 356 398
198 430 668 2413 2657 2746 2855 3212 3419 3602 3615 3553 3123 2589 2300 2130 2122 2154 2164 2084 2020 1954 1947 1931 1927 1944 1919 2156 2346 2435 2493 2713 2906 3016 3172 3283 3260 3160 2992 2801 2682 2724 2748 2639 2577 2523 2462 2424 2332 2250 2143 2033 1892 1887 1952 1896 1844 1758 1640 1636 1505 1184 732
78 494 491 292 2097 3254 3177 3434 3677 3985 4288 4304 3976 3252 2555 2222 2082 2055 2076 2045 2009 1964 1862 1739 1612 1735 1836 1908 1982 2067 2188 2558 2959 3207 3398 3486 3477 3406 3313 3190 2944 2929 2887 2792 2727 2687 2634 2555 2397 2319 2252 2187 2244 2177 2124 2032 2022 2059 1936 1826 1674 1541 939
0 0 0 0 576 956 2260 3228 3306 3268 3554 4074 4112 3689 3150 2689 2348 2107 1968 1916 1886 1849 1764 1597 1425 1595 1693 1748 1765 1788 1940 2470 3027 3376 3580 3670 3689 3654 3584 3469 3314 3133 2985 2882 2804 2734 2666 2525 2404 2437 2181 2202 2316 2364 2374 2337 2234 2150 1931 1643 1656 1514 1311
126 0 0 0 0 409 1508 2689 3294 3261 3251 3425 3605 3675 3361 2859 2502 2210 1999 1826 1732 1607 1489 1351 1249 1659 1748 1657 1633 1646 2085 2837 3264 3540 3709 3826 3861 3836 3754 3649 3544 3400 3242 3096 2963 2873 2783 2719 2940 2964 2596 2408 2499 2502 2372 2304 2088 1842 1839 1676 1514 1349 1155
508 585 486 215 0 314 1196 2136 3052 3295 3302 3221 3152 3208 3367 3177 2662 2202 1916 1726 1551 1410 1274 1196 1169 1670 1844 1784 1708 2006 2780 3360 3604 3767 3863 3922 3966 3907 3853 3761 3694 3599 3497 3401 3297 3209 3118 3090 3274 3084 2696 2561 2521 2520 2294 2064 1920 1737 1648 1402 1192 1092 887
1047 716 339 891 2516 1998 2543 3306 3468 3669 3771 3715 3512 3310 3258 3150 2912 2529 2068 1689 1485 1389 1292 1151 1002 1566 2262 2543 2798 3160 3458 3661 3770 3839 3902 3967 3954 3914 3862 3798 3711 3652 3564 3458 3336 3280 3278 3515 3497 3158 2821 2744 2610 2158 1833 1417 991 846 769 723 703 684 679
1414 1371 1454 1386 2876 4060 3151 3658 3862 3870 4110 4160 4074 3910 3748 3568 3273 2857 2440 2053 1669 1568 1553 1542 1669 2556 3526 3643 3660 3732 3795 3780 3721 3739 3816 3825 3822 3785 3725 3648 3612 3554 3510 3454 3470 3512 3695 3683 3443 3199 2985 2566 2241 1775 1206 843 675 552 473 436 376 366 336
2321 1991 1591 1616 1938 4007 4248 3758 3653 3720 3589 3776 4114 4250 4072 3907 3666 3421 3108 2767 2434 2121 2233 3272 3862 4109 4177 4007 3866 3822 3854 3790 3657 3613 3604 3637 3640 3608 3580 3583 3567 3579 3596 3681 3723 3715 3659 3445 3281 3014 2712 2436 1852 1355 896 783 680 591 548 478 408 338 304
1932 1966 1950 2048 2104 2310 3758 3908 3883 3846 3595 3212 3550 3919 4110 4012 4005 4025 3758 3571 3307 3417 4570 4712 4522 4458 4304 4021 3779 3727 3788 3733 3607 3559 3541 3527 3476 3438 3506 3552 3632 3675 3647 3421 2942 2876 2826 2734 2559 2422 2233 1705 1124 900 812 787 693 498 516 490 439 379 336
1833 1770 1699 1554 1876 2026 1690 2913 3674 3633 3588 3433 3241 3036 2751 2852 3639 4276 4127 4228 4361 4860 4892 4793 4595 4472 4298 4062 3787 3650 3559 3547 3502 3452 3392 3371 3371 3438 3478 3589 3675 3586 2975 2517 2318 2121 1923 1806 1749 1574 1277 1072 926 888 848 843 634 331 395 8 0 0 0
1786 1841 1855 1849 1822 1897 1829 1760 1917 2556 3298 3389 3406 3482 3297 3091 2932 2667 3658 4296 4622 4879 4922 4932 4617 4346 4041 3791 3672 3692 3489 3433 3396 3244 3193 3172 3340 3541 3687 3708 3358 2672 2405 2205 1994 1811 1700 1647 1557 1376 1221 1145 1066 1062 1003 650 454 0 0 0 0 0 0
1638 1653 1827 1873 1713 1798 1885 1772 2001 2013 2012 2038 2367 3006 3373 3166 2952 3058 3196 4152 4613 4588 4721 4356 4020 3588 3396 3362 3024 3011 2953 3237 3155 2809 2923 3390 3697 3700 3385 3047 2610 2251 1976 1889 1760 1538 1380 1177 1124 1094 1060 1024 932 730 651 560 110 0 0 0 0 0 0
1507 1834 1855 1800 1857 1738 1779 1796 1810 1900 2000 2158 2299 2583 2684 2624 3164 3329 3681 3910 4338 4450 4479 4171 3534 3163 2757 2779 2885 2801 3425 2836 3053 3600 3471 3327 2913 2824 2784 2592 2241 1916 1653 1507 1283 1113 1055 979 885 746 585 514 513 609 586 414 11 0 0 0 0 0 0
1193 1666 1836 1850 1767 1709 1588 1592 1546 1701 1708 1699 2081 2623 2765 2573 2633 3030 2566 3061 3325 2873 3562 3163 3410 3194 3041 2659 2638 2768 2597 2781 3524 3432 2844 2470 2207 2239 2178 2017 1826 1569 1344 1052 1001 944 907 842 836 598 362 339 354 588 592 425 37 0 0 0 0 0 0
1336 1317 1866 1912 1859 1856 1768 1625 1659 1726 1807 2042 2149 2223 2436 2506 2450 2074 2080 2462 2297 1846 2292 2658 2502 2399 2743 2364 2002 2790 3257 3286 2969 2462 2021 1839 1709 1754 1647 1564 1382 1190 1085 727 752 770 647 473 137 64 135 0 176 560 686 634 384 0 0 0 0 0 0
1483 1555 1406 1563 1919 1718 1922 1868 2089 2200 1984 1911 2071 2236 2151 2038 1730 2126 2026 1736 1699 1665 2729 2193 2264 2337 2148 2058 1998 1861 1846 1814 1806 1794 1763 1710 1495 1401 1320 1204 1092 1033 875 723 580 395 191 0 0 0 0 0 0 165 587 712 675 494 77 0 0 0 0
1331 1408 1567 1671 1582 1702 1722 1936 2000 2156 2276 2195 2030 1741 1702 1694 1620 1407 1405 1320 1249 1630 1953 2487 2564 2506 2312 2065 1983 1830 1714 1699 1702 1652 1567 1533 1468 1440 1172 955 910 932 819 716 602 417 290 0 0 0 0 0 0 0 210 634 758 453 74 0 0 0 0

ECMWFFLT1_con_mucape_012.txt.gz
CAPE
0 1 29 210 496 687 688 650 642 712 800 900 932 956 972 1044 1159 1233 1337 1440 1509 1571 1705 1877 2008 1980 1836 1840 2000 2090 2040 1957 1887 1819 1702 1591 1534 1482 1550 1662 1802 1840 1896 2038 2073 2136 2175 2121 2006 1997 1834 1404 1289 1337 953 304 31 28 1 0 0 0 0
2 13 35 127 395 666 773 736 714 759 837 947 1012 1005 1012 1027 1118 1209 1321 1484 1573 1583 1705 1817 1967 2055 2004 1932 1953 2058 2066 2025 1952 1870 1786 1685 1585 1507 1600 1672 1763 1831 1818 1924 2035 2085 2030 1949 1924 1924 1782 1330 1017 1019 719 3 1 0 0 0 0 0 0
16 47 52 109 242 543 779 830 810 837 904 1006 1092 1094 1095 1106 1136 1231 1362 1487 1612 1656 1721 1807 1918 2025 2050 2016 1972 2037 2055 2047 1999 1943 1865 1767 1726 1632 1656 1704 1727 1768 1755 1747 1845 1856 1901 1898 1904 1842 1695 1258 919 834 443 0 0 0 0 0 0 0 0
12 51 95 115 193 382 632 856 898 916 972 1068 1156 1194 1190 1223 1239 1269 1413 1557 1653 1727 1795 1858 1928 1983 2088 2090 2024 2019 2047 2055 2038 1994 1956 1845 1760 1752 1729 1763 1727 1677 1650 1552 1557 1634 1741 1787 1695 1664 1557 1110 959 832 434 0 0 0 0 0 0 0 0
10 15 86 171 199 303 440 706 906 950 1011 1097 1214 1271 1260 1274 1346 1382 1477 1639 1751 1822 1898 1966 2002 2036 2116 2169 2136 2072 2053 2055 2038 2019 2030 1969 1822 1799 1792 1767 1727 1646 1531 1422 1428 1484 1530 1536 1522 1491 1354 1125 1065 863 515 0 0 0 0 0 0 0 0
24 15 45 207 235 341 375 498 758 951 1026 1106 1215 1315 1325 1307 1369 1482 1599 1831 1892 1951 2029 2084 2123 2178 2164 2224 2230 2190 2140 2072 2056 2063 2080 2079 1964 1845 1818 1778 1725 1616 1489 1392 1392 1417 1478 1474 1463 1422 1296 1173 1091 799 0 0 0 0 0 0 0 0 0
46 49 38 97 266 430 414 425 557 823 968 1058 1174 1315 1385 1373 1395 1514 1694 1928 2023 2102 2178 2247 2267 2281 2288 2292 2296 2286 2224 2175 2144 2159 2145 2137 2065 1948 1856 1802 1716 1607 1472 1359 1402 1365 1438 1454 1422 1357 1282 1190 1081 0 0 0 0 0 0 0 0 0 0
43 73 70 81 184 362 483 474 512 700 878 996 1120 1292 1429 1427 1433 1489 1684 1966 2151 2223 2304 2393 2399 2410 2392 2358 2368 2345 2298 2220 2195 2227 2225 2194 2139 2046 1923 1842 1739 1598 1445 1386 1391 1394 1405 1421 1403 1298 1196 1141 1055 602 0 0 0 0 0 0 0 0 0
25 72 105 130 186 339 505 548 588 722 890 998 1106 1279 1454 1478 1470 1494 1620 1968 2213 2302 2406 2487 2519 2507 2486 2446 2414 2404 2361 2283 2232 2238 2281 2253 2189 2117 2012 1899 1773 1630 1467 1425 1398 1413 1415 1435 1392 1345 1248 1139 1050 772 51 0 0 0 0 0 0 0 0
7 47 119 180 234 320 541 575 642 783 958 1062 1122 1237 1431 1500 1504 1509 1589 1885 2184 2348 2471 2580 2632 2614 2578 2522 2465 2418 2388 2358 2293 2269 2304 2315 2271 2195 2107 1997 1889 1715 1570 1514 1457 1440 1416 1372 1395 1408 1349 1222 1082 843 618 494 0 0 0 0 0 0 0
80 145 227 246 359 452 544 607 666 859 1024 1105 1164 1220 1372 1471 1518 1524 1575 1781 2116 2330 2496 2665 2714 2705 2667 2620 2538 2441 2390 2364 2341 2324 2330 2331 2313 2282 2192 2080 1973 1856 1734 1617 1557 1497 1454 1361 1280 1278 1269 1195 1120 1019 830 582 8 0 78 0 0 1 2
126 163 179 242 178 363 538 626 682 821 1029 1125 1182 1243 1329 1452 1504 1540 1570 1703 2034 2296 2497 2678 2759 2771 2748 2698 2625 2534 2415 2359 2340 2355 2365 2368 2341 2317 2252 2140 2019 1953 1849 1713 1652 1615 1520 1447 1350 1256 1161 1143 1130 1078 926 609 445 422 389 0 0 0 10
138 134 148 197 250 257 542 652 738 803 924 1101 1203 1251 1366 1434 1490 1549 1587 1638 1905 2253 2489 2676 2782 2823 2792 2751 2703 2619 2508 2410 2359 2362 2389 2402 2399 2352 2290 2199 2074 1982 1938 1848 1750 1703 1684 1604 1498 1379 1257 1155 1064 936 762 639 558 531 455 3 0 0 2
167 169 148 199 280 357 532 703 792 868 847 928 1130 1215 1386 1512 1514 1544 1568 1638 1810 2134 2430 2617 2759 2838 2824 2804 2752 2680 2567 2484 2399 2387 2409 2422 2424 2408 2339 2256 2135 2022 1954 1898 1846 1797 1748 1702 1597 1498 1421 1409 1337 1149 954 806 695 637 526 430 404 291 97
109 224 218 215 266 327 487 643 790 844 888 926 989 1103 1244 1494 1654 1622 1589 1620 1770 2029 2349 2566 2716 2800 2827 2809 2779 2704 2622 2541 2472 2417 2400 2418 2448 2451 2410 2321 2201 2087 1985 1912 1888 1841 1788 1672 1632 1601 1582 1567 1498 1354 1160 966 813 716 594 563 518 433 362
30 63 245 260 280 408 520 636 767 836 872 911 986 1039 1114 1314 1614 1759 1754 1711 1790 1981 2253 2494 2659 2759 2808 2822 2800 2744 2684 2620 2552 2481 2413 2399 2430 2462 2465 2383 2275 2169 2068 1971 1939 1914 1843 1746 1650 1601 1598 1572 1490 1372 1244 1067 909 800 729 705 665 620 558
226 214 186 232 282 458 581 665 758 845 890 981 1071 1083 1149 1265 1468 1717 1822 1836 1851 1975 2183 2442 2596 2711 2787 2824 2821 2796 2741 2690 2638 2552 2492 2429 2414 2430 2454 2418 2353 2262 2167 2087 2020 1997 1934 1854 1752 1686 1609 1538 1487 1414 1305 1168 1028 927 879 822 763 710 660
408 414 390 381 366 474 603 682 838 937 982 1066 1170 1243 1318 1389 1477 1587 1752 1826 1877 1953 2077 2318 2520 2663 2765 2808 2820 2808 2772 2732 2696 2648 2609 2529 2468 2439 2457 2446 2404 2346 2292 2206 2127 2068 2002 1933 1865 1796 1727 1681 1607 1516 1392 1271 1125 1051 1010 951 874 764 708
544 528 667 727 678 620 582 685 937 1058 1101 1127 1228 1376 1516 1580 1590 1662 1744 1802 1855 1901 1987 2174 2368 2543 2691 2786 2814 2824 2810 2762 2711 2698 2679 2638 2566 2511 2482 2472 2427 2392 2332 2303 2262 2206 2122 2038 1940 1848 1782 1722 1662 1574 1468 1352 1240 1155 1098 1050 941 740 774
641 664 732 833 847 827 848 930 1013 1143 1221 1251 1308 1459 1681 1721 1696 1732 1788 1845 1885 1907 1958 2044 2154 2330 2527 2702 2801 2841 2831 2790 2744 2724 2706 2686 2637 2551 2491 2479 2462 2424 2360 2340 2335 2267 2188 2118 2032 1945 1861 1772 1704 1635 1543 1454 1366 1296 1162 1287 1177 1128 933
738 766 804 932 976 1006 1008 996 1065 1154 1248 1322 1389 1484 1641 1807 1802 1765 1759 1807 1855 1866 1897 1906 1983 2147 2349 2543 2750 2866 2868 2839 2786 2753 2702 2675 2665 2635 2558 2506 2452 2435 2423 2413 2391 2341 2269 2176 2122 2057 1961 1883 1806 1724 1650 1584 1445 1655 1658 1546 1511 1458 919
1027 967 857 979 1081 1061 1060 1032 1046 1149 1311 1426 1493 1562 1610 1782 1918 1940 1895 1874 1894 1929 1969 2018 2025 2079 2268 2418 2603 2788 2886 2874 2831 2764 2708 2677 2702 2689 2650 2590 2549 2533 2535 2502 2462 2410 2352 2305 2230 2174 2092 1987 1892 1876 1842 1830 1784 1767 1754 1723 1755 1696 1258
639 750 980 1069 1098 1151 1071 1046 1047 1105 1218 1425 1609 1666 1771 1859 1944 2010 2023 2010 2015 2063 2092 2112 2150 2164 2197 2372 2508 2664 2808 2835 2811 2782 2751 2720 2716 2721 2716 2685 2661 2667 2649 2606 2562 2539 2536 2510 2472 2409 2345 2259 2184 2115 2091 2037 2008 2023 2026 2112 2009 1787 1421
0 0 0 677 1224 1194 1079 1073 1083 1099 1072 1295 1568 1704 1790 1917 2041 2078 2094 2092 2106 2136 2163 2183 2208 2220 2206 2298 2456 2587 2703 2784 2817 2815 2782 2743 2745 2714 2704 2705 2748 2787 2758 2722 2724 2714 2728 2678 2662 2623 2545 2490 2402 2325 2210 2196 2272 2329 2230 2157 2148 2138 1275
914 1096 729 246 316 1019 1185 1119 1033 1024 1083 1243 1517 1698 1817 1893 2032 2151 2185 2218 2238 2220 2216 2224 2235 2228 2238 2256 2373 2528 2618 2730 2809 2827 2810 2810 2798 2771 2746 2758 2817 2846 2845 2862 2862 2872 2864 2871 2857 2804 2746 2734 2678 2543 2448 2463 2502 2481 2425 2268 2292 1937 1134
1756 1515 1708 2562 2483 2210 745 1274 1781 1750 1494 1522 1510 1579 1742 1915 1972 2084 2180 2211 2238 2244 2280 2316 2338 2327 2301 2299 2292 2312 2494 2596 2722 2780 2819 2845 2863 2869 2859 2866 2872 2872 2917 2954 2968 3028 3048 3040 2988 2969 2987 2940 2867 2733 2774 2714 2840 2736 2616 2406 2149 1988 1322
1768 1710 1478 2207 3048 2997 2144 899 1525 2235 2291 2416 2534 2416 2062 1899 1904 1974 2065 2157 2137 2134 2216 2323 2370 2377 2359 2316 2248 2195 2330 2485 2590 2686 2771 2832 2920 2970 2980 2976 2973 2978 2985 3003 3048 3120 3169 3173 3168 3177 3160 3065 2938 2869 2824 2924 2898 2928 2781 2378 2126 1888 1410
1364 1298 1294 1360 2827 3262 3157 2289 1605 2120 2758 2948 3080 3234 3237 2885 1997 1815 1860 1934 2034 2128 2191 2245 2312 2366 2358 2296 2237 2198 2186 2359 2530 2614 2746 2920 3026 3094 3074 3108 3097 3084 3036 3034 3092 3161 3224 3242 3237 3220 3138 3034 2952 3007 3015 3110 3088 3062 2488 2244 1866 890 716
1422 1359 1314 1461 1412 2952 3546 3627 2835 2615 2862 3018 3115 3194 3262 3360 3078 2629 2479 2087 2190 2149 2119 2165 2230 2256 2276 2258 2239 2229 2225 2223 2361 2541 2825 3082 3197 3237 3238 3228 3214 3188 3141 3126 3141 3197 3202 3198 3176 3204 3210 3074 3202 3327 3347 3420 3273 2662 2296 1954 921 666 527
1567 1550 1393 1456 1531 1629 2369 3459 3501 3314 3154 3133 3100 3307 3380 3490 3475 3468 3051 2908 3341 2902 2418 2034 2134 2196 2198 2226 2248 2239 2240 2237 2204 2519 2995 3204 3326 3375 3336 3340 3329 3328 3335 3306 3353 3322 3415 3445 3156 3279 3294 3414 3546 3530 3581 3365 2733 2407 2080 1222 702 578 400
1635 1562 1474 1475 1478 1601 1783 2223 2867 3397 3525 3485 3442 3324 3495 3544 3573 3518 3391 3261 3356 3096 2960 2778 2506 2276 2325 2488 2560 2541 2670 2831 2971 3158 3313 3412 3460 3464 3386 3450 3460 3452 3386 3373 3352 3502 3676 3604 3341 3132 3342 3566 3597 3550 3414 2908 2388 2094 1545 756 519 457 412
1687 1665 1706 1631 1518 1562 1832 1848 2101 2480 2712 2847 3141 3380 3505 3516 3524 3602 3682 3722 3773 3652 3095 2789 2683 2710 2837 2929 2955 2931 2948 3050 3207 3311 3398 3506 3570 3567 3520 3480 3480 3540 3480 3429 3622 3623 3546 3544 3198 2980 3250 3550 3536 3449 3110 2706 2484 1858 926 688 601 562 478
1457 1655 1755 1665 1706 1618 1755 1875 1961 2104 2229 2340 2478 2564 2924 2968 2547 2583 2755 3395 3147 3372 3187 3010 2712 2732 2845 2880 2924 2982 2935 3002 3205 3374 3451 3527 3604 3659 3636 3601 3534 3565 3606 3472 3556 3552 3578 3361 2842 3051 3396 3606 3312 2987 2709 2535 1891 1043 814 679 600 535 452
1406 1630 1754 1768 1693 1683 1699 1797 1936 2057 2106 2144 2348 2442 2684 2777 2359 2110 2123 2252 2339 2677 3164 3511 3619 3416 3057 2809 2835 2877 2862 2880 3051 3275 3412 3478 3532 3574 3573 3702 3686 3382 3119 3127 3508 3546 2823 2086 2602 2924 3617 3106 2840 2680 2345 1586 992 911 815 505 483 451 398
1437 1717 1756 1804 1786 1710 1730 1762 1918 1935 2123 2209 2322 2380 2422 2475 2698 2923 3147 3299 3378 3726 3818 3761 3659 3545 3372 3135 2919 2849 2866 2775 2858 3054 3163 3349 3481 3569 3464 3226 2766 2795 3223 3347 2979 2119 2045 2650 3242 3259 2905 2514 2130 1566 1216 1064 938 863 16 0 0 0 12
1375 1724 1841 1894 1911 1893 1828 1887 1934 2059 2140 2177 2255 2303 2237 2251 2361 2581 2783 2925 3174 3390 3536 3553 3496 3373 3260 3149 3154 3161 2802 2592 2664 2867 3098 3270 3527 3355 2655 2029 2510 2997 3220 2696 2382 2474 2686 2616 2446 2048 1761 1495 1358 1311 1120 966 792 0 0 0 0 0 0
1447 1507 1650 1813 2011 1997 1975 1879 2016 2068 2148 2148 2126 2189 2207 2227 2210 2287 2358 2448 2597 2814 3015 3052 3126 3185 3241 3294 2929 2200 2574 1828 1920 2683 2781 2706 2579 2206 1922 2258 2736 2574 2623 2364 2598 2823 1960 1703 1545 1285 1168 1226 1248 1080 871 538 0 0 0 0 0 0 0
1620 1688 1724 1769 1948 2276 2280 2226 2024 1999 1984 2215 2223 2103 2263 2283 2412 2448 2359 2407 2517 2677 2845 2954 3159 3265 3299 3065 2042 1346 1761 2172 1850 1633 1476 1554 1419 1542 1833 2191 2400 2562 2901 2837 2483 1667 1386 1286 928 818 780 771 669 608 203 0 0 0 0 0 0 0 0

ECMWFFLT1_con_mucape_015.txt.gz
CAPE
0 19 130 247 281 289 288 294 362 494 558 601 631 654 701 807 936 1042 1150 1135 1123 1093 1087 1102 1242 1506 1537 1483 1436 1419 1420 1418 1415 1433 1423 1427 1395 1287 1179 1295 1376 1416 1485 1559 1583 1652 1746 1769 1876 2036 2108 2120 2145 2220 2175 1575 1002 726 170 485 524 10 0
0 2 59 180 269 287 282 293 387 458 508 558 598 630 677 739 863 963 1105 1190 1183 1168 1169 1187 1177 1323 1561 1607 1560 1521 1524 1524 1529 1539 1532 1533 1518 1438 1267 1300 1392 1463 1453 1489 1573 1660 1741 1817 1856 2009 2109 2174 2220 2258 2028 1424 861 724 674 707 541 0 0
0 0 16 92 235 288 294 290 405 445 499 540 568 598 639 705 810 922 1013 1147 1227 1225 1210 1235 1320 1306 1362 1553 1633 1641 1615 1616 1608 1615 1600 1583 1566 1516 1433 1354 1393 1421 1396 1486 1634 1752 1807 1860 1911 1993 2085 2166 2194 2152 1972 1513 881 707 731 749 248 0 0
0 0 0 30 126 248 278 339 410 435 484 541 570 572 596 664 766 879 956 1046 1184 1254 1256 1269 1370 1421 1389 1424 1533 1620 1653 1648 1644 1644 1635 1607 1563 1540 1522 1515 1504 1447 1407 1503 1669 1771 1864 1926 1978 2004 2067 2138 2181 2146 1971 1593 1012 752 728 508 0 0 0
0 0 0 0 44 141 330 392 414 436 466 506 567 600 605 633 708 817 920 986 1090 1223 1288 1318 1374 1489 1513 1471 1472 1536 1629 1671 1658 1644 1636 1620 1578 1540 1552 1582 1584 1518 1386 1521 1652 1773 1842 1895 1938 1981 2050 2127 2169 2122 1974 1638 1073 896 809 419 0 0 0
0 0 0 0 2 48 184 366 413 439 457 483 537 594 646 654 687 783 889 975 1041 1142 1258 1331 1394 1530 1589 1575 1539 1519 1551 1629 1673 1683 1672 1658 1656 1621 1584 1595 1588 1540 1421 1509 1606 1734 1804 1843 1865 1934 2012 2085 2102 2068 1960 1668 1171 1037 992 807 369 0 0
0 0 0 0 0 2 60 195 362 437 456 486 510 571 642 681 722 802 902 999 1080 1137 1225 1319 1432 1529 1652 1674 1647 1599 1565 1597 1664 1720 1726 1730 1734 1710 1691 1670 1631 1586 1523 1523 1576 1662 1757 1818 1852 1880 1929 1925 1934 1996 1971 1724 1233 1058 1005 811 0 0 0
0 0 0 0 0 0 5 72 207 351 477 505 512 548 650 724 768 818 911 1002 1120 1226 1275 1326 1423 1535 1654 1731 1758 1733 1689 1660 1682 1747 1783 1795 1807 1803 1774 1748 1713 1671 1608 1562 1584 1619 1710 1782 1811 1812 1788 1753 1776 1890 1896 1725 1291 980 940 745 20 0 0
0 0 0 0 0 0 0 9 91 277 410 536 552 592 706 803 843 875 923 997 1129 1265 1363 1407 1468 1549 1639 1732 1796 1822 1793 1769 1766 1799 1837 1852 1862 1871 1857 1820 1782 1741 1712 1691 1667 1653 1698 1719 1708 1688 1670 1651 1672 1738 1757 1652 1334 975 888 758 524 0 0
0 0 0 0 2 4 3 3 19 148 393 561 627 664 774 881 935 967 986 1037 1144 1281 1388 1463 1534 1603 1664 1732 1794 1841 1852 1841 1832 1836 1878 1906 1919 1943 1931 1885 1835 1799 1764 1772 1749 1721 1693 1631 1584 1555 1547 1547 1545 1569 1606 1521 1253 1021 886 731 547 400 0
0 0 0 0 0 12 25 18 11 57 319 626 702 752 852 976 1035 1056 1091 1128 1204 1324 1415 1493 1571 1659 1726 1774 1806 1858 1894 1915 1900 1904 1919 1943 1964 1979 1987 1970 1919 1872 1844 1822 1816 1780 1718 1615 1516 1483 1442 1430 1429 1447 1461 1403 1207 1026 843 645 523 451 169
0 0 0 0 3 4 13 43 49 53 192 548 740 814 906 1041 1123 1149 1190 1256 1303 1393 1476 1564 1645 1738 1814 1853 1883 1911 1944 1976 1990 1991 1996 2004 2014 2021 2019 2030 1995 1955 1934 1904 1852 1838 1763 1678 1582 1460 1448 1409 1380 1355 1328 1269 1149 978 728 548 536 461 0
0 0 0 0 4 9 6 20 76 216 234 441 695 838 935 1081 1184 1226 1263 1330 1410 1501 1591 1668 1765 1876 1916 1962 2008 2010 2030 2046 2062 2067 2062 2080 2084 2080 2085 2086 2055 2022 2003 1964 1932 1874 1805 1740 1652 1550 1443 1419 1362 1318 1267 1178 1098 1021 862 704 467 0 0
0 0 0 0 50 134 147 189 97 214 351 383 612 801 949 1094 1227 1295 1330 1380 1459 1602 1737 1814 1925 2005 2047 2093 2116 2128 2131 2131 2144 2138 2142 2147 2148 2153 2166 2151 2129 2102 2052 2017 1985 1934 1842 1749 1667 1600 1502 1435 1398 1368 1316 1239 1144 1092 1025 808 405 0 0
0 0 0 0 0 4 25 204 250 206 408 443 588 760 920 1100 1269 1340 1391 1416 1483 1661 1830 1961 2060 2148 2207 2224 2256 2249 2226 2225 2220 2235 2232 2220 2198 2209 2215 2213 2194 2148 2105 2082 2043 1985 1918 1807 1696 1610 1551 1512 1484 1456 1415 1362 1287 1213 1146 992 718 626 585
0 0 0 0 0 0 0 21 255 277 319 517 629 770 904 1099 1277 1392 1434 1463 1521 1646 1858 2051 2166 2256 2315 2357 2378 2360 2342 2319 2308 2306 2319 2304 2286 2268 2267 2274 2256 2206 2165 2142 2122 2093 2032 1930 1820 1723 1650 1611 1579 1543 1502 1470 1418 1340 1256 1160 1011 887 801
0 0 0 0 0 0 0 24 99 303 484 585 706 805 938 1096 1268 1405 1457 1496 1544 1654 1869 2088 2254 2329 2409 2465 2467 2461 2445 2427 2398 2367 2363 2368 2361 2361 2350 2317 2287 2256 2238 2214 2206 2181 2148 2068 1969 1881 1828 1765 1700 1621 1576 1568 1545 1438 1326 1212 1133 1048 960
0 0 0 0 0 0 0 13 69 170 519 668 785 876 972 1119 1278 1390 1473 1518 1558 1651 1850 2097 2261 2379 2474 2533 2543 2547 2553 2527 2486 2440 2414 2410 2426 2428 2409 2377 2332 2301 2284 2264 2229 2223 2217 2171 2074 1992 1927 1874 1827 1772 1732 1712 1651 1524 1388 1296 1230 1210 1102
0 0 0 0 0 0 0 23 80 212 532 682 807 942 1056 1176 1289 1392 1488 1540 1589 1639 1822 2096 2260 2385 2485 2552 2603 2616 2626 2614 2578 2529 2493 2472 2468 2459 2449 2420 2384 2354 2322 2293 2267 2249 2235 2202 2139 2078 2016 1944 1888 1857 1870 1864 1774 1635 1446 1368 1357 1348 1294
0 0 0 0 0 0 0 36 134 340 565 715 827 976 1135 1221 1336 1447 1516 1563 1607 1645 1784 2036 2246 2375 2468 2544 2607 2661 2678 2666 2646 2631 2597 2549 2508 2498 2490 2438 2425 2391 2359 2326 2285 2267 2231 2185 2159 2124 2057 1978 1933 1908 1870 1841 1796 1690 1570 1489 1432 1385 1247
520 23 26 58 27 0 2 84 334 480 625 750 866 991 1117 1233 1340 1497 1569 1606 1638 1666 1774 1954 2174 2319 2449 2516 2591 2676 2722 2718 2705 2696 2672 2620 2579 2554 2503 2453 2456 2434 2401 2355 2320 2284 2242 2197 2172 2139 2078 2002 1927 1894 1878 1846 1810 1731 1675 1618 1556 1486 1338
570 605 427 140 393 127 78 107 334 548 680 774 870 971 1059 1189 1298 1415 1570 1686 1718 1727 1770 1900 2048 2225 2363 2460 2554 2649 2718 2750 2748 2736 2705 2676 2647 2594 2535 2480 2450 2455 2442 2398 2347 2294 2245 2191 2151 2114 2080 2032 1985 1954 1948 1903 1863 1802 1757 1698 1622 1514 1455
263 609 593 376 593 820 625 443 506 611 708 806 893 996 1092 1188 1258 1322 1467 1628 1748 1795 1812 1858 1938 2094 2247 2379 2499 2601 2695 2749 2754 2738 2728 2708 2684 2637 2568 2512 2486 2455 2423 2401 2356 2328 2265 2200 2149 2136 2126 2096 2069 2050 2012 1979 1936 1901 1840 1773 1678 1609 1532
1356 1661 1738 1540 785 676 846 871 720 720 876 954 976 1046 1132 1195 1271 1336 1400 1493 1644 1786 1871 1866 1919 2017 2155 2321 2457 2572 2664 2736 2757 2746 2733 2723 2710 2686 2626 2587 2549 2514 2456 2421 2364 2333 2312 2241 2202 2179 2178 2143 2118 2085 2041 2046 2027 1995 1947 1861 1785 1662 1688
1074 1594 2042 2127 2018 1916 1722 952 1005 937 931 1095 1151 1184 1236 1313 1403 1430 1443 1490 1579 1692 1780 1848 1938 2006 2091 2250 2386 2503 2622 2705 2765 2764 2744 2749 2735 2702 2668 2628 2616 2578 2515 2456 2395 2388 2321 2268 2241 2239 2210 2196 2193 2140 2106 2091 2055 2032 1994 1953 1946 1910 1717
845 1255 1813 2266 2417 2436 2155 1339 957 1120 1088 1113 1268 1361 1402 1426 1504 1589 1616 1633 1679 1738 1775 1839 1910 1976 2059 2160 2268 2384 2530 2672 2765 2795 2776 2759 2735 2705 2676 2635 2627 2628 2572 2521 2477 2437 2367 2317 2300 2252 2220 2226 2229 2192 2187 2167 2139 2145 2178 2250 2241 2149 1933
1011 972 1134 1929 2796 3028 2410 1703 1013 942 1165 1179 1203 1357 1452 1520 1562 1678 1784 1816 1824 1841 1903 1957 1977 2008 2060 2110 2157 2258 2403 2592 2718 2797 2806 2766 2721 2690 2664 2643 2654 2630 2589 2548 2528 2479 2443 2393 2325 2249 2214 2229 2238 2202 2201 2198 2248 2304 2373 2453 2413 2371 2181
992 971 995 1116 2207 3008 3150 3003 2055 1940 2030 2160 2528 1433 1256 1534 1691 1723 1818 1936 1940 1956 1998 2024 2047 2089 2109 2140 2164 2199 2276 2417 2582 2724 2787 2768 2697 2656 2672 2671 2628 2649 2600 2566 2546 2518 2483 2442 2384 2302 2239 2248 2254 2197 2204 2240 2299 2419 2556 2616 2618 2565 2530
1079 1179 1138 1055 1455 2125 3154 3293 2908 2573 2622 2810 2844 2891 2140 1524 1696 1817 1917 1952 2033 2107 2127 2110 2140 2169 2158 2154 2146 2154 2188 2271 2437 2615 2713 2739 2715 2670 2665 2666 2666 2681 2656 2615 2572 2562 2526 2474 2424 2354 2323 2338 2323 2301 2331 2374 2504 2656 2768 2784 2726 2768 2583
1245 1254 1161 1291 1417 1683 2387 3224 3419 2990 2953 3003 3082 3113 3177 2858 2318 1808 1860 1992 2100 2190 2210 2240 2269 2294 2288 2272 2271 2253 2254 2266 2306 2472 2577 2660 2680 2685 2678 2657 2674 2690 2694 2677 2645 2608 2568 2538 2473 2436 2451 2482 2464 2484 2560 2616 2685 2701 2307 2212 1731 1769 2050
1426 1333 1348 1272 1321 1577 1826 2114 2753 3507 3522 3220 3200 3304 3348 3207 3148 2888 2584 2049 2168 2573 2225 2269 2344 2349 2362 2377 2367 2358 2348 2342 2342 2350 2492 2573 2640 2672 2681 2698 2695 2712 2736 2727 2677 2653 2612 2546 2520 2498 2516 2549 2594 2667 2742 2812 2746 2625 2118 1716 1517 1530 1654
1191 1329 1340 1318 1355 1502 1664 1830 1874 2342 2900 3418 3465 3403 3435 3421 3327 3263 3204 3058 2918 2796 2395 2098 2164 2296 2387 2425 2449 2484 2470 2430 2401 2382 2348 2447 2563 2670 2716 2735 2757 2747 2744 2736 2717 2691 2627 2554 2502 2523 2584 2646 2703 2779 2802 2737 2593 2447 1790 1308 1160 1262 1390
1364 1323 1230 1181 1442 1500 1633 1568 1940 2085 2047 2497 2733 3324 3502 3543 3543 3497 3419 3401 3310 3253 3218 3119 3000 2762 2401 2301 2381 2428 2428 2376 2381 2366 2332 2318 2481 2616 2720 2799 2823 2784 2752 2752 2747 2693 2628 2577 2497 2532 2649 2624 2599 2611 2763 2745 2672 2131 1159 1079 1014 1204 1378
1433 1514 1573 1521 1570 1532 1549 1710 1730 1918 2009 2123 2183 2159 2507 2842 3330 3538 3611 3635 3584 3563 3470 3431 3313 3215 3125 2981 2707 2313 2293 2318 2289 2292 2304 2407 2545 2593 2674 2771 2845 2835 2779 2774 2728 2612 2528 2518 2580 2594 2605 2362 2239 2537 2635 2901 2662 1229 802 758 818 1136 938
1439 1601 1604 1514 1485 1502 1453 1608 1666 1847 1842 2152 2218 2270 2248 2185 2455 2547 2534 3190 3775 3775 3752 3678 3623 3564 3468 3374 3285 3175 2966 2652 2331 2228 2203 2392 2522 2602 2710 2773 2827 2858 2777 2694 2625 2516 2462 2412 2612 2643 2481 2000 1949 2382 2755 2642 1270 816 773 727 795 664 458
1405 1580 1723 1824 1792 1794 1736 1741 1726 1641 1927 2175 2195 2281 2325 2328 2379 2419 2439 2540 2612 3072 3562 3792 3752 3697 3555 3366 3193 2975 2620 2248 2054 2082 2146 2256 2329 2514 2630 2690 2774 2756 2682 2564 2515 2492 2446 2441 2485 2613 2124 1866 2406 2372 2536 1053 660 695 676 780 712 355 194
1449 1537 1686 1795 1909 1930 1918 1826 1765 1661 1846 2052 2087 2118 2124 2182 2222 2236 2310 2429 2540 2648 2715 2601 2593 2654 2772 2610 2353 2218 2054 1853 1822 1947 2075 2212 2384 2391 2421 2514 2627 2620 2569 2488 2525 2413 2446 2413 2528 2248 1616 2129 2672 2136 1167 920 744 632 675 619 364 0 0
1524 1584 1661 1753 1809 1968 2189 1932 1862 1792 1788 1788 1851 1761 1650 1746 1944 2058 2154 2227 2230 2492 2776 2916 2943 2914 2849 2702 2535 2404 2294 2182 2170 2117 2252 2412 2549 2532 2405 2470 2460 2508 2500 2495 2487 2403 2246 2335 2274 1919 2162 2106 1262 964 1158 911 578 503 442 290 0 0 0

ECMWFFLT1_con_mucape_018.txt.gz
CAPE
3 43 95 125 164 350 372 250 243 270 247 220 220 264 414 537 630 645 668 711 743 758 760 754 746 780 844 871 865 858 886 927 948 962 944 952 968 995 1016 1038 1036 1052 1073 1079 1089 1212 1403 1607 1707 1836 1813 1834 1848 1831 1782 1739 1734 1802 1915 2046 2050 1541 820
0 3 45 70 107 164 226 233 198 233 263 242 217 240 310 476 614 673 686 704 740 750 746 746 750 786 858 899 900 883 876 891 914 1017 980 993 1006 1030 1022 1038 1030 1024 1008 1028 1080 1184 1370 1482 1640 1742 1813 1839 1837 1825 1790 1754 1765 1850 1971 2082 1894 1156 532
0 0 4 45 81 118 179 184 168 184 233 256 252 224 270 400 552 694 735 725 737 764 768 772 777 843 881 912 929 934 916 892 858 880 961 1005 1037 1056 1060 1042 1042 1018 1014 1012 1107 1194 1370 1453 1536 1670 1770 1794 1820 1810 1776 1749 1785 1888 2037 2051 1562 764 9
0 0 0 7 50 83 115 153 187 156 178 236 278 284 269 339 448 627 757 796 789 771 790 811 830 854 984 1017 973 983 971 947 934 930 1027 1004 1032 1058 1073 1067 1051 1035 1024 1008 1139 1236 1400 1458 1518 1570 1929 1720 1768 1772 1760 1758 1819 1926 2077 1949 1246 368 6
0 0 0 0 1 24 63 113 149 156 162 192 257 357 328 314 364 514 686 808 852 852 825 838 846 874 1026 1121 1112 1082 1092 1031 1016 1046 1157 1190 1134 1112 1102 1103 1108 1105 1136 1160 1139 1318 1440 1408 1474 1529 1718 1649 1682 1710 1735 1798 1898 2003 2088 1905 1146 598 474
0 0 0 0 0 2 27 78 125 146 154 162 210 311 410 353 342 435 591 780 876 911 914 887 880 976 956 1082 1189 1219 1192 1134 1111 1220 1242 1284 1250 1235 1242 1241 1250 1256 1270 1299 1255 1298 1400 1406 1437 1469 1573 1596 1618 1650 1713 1826 1946 2061 2108 1927 1344 716 484
0 0 0 0 0 0 2 31 84 124 135 151 173 244 338 337 443 482 542 669 826 930 962 976 968 959 984 1026 1144 1321 1288 1257 1232 1234 1238 1276 1299 1316 1324 1343 1353 1347 1348 1322 1283 1279 1371 1412 1434 1466 1490 1555 1575 1615 1709 1821 1940 2039 2094 1973 1576 1000 508
0 0 0 0 0 0 0 2 38 86 114 131 131 186 270 321 448 490 541 626 753 877 971 1011 1033 1030 1050 1105 1093 1167 1296 1348 1347 1331 1327 1333 1350 1370 1374 1384 1408 1423 1402 1363 1297 1243 1335 1399 1460 1482 1516 1558 1587 1638 1709 1778 1876 1964 2007 1988 1727 1282 704
0 0 0 0 0 0 0 0 12 51 94 123 145 208 249 316 338 459 526 590 700 826 939 1014 1073 1090 1112 1152 1193 1180 1196 1298 1378 1414 1419 1406 1402 1413 1418 1434 1442 1443 1432 1385 1320 1277 1308 1391 1440 1484 1521 1548 1583 1636 1656 1688 1768 1852 1902 1889 1778 1468 942
0 0 0 0 0 0 0 0 7 21 78 115 149 193 248 332 380 388 433 532 656 772 880 956 1052 1115 1158 1186 1256 1279 1264 1251 1310 1389 1453 1469 1463 1452 1469 1469 1482 1456 1438 1390 1330 1300 1310 1353 1419 1468 1498 1518 1545 1574 1585 1598 1646 1723 1778 1792 1778 1582 1201
0 0 0 0 0 0 0 0 0 8 60 148 184 196 256 328 390 412 449 518 627 739 818 903 987 1087 1163 1216 1283 1342 1349 1337 1328 1352 1411 1468 1486 1499 1490 1492 1492 1461 1444 1388 1364 1331 1338 1348 1372 1432 1465 1488 1506 1519 1556 1574 1584 1603 1623 1698 1704 1654 1389
0 0 0 0 0 0 0 0 0 2 32 140 189 222 260 325 397 449 490 556 616 700 781 866 949 1033 1132 1241 1310 1412 1413 1426 1404 1390 1401 1444 1499 1519 1525 1525 1518 1510 1491 1437 1415 1399 1384 1378 1394 1418 1461 1477 1478 1489 1524 1554 1531 1482 1471 1507 1604 1662 1514
0 0 0 0 0 0 0 0 0 0 8 74 178 232 286 304 382 504 580 625 655 722 783 868 948 1031 1100 1222 1333 1451 1462 1496 1490 1481 1453 1453 1498 1533 1557 1560 1567 1549 1526 1510 1504 1474 1454 1440 1421 1422 1440 1464 1472 1483 1501 1488 1430 1404 1383 1394 1440 1495 1486
0 0 0 0 0 0 0 0 0 0 0 33 149 287 379 418 461 526 614 678 727 776 841 919 1004 1085 1134 1280 1348 1454 1483 1522 1558 1554 1540 1534 1534 1595 1580 1600 1604 1598 1578 1572 1564 1545 1520 1498 1458 1445 1428 1442 1457 1471 1480 1439 1365 1330 1311 1311 1334 1394 1410
0 0 0 0 0 0 0 0 0 0 0 12 124 289 383 473 518 566 652 719 779 836 923 1032 1077 1170 1257 1342 1434 1486 1531 1599 1636 1606 1621 1613 1611 1616 1634 1640 1662 1664 1657 1639 1619 1579 1565 1548 1491 1454 1454 1438 1436 1441 1438 1398 1337 1289 1276 1269 1290 1322 1276
0 0 0 0 0 0 0 0 0 2 4 12 93 284 416 502 584 653 736 796 858 910 981 1036 1148 1246 1313 1400 1499 1544 1576 1638 1686 1736 1749 1684 1686 1684 1687 1697 1717 1732 1732 1712 1680 1635 1594 1562 1530 1485 1465 1443 1432 1417 1410 1407 1369 1333 1286 1229 1219 1252 1180
0 0 0 0 0 0 0 0 0 0 27 44 96 256 446 576 660 746 816 881 936 1006 1064 1121 1256 1270 1363 1478 1554 1605 1658 1690 1740 1790 1817 1819 1758 1757 1742 1749 1769 1784 1794 1780 1738 1680 1632 1585 1563 1513 1519 1452 1420 1406 1409 1418 1406 1388 1350 1301 1245 1178 1127
0 0 0 0 0 0 0 0 0 0 26 98 138 240 436 615 724 830 910 978 1033 1100 1154 1226 1323 1367 1465 1542 1616 1694 1754 1780 1812 1856 1890 1893 1902 1821 1819 1828 1834 1848 1854 1838 1790 1730 1680 1648 1605 1575 1542 1509 1472 1431 1386 1390 1400 1406 1397 1350 1313 1281 1272
0 0 0 0 0 0 0 0 0 0 20 116 174 255 435 605 737 869 1006 1104 1151 1181 1274 1338 1412 1492 1603 1652 1742 1812 1864 1894 1909 1935 1957 1971 1976 1890 1896 1908 1914 1913 1906 1906 1856 1794 1752 1701 1650 1628 1587 1557 1532 1514 1476 1446 1412 1402 1390 1360 1364 1368 1390
0 0 0 0 0 0 0 0 0 0 6 112 220 299 451 601 732 890 1024 1125 1175 1222 1362 1467 1543 1650 1729 1807 1862 1932 1979 2009 2014 2007 1999 2026 2040 1992 1962 1976 1982 1976 1968 1955 1926 1859 1813 1769 1728 1703 1658 1625 1596 1564 1554 1542 1505 1438 1381 1354 1395 1446 1498
0 0 0 0 0 0 0 0 0 0 0 54 198 342 478 570 732 866 1002 1116 1217 1285 1423 1524 1659 1757 1852 1930 1981 2041 2104 2159 2166 2132 2096 2089 2092 2095 2048 2042 2044 2031 2020 1982 1965 1940 1899 1865 1816 1788 1748 1709 1670 1630 1621 1602 1552 1502 1446 1428 1476 1533 1572
541 630 504 594 441 0 0 0 0 0 0 85 316 457 542 673 756 860 1020 1141 1270 1331 1412 1586 1715 1822 1936 2024 2101 2174 2242 2293 2309 2310 2281 2239 2205 2149 2133 2130 2118 2101 2085 2050 2019 1990 1963 1936 1888 1846 1815 1780 1754 1736 1729 1682 1627 1586 1524 1523 1568 1608 1637
931 995 1008 1150 1188 1058 74 0 0 0 84 244 315 482 669 755 856 961 1053 1151 1292 1381 1454 1573 1711 1848 1986 2095 2178 2266 2345 2398 2430 2430 2411 2374 2257 2226 2222 2224 2205 2188 2147 2111 2092 2070 2042 1981 1974 1942 1907 1860 1838 1842 1826 1794 1726 1680 1650 1638 1646 1618 1640
1449 1586 1598 1504 1356 1238 1219 825 641 650 499 312 376 523 708 830 961 1060 1142 1237 1341 1418 1496 1570 1700 1840 1992 2107 2216 2304 2392 2467 2505 2509 2428 2401 2375 2344 2318 2301 2286 2258 2226 2193 2163 2159 2105 2047 2032 2030 2005 1951 1948 1882 1884 1868 1807 1758 1731 1722 1689 1651 1645
1974 2371 2512 2136 1663 1308 1115 1054 958 835 814 700 508 615 724 863 1004 1128 1246 1365 1396 1449 1519 1572 1695 1801 1936 2081 2176 2315 2448 2466 2494 2510 2508 2490 2465 2432 2395 2365 2358 2339 2296 2267 2241 2202 2139 2122 2101 2085 2076 2066 2014 1987 1930 1886 1813 1761 1743 1722 1707 1670 1632
1320 1861 2580 2703 2085 1531 1231 787 658 823 893 869 852 694 792 889 1002 1150 1275 1385 1448 1508 1578 1659 1717 1791 1886 2007 2139 2291 2417 2522 2562 2580 2564 2550 2522 2489 2479 2456 2408 2381 2369 2344 2321 2269 2202 2204 2137 2143 2122 2110 2080 2058 2015 1956 1874 1828 1726 1686 1636 1599 1608
600 814 1336 2327 2748 2198 1821 1568 1328 1238 1262 1114 1072 1060 972 916 1016 1113 1258 1370 1480 1598 1688 1719 1721 1776 1844 1922 2048 2248 2411 2515 2573 2625 2615 2594 2580 2560 2538 2510 2495 2452 2392 2410 2374 2310 2274 2254 2228 2217 2213 2151 2155 2130 2096 2034 1970 1927 1795 1700 1594 1526 1560
500 664 778 1168 2043 2781 2540 2347 2244 2160 2116 1966 1521 1068 1043 1061 1044 1138 1198 1296 1452 1636 1747 1766 1752 1776 1853 1904 1983 2170 2331 2448 2528 2618 2661 2641 2612 2585 2566 2556 2542 2517 2447 2427 2396 2363 2336 2326 2310 2278 2287 2260 2234 2198 2162 2124 2054 1980 1860 1770 1698 1602 1600
487 635 834 996 1124 1351 2320 2852 2741 2585 2570 2484 2175 1710 1281 1213 1225 1236 1284 1312 1419 1496 1572 1667 1789 1847 1886 1888 1918 2042 2220 2354 2465 2555 2634 2662 2646 2636 2609 2586 2590 2577 2532 2462 2406 2405 2422 2420 2373 2336 2316 2302 2250 2210 2191 2163 2100 2018 1913 1859 1781 1732 1704
592 752 837 998 1124 1162 1186 1503 2505 3023 2971 2840 2743 2376 1859 1590 1399 1369 1390 1498 1526 1541 1499 1521 1615 1691 1766 1852 1938 1996 2098 2210 2337 2455 2555 2634 2641 2644 2642 2626 2617 2604 2588 2551 2480 2440 2459 2480 2470 2434 2402 2351 2287 2236 2218 2180 2125 2052 1972 1935 1866 1827 1825
627 614 710 850 1033 1182 1315 1338 1449 1890 2630 3092 3189 2959 2866 2512 2215 1987 2136 1884 1830 1674 1630 1716 1729 1776 1816 1838 1888 1960 2042 2116 2211 2367 2504 2608 2644 2662 2672 2671 2646 2651 2632 2598 2569 2520 2490 2478 2502 2500 2493 2415 2352 2305 2252 2190 2130 2077 2023 1979 1890 1874 1939
614 685 736 785 892 1071 1113 1170 1360 1475 1464 1770 2422 3066 3326 3320 3200 3008 2872 2618 2625 2634 2413 2205 2022 1936 1969 1962 1964 1976 1978 1985 2043 2186 2383 2542 2639 2689 2704 2696 2682 2676 2684 2657 2645 2620 2559 2492 2458 2446 2430 2431 2388 2370 2312 2235 2182 2163 2071 1971 1897 1912 2132
750 782 863 910 938 1017 1014 989 1019 1192 1255 1336 1556 1622 1970 2805 3172 3447 3486 3356 3280 3197 3070 2930 2799 2720 2536 2532 2440 2518 2370 2188 2011 2061 2229 2420 2568 2675 2734 2720 2714 2693 2673 2687 2656 2658 2656 2594 2492 2382 2366 2383 2370 2364 2334 2315 2304 2208 2050 1914 1866 2013 2167
977 942 1106 1241 1304 1298 1322 1283 1144 1152 1329 1505 1633 1723 1832 1823 1881 1954 2377 2902 3323 3568 3550 3388 3310 3177 3079 2898 2722 2726 2755 2758 2804 2791 2646 2414 2430 2613 2669 2706 2724 2684 2650 2628 2652 2639 2614 2579 2514 2477 2396 2328 2302 2329 2380 2375 2336 2243 2096 1951 1935 2104 1962
1325 1343 1288 1278 1419 1350 1391 1412 1332 1371 1462 1474 1553 1562 1606 1592 1638 1705 1740 1895 2007 2272 3029 3405 3458 3457 3388 3316 3241 2998 2721 2644 2644 2648 2773 2843 2866 2851 2751 2642 2518 2640 2607 2585 2586 2551 2540 2555 2535 2509 2471 2392 2346 2345 2348 2318 2320 2204 1800 1705 1713 1974 1492
1325 1360 1406 1591 1497 1395 1433 1450 1477 1494 1437 1298 1283 1109 1063 1123 1231 1396 1566 1705 1736 1814 1925 2024 2649 3313 3523 3442 3412 3282 3084 3000 2874 2742 2718 2693 2878 3004 3006 2920 2808 2624 2592 2644 2604 2598 2569 2534 2502 2431 2382 2289 2389 2294 2313 2320 2285 2068 2005 1722 1491 1264 1122
1438 1524 1589 1547 1495 1531 1556 1478 1532 1591 1490 1359 1387 1043 780 866 1086 1170 1334 1471 1551 1564 1682 1782 1825 1895 2010 2740 3368 3515 3394 3312 3208 3122 3089 3051 3006 2926 2808 2704 2595 2619 2623 2600 2700 2669 2590 2567 2504 2431 2398 2633 2208 2353 2457 2431 2350 2106 1951 1868 1480 1082 860
1519 1588 1675 1767 1804 1619 1600 1576 1535 1550 1560 1222 1143 926 770 806 928 1099 1216 1218 1316 1396 1445 1527 1592 1831 1907 1969 2024 2050 2513 3199 3358 3307 3183 3106 2941 2780 2675 2609 2527 2495 2457 2473 2574 2531 2634 2591 2482 2455 2323 2380 2338 2430 2319 2336 2362 2126 2013 1768 1222 897 617

ECMWFFLT1_con_mucape_021.txt.gz
CAPE
903 970 997 1026 1090 1178 1231 1381 1438 1345 1336 1382 1404 1307 1321 1398 1468 1508 1624 1715 1789 1822 1979 1856 1788 1774 1846 1931 1991 2100 2140 2164 2101 1978 1950 1961 1925 1994 2094 1995 2086 2308 2186 2266 2424 2649 2999 3126 3143 3176 3270 3406 3427 3480 3496 3377 3269 3118 3049 2865 2644 2445 2395
764 801 889 970 1037 1075 1182 1378 1434 1345 1369 1328 1276 1310 1222 1309 1474 1541 1562 1740 1796 1784 1934 1860 1748 1759 1810 1883 1919 2007 2041 2075 2083 1989 1975 1984 2052 2130 2116 2105 2059 2311 2374 2285 2503 2787 2989 3054 3024 3152 3236 3368 3310 3472 3369 3368 3318 3183 2928 2818 2584 2505 2326
548 695 836 918 925 976 1174 1229 1372 1292 1284 1233 1207 1176 1197 1335 1573 1524 1584 1644 1734 1791 1819 1827 1797 1772 1740 1847 1887 1949 1947 1987 1993 2030 1969 1933 1975 1710 1894 2060 2176 2186 2246 2320 2485 2572 2662 2713 2866 3054 3114 3178 3060 3339 3364 3306 3304 3169 2968 2822 2540 2420 2388
323 493 706 869 997 1070 1174 1218 1222 1144 1126 1120 1124 1096 1171 1408 1485 1573 1688 1477 1611 1769 1732 1744 1737 1655 1717 1835 1868 1907 1854 1906 1952 1880 1781 1836 1894 1851 1978 2079 2098 2001 2164 2241 2260 2294 2347 2498 2746 2892 2982 3094 3154 3236 3289 3186 3161 3122 2919 2738 2493 2434 2400
144 309 506 783 952 1128 1080 1044 1150 1150 1030 1002 1050 1160 1259 1376 1252 1321 1432 1437 1426 1556 1568 1659 1513 1517 1670 1723 1716 1770 1828 1848 1880 1836 1871 1869 2006 2071 2047 1873 1931 1950 2021 2152 2260 2447 2520 2602 2537 2690 2954 3002 3151 3274 3309 3268 3120 3075 2828 2634 2456 2286 2278
82 160 316 537 666 780 950 980 986 996 994 938 996 1096 1109 1082 1026 1064 1152 1345 1358 1371 1584 1582 1515 1592 1684 1652 1602 1688 1811 1871 1886 1920 1921 1991 2104 2056 1978 1935 1900 1972 1840 2176 2206 2296 2473 2505 2430 2632 2688 2816 2799 2952 3124 3196 2988 2891 2762 2520 2392 2153 2013
101 96 153 238 416 646 805 853 860 882 959 918 913 999 988 898 943 978 1042 1202 1279 1390 1497 1508 1469 1547 1763 1597 1630 1807 1920 1880 1915 1875 1847 1908 2031 2050 1983 2024 2025 1986 1985 2192 2232 2243 2334 2482 2540 2658 2676 2630 2785 2852 3103 3198 3014 2774 2677 2462 2346 2202 2000
220 194 197 245 255 372 574 737 789 798 856 913 851 896 906 848 856 917 964 1099 1207 1257 1368 1368 1411 1647 1664 1650 1654 1741 1837 1728 1753 1787 1758 1787 1844 1972 2022 2058 2148 2124 2150 2146 2290 2298 2249 2504 2529 2670 2713 2614 2880 3018 3188 3265 3113 2688 2486 2433 2320 2228 1845
119 514 259 52 71 107 302 612 774 786 936 1040 962 973 911 878 844 874 926 1000 1161 1205 1304 1293 1321 1463 1809 1869 1939 1944 1806 1728 1842 1874 1864 1804 1781 1842 1860 2045 2119 2108 2218 2070 1992 2284 2239 2442 2481 2713 2830 2738 2950 3134 3172 3235 3078 2711 2464 2413 2336 2208 1902
42 350 610 217 24 16 147 460 830 992 1164 1386 1306 1239 1002 962 978 896 874 933 1052 1153 1257 1282 1327 1504 1882 1858 1814 1812 1879 1967 1949 1843 1801 1774 1766 1782 1763 1803 2004 2178 2162 2028 1944 2210 2291 2406 2548 2777 2938 2824 2954 3117 3084 3090 2948 2739 2426 2417 2330 2204 1910
77 347 641 278 263 178 201 176 632 986 1227 1280 1314 1112 1118 1118 1100 968 964 943 977 1107 1218 1355 1421 1502 1643 1660 1643 1720 1909 1926 1932 1912 1859 1789 1742 1806 1780 1791 1868 2035 2042 1993 2012 2167 2353 2435 2620 2829 2940 2776 2893 3005 3012 2960 2868 2746 2391 2314 2258 2200 2012
109 234 454 706 893 627 250 422 828 921 1186 1316 1451 1146 1441 1310 1119 993 1024 1085 1021 1038 1182 1322 1430 1526 1641 1613 1566 1752 1864 2012 1907 1876 1888 1848 1880 1879 1877 1880 1923 2025 2089 2034 2089 2179 2298 2501 2553 2632 2831 2810 2835 2959 2995 2916 2820 2714 2494 2205 2102 2072 2013
27 402 557 348 889 883 1101 1026 840 915 1181 1281 1079 1198 1228 1109 1080 1034 1258 1282 1124 1072 1160 1316 1466 1693 1690 1670 1624 1894 1931 1947 1967 2043 2014 2117 2065 2112 2090 2041 2006 2022 2117 2081 2085 2142 2284 2389 2562 2572 2690 2810 2815 2848 2922 2914 2779 2702 2558 2293 2114 2046 1995
27 0 20 251 377 612 992 1269 1140 1191 1442 1287 1194 1387 1127 1129 1138 1172 1334 1313 1206 1134 1223 1383 1626 1831 1910 1886 1809 2034 2048 2005 2126 2228 2276 2288 2336 2362 2273 2212 2202 2236 2252 2254 2188 2148 2242 2324 2476 2607 2576 2684 2746 2770 2838 2872 2778 2706 2591 2309 2090 1988 1948
0 0 51 136 821 969 967 1052 1330 1281 1237 1408 1183 1211 1210 1236 1234 1460 1576 1302 1359 1167 1249 1598 1793 2011 2049 2095 2112 2267 2365 2295 2304 2411 2458 2460 2579 2582 2510 2460 2470 2456 2446 2440 2334 2242 2283 2321 2363 2457 2471 2490 2596 2644 2642 2624 2601 2588 2505 2302 2078 1992 1848
0 0 0 14 392 627 1156 1192 1274 1426 1396 1396 1214 1534 1239 1362 1508 1335 1298 1353 1434 1363 1337 1516 1955 2182 1877 2092 2355 2608 2615 2664 2654 2744 2692 2586 2662 2825 2735 2640 2632 2622 2636 2640 2501 2422 2364 2380 2370 2333 2400 2393 2410 2474 2444 2430 2464 2063 1703 1682 2029 1941 1768
47 30 0 7 109 274 743 1107 1173 1378 1409 1597 1484 1506 1546 1393 1354 1320 1159 1252 1283 1474 1388 1550 2146 1898 1908 2026 2301 2445 2646 2702 2671 2648 2703 2647 2731 2709 2741 2739 2770 2780 2792 2711 2630 2480 2533 2507 2446 2280 2310 2306 2338 2320 2254 2114 2204 1694 1521 1434 1391 1718 1760
303 1033 964 652 250 23 119 363 896 1036 1165 1028 1049 1267 1394 1618 1502 1372 1188 1218 1299 1362 1391 1496 1671 1706 2148 2306 2544 2810 2746 2616 2715 2754 2787 2793 2748 2774 2782 2721 2722 2780 2804 2746 2655 2646 2594 2519 2498 2508 2319 2280 2292 2294 2262 2139 1832 1592 1485 1416 1391 1361 1640
50 122 432 981 713 505 100 14 157 1001 786 743 934 931 1062 1384 1264 1518 1448 1448 1485 1556 1435 1528 1614 1942 2269 2258 2458 2640 2763 2814 2834 2808 2851 2900 2788 2758 2767 2827 2816 2813 2790 2727 2766 2642 2614 2643 2554 2536 2382 2268 2170 2148 2108 2219 1778 1566 1489 1438 1397 1371 1327
5 9 79 249 448 584 734 602 246 121 529 905 931 846 840 1034 1250 1596 1482 1519 1774 1662 1815 1944 1789 2018 2372 2744 2798 2854 2854 2857 2744 2769 2871 2927 2892 2898 2905 2844 2827 2770 2750 2723 2736 2697 2647 2548 2616 2570 2472 2292 2208 2032 2205 2020 1827 1598 1508 1462 1442 1399 1364
1253 972 930 1364 1432 1045 1005 1022 961 756 547 418 381 642 840 945 1178 1512 1512 1576 1631 1895 2108 2307 2132 2371 2521 2695 2754 2901 2909 2950 2885 2883 2945 2967 2994 2991 2951 2870 2872 2849 2807 2698 2699 2707 2618 2573 2581 2503 2383 2230 2083 2094 1979 1994 1779 1636 1558 1516 1466 1411 1340
1550 1634 1704 2114 2250 2428 2577 2206 1582 866 641 510 510 636 788 894 910 1045 1213 1306 1520 1844 2284 2356 2632 2496 2814 2840 2798 2850 2874 2870 2961 3004 3019 2982 2944 2974 2956 2968 2985 2987 2914 2787 2729 2670 2612 2560 2551 2561 2530 2369 2200 2101 1989 2027 1793 1665 1593 1572 1536 1445 1356
1840 1998 1871 1922 1842 1871 2094 2256 2282 1909 1088 592 435 524 677 697 833 999 1161 1350 1519 2560 2344 2476 2725 2662 2940 2761 2742 2694 2817 2833 2949 3028 3019 3004 3019 3022 2948 2997 3096 3110 3014 2846 2832 2698 2576 2311 2262 2308 2563 2408 2299 2136 2058 2080 1840 1728 1635 1591 1568 1504 1438
1374 1477 1581 1668 1817 1982 2294 2393 2308 2008 1206 544 582 523 784 800 1047 1459 1808 1789 1809 2093 2290 2635 2551 2678 2842 2745 2711 2751 2873 3021 3077 3108 3036 3050 3057 3087 3036 3011 3064 3072 2995 2972 2878 2709 2667 2548 2501 2614 2497 2296 2260 2182 2172 2269 1926 1773 1690 1645 1560 1524 1502
1464 1578 1877 1685 1950 2180 2139 2340 2219 1968 1122 907 644 996 1530 1455 1531 1983 2198 2341 2144 2555 2773 2554 2497 2658 2717 2838 2850 3133 3278 3279 3244 3203 3190 3201 3220 3101 3100 3037 3090 3033 2970 2890 2866 2796 2750 2549 2649 2492 2450 2516 2418 2242 2090 2197 2166 1865 1793 1753 1707 1597 1528
2016 2180 1865 1863 1898 1997 2374 2463 2304 1867 1296 1201 2380 2075 2062 1901 2122 1952 2458 2526 2256 2122 2294 2478 2581 2847 2813 2806 3101 3368 3208 2962 3116 3225 3252 3318 3178 3134 3178 3197 3088 3105 3038 2953 2898 2912 2756 2685 2509 2560 2657 2383 2546 2344 2117 2197 2440 1988 1884 1874 1824 1752 1641
2202 2250 1972 1601 1663 2034 2589 2569 2613 2434 2237 2544 2904 1798 2035 2350 2204 2444 2684 2745 2589 2430 2286 2586 2863 3062 3124 3258 2972 2922 3352 3422 3556 3468 3491 3388 3390 3174 3176 3160 3106 3098 3120 3000 2887 2849 2590 2658 2724 2570 2457 2432 2376 2354 2213 2241 2440 2000 1914 1914 1964 1932 1792
1578 2277 2416 2182 1970 1975 2366 2194 2127 2122 2098 2233 2378 2184 2037 2400 2712 2986 2875 2691 2647 2845 2492 2827 2890 2962 3143 3256 3086 3026 3329 3482 3421 3506 3534 3483 3494 3515 3345 3241 3166 3156 3157 3030 3060 2971 3086 3084 2655 2870 2686 2714 2448 2370 2622 2200 2014 2039 2021 1996 2027 2056 2002
767 1522 2322 2571 2483 2256 2294 2145 1878 1654 1617 1738 1956 2318 2256 1943 2776 2916 2748 3140 3410 3019 2658 2789 2869 3213 3250 3381 3153 3233 3379 3579 3716 3686 3594 3686 3644 3563 3529 3570 3467 3444 3430 3432 3338 3188 2984 3090 3270 3098 2800 2978 3168 2898 2754 2742 2154 2030 2068 2084 2106 2142 2116
600 824 1052 1773 2430 2667 2708 2754 2643 2408 1960 1575 1576 1920 2490 3446 3133 3089 3162 2692 2716 3324 2922 2740 3069 3427 3311 3376 3437 3592 3453 3572 3626 3694 3690 3748 3634 3612 3607 3675 3617 3582 3584 3554 3474 3316 3290 3489 3400 3306 3044 2953 3000 2809 2855 2982 2320 2156 2224 2200 2172 2210 2206
730 748 883 1077 1558 2306 2738 3017 2962 2922 2829 2514 2138 1899 1751 2145 2436 2245 1985 1958 2318 3041 3444 3031 3105 3442 3401 3242 3191 3368 3397 3590 3657 3691 3714 3718 3753 3757 3778 3804 3760 3710 3788 3654 3492 3455 3382 3364 3070 3332 3113 2880 3098 3120 3100 2904 2403 2258 2206 2242 2270 2296 2308
873 939 895 981 1073 1347 1607 2136 2622 2790 2982 3156 3104 2882 2665 2427 2069 1986 2174 2418 2354 2616 3379 3243 3049 3044 3404 3568 3631 3541 3514 3538 3531 3696 3778 3853 3788 3878 3924 3873 3877 3812 3872 3669 3573 3430 3159 3175 3234 3188 3117 3224 3020 3182 3132 2776 2420 2376 2276 2290 2316 2318 2348
761 919 1050 1107 1058 1122 1246 1280 1362 1327 1578 2060 2778 3117 3276 3340 3248 3120 3014 3082 3086 3088 3098 3302 3262 3106 3116 3023 3084 2953 3016 3308 3474 3626 3776 3923 3927 3908 3905 3917 4001 3905 3858 3800 3599 3516 3344 3172 3254 3181 3016 2998 3243 3298 3032 2522 2466 2428 2357 2304 2334 2360 2345
846 904 970 1168 1387 1464 1378 1298 1346 1196 1125 1066 1179 1315 1605 2149 2737 2692 3156 3203 3337 3400 3399 3387 3306 3164 3152 3113 2938 2956 2827 2775 2421 2436 2968 3346 3495 3605 3716 3761 3779 3826 3844 3722 3614 3540 3295 3211 3195 3068 2994 2972 3125 3453 3213 2697 2473 2492 2489 2414 2352 2396 2326
882 798 854 1158 1209 1391 1400 1301 1123 1039 996 896 1056 1014 1028 1281 1330 1462 1779 1926 2111 2462 2347 2952 3382 3420 3350 3138 3058 2918 3001 3000 2996 2787 2746 2951 3222 3352 3649 3756 3760 3730 3776 3751 3776 3788 3678 3686 3476 3321 3409 3386 3375 3196 2658 2430 2399 2418 2430 2336 2286 2341 2445
1146 969 911 1037 1266 1392 1353 1155 982 851 827 973 1106 1155 1080 1206 1219 1390 1381 1717 2250 2534 2883 2826 2845 2918 2962 3260 3361 3331 3257 3233 3249 3122 3162 2846 2697 3013 3393 3277 3197 3361 3416 3674 3523 3352 3243 3232 3597 3684 3577 3437 3242 3154 2738 2368 2305 2380 2316 2279 2225 2187 2214
1348 1130 945 1005 1183 1190 1237 1106 1003 1048 974 986 1044 1020 1054 1050 1076 1153 1246 1498 1817 1920 2182 2385 2350 2194 2087 2092 1991 1840 2246 2474 2884 3044 3140 3149 3057 2968 3116 3338 2776 2554 2575 2894 2960 3015 3034 2972 2930 2965 2976 2975 3386 3328 2519 2505 2435 2408 2185 2175 2128 2045 2000
1183 1078 875 914 904 968 1078 1027 1103 1330 1445 1552 1476 1192 1042 932 1060 1150 1211 1407 1422 1632 1645 1826 1924 1846 1664 1525 1424 1376 1385 1620 1546 1504 1434 1742 2221 2671 2892 2964 2948 2840 2650 2569 2594 2566 2725 2737 2734 2716 2720 2716 2655 2856 2573 2467 2453 2440 2343 2275 2172 2065 1810

ECMWFFLT1_con_mucape_024.txt.gz
CAPE
1267 1586 1803 2017 2198 2225 2263 2494 2709 2714 2742 2866 2883 2805 2820 2706 2756 2884 2981 3282 3384 3531 3594 3454 3190 2762 2596 2694 2795 2835 2919 3201 3370 3410 3302 3337 3037 3030 3057 2964 2910 2961 2664 2716 2921 2848 3101 3128 2785 3139 3387 3687 3578 3423 3467 3467 3422 3265 3066 3250 3088 2613 2663
976 1272 1532 1841 2168 2250 2324 2567 2805 2748 2768 2856 2907 3041 2860 2845 2845 2959 3096 3236 3401 3524 3602 3441 3288 3103 2897 2726 2462 2689 2971 3037 3080 2946 3125 3321 3209 3148 3179 3272 3017 3104 2966 2686 2660 3034 2993 3354 3208 3300 3550 3833 3666 3613 3380 3441 3511 3275 2696 3148 3042 2879 2742
832 1096 1392 1708 2019 2201 2468 2418 2816 2815 2881 2705 2802 2869 2893 2922 2951 3112 3102 3126 3386 3476 3539 3472 3428 3132 2736 2668 2883 2933 2836 3037 3006 3082 3174 3344 3290 2988 3093 3253 3243 3004 2998 2882 2737 2818 3140 3289 3594 3564 3636 3487 3285 3410 3402 3448 3576 3368 3054 3202 3238 2841 3001
942 1044 1249 1678 2026 2331 2469 2432 2592 2749 2695 2726 2803 2888 2963 3123 3179 3149 3043 3148 3363 3484 3478 3370 3447 3201 3150 3061 2977 3063 3028 3147 3110 3077 3268 3135 3181 3145 3026 3122 3191 3038 2935 3081 2886 2725 2813 3256 3613 3754 3628 3328 3382 3204 3308 3238 3055 3266 3258 3389 3258 2987 3106
748 988 1151 1602 1932 2176 2305 2411 2499 2691 2559 2570 2679 2848 2960 3066 3064 3062 3084 2982 2916 3289 3234 3249 3197 3169 3168 3148 3139 3182 3289 3114 2959 3134 3447 3202 3066 3190 3072 2938 3064 3099 2869 2934 3054 2990 3032 3337 3362 3561 3729 3529 3400 3468 3442 3451 3194 3320 3391 3548 3357 3020 3107
386 938 1108 1398 1770 1999 2133 2237 2284 2433 2461 2396 2567 2808 2894 2924 2885 2843 2840 2850 2829 3045 3215 3129 3165 3196 3169 3054 2990 2954 3228 3323 3342 3452 3373 3284 3139 3030 3111 3155 2964 3101 2790 2968 3035 3091 3313 3254 3120 3265 3438 3616 3212 2976 3237 3440 3246 3163 3461 3562 3363 3006 2873
60 800 1089 1220 1591 1800 2116 2192 2110 2152 2355 2214 2253 2562 2668 2706 2693 2617 2648 2673 2776 3061 2960 2936 2907 2983 3094 2960 2981 3088 3146 3206 3334 3327 3355 3210 3132 3237 3136 3153 2981 2943 3026 3027 3039 3104 3306 3446 3389 3212 3328 3292 3412 2963 3177 3524 3440 3307 3438 3513 3428 3410 3398
7 596 1271 1360 1339 1495 1746 2046 2032 1963 2138 2204 2018 2193 2411 2298 2435 2349 2377 2553 2580 2499 2764 2663 2703 2852 3052 3037 2938 2893 3147 3092 3146 3311 3220 3160 3064 3162 3110 3101 3107 3094 3122 2913 3191 3174 3092 3527 3481 3298 3336 3291 3438 3454 3325 3682 3814 3458 3456 3643 3634 3694 3672
6 924 1395 1169 1174 1157 1470 1899 2050 1980 2002 2133 2083 2056 2142 2240 2248 2318 2359 2386 2451 2345 2342 2371 2483 2654 2976 3006 2941 2988 3116 3084 3116 3142 3122 3030 3038 2855 2840 3032 3214 3115 3039 2964 2876 3229 3156 3303 3471 3542 3518 3483 3460 3643 3513 3691 4115 3855 3678 3702 3820 3811 3432
127 1526 1678 1156 882 822 1034 1258 1837 2062 1996 2198 2229 2167 2108 2150 2098 2130 2178 2173 2165 2252 2159 2139 2256 2523 2809 2875 2832 2850 3000 3077 2968 2874 2920 2829 2794 2766 2746 2774 2973 3072 2969 2913 2742 2986 3265 3196 3385 3609 3720 3626 3619 3700 3716 3795 4000 4139 3838 3922 3933 3922 3609
877 1542 1742 1217 933 902 891 1015 1680 2234 2220 2593 2507 2128 2197 2117 2132 2018 2045 2051 2032 2059 2042 2158 2200 2359 2582 2724 2742 2739 2887 2800 2794 2789 2862 2751 2641 2640 2642 2670 2723 2877 2960 2926 2806 2746 3110 3344 3371 3586 3862 3772 3730 3737 3882 3912 4161 4251 3954 3814 3914 3833 3448
1965 1354 1777 1597 1372 1005 904 1201 1614 2304 2515 2670 2472 2190 2313 2294 2090 1941 1898 1965 1855 1858 1981 2126 2130 2216 2435 2617 2618 2663 2704 2794 2754 2568 2620 2660 2617 2493 2468 2450 2497 2658 2860 2928 2889 2912 2876 3364 3408 3414 3808 3905 3865 3794 3870 3985 4154 4256 4097 3582 3601 3678 3452
994 1355 1631 1272 1697 1461 1361 1430 1618 2204 2818 2630 2305 2196 2182 2175 2100 1954 1967 1911 1801 1786 1881 2089 2152 2320 2311 2521 2630 2694 2594 2658 2728 2708 2543 2686 2660 2585 2422 2364 2319 2426 2648 2842 2912 2945 2918 2974 3508 3452 3639 3963 3952 3800 3926 3998 4008 4202 4210 3921 3544 3564 3585
262 242 1069 1326 1398 2050 2193 2023 2087 2413 3016 2591 2240 2273 2199 2176 2023 1988 1996 1954 1857 1707 1773 1998 2214 2310 2388 2525 2707 2740 2624 2682 2896 2929 2781 2750 2886 2759 2586 2465 2484 2563 2609 2790 2942 2881 2884 2938 3353 3606 3520 3810 3972 3856 3881 3958 3919 4156 4285 4213 3758 3519 3686
19 0 0 1599 2073 2417 2666 2734 2706 2528 2446 2547 1995 1974 2087 2008 2036 2046 2069 2045 2009 1712 1745 1937 2178 2336 2359 2550 2862 2978 2955 3036 3015 3054 3011 2812 3027 3010 2891 2873 2909 2804 2807 2914 3024 3042 2993 2938 3149 3602 3650 3562 3849 3820 3735 3773 3927 3986 4143 4215 3964 3638 3516
0 0 0 0 1441 3000 3082 2773 2961 2903 2476 2632 2051 1883 1851 1994 2207 2104 2038 2051 2000 1956 1757 1925 2207 2467 2467 2575 2898 3102 3143 3178 3170 3226 3264 3252 3193 3314 3212 3002 2986 3020 3026 2988 3165 3317 3205 3134 3171 3366 3600 3651 3776 3829 3710 3668 3833 3439 3183 3465 3918 3827 3472
0 0 0 0 1051 2078 2880 3482 3104 3319 2900 2897 2674 2198 2097 2090 2161 2130 1981 1943 1946 2066 1883 1865 2331 2476 2631 2778 2967 3198 3324 3458 3424 3481 3618 3544 3510 3456 3492 3322 3257 3215 3255 3267 3336 3497 3468 3331 3261 3237 3438 3544 3603 3722 3713 3496 3353 2902 2804 3028 3034 3490 3790
0 0 0 0 253 1508 2105 2426 3003 3274 3100 2623 2782 2759 2355 2397 2273 2221 1880 1834 1962 2007 1982 1926 2206 2497 2868 2832 3206 3428 3538 3696 3815 3812 3825 3814 3732 3631 3670 3617 3466 3521 3579 3438 3434 3662 3612 3452 3415 3483 3352 3507 3578 3531 3575 3505 2736 2430 2502 2692 2648 2604 3372
0 0 0 0 377 2638 1385 776 1310 2756 2315 2086 1954 1996 2273 2460 2199 2219 2146 2058 2078 2188 2077 1934 2054 2547 3139 3156 3412 3621 3812 4070 3974 4000 3991 4067 3974 3936 4023 3894 3815 3720 3676 3636 3701 3716 3816 3763 3576 3571 3411 3385 3554 3531 3475 3349 2660 2378 2341 2378 2436 2304 2382
0 0 0 0 116 572 1187 1981 1433 1055 1720 2050 1853 1479 1711 2212 2199 2214 2222 2061 2130 2206 2322 2229 2211 2696 3352 3521 3688 3950 4244 4385 4246 4171 4201 4229 4131 4065 4122 4138 3984 3810 3836 3761 3833 3750 3735 3467 3464 3414 3157 3373 3272 3436 3596 3486 2885 2436 2246 2197 2266 2234 2102
0 1 387 606 698 501 1261 3055 3409 2930 2190 1528 1316 1464 1630 1703 2025 2115 2224 2159 1987 2224 2982 2623 2703 2881 3425 3764 3780 4081 4464 4448 4242 4218 4363 4376 4268 4274 4245 4141 4032 3952 3859 3659 3709 3769 3574 3229 3418 3494 2944 2902 2954 2731 2766 3156 2893 2594 2303 2197 2176 2128 2034
0 0 47 563 2076 4031 4587 3818 3590 3183 2794 2436 1871 1486 1396 1493 1643 1720 1878 2075 2010 2234 2593 2926 2926 2802 3242 3864 3805 4082 4323 4304 4339 4333 4224 4226 4276 4230 4139 4085 4102 4088 3879 3673 3611 3540 3343 3327 3134 2898 3120 3107 2746 2996 2995 3005 2685 2611 2448 2261 2108 2037 1967
39 789 2372 2862 2551 2744 3625 4029 3780 3406 3729 3600 2509 1688 1407 1184 1376 1559 1609 1926 1983 2502 2629 2833 3029 3029 3264 3894 4030 3899 4234 4294 4292 4106 4052 4054 4234 4222 4101 4095 4134 4054 3948 3884 3693 3556 3453 3215 2963 2801 2924 2739 3017 3022 2953 2703 2771 2353 2266 2141 2109 2083 2015
1660 1809 1847 2520 3235 3341 3604 3869 3988 3906 3841 3460 3324 2303 1505 1276 1415 1612 1798 2012 2208 2472 2820 2974 3315 3455 3742 3989 3939 3880 4062 4148 4058 4095 4046 4146 4246 4246 4136 4031 4060 4118 3990 3913 3746 3478 3515 3435 3380 3235 2846 3018 2859 2745 2840 2730 2846 2516 2329 2130 2068 2077 2065
2414 2457 2822 3018 3106 3156 3324 3781 3980 3749 3645 3745 2676 2183 1719 1590 1522 1729 1942 2056 2164 2578 2995 3088 3153 3388 3552 3749 3646 3831 3962 3986 3971 4046 4125 4175 4201 4194 4162 3996 4056 3938 3933 3864 3764 3651 3675 3460 3382 3298 3248 2931 2645 2541 2609 2754 2705 2551 2472 2286 2194 2097 2074
2739 2846 2937 2726 2901 3120 3421 3809 4062 3791 2944 2510 2856 2854 2096 1761 1740 1807 2028 2085 2038 2196 2760 3120 3114 3120 3215 3345 3484 3681 3878 3851 4036 4145 4196 4238 4175 4086 4065 4004 3862 3944 3889 3875 3686 3723 3612 3218 3269 3140 3023 2794 2781 3044 2578 2584 3264 2587 2556 2428 2326 2225 2111
2345 2415 2588 2642 2764 2765 3612 3615 3570 3458 3419 4014 3682 2747 2736 2268 1996 2221 2507 2646 2601 2403 2626 3163 3262 3349 3423 3514 3415 3474 3958 4055 4128 4122 4176 4224 4280 4051 3772 3765 3787 3725 3886 3821 3654 3659 3705 3636 3458 3334 3337 3042 3180 2929 2628 2554 2990 2602 2620 2541 2459 2358 2192
2058 2411 2501 2602 2784 2820 3481 3188 3414 3374 3145 3376 3230 2782 2887 2873 2718 2781 2909 3000 2929 2804 2447 2835 3284 3493 3709 3900 3712 3468 3912 4074 4066 4291 4276 4250 4194 4180 3942 3839 3840 3888 3912 3704 3867 3909 3870 3886 3522 3196 3172 2993 3104 3323 2928 2662 2740 3193 2515 2572 2534 2457 2320
2030 2190 2359 2364 2859 2938 2778 3202 2911 2925 3198 2968 3400 2948 2692 2714 3088 3147 3522 3354 3246 2993 2751 2783 3228 3766 4038 4172 3893 3721 3986 4344 4304 4317 4310 4317 4203 4201 4083 4022 3974 3992 4025 4099 4033 4017 4012 4041 3843 3538 3382 3314 3318 3089 3358 3490 3362 2620 2502 2555 2567 2533 2446
1632 1846 2044 2087 1828 2202 2346 2395 2394 2767 2934 3043 3518 4052 3642 2864 3696 3788 3891 5094 4516 4087 3904 3865 3977 4227 4260 4216 4196 4042 4022 4273 4306 4400 4296 4236 4174 4168 4266 4194 4056 4110 4200 4378 4281 4099 4011 3876 3849 3737 3418 3297 3264 2897 3302 3497 3753 3193 2712 2616 2527 2517 2496
1472 1398 1734 1630 1738 1874 2107 2308 2592 2428 2588 2641 2964 3305 3881 4258 4608 4593 4614 4183 3990 3877 3438 3523 3772 4020 4003 3985 3979 3946 3816 3884 4346 4560 4443 4314 4326 4347 4282 4283 4237 4328 4361 4262 3979 3971 3443 3407 3545 3812 3628 3688 3576 3456 3486 3546 3822 4044 3170 2900 2647 2534 2438
1470 1579 1625 1674 1814 2245 2367 2308 2300 2427 2497 2513 2520 2554 2880 3163 3494 3697 3659 3700 3941 4218 3964 3690 3613 3869 3795 3867 3884 3996 3946 4092 4237 4472 4512 4360 4298 4432 4485 4468 4526 4495 4469 4180 3974 3943 3828 3837 3606 3485 3632 3759 3693 3540 3568 3698 3721 4261 3549 3216 2952 2659 2523
1510 1450 1776 1911 1907 2076 2286 2179 2167 2215 2150 2268 2321 2469 2620 2834 2714 2921 2984 3496 3783 4143 4426 3963 3740 3747 3905 4021 3960 3926 3975 3923 4021 4218 4411 4506 4299 4269 4436 4483 4466 4379 4302 4143 3895 3954 3774 3710 3703 3690 3598 3699 3651 3787 3892 3816 3886 4325 3689 3429 3114 2801 2691
1409 1452 1760 1897 1830 1866 1891 1943 1985 2205 2277 2504 2274 2458 2621 2837 3048 3370 3587 3754 3936 3725 3728 4190 4025 4074 4179 4332 4285 4119 4240 4100 3917 4000 4160 4314 4326 4244 4032 3930 3697 3984 4082 4010 4066 4017 3844 3846 3760 3695 3722 3679 3661 3732 3707 3877 3990 4238 4082 3445 3070 2897 2814
1343 1472 1669 1769 1641 1579 1505 1418 1543 1668 1462 1747 2322 2532 2801 2818 2872 2848 2862 3007 3439 3824 3915 3618 3828 4082 3957 3593 3488 3411 3338 3314 3739 3498 3522 3926 4185 4072 4219 4111 3778 3288 3782 3859 4061 4029 3583 3954 3875 3970 3927 3448 3395 3762 3695 3921 3896 4038 3750 3630 3304 3029 2890
1363 1410 1495 1517 1478 1414 1343 1220 1324 1488 1549 1641 1649 1775 1844 1753 1714 1935 2182 2393 2612 2965 3309 3345 4009 4124 4091 3992 3974 3746 3394 3530 3499 3392 3226 3249 3374 3649 3938 3717 3619 4459 4138 3844 3514 3489 3587 3380 4184 4532 4487 4014 3850 4076 3872 3973 4107 3789 3613 3559 3474 3104 2916
1132 1395 1443 1352 1349 1374 1472 1428 1402 1493 1424 1301 1223 1067 1241 1442 1727 1734 1965 2100 2311 2810 3037 3276 3418 3436 3403 3450 3701 3801 3655 3914 3794 3988 4088 4001 4083 4023 3750 3514 4442 3332 3087 3158 3446 3760 3724 3515 3450 3467 3432 3403 3859 4459 4039 3649 3514 3537 3599 3546 3415 3229 2947
719 877 1115 1210 1483 1549 1668 1842 1749 1753 1587 1536 1630 1703 1724 1452 1891 1912 1505 2011 2090 2333 2706 2891 2863 2855 2434 2364 2599 2596 2851 2999 2944 2980 2984 3226 3179 3366 3472 3318 3517 4006 3680 2983 2876 2716 2751 2948 3230 3419 3495 3478 3393 3317 3285 3343 3352 3436 3426 3445 3459 3310 3114

ECMWFFLT1_con_mucape_027.txt.gz
CAPE
0 456 1119 1856 2108 2189 2453 2909 3054 3010 3032 3177 3134 2780 2807 2813 2924 3330 3612 3972 4102 4261 4192 4073 3840 3823 3708 3546 3580 3343 3270 3136 3222 3131 2796 2799 2798 2741 2810 3174 3569 3527 2755 2590 2932 2980 2754 2568 2039 2290 2492 3059 3232 3120 3057 3219 3342 3590 3430 3300 3135 2629 2682
350 229 670 1371 1948 2262 2377 2955 3241 2968 2985 3159 3346 3179 2911 3048 3190 3441 3691 4112 4342 4452 4442 4339 4121 3980 3831 3564 3241 3476 3664 3399 3369 3375 3226 3197 3140 3110 2899 3089 3304 3522 3342 2472 2475 2951 2909 2762 2370 2468 2747 3060 3464 3576 3115 3332 3512 3492 2947 3099 3075 2954 2690
276 84 334 529 734 2262 2514 2709 3208 3169 3173 3225 3331 3260 3045 3259 3296 3534 3806 4126 4414 4658 4648 4492 4398 4126 3887 3645 3674 3604 3682 3543 3478 3578 3440 3294 3302 2954 3010 3135 3260 3260 3386 2954 2388 2557 3030 3067 3052 2685 2911 3128 3432 3776 3452 3264 3569 3454 2985 2953 3024 2799 2964
38 0 18 225 819 2341 2542 2733 3212 3274 3208 3123 3310 3438 3292 3528 3542 3719 3879 4127 4484 4657 4782 4548 4367 3875 3719 3718 3690 3672 3557 3748 3857 3504 3426 3344 3355 3215 3058 3183 3349 3309 3278 3367 2804 2278 2497 3139 3418 3333 3367 3121 3408 3557 3467 3062 3190 3450 3308 3166 3017 2956 3066
84 86 66 267 631 2102 2628 2653 3052 3395 3280 3239 3396 3656 3615 3507 3451 3504 3805 4091 4304 4452 4550 4456 4021 3709 3748 3748 3640 3686 3703 3791 3874 3762 3578 3368 3580 3633 3184 3190 3353 3529 3407 3313 3248 2827 2674 2993 3315 3579 3420 3489 3631 3462 3231 3177 2895 3247 3373 3306 3248 3041 3014
0 19 107 100 259 1241 2658 2786 2926 3165 3242 3197 3311 3508 3510 3481 3496 3516 3772 3904 4056 4173 4386 4371 4020 3922 3936 3811 3657 3613 3687 3641 3713 3799 3628 3834 3724 3328 3472 3547 3476 3597 3304 3181 3147 3091 2982 2823 3121 3495 3634 3617 3490 2834 3009 3257 2978 3045 3399 3444 3353 3189 2804
0 0 36 57 232 625 2334 2888 2718 2977 3110 3030 3214 3533 3547 3461 3436 3296 3431 3590 3735 4066 4137 4110 3964 4041 4185 3827 3783 3673 3656 3491 3702 3717 3788 3877 3476 3535 3788 3796 3590 3607 3478 3221 3114 3166 3304 3258 3149 3435 3767 3653 3621 3024 2989 3373 3360 3123 3338 3577 3587 3650 3228
0 130 148 103 333 866 2345 2923 2751 2780 2999 2981 3029 3338 3462 3412 3512 3455 3327 3481 3472 3582 3842 3715 3840 4086 4261 4024 3670 3430 3624 3525 3675 3727 3851 3732 3629 3825 3754 3744 3769 3689 3595 3157 3264 3112 3302 3602 3533 3449 3589 3667 3835 3474 2992 3432 3556 3302 3112 3480 3731 3828 3482
1 72 152 141 177 513 673 2119 2695 2597 2986 3034 2959 3191 3413 3428 3379 3284 3210 3286 3323 3164 3470 3316 3533 3774 4236 4160 3995 3847 3766 3648 3818 3990 3791 3617 3341 3510 3478 3830 3941 3733 3521 3326 3016 3439 3218 3532 3788 3851 3811 3766 3767 3890 3320 3551 3624 3641 3442 3424 3704 3875 3564
8 21 168 27 112 156 323 1585 2618 2960 2965 3192 3090 3156 3352 3439 3419 3358 3264 3204 3209 3141 3252 3055 3016 3361 4118 4126 3943 3879 3788 3787 3710 3659 3482 3354 3241 3344 3350 3388 3712 3856 3480 3200 2957 3194 3670 3504 3828 4132 4135 3855 3821 3924 3824 3573 3712 3846 3596 3557 3659 3880 3891
631 776 722 393 592 858 903 1176 2650 3374 3213 3986 3790 2868 3288 3338 3264 3291 3304 3191 3096 3038 2924 3020 2938 3083 3768 3968 3747 3669 3784 3676 3621 3583 3597 3325 3150 3282 3238 3037 3087 3486 3513 3350 2894 2692 3372 3764 3756 4145 4361 4080 3956 3984 4009 3776 3807 4144 4048 3762 3584 3927 3879
633 1093 1438 779 728 802 970 1923 3120 4017 3801 4119 3227 2823 3327 3713 3244 3148 3097 3192 3036 2984 2889 2910 2926 2878 3370 3796 3584 3628 3580 3784 3348 3330 3566 3538 3248 3111 3085 2849 2506 2890 3354 3367 3153 2857 2623 3718 3816 3930 4438 4442 4205 4099 4122 4192 4129 4121 4095 3760 3423 3725 3932
176 973 1574 1430 1488 1329 1719 2408 2758 3462 3713 3114 2873 2779 2785 2882 3050 2930 3195 3185 2929 2732 2714 3002 3001 3037 3178 3614 3442 3579 3493 3597 3386 3424 3449 3725 3407 3140 3014 2656 2361 2317 2754 3310 3211 2997 2741 3041 3970 3966 4224 4626 4408 4159 4323 4401 4244 4336 4372 4076 3728 3802 4047
24 1102 1406 1621 1786 1838 2110 2244 2499 3273 3735 3118 2771 2834 2634 2629 2701 2880 2964 2896 2826 2682 2768 2924 3067 3109 3317 3624 3685 3706 3688 3563 3762 3812 3858 3878 3993 3679 3102 2936 2634 2475 2542 3221 3469 3241 3059 2899 3634 4021 3979 4403 4540 4449 4406 4420 4375 4485 4525 4455 4020 3798 3993
0 4 603 1417 2024 2462 2614 2554 2948 3013 3368 3268 2866 2819 2714 2574 2562 2864 2887 2738 2881 2630 2552 2785 3036 3176 3198 3554 3888 4051 4042 4151 3904 4056 4040 3869 4262 4031 3548 3462 3500 3330 3077 3631 3622 3492 3303 3172 3219 3914 4102 4246 4567 4546 4411 4361 4423 4242 4398 4610 4495 3911 3814
0 0 0 413 1926 2812 2971 3043 3324 3418 3559 3934 3125 3073 2736 2709 2930 2621 2666 2691 2600 2678 2404 2678 3086 3420 3220 3387 3835 4049 4246 4701 4487 4424 4357 4078 4415 4633 4274 3514 3592 3423 3739 3649 3524 3772 3671 3690 3414 3535 4148 4264 4338 4470 4436 4337 4335 4060 3977 4182 4611 4266 3757
0 0 0 0 682 2691 3088 2902 3289 4030 4115 4378 3945 3230 2964 2926 2804 2634 2468 2514 2519 2629 2406 2331 3384 3064 3231 3564 3751 4102 4580 4664 4542 4578 4624 4475 4233 4471 4630 4270 3666 3788 4085 3879 3651 3952 4257 3803 3412 3397 3743 4053 4192 4337 4344 4306 4336 3914 3754 3936 4026 4308 4162
0 0 0 0 0 6 3530 2582 2894 3845 4016 3778 3991 3636 3120 3297 2935 2763 2450 2363 2390 2367 2293 2283 2600 2917 3623 3404 4014 4720 4796 4672 4667 4698 4800 4749 4530 4539 4667 4422 4082 3991 3961 3717 3554 4038 3709 3746 3752 3857 3472 3782 4027 4017 4234 4424 3984 3746 3673 3649 3714 3800 4305
0 0 0 0 0 0 0 610 3299 3443 2671 2275 2511 2847 2832 2945 2666 2957 2774 2631 2372 2466 2380 2252 2294 2854 4019 3602 3997 4543 4819 4890 4752 4798 4844 4946 4801 4624 4708 4624 4298 4004 3822 3773 3762 3543 4018 4229 3982 3959 3783 3782 4085 4012 3981 4215 3850 3709 3527 3424 3437 3487 3540
8 40 7 0 0 2 52 97 299 707 666 1462 1658 978 1708 2802 2335 2556 2590 2361 2464 2460 2847 2765 2477 2909 3635 4192 4429 4728 4786 5111 4963 4966 5097 5220 5044 4750 4678 4617 4448 4111 3938 3953 3991 3854 4017 3993 4213 4213 4159 3922 4000 4271 4274 4281 3893 3734 3473 3360 3269 3261 3265
66 74 72 21 65 1053 3866 3457 3174 2560 2521 1826 674 434 992 1185 2318 2535 2392 2470 2435 2636 3888 3803 3610 3751 4108 4290 4427 4686 4780 5197 5168 5274 5276 5335 5222 5023 4793 4781 4751 4403 4003 3841 4017 4035 3999 4088 4335 4340 4198 4065 3857 4071 4230 4033 3814 3750 3628 3338 3197 3073 2979
0 0 0 3 908 2214 2372 2684 3230 2247 1945 3081 2394 1327 988 847 1031 1973 2454 2432 2443 2604 3182 3990 4106 3716 4187 4302 4212 4371 4684 5119 5344 5359 5367 5300 5368 5130 4937 4892 4952 4728 4340 4064 3918 4069 4103 4226 4205 4261 4229 4315 4237 3796 3688 3419 3273 3492 3599 3484 3184 2954 2840
0 0 217 1098 1289 1835 3286 3574 3179 3139 3468 3310 2926 1690 1017 818 839 1141 1960 2474 2463 3095 2851 3208 3825 3597 4251 4396 4235 4269 4663 5077 5329 5362 5357 5371 5363 5238 4983 4972 5082 4995 4618 4277 4078 4099 4150 4035 4026 3997 3665 3969 3995 3522 3578 3526 3431 3184 3296 3467 3383 3078 2750
2407 2130 2042 2840 3071 2871 3056 3457 4279 4323 4392 4174 3913 3234 2560 1708 1273 1611 2501 2630 2718 2667 2783 3076 3329 3483 3945 3758 4341 4464 4791 5235 5411 5490 5400 5348 5376 5374 5089 4914 4973 4984 4771 4421 4178 3934 4143 4042 3976 3912 3742 3276 3606 3552 3657 3505 3421 3089 3045 3219 3278 3191 3007
2404 2578 2405 2406 2446 2464 3425 4102 4363 3965 3473 3324 2577 3319 3763 3528 2470 2020 2585 2992 2871 2971 3057 3192 3299 3426 3466 3588 4337 4963 4998 5199 5355 5489 5470 5507 5489 5380 5201 4886 4940 4913 4753 4533 4329 4079 4031 3994 4006 3961 3951 3860 3785 3221 3198 3562 3491 3232 3138 3049 2969 3052 3056
2594 2428 2174 1847 2009 3566 3389 3380 4147 4604 4332 3893 4447 4182 3621 3361 3076 2737 2678 2816 2741 2785 2975 3189 3367 3545 3583 3676 4040 4811 5021 5085 5554 5536 5504 5451 5430 5361 5252 4994 4790 4821 4674 4564 4385 4145 3945 3914 3884 4052 4059 3884 3563 3469 3222 3448 3910 3124 3092 3064 3029 2969 2952
2337 2207 2219 2450 3007 3321 3182 3462 4166 4179 3728 4279 4557 4525 4228 3870 3047 2857 2989 3043 3061 2893 2973 3253 3474 3814 4191 4131 3849 4267 5078 5113 5240 5372 5464 5482 5411 5053 4831 4876 4697 4602 4698 4510 4324 4233 4251 4133 3945 3784 3949 3903 3849 3653 3406 3362 3516 3462 3059 3019 3045 3026 2973
1995 2230 1940 2680 3114 3540 3602 3429 4207 4076 3930 4081 3634 3880 3408 3563 3684 3196 3155 3064 3016 3037 2957 3431 3797 3916 4158 4332 4152 4162 4711 5071 5202 5412 5413 5364 5248 5105 4852 4778 4684 4596 4562 4415 4444 4449 4476 4538 4268 4025 4012 3942 3992 4100 3983 3641 3192 3720 2996 2974 2948 2944 3018
1990 2043 2326 2652 2964 3120 2718 3236 3660 3671 3782 3633 4114 4506 4892 3414 3663 3602 3475 3476 3461 3200 3088 3190 3757 4176 4306 4470 4421 4573 4466 4836 5095 5214 5203 5124 5043 5078 4840 4748 4617 4739 4783 4818 4716 4690 4591 4717 4522 4355 4205 4247 4291 4118 4354 4295 4190 3035 3084 3087 2998 2916 2889
2106 2420 2374 2453 2665 2770 2529 3197 3546 3716 3835 3554 3814 4474 5055 4910 3856 3970 4018 4122 4162 3858 3591 3448 3794 4420 4357 4338 4427 4388 4233 4449 4818 5069 5023 5054 5010 5116 5148 4865 4686 4868 4951 4948 4766 4596 4599 4519 4563 4442 4051 3653 3941 3887 3449 4053 4285 3595 3210 3184 3113 3027 2896
1952 2062 2068 2301 2497 2445 2701 2996 3047 3175 3259 3271 3655 3992 4565 5118 5012 4488 5143 5492 5182 5093 4846 3919 3768 4319 4652 4716 4696 4636 4345 4387 4848 5044 5096 5081 5039 5062 5079 4992 4863 4770 4811 4924 4554 4488 4300 4280 4075 4502 4275 3871 3546 3634 3537 3419 4739 4302 3485 3213 3222 3129 3017
1745 1964 2091 2245 2466 2382 2727 2566 2532 2868 2661 2946 3204 3443 3665 3953 4260 4496 4656 4552 4522 5022 4725 4794 5002 5021 5086 5264 5221 5015 4693 4586 4900 5211 5151 5150 5028 5075 5110 5043 4923 4722 4750 4349 4153 4458 4487 4384 3934 3969 4140 4247 3975 4057 4042 4350 3931 4400 4131 3502 3474 3325 3211
1856 1950 2127 2341 2365 2388 2779 2951 2693 2748 2845 2869 2788 3057 3212 3350 3339 3494 3818 4042 4275 4730 4990 4684 4599 4717 4794 4949 4984 5031 4948 4792 4820 4846 5007 5088 4920 4774 4448 4050 4235 4327 4555 4355 4037 4024 3983 3956 4054 4040 3807 3942 4095 4209 4053 4055 3947 3980 4351 3948 3693 3623 3531
1792 1975 2110 2251 2288 2300 2553 2642 2658 2706 2735 2802 2971 3157 3328 3545 3435 3654 3645 3911 4130 4422 4599 4605 4422 4557 4601 4638 4620 4789 4799 4707 4555 4653 4816 4883 4847 4771 4659 4593 4452 4398 4396 4207 4135 4222 4085 3849 3909 3894 3596 3738 3705 3941 3918 3900 3995 4040 4064 4440 3949 3906 3774
1836 1960 2117 2291 2203 2093 2223 2248 2356 2486 2492 2632 2652 2710 2906 3161 3276 3406 3515 3792 4021 3850 4265 4412 4353 4756 4938 4890 4741 4534 4716 4645 4465 4402 4535 4661 4586 3942 4026 4197 3686 3637 3645 3568 3668 4335 4030 4206 4347 4203 3974 4015 4072 4227 4215 4099 3961 4359 4158 4685 4114 4042 3970
1832 2010 2094 1831 1725 1891 1716 1810 2052 2156 2216 2234 2258 2364 2493 2273 2708 2629 2763 2823 3687 4410 4544 4440 4495 4442 4293 4436 4270 4278 3712 4075 4037 4027 4177 4128 3943 3979 4238 3686 3611 5252 5546 4446 4256 3873 3836 3560 3998 3903 3861 4245 4550 4876 4301 4266 4276 3720 3696 3647 3596 3669 3798
1574 1688 1973 1846 1790 1810 1875 1810 1781 1656 1682 1686 1531 1720 1911 2139 2126 2442 2461 2776 3103 3099 3341 3537 4308 4460 4302 4527 4191 4244 4492 4087 4058 4519 4411 4056 4140 3958 3366 3610 4428 3290 3247 3364 3750 4024 3964 3749 3628 3586 3598 3491 3550 3636 3757 3961 4045 4036 3887 3754 3673 3674 3699
1278 1629 1872 2008 2235 2362 2214 2123 1898 2054 1976 1972 2044 2086 2171 1876 1888 1777 1820 2159 2128 2474 3013 2938 3069 3155 3046 3335 3776 3710 3669 3664 3888 3837 3565 3490 3779 3586 3846 3497 3892 4816 4005 3316 3140 3088 3376 3624 3658 3610 3521 3459 3404 3344 3305 3282 3332 3512 3553 3553 3528 3588 3642

ECMWFFLT1_con_mucape_030.txt.gz
CAPE
0 926 967 734 941 935 1019 1317 1707 1867 2197 2636 3040 2707 2433 2297 2828 3211 3273 3371 3214 3272 3307 3373 3429 3279 3240 3210 3190 3137 3186 3297 3302 3346 3332 3060 2522 2357 2715 3362 3459 3466 3063 3318 3324 3170 3338 3137 2822 2718 3100 3448 3486 3502 3796 3746 4208 4066 4136 4257 3938 3627 3097
0 616 752 878 1088 1148 1302 1554 1993 2121 2283 3012 2887 2990 2413 2588 2903 3078 3284 3601 3650 3567 3448 3496 3489 3401 3325 3372 3290 3305 3231 3263 3387 3305 3262 3145 2788 2735 2738 3017 3496 3872 3766 3326 3497 3660 3628 3341 3158 2976 2976 3424 3411 3518 3666 3863 3831 3871 3782 4083 3807 3925 3637
0 6 1350 1027 1187 1345 1331 1011 1372 1880 2166 2321 2819 2711 2894 3072 3189 3129 3348 3567 3784 3822 3571 3470 3536 3541 3504 3532 3339 3426 3225 3182 3445 3606 3245 2934 2899 2257 2668 2884 3455 3875 3856 3688 3689 3786 3576 3488 3169 3384 3129 3224 3096 3682 3514 3724 3908 3881 4017 4052 3785 3760 3672
167 5 31 944 1106 1280 1270 1258 1120 1522 1957 1854 3027 2834 3008 3455 3286 3368 3501 3388 3509 3850 3961 3560 3376 3288 3564 3592 3567 3553 3360 3228 3276 3078 2819 2649 2658 2500 2531 2762 3167 3344 3854 3627 3328 3226 3005 3207 3336 3133 3493 3179 3231 3572 3698 3435 3583 3899 3994 4055 3841 3694 3797
266 34 2 1188 1390 1456 1345 1349 1816 2493 1918 2458 3058 3464 3198 3482 3102 3264 3470 3215 3475 3846 3779 3715 3154 3249 3628 3676 3502 3405 3451 3359 3298 3088 2921 2736 2810 2667 2477 2369 2864 2914 3130 3712 3431 2980 3098 3596 3428 3234 3341 3519 3608 3862 3923 3829 3652 3974 3960 3826 3577 3472 3734
630 147 56 936 735 773 855 1140 1214 2075 2674 2722 2902 3077 2837 2670 2611 2840 3462 3834 3748 3794 4118 3960 3673 3758 3739 3550 3693 3792 3613 3524 3315 3229 3251 3082 3102 2955 2673 2722 2591 2750 2612 3467 3551 3299 2942 3593 3351 3480 3213 3338 3444 3351 3793 3942 3536 3962 4048 3886 3536 3301 3285
328 40 135 891 898 820 621 1050 1484 2276 3027 2856 2407 3036 2995 2744 2685 2692 2999 3690 3966 4266 4096 4057 3676 3426 3785 3847 3812 3781 3690 3504 3525 3250 3267 3207 3222 3248 3084 2888 2790 2969 2876 3267 3438 3431 3043 2955 3260 3664 3556 2960 2988 3135 3491 3843 3525 3530 3877 3881 3660 3604 3546
298 356 324 436 476 407 800 1869 1910 1332 1737 2584 2085 2686 3046 2882 2732 2772 3155 3634 3875 3947 4096 4013 3898 3874 4002 4168 3660 3390 3517 3340 3339 3404 3099 2972 3041 3103 3182 3269 3086 3057 3282 3314 3507 3611 3334 3018 2906 3616 3956 3646 3389 3353 3728 3980 3769 3629 3645 3839 3871 3717 3614
818 483 253 63 207 266 362 751 659 1126 1558 1451 1740 2346 3206 3082 2964 3008 3174 3426 3673 3856 4054 3973 3869 3785 4197 4137 3789 3572 3646 3660 3511 3392 3190 2556 2622 2764 2678 3226 3392 3240 3409 3305 3351 3612 3415 3384 2906 3165 3950 3882 3905 3915 3769 3919 3853 3497 3447 3796 3858 3690 3375
341 328 225 80 677 353 1180 1326 1666 1552 1526 1738 1781 3331 3346 3224 3118 3012 3005 3249 3519 3679 3959 4016 3850 3883 3972 3922 3661 3460 3578 3664 3549 3424 2913 2986 3240 2758 2497 2810 3015 3306 3313 3318 3236 3595 3462 3592 3394 3305 3619 3992 4153 4245 3929 3852 3840 3646 3474 3735 3868 3800 3793
1015 765 728 364 801 1446 1655 1937 1899 1902 1874 2568 3680 3505 3747 3800 3459 3116 3052 3187 3376 3537 3802 4108 4050 3712 3663 3668 3448 3240 3545 3364 3424 3660 3606 3320 3057 2996 2874 2742 2629 3016 3103 2952 3153 3385 3505 3509 3840 3894 3804 3868 4177 4386 4230 3848 3874 3718 3494 3638 3854 3863 3830
1314 987 710 605 672 1480 1354 1553 1760 1957 2032 3381 3983 3517 3864 3906 3494 3176 3169 3028 3157 3312 3762 3814 3620 3633 3720 3719 3571 3651 3579 3494 3164 3215 3370 3148 2706 2944 2768 2611 2581 3216 3505 3342 3316 3281 3387 3529 3705 4043 4138 3884 3935 4263 4392 4089 3904 3871 3706 3487 3599 3840 3846
2187 2144 1358 1192 1398 2138 2084 2257 2232 2125 2741 4208 3662 3297 3619 3768 3456 3230 3757 3628 3038 3062 3099 3693 3632 3844 3522 3896 3754 3808 3511 3607 3286 3080 3020 3214 2918 2898 2852 2810 2682 2868 3171 3435 3364 3177 3153 3566 3576 3828 4335 4207 4026 4016 4224 4286 3980 3914 3951 3794 3612 3720 3891
1043 934 1261 1528 1827 1410 1788 1686 3745 4609 3644 3809 3610 3440 3284 3474 3417 3754 3997 3720 3104 2960 2949 3071 3657 3757 3919 4275 4212 3988 3414 3512 3701 3377 3389 3356 3275 3178 2898 2778 2923 2828 3264 3735 3610 3359 2967 3292 3765 3702 4075 4429 4220 4089 4081 4225 4161 4041 4099 4059 3942 3876 3922
373 500 998 1389 2460 3081 1605 1324 2276 4846 5017 4438 3639 3397 3325 3310 3298 3866 4086 3672 3650 3018 2925 3256 3500 3653 3642 4122 4422 4287 3981 3900 3928 3696 3498 3514 3553 3378 3105 3031 3154 3096 3227 3734 3778 3371 3152 2958 3679 3920 3839 4239 4486 4291 4098 4080 4120 3995 3992 4118 4138 4043 3894
41 25 132 799 1939 2196 4442 3992 5828 5306 5010 4574 3770 3932 3124 3357 3869 3934 3900 3684 3261 3753 3229 3513 3673 3715 3421 3882 4397 4477 4333 4190 4080 3956 3687 3572 3736 3650 3425 3271 3445 3378 3297 3356 3813 3768 3580 3160 3002 3790 3945 3899 4419 4574 4356 4093 4008 3717 3612 3693 3925 3928 3674
0 76 405 1064 3195 2104 3635 3741 4594 5570 5446 5114 4540 4275 3697 3504 3641 3527 3171 3015 3017 3764 3564 3427 4039 3890 3621 3715 4341 4599 4607 4520 4416 4300 4061 3848 3825 3923 3803 3586 3589 3645 3481 3346 3612 3878 3909 3759 3381 2970 3660 3905 4064 4490 4437 4219 3998 3732 3600 3582 3543 3712 3591
0 92 364 1000 2311 3113 3650 3657 4379 4501 4965 4456 4162 4562 3948 4073 3784 3073 2897 2980 2814 2862 2905 3294 3797 4014 4035 3872 4452 4859 4844 4697 4648 4612 4475 4197 4054 4184 4163 3868 3687 3767 3762 3461 3459 3915 4070 3924 3839 3482 3316 4013 4041 4073 4484 4476 3988 3854 3970 3785 3506 3447 3572
0 5 0 55 1053 3280 2369 2680 4011 4282 3591 3618 3434 3252 3251 4017 3184 3305 3174 3107 3222 3192 2929 2660 2794 4104 4359 4063 4512 4988 5046 4971 4879 4809 4802 4661 4344 4267 4426 4328 3954 3814 3790 3601 3531 3697 4134 4168 4013 3915 3605 3725 4268 4190 4317 4548 4262 4114 4013 3931 3839 3736 3554
0 0 2 4 4 73 1767 3199 3580 3916 3189 3774 3819 2802 2663 2851 3017 3418 3109 2862 3472 3256 3119 3180 3093 3507 4605 4377 4699 5145 5239 5239 5076 4978 4973 5009 4831 4492 4472 4511 4314 3934 3754 3708 3736 3872 4058 4160 4127 4011 3954 3770 4060 4381 4386 4361 4197 4184 4027 3902 3812 3751 3519
2 28 42 70 415 1490 3248 3510 2875 2952 2248 917 1073 969 2584 2932 2438 3233 3074 3023 3036 3428 3933 3819 3546 3504 5020 4624 4737 5264 5420 5438 5268 5158 5154 5274 5203 4874 4581 4592 4601 4430 4051 3697 3756 3760 4004 4135 4198 4173 4058 3945 3900 4313 4509 4116 4135 4136 4039 3930 3834 3673 3559
0 0 0 217 4003 4524 3988 3012 2654 1485 3598 3483 2062 1292 586 598 2300 2305 2214 2417 2640 3070 3796 4390 4134 3730 5015 4919 4702 5085 5434 5518 5470 5365 5304 5414 5424 5167 4798 4669 4865 4791 4468 3841 3483 3640 3814 4168 3986 4162 4246 4211 4055 3871 4032 4075 3865 4063 4142 4066 3910 3775 3610
2639 2445 2555 2501 2537 3213 4258 4291 4198 4452 4316 3547 3221 1954 1057 735 416 1030 2100 2302 2193 3189 3626 4111 4541 3956 4357 5206 4767 4810 5237 5520 5558 5579 5509 5528 5580 5425 5050 4911 5136 5159 4812 4269 3981 4023 3901 3854 3726 3847 4086 4285 4294 4097 3858 3869 3715 3664 3771 3924 4011 3908 3708
2521 2294 1992 2023 3013 3762 4368 4264 4189 3270 2877 2307 1972 1862 2324 2194 2465 3186 5002 3044 3098 3538 3302 3627 4273 4457 4354 5074 4990 4764 5197 5415 5603 5718 5686 5762 5864 5791 5519 5260 5152 5127 4899 4493 3979 3476 3550 3573 3726 3694 3729 3932 4286 4255 4186 3998 3893 3645 3648 3751 3873 3929 3916
2249 2217 2015 2392 3406 3052 2931 3102 2989 3545 4367 4317 4562 5026 3725 3298 3892 4705 4366 4782 3558 3300 3442 3503 3731 4403 4527 4989 5246 5092 5283 5384 5688 5941 5878 5908 6097 5960 5718 5245 5214 5038 5114 4479 4058 3730 3792 3930 4044 3989 3997 3777 4101 4174 4109 4058 3928 3777 3756 3829 3908 3942 3957
1915 2073 2028 1897 3007 2611 3013 3425 4046 4378 3472 4077 4576 4719 4912 4706 4822 4326 4963 5347 3578 2879 3694 3663 3771 4226 4436 4680 5384 5285 5271 5213 5692 6043 6080 6074 5991 6004 5814 5496 5133 5295 5060 4711 4104 3954 3722 3839 4077 4356 4290 4159 4150 4242 3990 4097 4281 3961 3853 3835 3789 3746 3807
1561 1893 1747 1749 2316 3149 3227 2919 4088 4072 3779 4410 4483 4209 4111 4128 4014 4814 4763 4915 4792 3933 3160 3956 4338 4770 4666 4648 4561 5398 5494 5403 5744 6046 6228 6174 6053 5646 5435 5272 5196 4992 5021 4617 4358 4401 4439 4086 3966 4139 4439 4136 4412 4258 4224 4060 4229 4052 3958 3841 3548 3328 3336
1924 2052 2269 2130 2361 2928 2893 2699 3473 3553 3360 3552 3879 4200 4949 5567 4394 4839 5161 4637 4481 4512 3363 6014 4974 5199 5121 5184 4514 4692 5682 5465 5827 6158 6196 6208 6234 6148 5764 5662 5512 5305 5280 4898 4891 4943 4906 4732 4268 4161 4252 4375 4456 4432 4347 4123 3749 4252 3881 3748 3571 3424 3353
2137 2298 2390 2346 2552 2819 2500 2760 3346 3374 3702 3598 3659 3500 4344 5132 6012 4568 4567 4485 4042 4257 4483 5409 5761 5531 5670 5654 4926 4648 5542 5991 6058 6124 6114 6216 6271 6214 5921 5868 5712 5553 5494 5450 5366 5510 5353 5384 5078 4722 4602 4635 4763 4651 4864 4945 4394 3862 3749 3715 3641 3483 3387
1844 1839 1960 2050 2024 2492 2307 2858 3407 3291 3443 3310 3396 3918 4411 5279 5880 4090 3990 4505 5206 4719 4588 4898 5774 5946 5814 5539 5603 5274 5137 6158 6060 6384 6214 6321 6258 6217 6258 6021 5748 5832 5896 5797 5708 5659 5709 5565 5493 5319 4936 4660 4660 4640 4571 5089 5294 4621 3939 3810 3748 3661 3550
1607 1930 2005 1990 2326 2700 2450 2733 3051 2758 2784 2961 3214 3660 4149 4879 5589 5692 5753 5650 6023 5938 6134 5497 4312 6653 5970 5637 5660 5807 5273 5701 6312 6329 6217 6207 6206 6224 6235 6117 5787 5849 6020 6091 5943 5775 5677 5813 5562 5621 5298 4992 4734 4582 4678 4804 5383 5402 4502 4166 3994 3907 3818
1528 1690 1908 1826 2305 2363 2267 2580 2746 2589 2663 2826 2975 3407 3604 4337 4800 5116 5113 5011 4845 5544 5635 5914 5634 5886 6180 5931 5990 5974 5939 5810 5941 6162 5822 5853 5755 6068 6234 5979 5898 5755 6219 6062 5930 5806 5568 5604 5260 5095 5044 5043 4851 4687 4638 5188 5059 5492 5308 4402 4122 3996 3869
1736 2006 2154 2060 2338 2422 2714 2766 2558 2805 2726 3228 3118 3518 3207 3732 4117 3898 4090 4427 4130 4648 5083 5206 5354 5612 5874 6246 6446 6203 6057 5776 6170 6265 6024 6189 6221 6247 6166 6062 6056 5827 5838 5658 5414 5357 5320 5109 4904 4749 4460 4606 4692 4801 4879 4726 4720 4534 4862 4146 4101 4087 3992
1892 1969 2120 2290 2237 2323 2498 2638 2671 2712 2831 2935 2917 3083 3256 3523 3591 3847 4029 3821 3994 4257 4622 4782 4478 5189 4856 5181 5744 6191 5882 5635 5175 5962 5577 5813 5255 5215 5206 5184 5070 5050 5473 4983 5018 4775 4944 4762 4530 4414 4225 4126 4291 4489 4708 4632 4887 4487 4004 3826 3762 3824 3856
1871 2080 2046 2351 2320 2090 2203 2295 2500 2663 2499 2635 2713 2833 2903 3051 3224 3135 3673 3837 3940 4425 4563 4801 4397 4882 4710 4367 4605 4433 5204 4821 5454 5031 4915 5197 5248 5297 5183 4868 4527 4630 4699 4196 3964 4063 3840 4206 4432 4216 4431 4257 4989 5676 5219 4861 4518 3828 3609 3646 3636 3684 3767
1848 2203 2400 2302 1920 1929 1745 1855 2114 2174 2263 2313 2635 2755 2804 2836 2699 2726 3119 3436 4378 4476 4649 4639 4766 4827 5097 4920 4732 4779 5076 4894 4509 4512 4706 4728 5022 5186 5829 5262 5438 5481 5913 3943 3742 3767 3746 3647 3934 3966 3899 3876 3949 3786 3878 4062 4104 4038 3902 3816 3772 3709 3700
1764 2168 2206 1939 1655 1981 1772 1776 1854 1835 1814 2107 2422 2784 2893 2709 2592 3166 2411 3432 3808 3809 5023 5110 5025 5112 5191 5030 4468 4846 5474 5043 6147 5747 5571 5923 6072 6436 5934 5069 3857 4044 4088 4240 4187 4071 3830 3695 3597 3536 3400 3484 3584 3627 3579 3624 3735 3864 3943 3926 3887 3874 3832
1616 1742 2002 2228 2589 2368 2108 1986 1821 1818 1909 2037 2223 1820 2354 1718 1900 2563 2007 3254 3198 3084 3464 3742 4621 4601 4634 4169 3818 4730 4585 4706 4923 4908 4742 4658 4735 4988 4731 4832 5338 3925 3411 3538 3530 3638 3808 3752 3697 3615 3502 3435 3358 3384 3419 3474 3552 3630 3670 3720 3767 3774 3777

ECMWFFLT1_con_mucape_033.txt.gz
CAPE
1198 1282 1414 1348 1376 1443 1379 1363 1285 1174 1342 1660 1679 1676 1767 1645 1684 1684 1687 1639 1701 1777 1810 1681 1777 2003 1765 1649 1732 1850 1919 1972 2013 2107 1889 1831 1818 2094 1845 1868 1758 2208 2115 2282 2292 2292 2317 2306 2206 2192 2330 2662 2701 2991 3132 3102 3216 2985 2938 2991 2574 2534 2517
962 1123 1285 1394 1499 1618 1517 1391 1351 1303 1315 1809 1925 1835 1867 1795 1675 1602 1763 1739 1746 1770 1915 1852 1832 2002 1996 1792 1752 1939 2012 2068 2109 2228 2096 1948 2015 2225 2114 2008 1900 1871 2305 2226 2235 2520 2487 2533 2298 2178 2404 2644 2694 2768 3137 3054 3036 3145 3070 3250 2764 2268 2432
864 960 1047 1124 1210 1425 1566 1455 1328 1317 1317 1814 2125 1988 1936 1897 1800 1703 1771 1866 1839 1816 1965 2010 1940 1928 2102 1988 1835 1946 2100 2150 2209 2245 2251 2054 2073 2074 2333 2313 2056 1941 1949 2405 2390 2293 2749 2659 2444 2195 2352 2610 2669 2653 2892 2972 2859 3148 3152 3305 3026 2626 2314
665 831 935 1051 1180 1346 1545 1452 1383 1302 1328 1645 1988 2074 2021 1978 1866 1772 1933 2016 1980 1922 2011 2120 2103 1993 2065 2116 1970 1972 2121 2216 2268 2298 2308 2218 2114 1977 1980 2458 2435 2305 2143 2198 2633 2542 2543 2730 2505 2273 2498 2499 2618 2610 2619 2834 2787 2916 3095 3170 3160 2758 2743
704 821 908 958 1095 1217 1616 1663 1551 1392 1386 1559 1778 1918 1972 2092 2016 2103 2162 2217 2140 2073 2081 2204 2267 2178 2081 2117 2105 2055 2119 2208 2279 2300 2306 2293 2243 2032 1770 1788 2396 2619 2586 2404 2577 2835 2631 2590 2553 2283 2089 2220 2469 2519 2551 2617 2836 2785 2858 3053 3048 2862 2681
661 820 924 894 893 917 1238 1618 1667 1552 1424 1498 1717 1951 2099 2252 2218 2309 2420 2508 2402 2291 2201 2247 2332 2388 2232 2112 2156 2162 2151 2174 2210 2283 2280 2245 2216 2158 1842 1652 1686 2223 2772 2786 2634 2808 2880 2619 2577 2415 2335 2195 2318 2400 2551 2542 2743 2867 2801 3062 3013 2874 2752
748 860 954 960 936 972 963 1080 1426 1535 1491 1497 1646 1845 2193 2414 2388 2385 2545 2705 2700 2554 2381 2322 2323 2372 2385 2283 2225 2242 2246 2209 2195 2237 2255 2195 2111 2084 1947 1701 1628 1751 2136 2794 2799 2630 2865 2854 2618 2497 2362 2468 2344 2413 2594 2662 2644 2886 2844 2969 3057 2952 2841
534 751 823 965 968 1056 1011 958 1126 1368 1543 1680 2029 2347 2304 2388 2453 2420 2529 2703 2888 2824 2628 2482 2409 2348 2412 2455 2395 2328 2324 2305 2244 2228 2254 2252 2097 1996 1942 1789 1672 1680 1798 2196 2833 2724 2518 2688 2793 2524 2338 2386 2511 2442 2639 2797 2768 2822 2913 2906 2939 2952 2864
90 654 628 798 961 983 1033 1004 1043 1221 1437 1564 1783 2352 2660 2658 2650 2557 2554 2616 2832 2934 2880 2723 2576 2466 2438 2501 2530 2456 2372 2360 2299 2213 2215 2214 2146 2022 1940 1852 1718 1690 1797 1835 2299 2834 2653 2342 2448 2793 2545 2236 2404 2549 2682 2897 2910 2872 2971 2973 2938 2847 2746
2 531 662 792 842 906 961 1045 1081 1170 1366 1471 1560 1804 2390 2722 2758 2708 2649 2690 2766 2850 2920 2919 2845 2675 2518 2517 2596 2602 2526 2469 2400 2305 2206 2176 2152 2096 2024 1956 1788 1710 1817 1880 1941 2554 2863 2620 2185 2459 2871 2522 2228 2410 2621 2923 3042 2965 2962 3039 3038 2912 2720
45 368 753 721 865 941 1024 1127 1208 1348 1508 1615 1646 1790 2250 2783 2837 2804 2760 2676 2867 2896 2986 3053 3065 2940 2719 2626 2658 2702 2695 2648 2539 2441 2312 2196 2142 2128 2102 2071 2008 1870 1839 1959 2005 2223 2682 2830 2545 2076 2632 2935 2577 2354 2397 2674 3044 3062 2950 2956 3029 2993 2820
88 41 828 858 970 948 982 1161 1330 1675 1918 2179 2071 2123 2364 2793 2922 2878 2820 2691 2966 3288 3211 3261 3290 3155 2912 2777 2737 2766 2795 2787 2698 2551 2435 2270 2132 2081 2105 2086 2097 2118 2018 2004 2140 2232 2466 2723 2742 2461 2110 2766 2976 2712 2485 2486 2848 3062 2991 2871 2920 2983 2924
100 243 844 963 989 913 911 1037 1201 1733 2218 2519 2526 2396 2291 2566 2799 2852 2811 2704 2713 3367 3644 3596 3510 3419 3198 2927 2796 2815 2880 2827 2747 2651 2500 2369 2180 2006 1973 1980 1970 2148 2251 2156 2164 2286 2493 2663 2716 2638 2316 2213 2770 3041 2910 2704 2731 2969 3040 2912 2830 2926 2953
462 63 860 904 918 901 1166 1263 1333 1575 1851 2237 2540 2545 2483 2278 2738 2904 2855 2769 2697 3217 3689 3846 3781 3671 3524 3300 2977 2868 2888 2840 2759 2663 2558 2417 2234 2004 1885 1888 1876 1943 2244 2331 2229 2230 2372 2716 2731 2730 2606 2322 2323 2754 3077 3058 2884 2851 2970 2958 2808 2831 2956
235 262 804 893 786 958 1258 1506 1779 1998 2136 2355 2559 2541 2311 2271 2907 3002 2941 2868 2785 3065 3476 3769 3864 3816 3720 3560 3307 3038 2929 2837 2739 2652 2593 2537 2338 2151 2093 2113 2040 1982 2093 2323 2312 2234 2245 2480 2752 2764 2762 2662 2436 2405 2714 3075 3131 2962 2890 2924 2856 2738 2886
894 1111 992 863 963 1040 1070 1170 1361 1468 1468 1603 1696 1834 2244 2742 3141 3238 3146 3055 2980 2942 3233 3566 3818 3861 3798 3708 3538 3256 2971 2846 2706 2620 2585 2640 2572 2394 2270 2292 2304 2170 2103 2338 2414 2305 2271 2326 2608 2752 2773 2838 2814 2641 2583 2765 3085 3154 2999 2893 2862 2766 2760
1123 1244 1222 1267 1283 1321 1357 1614 1830 1641 1650 1878 2135 2557 3016 3410 3385 3365 3325 3219 3174 3126 3032 3380 3697 3841 3854 3770 3639 3415 3140 2887 2759 2671 2586 2604 2698 2626 2416 2284 2279 2273 2180 2351 2692 2662 2536 2466 2450 2657 2736 2777 2927 2977 2853 2777 2850 3101 3215 3052 2913 2824 2752
961 1157 1538 1915 2435 2456 2143 2535 3207 2598 2032 2410 2967 3077 3189 3441 3550 3491 3435 3406 3383 3280 3170 3099 3358 3656 3742 3694 3660 3608 3421 3128 2923 2859 2702 2537 2560 2632 2557 2346 2213 2208 2258 2337 2745 2928 2859 2734 2561 2550 2706 2739 2783 2982 3096 3034 2896 2924 3162 3241 3100 2933 2850
1778 2289 2669 3157 3372 3685 3936 4156 4255 4428 3685 3241 3368 3432 3225 3215 3512 3591 3528 3499 3493 3449 3281 3201 3136 3289 3551 3586 3620 3748 3670 3488 3182 3066 2965 2695 2513 2564 2578 2450 2287 2223 2274 2376 2589 2994 3044 2959 2804 2621 2654 2849 2818 2799 3008 3159 3110 3052 3060 3203 3249 3137 2932
98 1771 2605 2724 2757 2945 3406 3888 4080 4161 4147 3914 3760 3796 3593 3446 3222 3544 3594 3560 3527 3502 3474 3329 3191 3064 3336 3471 3516 3761 3827 3683 3449 3179 3162 3020 2742 2615 2688 2617 2410 2265 2310 2411 2468 2756 3104 3114 2998 2823 2664 2775 2984 2937 2861 3002 3168 3227 3178 3159 3221 3242 3137
2679 2802 2735 2752 2472 2846 3208 3221 3305 3523 3621 3623 3348 3174 3125 3332 3344 3239 3324 3444 3476 3407 3364 3340 3326 3182 3328 3325 3359 3611 3891 3839 3648 3432 3335 3262 3064 2798 2729 2784 2686 2458 2379 2460 2526 2538 2771 3099 3131 3035 2874 2695 2743 3031 3078 3013 3094 3280 3333 3282 3244 3246 3225
3241 3929 4080 4042 4050 3986 4039 3815 3692 4003 3869 3250 2620 2180 2613 2895 2963 3068 3094 2895 2907 3114 3221 3219 3257 3274 3478 3448 3260 3512 3876 3913 3790 3613 3529 3466 3346 3115 2913 2883 2900 2796 2601 2529 2583 2585 2560 2724 2994 3094 3039 2933 2770 2695 2944 3255 3286 3358 3461 3480 3408 3328 3264
3117 3376 3251 3229 3244 2918 2837 2659 2814 3152 2597 2364 2252 2135 2111 1907 2101 2775 2858 2938 2817 2666 3033 3139 3087 3148 3272 3735 3501 3549 3918 3986 3896 3777 3697 3660 3604 3441 3216 3060 3067 3069 2947 2776 2670 2685 2668 2629 2726 2941 3078 3089 3027 2884 2768 2901 3316 3571 3649 3710 3676 3590 3446
2076 2513 2747 2828 2446 2523 2912 3424 3687 3970 4373 4492 4631 4655 4493 4468 3609 2755 3693 3928 2689 2667 2643 3062 3236 3173 3123 3985 3820 3694 4000 4134 4059 3962 3876 3862 3835 3765 3603 3382 3273 3317 3320 3150 2921 2759 2753 2764 2762 2816 2951 3107 3158 3113 3035 2910 2937 3334 3697 3838 3944 3945 3823
1747 1731 1909 2126 2577 2816 3414 4134 4153 3980 4288 4479 4584 4273 4260 3967 3917 4293 4281 4067 4454 2540 2467 2600 2974 3359 3247 3978 4151 3931 4139 4309 4284 4175 4091 4065 4045 4026 4000 3862 3681 3588 3668 3565 3348 3072 2879 2872 2878 2869 2901 3016 3144 3265 3244 3167 3086 3083 3273 3642 3876 3993 4031
1967 1888 1671 1864 2789 2851 3166 3934 3783 3627 3482 3668 3766 4279 4492 5004 4809 4253 4960 5168 4460 3898 2979 2414 2625 3264 3445 3887 4371 4175 4240 4478 4502 4415 4321 4276 4266 4307 4303 4248 4098 3992 3954 3932 3743 3548 3270 3070 3038 3045 3024 3007 3058 3184 3353 3381 3353 3310 3250 3230 3386 3678 3895
2256 1972 1898 2469 2905 2863 2654 3100 3313 3111 3030 3508 3879 3764 4295 4478 5119 5373 4513 4520 4357 4104 4141 3547 2780 3194 3614 3744 4480 4329 4322 4518 4667 4637 4563 4503 4495 4584 4658 4576 4438 4286 4260 4210 4066 3872 3664 3407 3263 3253 3293 3265 3196 3135 3146 3256 3409 3495 3491 3470 3408 3372 3405
1787 1793 1951 2286 3398 2666 2417 3166 3261 3102 3660 3600 3593 3560 3775 4519 4833 5375 5506 4425 4163 4308 4142 4720 3495 3375 3702 3897 4556 4492 4413 4510 4703 4790 4795 4808 4816 4927 4961 4914 4708 4529 4434 4357 4289 4145 3957 3758 3523 3366 3364 3508 3630 3538 3382 3339 3420 3546 3635 3657 3634 3587 3514
1849 2014 2052 2084 2490 2486 2323 3113 3090 2966 3556 3382 3191 3176 3592 4189 4485 4852 5340 4930 5581 5713 5597 5538 4626 3649 3806 3978 4547 4626 4554 4552 4751 4939 5159 5145 5109 5128 5168 5170 4975 4765 4591 4502 4403 4303 4168 4008 3841 3646 3459 3361 3557 3803 3872 3802 3702 3687 3752 3849 3855 3864 3813
1586 1886 1904 2088 2295 2416 2460 2843 3517 2969 2892 2956 3412 3413 3508 4189 4986 5990 5680 4856 5143 5450 5403 5002 5578 4539 4103 3942 4341 4763 4668 4694 4950 5164 5402 5418 5318 5248 5204 5248 5138 4967 4786 4650 4556 4456 4382 4264 4112 3945 3763 3544 3498 3956 4167 4216 4184 4133 4094 4067 4019 3946 3775
1260 1576 1807 1934 2375 2361 2344 2702 3137 2709 2787 2971 2870 3189 3721 4340 5021 5044 4971 4880 4764 5262 5087 5126 5575 5434 4618 4290 4152 5024 4890 4894 5230 5381 5547 5586 5549 5421 5344 5256 5205 5136 4960 4750 4699 4614 4590 4584 4459 4331 4190 4011 3779 3831 4114 4331 4492 4621 4444 4252 4208 4136 4057
1485 1679 1745 2053 2450 2375 2469 2406 2721 2627 2774 2935 2875 3146 3273 4029 4570 4708 4621 4783 4706 4719 4578 4975 5518 5987 5247 4960 4490 5129 5429 5197 5406 5546 5606 5705 5724 5646 5574 5452 5367 5299 5321 5148 4976 4856 4767 4832 4892 4811 4703 4471 4284 4147 4058 4232 4215 4552 4922 4688 4628 4506 4365
1202 1342 1741 1974 2603 2525 2460 2564 2523 2945 2999 2803 2343 2726 3126 3360 4074 4174 4184 4366 4612 4327 4411 4709 5656 5832 5831 5633 5458 5257 5704 5703 5620 5730 5670 5823 5807 5841 5798 5680 5638 5463 5456 5415 5338 5187 5037 4989 5135 5142 5085 5008 4884 4716 4500 4277 4341 4238 4137 4049 3990 4008 4023
1086 1301 1702 1867 2519 2557 2364 2164 2458 2682 2499 2521 2520 2472 2851 3131 3242 3640 3596 3526 3563 4195 4144 4745 4743 5084 5507 5756 5743 5527 5379 6124 7137 6149 5765 5855 5854 5945 5956 5857 5862 5666 5444 5539 5509 5485 5356 5148 5054 5038 5018 4950 4886 4794 4663 4621 4489 4338 4212 4036 3889 3807 3746
1279 1407 1577 1987 2257 2258 1978 1960 2311 2403 2260 2188 2303 2470 2492 2472 2912 3170 4213 3999 3789 4082 4489 4626 5156 5299 4750 4927 5131 5146 5174 5541 6232 5877 5733 5717 5640 5763 5639 5622 5718 5497 5325 5190 5312 5337 5341 5278 5067 4900 4745 4618 4828 4911 4121 4169 4210 4196 4091 4055 3970 3921 3812
1288 1402 1791 1866 2154 2238 1696 2139 2047 2070 1697 2057 2159 2257 2547 2454 2847 3085 3122 3542 3893 4200 4785 4438 4305 5098 4902 4761 5130 4886 4717 4865 5244 5424 5370 5228 5224 5206 5072 5082 5124 5174 5207 5056 4901 4859 4792 4687 4774 4657 4564 4423 4199 4093 4285 4329 4201 4039 3998 3981 3928 3816 3762
1469 1341 1438 1685 2132 2496 1890 1596 1916 1965 1904 1926 1995 2251 2324 2972 2499 2477 2765 3387 3760 4179 4122 3973 5308 5000 4460 4404 4615 4843 4907 5362 4983 4951 5319 5259 4900 4827 4794 4788 4682 4685 4674 4686 4668 4554 4508 4383 4195 4263 4211 4102 4039 3902 3788 3815 3832 3812 3763 3739 3753 3758 3755
1284 1498 1541 1704 2225 2453 2425 2054 2163 1986 2197 2005 1885 1875 1888 1819 1838 2195 2631 2633 3536 3830 3940 4237 4869 4870 4478 4233 4358 4466 4549 4722 4673 4423 4767 5083 5046 4707 4583 4508 4385 4241 4242 4236 4169 4098 4056 4013 3911 3846 3852 3891 3832 3752 3688 3640 3631 3608 3564 3535 3514 3523 3508

ECMWFFLT1_con_mucape_036.txt.gz
CAPE
689 846 1025 1169 1235 1198 1166 1106 1012 943 906 871 832 806 794 790 794 759 821 985 1041 1056 1072 1138 1190 1262 1315 1308 1262 1173 1125 1083 1072 1231 1148 1100 1187 1182 1041 1000 964 837 881 1138 1375 1593 1720 1759 1907 2002 2223 2534 2592 2667 2830 2923 2894 2898 2865 2770 2687 2666 2592
681 865 998 1140 1220 1234 1213 1152 1087 1006 971 939 898 869 848 853 828 796 763 940 1027 977 982 1070 1139 1192 1205 1182 1128 1073 1035 1041 1045 1193 1284 1172 1140 1145 1039 962 1053 1091 968 1205 1385 1574 1756 1824 1864 1967 2032 2421 2588 2574 2666 2841 2900 2905 2893 2737 2597 2582 2590
716 902 1044 1109 1167 1201 1200 1180 1097 1049 1065 1062 1002 946 928 908 882 852 813 893 1065 1018 961 1011 1164 1156 1157 1142 1086 1056 1057 1056 1066 1106 1262 1298 1183 1128 1050 944 994 1220 1314 1302 1511 1612 1799 1872 1882 1916 1946 2121 2510 2567 2597 2684 2822 2880 2863 2744 2579 2548 2548
814 1017 1126 1151 1157 1183 1220 1185 1126 1067 1124 1163 1110 1050 1025 1010 976 930 1022 888 1089 1144 1076 1026 1167 1243 1151 1086 1072 1078 1121 1152 1168 1151 1209 1305 1290 1140 1228 1203 1118 1024 1416 1588 1629 1720 1862 1896 1913 1891 2153 1956 2209 2456 2584 2658 2692 2779 2834 2768 2612 2566 2505
930 1107 1217 1238 1229 1250 1238 1212 1168 1100 1104 1209 1234 1207 1190 1184 1087 1076 1173 1136 1135 1232 1211 1132 1156 1311 1343 1207 1119 1116 1174 1226 1284 1289 1277 1313 1330 1274 1292 1367 1313 1214 1186 1603 1801 1850 1978 1977 1974 1925 1918 1964 2032 2193 2370 2598 2678 2685 2753 2811 2726 2669 2607
1003 1168 1286 1310 1303 1294 1295 1271 1213 1123 1110 1207 1324 1334 1322 1346 1328 1292 1284 1328 1241 1263 1312 1279 1224 1334 1432 1422 1317 1259 1263 1318 1353 1405 1429 1438 1427 1401 1393 1478 1487 1398 1281 1322 1854 1964 2096 2116 2068 2030 1942 1983 2057 2159 2235 2369 2578 2644 2690 2762 2773 2753 2702
1079 1190 1314 1342 1324 1320 1327 1328 1264 1198 1165 1233 1364 1428 1461 1547 1523 1472 1410 1417 1364 1336 1355 1404 1363 1327 1383 1495 1501 1439 1383 1415 1467 1515 1544 1572 1584 1521 1473 1507 1659 1624 1474 1378 1499 2014 2128 2267 2222 2152 2036 1995 2085 2191 2256 2292 2384 2520 2584 2635 2678 2674 2673
1076 1134 1249 1334 1316 1318 1351 1346 1299 1255 1232 1272 1410 1538 1550 1620 1637 1606 1566 1549 1502 1372 1345 1452 1483 1445 1431 1471 1588 1620 1546 1510 1568 1620 1647 1656 1675 1678 1590 1530 1629 1842 1800 1643 1522 1690 2080 2137 2294 2325 2224 2125 2109 2156 2249 2302 2325 2378 2460 2475 2486 2534 2542
1034 1088 1186 1258 1268 1330 1373 1346 1322 1319 1281 1285 1524 1679 1684 1721 1722 1695 1671 1674 1660 1579 1527 1487 1528 1555 1536 1514 1578 1685 1701 1652 1648 1688 1722 1733 1738 1735 1711 1627 1542 1707 2001 1995 1838 1748 1886 2075 2060 2119 2262 2254 2209 2163 2138 2211 2271 2297 2360 2396 2386 2399 2443
978 1033 1114 1199 1195 1265 1402 1397 1350 1330 1315 1288 1510 1771 1830 1818 1827 1814 1796 1763 1759 1725 1686 1636 1593 1613 1663 1638 1614 1663 1760 1778 1746 1744 1772 1811 1819 1796 1788 1738 1622 1515 1685 2067 2143 2084 1989 2081 2198 2151 2116 2143 2172 2162 2123 2092 2149 2208 2247 2324 2340 2339 2368
868 954 1002 1028 1099 1160 1356 1482 1485 1431 1376 1341 1435 1722 1892 1906 1928 1941 1920 1898 1893 1836 1784 1741 1685 1718 1784 1784 1742 1714 1760 1828 1848 1834 1829 1841 1847 1853 1817 1793 1745 1601 1440 1462 1800 2184 2280 2181 2241 2348 2306 2216 2164 2170 2148 2114 2091 2150 2188 2253 2337 2349 2345
729 822 860 907 1017 1056 1214 1462 1558 1510 1456 1420 1435 1579 1779 1930 1995 2050 2066 2056 2084 2057 1968 1864 1788 1838 1885 1905 1887 1852 1813 1833 1876 1893 1900 1874 1866 1868 1850 1804 1736 1674 1574 1423 1334 1446 1988 2334 2271 2274 2424 2435 2341 2272 2254 2231 2162 2161 2219 2250 2335 2399 2399
692 762 801 850 952 1004 1090 1290 1516 1572 1536 1492 1474 1546 1695 1830 1946 2051 2128 2182 2266 2305 2241 2135 2045 2001 1988 1993 1999 1995 1963 1909 1899 1911 1932 1930 1913 1868 1853 1823 1750 1658 1593 1512 1408 1330 1394 1888 2282 2235 2183 2367 2486 2443 2376 2343 2285 2242 2304 2339 2370 2446 2480
825 667 742 835 888 944 976 1054 1276 1550 1640 1609 1571 1618 1767 1868 2005 2167 2248 2290 2360 2462 2511 2449 2329 2238 2153 2029 2011 2052 2079 2062 2017 1978 1959 1955 1943 1887 1852 1818 1779 1711 1601 1511 1445 1382 1363 1478 1943 2257 2210 2116 2222 2408 2419 2380 2347 2300 2376 2442 2456 2486 2552
669 651 747 837 872 908 956 981 1029 1244 1526 1643 1647 1699 1917 2084 2152 2262 2367 2396 2438 2515 2622 2674 2633 2523 2404 2267 2234 2176 2092 2144 2148 2110 2074 2039 2002 1951 1874 1811 1789 1748 1674 1575 1501 1430 1426 1453 1618 2000 2231 2196 2058 2082 2316 2376 2320 2284 2305 2478 2555 2534 2540
675 729 740 822 864 890 941 1000 1041 1086 1248 1452 1554 1634 1827 2155 2398 2497 2556 2548 2568 2607 2652 2731 2772 2747 2668 2564 2447 2354 2257 2218 2221 2228 2216 2170 2116 2050 1978 1878 1791 1745 1710 1671 1621 1540 1487 1503 1579 1770 2034 2199 2202 2099 2078 2284 2410 2352 2303 2314 2513 2595 2573
528 692 690 737 781 781 816 931 1031 1088 1186 1328 1449 1514 1636 1929 2330 2617 2703 2718 2738 2757 2842 2832 2849 2835 2827 2772 2682 2582 2465 2353 2304 2325 2326 2295 2227 2159 2087 1991 1867 1760 1706 1685 1692 1687 1611 1580 1620 1747 1906 2067 2190 2207 2140 2100 2267 2481 2496 2402 2358 2464 2555
350 495 567 574 616 700 815 926 1065 1212 1354 1524 1669 1647 1694 1839 2098 2430 2684 2771 2774 2808 2993 3145 3104 3038 3008 2975 2905 2811 2704 2598 2466 2429 2414 2371 2338 2278 2190 2100 1987 1845 1716 1657 1652 1733 1768 1724 1683 1740 1901 2038 2130 2194 2205 2162 2136 2238 2514 2602 2537 2452 2468
394 429 572 595 650 753 854 960 1121 1328 1539 1744 1907 1868 1858 1952 2143 2396 2614 2753 2798 2787 2854 3256 3403 3359 3276 3214 3159 3084 2956 2830 2852 2832 2733 2528 2431 2367 2286 2203 2095 1955 1785 1660 1609 1638 1795 1839 1814 1790 1842 2013 2180 2257 2301 2303 2250 2200 2254 2507 2670 2671 2587
1918 1768 1564 1281 1027 917 1204 1324 1089 1278 1569 1823 2043 2102 2069 2158 2299 2474 2637 2766 2826 2836 2837 3009 3368 3588 3590 3531 3477 3391 3290 3198 3211 3219 3161 3056 2888 2623 2411 2325 2217 2076 1916 1728 1624 1608 1691 1850 1914 1902 1870 1922 2070 2232 2333 2406 2425 2412 2343 2324 2492 2692 2780
2800 2688 2480 2395 2493 2702 2852 2765 2430 2045 1839 1718 1890 2195 2365 2400 2378 2391 2642 2817 2922 2941 2935 2934 3127 3414 3643 3715 3699 3659 3626 3574 3531 3473 3409 3326 3225 3070 2806 2429 2314 2197 2062 1886 1780 1722 1728 1842 1947 1981 1983 1970 2011 2082 2194 2300 2414 2519 2545 2510 2441 2481 2688
2569 2556 2598 2659 2747 2849 2899 2762 2531 2304 2218 2306 2642 2859 2835 2761 2870 2891 2872 2984 3064 3077 3072 3064 3015 3072 3452 3695 3771 3789 3772 3747 3704 3642 3566 3494 3403 3277 3089 2866 2558 2348 2222 2077 1962 1923 1897 1951 2064 2151 2162 2126 2075 2082 2127 2216 2314 2441 2582 2666 2686 2627 2550
2864 3094 3311 3489 3668 3797 3800 3723 3642 3631 3657 3698 3738 3739 3369 2801 3119 3295 3201 3139 3171 3234 3267 3188 3175 3244 3299 3449 3699 3800 3824 3812 3781 3742 3683 3610 3530 3392 3236 3070 2916 2682 2374 2258 2123 2031 2007 2048 2162 2337 2428 2430 2378 2291 2252 2274 2351 2423 2488 2602 2741 2802 2769
2955 3429 3532 3408 3298 3365 3446 3390 3308 3362 3552 3681 3811 3996 4203 4028 3686 3339 3607 3631 3589 3521 3465 3431 3438 3457 3438 3415 3422 3680 3793 3850 3844 3810 3755 3689 3588 3456 3325 3193 3065 2924 2700 2438 2295 2188 2090 2072 2116 2255 2457 2598 2636 2601 2539 2479 2455 2520 2630 2668 2686 2785 2837
2401 2413 2676 3219 3199 2825 2759 3066 3170 3171 3136 3108 3322 3746 3874 4177 4673 4317 4047 4438 3957 3667 3658 3623 3587 3562 3558 3531 3519 3501 3577 3770 3838 3831 3773 3714 3617 3518 3420 3318 3200 3048 2908 2770 2559 2340 2171 2124 2150 2192 2297 2476 2641 2746 2750 2712 2663 2617 2605 2770 2878 2903 2898
2392 2405 2360 2588 2643 2629 2643 3036 3164 3166 3083 2913 2733 3082 3523 3699 4149 4769 4731 4725 4214 3874 3552 3311 3521 3679 3660 3638 3647 3625 3566 3527 3779 3825 3800 3744 3667 3582 3513 3415 3313 3204 3072 2940 2788 2631 2482 2381 2289 2186 2289 2321 2435 2564 2708 2787 2811 2801 2774 2728 2811 2993 3078
2224 2292 2345 2540 2828 2890 2771 2881 3080 3081 2901 2834 2873 2945 3136 3569 3896 4403 4653 4710 4406 4210 4339 4341 3986 3077 3018 3326 3453 3487 3509 3498 3685 3807 3820 3790 3743 3671 3595 3518 3430 3327 3220 3100 2973 2849 2740 2627 2574 2517 2483 2410 2374 2455 2519 2627 2742 2856 2899 2913 2894 2924 3113
1854 1958 2190 2382 2681 2829 2897 2805 2722 2693 2654 2748 2963 3141 3285 3709 4459 4967 4955 4759 4883 4848 5092 5078 4961 4514 3383 2755 3252 3491 3501 3515 3615 3752 3812 3824 3797 3770 3703 3625 3543 3459 3357 3238 3133 3045 2957 2868 2802 2771 2721 2664 2593 2509 2434 2632 2761 2896 2962 3024 3051 3042 3023
1909 1997 1989 1992 2260 2563 2677 2683 2657 2566 2575 2616 2870 3209 3332 3573 4162 4480 4670 4523 4495 4557 4587 4690 4738 4963 4006 3244 3278 3620 3653 3652 3736 3819 3846 3854 3838 3818 3779 3729 3667 3592 3502 3412 3318 3234 3173 3139 3015 2989 2952 2914 2852 2790 2744 2666 2716 2898 3026 3112 3180 3215 3206
1774 1885 2001 1990 2069 2079 2345 2443 2441 2502 2475 2376 2718 3035 3233 3407 4046 4505 4500 4448 4374 4477 4320 4446 4852 5597 4442 3561 3235 3671 3808 3847 3933 3997 4055 4017 3951 3902 3867 3887 3892 3851 3744 3641 3557 3511 3545 3482 3446 3313 3243 3207 3182 3147 3116 3125 3297 3295 3290 3307 3288 3301 3286
1766 1851 1928 1928 1943 2194 1921 2193 2392 2360 2357 2233 2071 2729 3042 3279 3554 4102 4344 4471 4373 4406 4262 4408 4850 5536 4916 3958 3492 3782 3929 4012 4157 4251 4316 4280 4180 4125 4117 4185 4200 4142 4072 3978 3896 3863 3826 3822 3778 3740 3684 3624 3561 3546 3517 3453 3390 3694 3733 3740 3700 3639 3597
1635 1827 1950 1897 1898 2051 1763 1962 2290 2284 2216 2040 1859 2052 2520 2929 3284 3587 3932 4212 4322 4398 4274 4408 4608 5116 5207 4338 3780 4027 4144 4180 4367 4506 4603 4579 4455 4396 4389 4483 4480 4403 4374 4272 4228 4171 4144 4133 4113 4091 4049 4030 4020 3964 3920 3850 3794 3909 3955 4038 4050 4061 4073
1398 1767 1890 1896 1906 2008 1851 1729 2017 2050 1979 1765 1700 1926 2242 2402 2711 3159 3342 3744 4040 4191 4268 4200 4596 5047 5256 4653 4077 4359 4384 4427 4607 4817 4906 4875 4763 4689 4689 4728 4717 4693 4652 4585 4538 4487 4442 4407 4387 4363 4341 4338 4303 4239 4156 4117 4102 4116 4109 4182 4285 4302 4292
1408 1710 1764 1820 1905 2016 1946 1704 1734 1919 1825 1560 1850 2029 2201 2257 2581 2826 3038 3355 3469 3724 3960 4026 4543 4890 5202 4849 4529 4704 4611 4714 5788 5316 5137 5144 5062 4999 5019 4950 5013 4972 4930 4938 4859 4808 4772 4752 4724 4691 4656 4599 4522 4462 4449 4441 4446 4458 4461 4388 4202 4035 3974
1343 1705 1708 1706 1871 1956 1914 1663 1741 1724 1501 1875 2125 2221 2423 2694 2715 2652 2735 3037 3442 3790 3941 4140 4786 4738 5054 5180 5060 5050 4876 5145 5576 5198 5293 5329 5250 5134 5138 5232 5292 5169 5125 5096 5144 5076 5025 4970 4944 4924 4899 4836 4737 4709 4738 4738 4794 4785 4684 4592 4521 4448 4359
737 1149 1436 1481 1810 1995 2070 1946 1812 1699 1716 1912 1966 2170 2418 2534 2476 2514 2633 2870 3173 3548 3962 4152 4492 4624 4769 4909 5245 5473 5397 5505 5470 5307 5386 5317 5241 5165 5087 5196 5311 5381 5377 5331 5235 5315 5313 5230 5208 5156 5087 5043 4920 4929 5021 5015 4941 4838 4759 4673 4574 4492 4440
250 656 737 1089 1497 1775 2021 1998 2014 1724 1738 1764 1783 1719 1846 2131 2275 2474 2484 2490 2872 3342 3861 4523 4443 4378 4693 4565 4678 5136 5732 5706 5525 5468 5474 5420 5308 5203 5143 5182 5350 5507 5534 5514 5544 5525 5534 5454 5416 5328 5238 5128 5077 4991 4872 4686 4514 4387 4267 4157 4065 3999 3997
170 680 749 975 1236 1384 2005 2138 1924 1885 1812 1744 1826 1762 1757 1786 1901 2234 2335 2577 2937 3288 3726 4204 4540 4440 4488 4615 4588 4757 4997 5486 5671 5625 5560 5520 5430 5336 5288 5261 5309 5352 5455 5431 5333 5220 5213 5133 5056 5035 4990 4984 4895 4784 4731 4538 4344 4087 3996 3995 4025 4034 4008

ECMWFFLT1_con_mucape_039.txt.gz
CAPE
114 294 535 645 690 704 694 659 605 582 507 547 634 669 722 797 933 1030 1051 1067 1085 1117 1131 1214 1265 1295 1323 1329 1296 1275 1239 1171 1119 1094 1078 1080 1080 1035 1010 994 884 803 790 1032 1216 1344 1403 1452 1560 1631 1675 1796 2012 2176 2295 2430 2503 2545 2610 2633 2613 2513 2460
83 261 520 652 724 745 758 748 701 650 624 628 632 648 702 761 855 964 1051 1072 1108 1151 1173 1227 1287 1313 1340 1340 1318 1292 1254 1194 1125 1098 1085 1065 1057 1046 1020 993 919 781 702 814 1051 1216 1318 1381 1483 1576 1649 1772 1965 2101 2234 2353 2448 2494 2531 2580 2596 2563 2545
71 219 504 653 744 795 810 801 772 732 697 696 672 670 703 754 832 925 1004 1072 1118 1157 1197 1253 1316 1345 1359 1358 1327 1301 1262 1232 1192 1136 1106 1083 1054 1044 1038 1016 986 868 723 650 837 1084 1249 1342 1393 1508 1582 1689 1884 2036 2140 2256 2391 2448 2466 2504 2540 2567 2590
70 175 441 662 758 827 851 857 838 798 771 753 740 730 728 744 819 884 957 1027 1105 1156 1188 1226 1293 1348 1369 1370 1339 1306 1284 1257 1223 1194 1154 1128 1086 1028 1011 1044 1044 996 855 708 644 889 1195 1317 1374 1436 1776 1599 1764 1976 2097 2158 2260 2379 2431 2424 2442 2487 2542
74 148 378 638 777 834 875 900 892 873 837 810 791 777 756 746 766 844 894 945 1035 1125 1156 1179 1230 1299 1334 1352 1352 1329 1310 1281 1267 1226 1201 1166 1107 1016 951 1003 1044 1072 1031 885 742 901 1110 1310 1373 1424 1499 1578 1643 1864 2070 2152 2176 2249 2357 2395 2381 2391 2463
84 152 298 564 731 840 899 932 949 929 907 876 866 827 790 777 776 824 870 906 953 1025 1088 1119 1157 1224 1286 1307 1324 1332 1300 1293 1272 1252 1225 1172 1115 1060 968 976 997 1014 1054 1059 935 965 1086 1272 1362 1427 1456 1539 1594 1687 1908 2090 2166 2191 2235 2325 2360 2343 2370
99 199 318 486 680 836 918 956 974 976 970 957 909 884 836 810 797 816 855 879 898 967 1047 1101 1107 1137 1202 1224 1267 1282 1287 1268 1254 1251 1227 1192 1128 1068 1054 1024 1021 1019 1016 1020 1033 1149 1190 1271 1378 1462 1477 1512 1579 1614 1721 1898 2054 2163 2208 2230 2281 2341 2358
76 206 333 453 643 811 936 982 991 1006 1020 1020 976 947 903 858 827 825 849 851 870 900 986 1036 1058 1081 1108 1150 1172 1204 1220 1209 1200 1192 1180 1146 1082 1042 1105 1109 1099 1110 1070 1032 994 1308 1372 1366 1413 1470 1522 1535 1558 1609 1650 1733 1842 1997 2164 2219 2229 2270 2325
63 168 351 487 658 780 911 994 1026 1041 1058 1064 1035 1005 955 926 892 872 861 863 878 882 920 972 999 1005 1039 1090 1108 1125 1121 1111 1098 1092 1090 1068 1044 1020 1059 1107 1155 1169 1176 1156 1066 1105 1452 1534 1534 1548 1571 1577 1569 1596 1642 1691 1740 1809 1952 2107 2194 2236 2272
68 127 225 440 651 778 899 1002 1047 1062 1088 1111 1102 1070 1049 1015 948 916 907 898 895 889 895 943 954 954 980 1053 1085 1076 1076 1083 1079 1076 1079 1090 1106 1104 1108 1121 1136 1194 1253 1291 1234 1169 1205 1515 1649 1699 1708 1686 1654 1625 1644 1686 1740 1791 1844 1949 2071 2152 2196
118 168 233 415 632 787 894 971 1044 1088 1123 1161 1142 1117 1114 1076 1050 1010 984 961 935 930 910 988 984 970 977 1050 1127 1141 1118 1089 1081 1089 1117 1146 1165 1189 1206 1221 1219 1213 1292 1360 1400 1347 1259 1283 1564 1748 1829 1843 1791 1741 1704 1700 1750 1820 1880 1934 2008 2082 2127
234 262 316 546 712 818 915 999 1073 1107 1135 1153 1154 1164 1174 1175 1147 1144 1118 1073 1044 1073 1013 1054 1090 1076 1044 1062 1145 1232 1248 1224 1179 1157 1175 1199 1225 1253 1277 1317 1339 1340 1330 1350 1451 1548 1508 1404 1411 1612 1793 1892 1931 1889 1826 1772 1760 1818 1894 1954 2004 2050 2096
359 486 496 652 815 911 993 1041 1107 1131 1141 1156 1166 1194 1200 1259 1299 1312 1308 1281 1240 1253 1198 1167 1184 1218 1199 1174 1180 1238 1324 1361 1345 1305 1285 1312 1328 1328 1336 1354 1392 1422 1412 1385 1408 1507 1667 1723 1646 1600 1659 1752 1845 1904 1923 1897 1864 1843 1857 1909 1963 2013 2063
676 571 610 744 884 990 1068 1134 1175 1182 1188 1201 1210 1226 1219 1332 1389 1441 1467 1462 1438 1418 1387 1334 1299 1326 1345 1340 1311 1304 1344 1410 1441 1444 1425 1411 1419 1424 1420 1426 1435 1452 1467 1452 1416 1398 1484 1714 1866 1883 1800 1772 1776 1787 1770 1773 1793 1823 1847 1862 1898 1944 1998
512 568 663 801 957 1068 1166 1201 1222 1243 1268 1288 1295 1275 1308 1425 1464 1514 1582 1598 1608 1618 1592 1538 1480 1458 1472 1480 1470 1451 1426 1426 1471 1522 1543 1537 1523 1523 1510 1510 1502 1505 1508 1491 1465 1406 1375 1394 1588 1862 2002 1986 1917 1890 1898 1887 1832 1796 1814 1849 1890 1921 1971
511 588 684 848 981 1121 1224 1270 1275 1294 1326 1367 1381 1358 1400 1532 1586 1624 1692 1738 1756 1757 1756 1726 1691 1643 1613 1606 1612 1580 1544 1520 1528 1535 1600 1624 1624 1605 1596 1569 1566 1563 1560 1543 1531 1499 1450 1380 1341 1382 1592 1847 1984 2004 1985 1999 2030 2000 1930 1910 1936 1986 2028
489 584 708 839 967 1108 1225 1297 1314 1332 1369 1420 1429 1388 1427 1587 1693 1725 1774 1836 1870 1885 1911 1888 1866 1821 1787 1759 1722 1706 1703 1699 1695 1663 1633 1640 1611 1679 1672 1647 1627 1619 1615 1609 1588 1562 1528 1478 1422 1353 1303 1331 1502 1721 1848 1886 1917 2023 2088 2091 2068 2052 2087
430 556 700 813 941 1065 1180 1267 1303 1381 1433 1458 1443 1416 1432 1557 1699 1794 1869 1939 2009 2037 2074 2065 2028 1976 1935 1897 1876 1864 1861 1852 1833 1788 1819 1849 1867 1810 1705 1725 1711 1691 1670 1656 1641 1616 1566 1547 1495 1444 1380 1310 1285 1366 1530 1680 1739 1798 1928 2080 2145 2160 2126
408 536 665 782 887 1003 1117 1216 1275 1402 1495 1498 1476 1467 1484 1545 1655 1800 1911 2004 2086 2132 2237 2278 2237 2178 2104 2063 2038 2013 1988 1969 1966 1963 2075 2128 2111 2101 2028 1904 1785 1765 1727 1694 1680 1655 1652 1614 1556 1508 1448 1382 1333 1302 1351 1498 1611 1735 1802 1880 2011 2123 2170
412 518 623 748 859 966 1083 1150 1190 1313 1489 1565 1566 1554 1559 1568 1685 1763 1852 1972 2079 2192 2287 2391 2442 2426 2359 2298 2257 2201 2158 2131 2088 2197 2300 2336 2336 2304 2255 2183 2071 1918 1798 1756 1731 1709 1687 1663 1641 1602 1557 1496 1424 1369 1353 1411 1523 1680 1799 1860 1890 1968 2088
448 523 591 695 792 889 987 1077 1110 1162 1367 1550 1610 1610 1594 1643 1749 1848 1955 2094 2241 2315 2380 2452 2545 2589 2593 2580 2526 2474 2397 2349 2297 2430 2494 2532 2522 2485 2484 2491 2426 2327 2188 2012 1866 1804 1759 1724 1715 1695 1662 1612 1556 1511 1468 1465 1508 1632 1753 1847 1908 1946 1974
1576 1410 1279 1030 926 833 923 1011 1072 1097 1182 1380 1566 1679 1693 1739 1792 1966 2159 2282 2386 2439 2493 2596 2651 2672 2707 2730 2742 2718 2680 2629 2520 2606 2664 2676 2683 2702 2751 2807 2853 2834 2792 2643 2452 2264 2046 1845 1771 1735 1702 1685 1674 1651 1607 1564 1582 1666 1764 1853 1934 1985 2008
2704 2613 2481 2266 1967 1753 1416 1324 1414 1814 2063 1722 1644 1624 1627 1697 1766 1872 2088 2317 2499 2592 2592 2683 2814 2884 2887 2866 2871 2884 2878 2802 2742 2809 2856 2888 2902 2926 2954 2991 3043 3074 3058 3029 2933 2750 2516 2284 2052 1872 1769 1714 1706 1716 1701 1679 1688 1711 1773 1893 1998 2066 2113
2673 2668 2675 2697 2779 2834 2872 2907 2992 3092 3104 3236 3396 3455 2945 1813 1812 1874 2006 2161 2347 2598 2736 2768 2841 3017 3131 3155 3094 3095 3065 2878 2920 2965 3003 3031 3058 3076 3109 3150 3187 3243 3252 3253 3171 3047 2887 2690 2474 2222 1965 1805 1722 1689 1722 1742 1757 1782 1800 1837 1957 2062 2125
2825 2926 2956 2920 2856 2850 2876 2887 2907 3021 3140 3280 3523 3847 3838 3182 2214 2198 2283 2413 2472 2586 2699 2778 2824 2863 3088 3311 3373 3352 3322 3280 3234 3090 3110 3154 3169 3206 3250 3284 3333 3347 3354 3362 3329 3283 3176 3032 2857 2633 2372 2104 1863 1728 1728 1768 1806 1844 1878 1895 1929 1997 2074
2777 2855 2887 2942 2942 2897 2927 2950 3023 3027 3044 3113 3355 3644 3957 4148 4117 4076 3651 3446 2686 2719 2797 2872 2922 2713 3007 3126 3284 3532 3553 3539 3486 3429 3378 3258 3335 3370 3413 3436 3450 3453 3465 3455 3412 3390 3317 3229 3094 2948 2764 2568 2383 2251 2146 2031 1933 2016 2029 2050 2048 2064 2110
2510 2492 2602 2696 2713 2797 2859 2882 2844 2832 2966 3153 3433 3731 4004 4232 4282 4348 4302 4050 3929 3943 3862 3776 3167 3304 3433 3469 3463 3442 3518 3680 3692 3679 3639 3598 3586 3575 3586 3576 3567 3550 3541 3519 3473 3443 3400 3321 3230 3114 2996 2859 2713 2588 2525 2464 2438 2418 2354 2245 2276 2334 2331
2362 2360 2253 2215 2456 2472 2543 2600 2637 2768 2846 2980 3180 3409 3656 3897 4040 4108 4053 3958 3962 4124 4111 4312 4570 4703 3741 3564 3534 3502 3513 3560 3578 3759 3776 3764 3744 3741 3723 3680 3648 3624 3597 3561 3528 3479 3417 3366 3292 3224 3141 3043 2919 2808 2724 2693 2693 2684 2670 2614 2545 2480 2396
1992 2014 2119 2150 2193 2373 2381 2538 2507 2548 2700 2845 3015 3261 3415 3547 3702 3864 3828 3747 3890 4029 4004 4081 4202 4433 5024 4112 3367 3417 3502 3565 3600 3621 3761 3800 3795 3783 3766 3732 3709 3685 3653 3626 3587 3530 3471 3404 3357 3301 3249 3181 3094 2987 2903 2853 2828 2831 2812 2807 2785 2744 2709
1773 1788 1837 1919 1932 1912 1768 1866 1748 1709 2033 2492 2792 2982 3253 3416 3505 3683 3596 3506 3883 4057 4011 3996 4093 4177 4569 4849 4079 3398 3210 3246 3351 3450 3621 3757 3806 3824 3815 3800 3768 3731 3708 3680 3641 3598 3557 3503 3438 3382 3335 3295 3221 3132 3062 3016 3013 3020 3027 3024 3025 3036 3027
1540 1607 1549 1565 1657 1740 1650 1551 1505 1554 1638 1802 2202 2671 2876 3044 3281 3574 3677 3674 3653 4050 4098 4024 4146 4199 4381 4789 4632 3960 3374 3118 3201 3318 3452 3635 3744 3810 3827 3825 3802 3788 3767 3732 3710 3689 3641 3601 3536 3485 3422 3352 3311 3248 3179 3166 3211 3256 3283 3309 3326 3311 3312
1467 1590 1630 1538 1481 1514 1467 1404 1463 1618 1684 1787 1946 2129 2427 2635 2751 2885 3114 3349 3556 3750 4071 4106 4111 4236 4280 4555 4811 4512 3769 3356 3286 3330 3406 3545 3672 3764 3792 3799 3810 3824 3824 3789 3774 3743 3715 3670 3608 3567 3520 3472 3423 3384 3354 3373 3443 3525 3576 3635 3680 3680 3655
1376 1509 1617 1631 1582 1515 1438 1462 1537 1659 1795 1943 2068 2160 2279 2400 2569 2711 2887 3075 3292 3385 3536 3816 4199 4075 4369 4476 4776 4626 4203 3680 3510 3545 3556 3611 3696 3753 3804 3816 3851 3858 3849 3843 3824 3795 3756 3728 3702 3661 3620 3585 3552 3557 3603 3660 3753 3853 3928 3979 4003 3972 3876
1114 1376 1591 1690 1655 1551 1472 1475 1589 1732 1818 1987 2114 2320 2389 2410 2426 2490 2570 2675 2868 3169 3451 3772 4352 4244 4326 4486 4826 4710 4455 4032 4437 4106 3901 3939 3957 3956 3944 3900 3908 3905 3898 3899 3881 3865 3854 3828 3794 3777 3740 3750 3770 3818 3902 3995 4069 4120 4206 4247 4210 4185 4193
918 1160 1413 1620 1736 1678 1494 1501 1546 1772 1756 1804 1918 2115 2267 2276 2343 2375 2627 2794 2996 3278 3707 4040 4305 4125 4228 4555 4797 4804 4472 4162 4813 4298 4208 4232 4196 4162 4155 4224 4272 4190 4090 4027 4032 4042 4022 4022 4050 4058 4020 4047 4086 4159 4241 4288 4362 4424 4412 4400 4362 4370 4419
519 747 1132 1361 1597 1838 1748 1631 1619 1558 1728 1633 1704 1801 1910 2025 2206 2459 2679 2899 3133 3368 3776 4023 4096 4044 4144 4541 4838 4971 4636 4573 4829 4435 4388 4390 4376 4338 4332 4352 4437 4497 4478 4442 4333 4346 4398 4402 4417 4451 4457 4489 4498 4514 4562 4637 4655 4624 4572 4539 4528 4569 4669
218 612 728 871 1159 1684 1852 1832 1728 1608 1620 1746 1722 1655 1629 1733 2123 2491 2752 2927 3122 3310 3589 3829 4058 4146 4245 4494 4758 5184 5032 4956 4814 4656 4559 4515 4490 4419 4401 4400 4588 4711 4763 4741 4806 4743 4717 4748 4761 4796 4858 4905 4952 4904 4849 4817 4793 4797 4804 4852 4855 4800 4728
0 52 606 773 890 1240 1638 1707 1757 1718 1667 1583 1601 1675 1626 1533 1961 2463 2690 2871 3001 3184 3412 3720 3934 4042 4156 4408 4620 5094 5346 5163 4992 4830 4731 4672 4629 4592 4519 4485 4510 4684 4850 4941 5022 5056 5125 5105 5156 5210 5249 5273 5341 5284 5151 4967 4923 4925 4908 4748 4657 4579 4372

ECMWFFLT1_con_mucape_042.txt.gz
CAPE
108 297 368 404 214 232 326 192 166 159 214 330 437 517 572 583 704 751 810 811 812 840 840 889 1021 1051 1029 996 970 976 983 960 932 921 945 970 964 935 902 899 890 886 868 954 1106 1240 1354 1375 1428 1495 1523 1573 1719 1922 2057 2241 2262 2318 2363 2410 2361 2389 2436
27 84 200 371 339 350 270 228 210 183 202 278 410 498 558 581 679 738 804 847 856 869 892 890 1014 1055 1104 1116 1113 1107 1093 1090 1065 1030 1014 1000 978 959 930 929 932 908 868 860 974 1100 1226 1274 1382 1434 1477 1624 1732 1839 2005 2163 2294 2327 2350 2338 2390 2440 2469
17 43 111 216 412 302 267 238 236 234 230 270 362 436 523 592 661 718 776 829 874 891 898 910 939 1022 1093 1157 1173 1174 1171 1156 1141 1116 1082 1026 990 983 997 989 975 931 888 851 844 960 1164 1226 1280 1380 1445 1508 1666 1795 1966 2108 2259 2294 2318 2303 2368 2394 2427
22 42 76 157 342 393 399 415 389 420 424 287 344 430 530 586 654 724 759 797 847 890 911 917 925 991 1060 1130 1164 1192 1194 1190 1171 1151 1116 1058 1014 1009 1010 1008 993 949 924 906 897 851 1088 1190 1224 1293 1741 1461 1522 1708 1880 2062 2172 2283 2300 2279 2290 2316 2350
22 36 56 96 237 349 338 350 432 460 469 322 328 436 502 564 643 733 771 792 819 874 910 934 940 990 1034 1083 1143 1172 1189 1183 1178 1152 1116 1092 1064 1046 1022 1034 1022 1003 987 946 920 878 997 1145 1147 1221 1364 1482 1466 1540 1780 1934 2066 2208 2309 2275 2293 2242 2292
14 25 42 81 171 244 339 399 512 518 513 402 340 393 480 560 630 726 794 874 834 846 881 920 952 1094 1065 1087 1124 1163 1175 1177 1160 1148 1156 1147 1136 1102 1084 1068 1033 1017 995 971 942 901 819 1020 1138 1201 1245 1372 1458 1470 1583 1829 1958 2044 2216 2264 2291 2286 2236
5 14 38 70 141 232 326 459 529 542 540 454 455 507 519 547 613 707 796 858 881 886 908 934 955 993 1068 1086 1129 1161 1185 1186 1171 1168 1170 1174 1152 1131 1117 1095 1047 1002 982 964 943 909 863 876 1062 1158 1215 1263 1398 1436 1464 1622 1840 2004 2126 2197 2278 2302 2310
3 6 20 53 99 203 362 467 538 570 572 540 552 537 465 494 581 688 778 844 906 914 942 971 998 1016 1080 1105 1123 1161 1187 1186 1190 1177 1194 1196 1180 1161 1155 1131 1097 1068 1040 1003 954 891 888 844 940 1082 1160 1250 1289 1401 1430 1490 1657 1863 2080 2160 2204 2266 2249
6 6 14 33 90 174 291 418 526 579 598 614 625 618 575 499 572 666 736 798 875 930 962 990 1022 1038 1088 1124 1156 1186 1200 1211 1218 1205 1206 1212 1208 1198 1180 1169 1152 1131 1108 1069 1019 947 893 883 866 1026 1122 1180 1257 1314 1392 1459 1533 1719 1979 2104 2197 2225 2232
4 8 8 24 55 137 269 379 500 571 626 653 664 646 645 619 624 645 711 781 841 904 951 978 1004 1037 1078 1143 1179 1208 1225 1242 1240 1230 1223 1238 1228 1219 1206 1190 1182 1169 1142 1115 1062 983 901 980 978 1042 1125 1185 1280 1297 1376 1444 1473 1612 1772 1975 2134 2188 2232
0 6 11 16 48 117 248 353 483 620 680 702 704 696 686 675 676 680 703 769 808 854 908 966 1002 1028 1070 1113 1164 1200 1242 1261 1257 1252 1236 1235 1242 1248 1220 1201 1191 1158 1160 1125 1077 1022 943 1117 1162 1160 1190 1229 1292 1352 1381 1433 1493 1548 1667 1796 1937 2063 2152
0 0 4 14 36 86 230 414 578 674 712 727 732 727 718 715 717 732 750 759 798 832 868 931 976 1020 1048 1074 1113 1165 1202 1241 1244 1243 1236 1229 1234 1230 1218 1192 1162 1150 1136 1110 1073 1036 994 977 1204 1316 1341 1355 1382 1410 1428 1454 1488 1548 1632 1726 1818 1922 2043
0 0 0 9 33 138 293 474 619 713 770 788 788 764 759 760 778 790 800 805 802 826 857 891 940 985 1014 1040 1070 1102 1134 1168 1198 1204 1188 1197 1194 1188 1175 1156 1142 1110 1092 1065 1053 1072 1073 1056 1050 1303 1424 1483 1510 1519 1538 1514 1507 1572 1628 1708 1841 1922 2006
0 0 0 3 31 132 312 506 661 750 816 843 831 824 812 816 841 850 856 854 841 840 861 894 930 966 991 1023 1038 1068 1090 1116 1136 1127 1136 1133 1140 1148 1138 1107 1066 1048 1028 1006 1062 1089 1093 1142 1112 1112 1274 1417 1502 1586 1634 1632 1619 1616 1650 1703 1796 1929 1975
0 0 0 0 14 118 344 521 685 786 851 889 884 877 887 902 894 904 906 889 887 889 896 902 929 958 985 1003 1026 1049 1053 1074 1075 1086 1080 1074 1083 1087 1069 1050 1036 1030 1094 1181 1179 1178 1173 1222 1264 1268 1267 1303 1378 1481 1574 1645 1691 1716 1729 1733 1848 1902 1974
0 0 0 0 8 132 384 563 708 820 896 929 921 927 955 966 978 981 985 974 969 951 936 929 943 958 977 1004 1013 1010 1013 1026 1048 1044 1046 1041 1057 1055 1049 1046 1055 1110 1198 1240 1258 1272 1273 1238 1286 1366 1414 1467 1458 1460 1495 1576 1672 1674 1662 1702 1860 1911 1920
0 0 0 0 30 170 406 585 727 847 924 972 966 982 1009 1038 1050 1057 1036 1036 1034 1040 1015 998 980 977 1003 1003 990 983 984 1002 1080 1132 1059 1074 1050 1050 1154 1172 1207 1250 1265 1298 1325 1353 1360 1349 1239 1238 1383 1509 1611 1664 1643 1643 1642 1574 1617 1696 1756 1780 1927
0 0 1 17 73 226 399 607 778 886 983 1024 1032 1042 1063 1083 1114 1125 1132 1133 1133 1118 1096 1074 1052 1040 1033 1024 1020 1014 1021 1101 1181 1238 1277 1263 1277 1265 1255 1275 1299 1342 1362 1359 1375 1412 1370 1380 1328 1311 1295 1279 1388 1565 1736 1832 1690 1692 1698 1726 1761 1787 1872
0 2 16 71 180 366 528 704 836 949 1024 1072 1085 1091 1110 1128 1172 1227 1238 1242 1220 1197 1214 1179 1161 1140 1197 1222 1250 1275 1264 1255 1273 1303 1342 1372 1395 1386 1379 1400 1405 1427 1440 1434 1460 1383 1492 1498 1392 1402 1375 1338 1298 1262 1268 1527 1584 1723 1808 1858 1887 1920 1942
0 3 27 128 292 519 683 828 908 980 1062 1118 1147 1154 1166 1163 1228 1296 1312 1322 1328 1366 1500 1466 1343 1381 1362 1400 1417 1432 1439 1432 1421 1416 1417 1439 1453 1486 1517 1507 1528 1452 1447 1464 1465 1498 1478 1464 1473 1460 1456 1440 1399 1353 1306 1257 1221 1263 1458 1657 1788 1878 1943
0 4 6 45 269 648 811 944 1012 1064 1118 1155 1169 1181 1180 1216 1253 1333 1405 1452 1508 1571 1678 1671 1675 1632 1601 1590 1574 1585 1601 1613 1602 1584 1564 1545 1542 1562 1576 1601 1560 1622 1682 1719 1728 1714 1646 1554 1549 1535 1520 1494 1465 1448 1423 1392 1322 1263 1218 1245 1409 1566 1671
109 0 4 34 289 753 903 1029 1111 1177 1218 1220 1217 1227 1246 1292 1354 1428 1528 1590 1658 1703 1800 1853 1851 1802 1778 1781 1761 1760 1756 1761 1766 1759 1765 1724 1706 1634 1704 1847 1898 1996 2026 2026 2046 2040 1982 1918 1812 1694 1590 1550 1530 1516 1491 1454 1406 1380 1342 1308 1293 1312 1432
1820 237 13 15 342 800 958 1090 1182 1248 1277 1292 1302 1306 1330 1383 1437 1515 1605 1689 1778 1889 1944 1994 2002 1987 1990 1994 1948 1933 1913 1906 1906 1920 1909 1910 1818 1862 1989 2083 2150 2190 2235 2278 2276 2274 2256 2206 2147 2050 1961 1850 1727 1611 1555 1512 1491 1474 1449 1431 1423 1403 1403
1998 1900 1110 481 602 772 920 1094 1223 1334 1356 1386 1390 1407 1434 1439 1458 1566 1701 1789 1882 1952 2018 2124 2154 2170 2188 2169 2153 2140 2091 2074 2068 1877 2012 2182 2235 2326 2400 2436 2458 2494 2498 2530 2552 2571 2588 2565 2542 2472 2380 2274 2158 2031 1893 1781 1654 1569 1555 1546 1544 1540 1533
2082 2028 1976 1738 1064 1001 978 1039 1180 1316 1410 1446 1478 1489 1494 1493 1510 1636 1755 1971 1938 2011 2080 2160 2214 2292 2321 2351 2342 2329 2115 2178 2294 2416 2507 2562 2657 2716 2722 2766 2775 2796 2798 2840 2834 2855 2882 2908 2922 2882 2818 2751 2638 2494 2380 2248 2114 1988 1848 1706 1644 1639 1644
2131 2136 2118 2210 2247 2194 2141 2332 2204 1768 1566 1508 1555 1564 1562 1537 1596 1827 1851 1968 1993 2078 2147 2203 2302 2354 2417 2448 2523 2497 2363 2435 2514 2604 2680 2772 2832 2860 2913 2928 2935 2975 2994 3011 3023 3021 3043 3071 3102 3118 3125 3098 3040 2972 2858 2702 2541 2381 2209 2039 1878 1743 1706
2082 2117 2189 2246 2360 2378 2406 2404 2400 2432 2488 2543 2671 1938 1626 1627 1643 1961 2100 2049 2108 2202 2240 2280 2321 2442 2565 2635 2667 2708 2716 2511 2560 2609 2672 2762 2844 2932 3020 3061 3071 3105 3104 3131 3138 3140 3161 3185 3206 3216 3226 3243 3252 3229 3170 3053 2906 2760 2591 2404 2256 2205 2150
2253 2251 2268 2418 2462 2537 2552 2683 2817 2986 3139 3212 3231 2792 1968 1755 2043 2450 2509 2186 2214 2413 2960 2780 2469 2479 2560 2699 2843 2720 2784 2914 2954 2956 2982 2994 3030 3113 3158 3194 3210 3216 3257 3261 3260 3268 3267 3290 3299 3305 3319 3316 3318 3318 3295 3234 3142 3028 2903 2779 2614 2595 2569
2317 2408 2509 2568 2620 2676 2851 3052 3262 3408 3452 3394 3278 3087 2924 2914 3046 3103 3035 2939 3214 3581 3807 3906 3653 3010 2674 2691 2755 2958 3062 3048 3141 3024 3025 3042 3082 3146 3182 3237 3313 3354 3360 3374 3368 3370 3378 3391 3409 3427 3420 3412 3396 3381 3347 3293 3250 3170 3090 2987 2815 2806 2820
2207 2254 2436 2440 2463 2568 2768 2982 3232 3586 3734 3569 3266 3088 2999 2976 3060 3120 3193 3375 3620 3752 3792 3830 4020 4010 3322 2991 3100 3260 3294 3260 3442 3437 3404 3412 3176 3186 3194 3211 3248 3278 3344 3389 3412 3442 3463 3466 3493 3511 3517 3498 3462 3429 3380 3328 3264 3230 3176 3112 3028 2984 2999
2118 2252 2360 2391 2408 2366 2496 2740 2876 3048 3447 3672 3640 3434 3348 3413 3482 3471 3523 3682 3764 3792 3849 3822 3895 4203 4562 4177 3440 3354 3326 3277 3241 3458 3566 3595 3558 3438 3377 3356 3333 3376 3420 3457 3499 3530 3545 3565 3566 3576 3575 3544 3527 3483 3426 3371 3316 3280 3240 3215 3161 3156 3196
1974 2071 2162 2256 2273 2280 2318 2290 2514 2707 2846 2978 3217 3439 3449 3462 3466 3501 3532 3673 3714 3656 3696 3679 3758 3830 3918 4244 4407 4366 3798 3398 3282 3257 3342 3516 3594 3618 3575 3558 3545 3557 3576 3586 3607 3606 3617 3614 3598 3602 3595 3594 3566 3530 3484 3446 3399 3371 3352 3332 3319 3368 3435
1782 1868 2024 2061 1999 2079 2186 2189 2252 2390 2530 2698 2693 2709 2786 2785 2864 2965 3094 3215 3222 3394 3564 3756 3821 4011 3818 3942 4424 4386 4280 4126 3659 3348 3240 3231 3397 3596 3685 3694 3699 3689 3678 3674 3657 3642 3620 3613 3608 3598 3601 3610 3599 3582 3556 3534 3492 3468 3486 3522 3574 3629 3722
1553 1590 1682 1718 1719 1796 1906 2052 2128 2174 2211 2224 2231 2246 2272 2296 2393 2502 2711 2952 3238 3526 3826 4206 4114 3898 3908 4200 4255 4452 4350 4216 4006 3733 3379 3210 3316 3478 3561 3676 3728 3737 3737 3718 3692 3669 3644 3614 3594 3586 3585 3585 3594 3569 3591 3607 3592 3630 3666 3746 3807 3879 3973
1407 1429 1454 1516 1534 1506 1728 1616 1779 1962 2025 2030 2026 2114 2208 2346 2496 2652 2859 3091 3357 3608 3811 3866 3827 3914 4079 4346 4494 4526 4430 4241 4029 3810 3570 3354 3191 3265 3430 3626 3687 3724 3750 3725 3746 3708 3685 3626 3606 3565 3644 3724 3792 3848 3881 3911 3944 3977 3978 4063 4111 4172 4223
1236 1275 1311 1336 1378 1234 1301 1318 1368 1444 1498 1684 1954 2220 2409 2603 2766 2891 3072 3272 3479 3665 3790 3832 3870 3980 4115 4375 4690 4670 4488 4246 4046 3854 3644 3452 3330 3308 3366 3460 3618 3716 3722 3794 3756 3759 3766 3726 3758 3899 4030 4054 4094 4080 4119 4122 4157 4184 4238 4290 4305 4317 4335
1144 1134 1181 1114 1180 1298 1290 1320 1382 1446 1491 1462 1762 2077 2322 2516 2670 2778 2916 3067 3224 3421 3583 3761 3917 4003 4126 4458 4734 4940 4674 4325 4092 4014 3846 3727 3614 3519 3496 3488 3579 3711 3794 3770 3843 3882 3864 3910 4036 4115 4149 4190 4289 4336 4400 4469 4508 4474 4404 4462 4529 4532 4565
1149 1101 1040 961 951 1230 1235 1190 1238 1326 1353 1336 1461 1787 1991 2202 2373 2511 2610 2686 2775 2928 3136 3342 3716 3992 4090 4432 4763 4968 4994 4667 4387 4208 4118 4023 3920 3857 3730 3704 3674 3816 3941 3989 4024 4050 4123 4246 4318 4325 4344 4388 4428 4526 4645 4749 4847 4780 4697 4681 4686 4698 4766

ECMWFFLT1_con_mucape_045.txt.gz
CAPE
847 854 820 776 735 676 649 638 699 744 833 1011 1031 951 983 986 1110 1219 1289 1401 1393 1521 1528 1535 1524 1405 1427 1491 1548 1704 1702 1774 1806 1715 1770 1798 1668 1851 2005 1830 1953 2251 2070 2228 2344 2590 2925 2931 2934 3074 3100 3220 3123 3269 3380 3351 3308 3292 3512 3491 3283 3062 3151
701 818 823 814 772 712 703 736 712 692 875 985 1006 1033 961 1020 1155 1391 1371 1573 1568 1609 1600 1538 1598 1562 1522 1549 1573 1715 1750 1776 1852 1846 1830 1960 2065 2194 2035 2067 2029 2323 2393 2260 2504 2778 2909 2893 2907 3081 3115 3199 3013 3232 3241 3348 3375 3396 3315 3338 2908 2808 2803
530 683 819 838 781 746 797 737 764 668 721 791 938 996 996 1182 1405 1348 1449 1501 1558 1583 1614 1564 1736 1684 1600 1718 1699 1764 1759 1762 1832 1911 1858 1856 1917 1619 1874 2080 2086 2108 2089 2222 2578 2578 2565 2717 2867 2982 3046 3028 2869 3163 3251 3309 3456 3448 3543 3515 3082 2718 2885
376 536 710 826 883 873 864 825 762 627 631 720 847 993 1103 1416 1410 1505 1575 1394 1548 1668 1672 1608 1699 1644 1706 1784 1751 1817 1794 1810 1845 1722 1654 1694 1825 1785 1971 2111 2065 1951 2092 2075 2106 2194 2200 2499 2787 2922 2924 3000 3074 3114 3174 3174 3239 3489 3557 3542 3220 3048 3051
338 515 630 826 907 947 923 777 797 728 630 621 732 973 1085 1280 1224 1345 1369 1330 1366 1478 1503 1549 1469 1622 1835 1857 1744 1737 1816 1864 1896 1772 1779 1802 1987 2054 2057 1842 1905 1849 1887 1893 2038 2354 2449 2526 2436 2668 2853 2973 2995 3098 3168 3303 3230 3548 3592 3476 3184 3117 2883
168 506 621 806 880 892 854 815 781 720 650 597 680 895 1036 1140 1081 1182 1255 1416 1367 1401 1555 1576 1498 1677 1857 1829 1775 1764 1908 1972 2007 2027 2003 2006 2160 2048 1975 1912 1902 1882 1749 1934 1902 1954 2297 2270 2284 2463 2476 2600 2612 2589 2761 3040 3073 3267 3516 3514 3168 3081 2976
108 360 590 725 744 847 917 845 756 742 710 651 653 811 940 948 1034 1074 1152 1288 1334 1429 1458 1496 1489 1590 1975 1850 1872 2065 2121 2022 2074 2021 1991 2050 2097 2030 1978 2005 1990 1874 1832 1990 1886 1846 1974 2216 2282 2461 2498 2370 2536 2439 2662 2990 2987 3119 3373 3446 3297 3141 3109
184 377 530 658 643 736 867 896 814 758 728 691 653 784 788 825 946 1021 1129 1219 1317 1408 1492 1472 1485 1680 1831 1793 1888 2014 2081 1988 1978 2032 1991 1974 1975 2017 1996 2024 2064 2010 1991 2036 2007 1894 1820 2068 2152 2372 2448 2320 2547 2681 2733 3028 3201 3042 3097 3314 3343 3308 3036
188 458 466 494 600 682 827 956 924 825 826 800 765 842 823 870 956 1016 1107 1185 1283 1334 1439 1419 1476 1570 1865 1943 2076 2123 2050 1973 2050 2061 2037 1939 1946 1915 1847 1952 2018 2018 2024 1844 1828 1967 1840 1985 1979 2318 2540 2407 2525 2849 2768 2984 2995 2908 2985 3134 3339 3344 3191
206 505 588 446 490 552 733 928 1060 1034 1002 975 966 978 870 923 1009 1025 1093 1170 1208 1278 1356 1376 1436 1538 1888 1941 1929 1958 2048 2092 2080 1927 1938 1875 1888 1896 1820 1792 1888 2015 1931 1837 1796 1924 1974 1974 2028 2343 2600 2511 2604 2771 2783 2898 2867 2819 2925 3128 3225 3268 3406
230 719 778 546 558 629 795 924 1146 1356 1277 1369 1237 947 981 984 1028 1048 1178 1206 1224 1256 1322 1413 1484 1577 1774 1751 1753 1804 1963 1977 1939 1934 1904 1842 1822 1868 1824 1785 1779 1871 1806 1792 1771 1859 2003 2096 2131 2322 2504 2326 2433 2615 2725 2785 2863 2850 2694 2828 2982 3195 3147
141 663 963 705 700 753 781 1105 1387 1646 1676 1626 1144 978 1148 1209 1106 1077 1175 1252 1253 1332 1383 1427 1485 1558 1696 1670 1660 1796 1868 1983 1899 1850 1869 1835 1837 1846 1856 1816 1791 1828 1821 1800 1823 1877 1905 2175 2137 2182 2405 2361 2370 2546 2712 2766 2855 2914 2774 2585 2749 2982 3036
8 200 662 652 818 742 1118 1379 1702 1838 1908 1377 1084 1025 1152 1153 1123 1092 1330 1376 1325 1384 1399 1482 1532 1682 1633 1648 1645 1848 1924 1932 1923 1954 1864 1929 1867 1906 1896 1852 1811 1801 1848 1822 1856 1876 1903 1988 2217 2265 2310 2462 2463 2439 2596 2760 2759 2906 2920 2784 2785 2928 3056
14 14 128 556 751 919 1179 1555 1851 1972 1811 1364 1141 1111 1108 1094 1115 1146 1370 1402 1368 1405 1486 1560 1637 1747 1781 1781 1781 1960 1952 1954 2044 2075 2036 2012 2067 2074 1960 1917 1882 1920 1909 1957 1918 1885 1918 1926 2088 2323 2257 2344 2452 2484 2545 2746 2747 2882 2973 2906 2830 2922 2994
4 0 6 113 701 1232 1236 1273 1680 1936 1673 1508 1251 1214 1176 1142 1179 1242 1491 1409 1394 1425 1543 1701 1730 1834 1818 1890 1945 2126 2133 2107 2126 2203 2216 2129 2218 2221 2125 2053 2050 2030 2049 2112 2060 1969 1999 1968 1994 2117 2208 2180 2352 2437 2471 2462 2543 2598 2763 2832 2924 2911 2798
258 0 0 1 212 632 1341 1385 1529 2005 2088 1912 1422 1402 1263 1310 1392 1394 1434 1374 1373 1475 1567 1753 1863 1956 1843 1855 2032 2246 2252 2309 2302 2394 2409 2315 2395 2444 2276 2154 2183 2135 2170 2238 2165 2160 2096 2090 2083 2041 2121 2178 2326 2444 2444 2432 2446 2444 2145 2304 2680 2902 2759
1028 35 0 0 136 564 979 1204 1524 1912 1965 1852 1658 1624 1401 1430 1438 1379 1292 1352 1402 1485 1485 1726 1994 1889 1827 1977 2066 2210 2339 2568 2517 2482 2424 2399 2415 2421 2403 2304 2239 2214 2282 2215 2220 2170 2274 2247 2164 2099 2059 2085 2167 2278 2284 2320 2326 2084 1904 1795 1813 2355 2868
1899 1173 33 0 0 102 845 1072 1649 1861 1850 1684 1669 1663 1468 1670 1406 1315 1242 1345 1380 1424 1463 1692 1840 1802 1908 1907 2138 2338 2492 2351 2345 2336 2410 2427 2391 2411 2401 2329 2280 2304 2324 2240 2213 2299 2239 2238 2193 2245 2112 2103 2152 2146 2190 2281 2005 1825 1694 1604 1576 1621 2355
1931 1944 892 29 0 56 424 714 1255 1722 1603 1573 1533 1459 1477 1698 1433 1482 1415 1446 1378 1463 1483 1500 1620 1692 1983 1989 2240 2526 2404 2351 2420 2384 2367 2387 2376 2396 2405 2365 2337 2314 2230 2124 2186 2200 2355 2307 2200 2276 2260 2146 2299 2201 2171 2241 1961 1739 1566 1498 1457 1510 1686
1831 2179 1296 172 0 0 129 979 1239 1596 1645 1706 1679 1550 1530 1492 1406 1480 1415 1492 1546 1510 1581 1630 1619 1845 2050 2027 2218 2402 2457 2484 2372 2336 2381 2410 2400 2416 2397 2327 2324 2239 2148 2091 2180 2308 2352 2284 2364 2407 2467 2340 2322 2381 2275 2235 2056 1870 1670 1513 1459 1472 1502
1866 2068 1982 570 8 0 657 1422 1535 1706 1816 1722 1611 1617 1592 1506 1512 1605 1524 1620 1602 1621 1901 1832 1783 2061 2166 2328 2404 2454 2402 2428 2390 2429 2502 2505 2440 2418 2391 2351 2349 2262 2149 2084 2172 2404 2440 2342 2362 2399 2481 2432 2352 2384 2321 2158 1965 1870 1712 1609 1550 1545 1575
1781 1892 1898 1120 356 406 1132 994 1512 1604 1744 1622 1620 1616 1625 1628 1563 1566 1568 1595 1573 1642 2008 2192 2193 2313 2227 2305 2224 2332 2351 2353 2433 2475 2558 2546 2492 2469 2435 2436 2515 2490 2326 2194 2163 2272 2342 2391 2304 2395 2521 2478 2441 2342 2339 2275 1801 1666 1550 1512 1519 1533 1580
1690 1842 1883 1125 738 1144 1669 1407 1637 1362 1848 1620 1578 1693 1634 1587 1554 1521 1576 1531 1627 1884 1936 1971 2218 2088 2302 2369 2244 2219 2261 2241 2333 2464 2486 2530 2539 2516 2463 2555 2644 2597 2513 2393 2264 2260 2340 2437 2402 2495 2527 2575 2545 2504 2455 2489 2127 1733 1573 1474 1401 1355 1381
1633 1960 2063 1250 1234 1598 1742 1583 1604 1925 1492 1699 1582 1587 1632 1678 1695 1760 1838 1724 1900 2052 1943 2105 2226 2251 2479 2236 2191 2262 2296 2387 2438 2516 2519 2573 2581 2580 2535 2557 2606 2614 2602 2528 2386 2312 2422 2500 2538 2554 2583 2536 2612 2549 2604 2519 2399 1949 1705 1583 1516 1472 1507
1309 1733 2134 1918 1431 1342 1435 1870 1741 1658 1742 1735 1615 1673 1862 1834 1826 2054 2139 2111 2142 2079 2147 2299 2238 2383 2428 2319 2324 2494 2599 2606 2639 2666 2666 2743 2671 2548 2553 2554 2637 2590 2605 2576 2506 2506 2614 2566 2616 2686 2698 2605 2569 2326 2338 2576 2430 2089 2021 1937 1840 1734 1717
1439 1410 1901 2246 2105 1918 2103 2391 2194 1737 1752 1666 1870 1950 2068 1902 2172 2288 2310 2424 2229 2230 2454 2354 2419 2521 2532 2442 2518 2727 2833 2709 2823 2817 2799 2915 2823 2718 2732 2737 2630 2692 2711 2677 2594 2674 2709 2738 2739 2786 2830 2785 2487 2493 2464 2419 2564 2418 2357 2270 2193 2102 2007
1542 1441 1639 1996 2330 2819 2262 2288 2012 1788 1634 1951 2278 1804 1988 2277 2153 2540 2865 2775 2549 2485 2416 2521 2721 2896 2896 2850 2757 2826 2856 2712 2938 2983 2974 3024 3028 2826 2756 2810 2835 2804 2869 2753 2582 2640 2898 2904 2758 2649 2715 2762 2806 2835 2851 2816 2794 3278 2738 2652 2551 2455 2346
1653 1655 1670 1912 2116 2398 2851 2546 2703 1981 1810 2690 2153 2064 2327 2526 2635 3085 3180 2748 2612 2654 2476 2808 3157 3226 3345 3430 3060 2892 3000 3057 3118 3040 3101 3130 3150 3175 3113 3091 3021 2752 2737 2750 2780 2828 2914 3170 2909 2916 2957 2989 3027 3040 3066 3070 3037 3049 3051 3014 2931 2840 2724
1852 1801 1733 1704 1949 2077 2393 3068 3168 2884 2418 2018 1919 2074 2193 2203 2968 3091 3159 3008 3136 2927 2986 3344 3236 3401 3413 3374 3146 3249 3283 3327 3316 3349 3358 3347 3320 3390 3348 3378 3306 3301 3368 3270 3190 3253 3367 3495 3398 3067 3077 3262 3279 3132 3135 3152 3176 3174 3188 3203 3170 3115 3014
2148 2186 2114 1994 1839 1886 2193 2606 2946 3138 3254 2375 2048 2216 2297 2538 3452 3458 3368 3424 3669 3179 3412 3530 3696 3749 3606 3644 3603 3703 3581 3603 3612 3600 3509 3628 3566 3536 3572 3615 3582 3569 3617 3635 3544 3588 3568 3605 3563 3452 3365 3212 3228 3250 3265 3371 3303 3350 3283 3280 3264 3228 3148
2177 2390 2450 2487 2509 2339 2174 2471 2711 2943 3034 3162 3502 3316 3144 3349 3649 3658 3696 4589 4613 4507 4089 3975 4043 4055 3941 3822 3828 3932 3732 3819 3842 3840 3857 3784 3764 3835 3870 3916 3886 3889 3930 3836 3694 3631 3622 3654 3598 3446 3312 3350 3592 3690 3591 3605 3430 3438 3407 3362 3315 3263 3208
2192 2451 2665 2794 2832 2877 2728 2465 2432 2583 2916 3086 3485 3759 4112 3980 3964 4158 4516 4331 4702 4877 4893 4844 4610 4405 4154 4099 4146 4178 4202 4300 4150 4208 4081 4100 4060 4127 4171 4081 4058 3951 4035 3791 3688 3744 3768 3884 3740 3464 3408 3424 3813 3774 3871 3838 3876 3586 3492 3441 3371 3296 3232
1981 2141 2486 2830 2819 2970 3145 3060 2835 2608 2535 2588 2925 3311 3778 4308 4409 4302 4192 4430 4717 5037 5174 5261 5138 5002 4934 4790 4685 4586 4420 4357 4288 4385 4424 4482 4344 4327 4346 4271 4335 4222 4236 4104 3892 3833 3825 3710 3581 3472 3610 3515 3872 4046 3986 4022 4004 3730 3545 3502 3412 3348 3310
1827 1983 2114 2229 2553 2879 3160 3260 3161 3018 2845 2798 2752 2816 3030 3220 3394 3798 4214 4284 4454 4820 5457 5694 5616 5506 5441 5305 5116 4811 4551 4451 4488 4572 4606 4738 4486 4432 4339 4308 4286 4370 4400 4225 4131 4193 4024 3883 3691 3681 3660 3872 3987 4127 4156 3819 3974 3934 3547 3556 3494 3436 3394
1722 1750 1860 1852 2130 2394 2752 3114 3224 3234 3143 3065 3028 3056 3043 3033 3147 3377 3903 4262 4825 5350 5003 4988 4905 5567 5712 5632 5462 5106 4680 4299 4108 3991 4114 4484 4269 4184 4199 4164 4715 4660 4524 4138 4461 4439 4432 4438 4126 4167 4153 4096 4144 4234 4377 4190 4036 4200 3609 4218 3574 3528 3521
1535 1542 1651 1690 1811 2000 2141 2458 2842 3075 3216 3165 3185 3231 3220 3249 3316 3426 3493 3561 4192 5173 5178 5127 4879 4874 5141 5484 5733 5466 4889 4666 4678 4538 4198 3806 3433 3358 3513 3693 3945 4023 4145 4272 3863 3824 3793 3841 4914 5008 4398 4221 4592 4497 4428 4765 5090 3819 3769 3773 3750 3745 3737
1482 1539 1586 1526 1657 1749 1886 2071 2308 2352 2658 2868 3010 3080 3199 3125 3295 3255 3129 3311 3433 4244 4586 4766 4946 4942 5034 5140 5412 5236 5193 4941 4359 4078 4042 3900 3716 3512 3378 3264 3410 3618 3740 3799 3841 3744 3682 3681 3668 3663 3756 4729 4231 3801 3800 3842 3903 3940 3927 3901 3912 3952 3966
1225 1311 1408 1466 1593 1552 1629 1755 2026 2189 2297 2350 2391 2225 2269 2239 2253 2524 2596 2710 3030 3532 4202 4755 5008 5109 4934 5003 4650 4349 4366 4290 4074 3884 3794 3657 3554 3498 3405 3299 3228 3287 3423 3576 3616 3636 3721 3730 3720 3717 3710 3857 3951 4046 4059 4085 4102 4123 4137 4150 4148 4149 4218

ECMWFFLT1_con_mucape_048.txt.gz
CAPE
624 983 1314 1554 1750 1851 1919 2059 2147 2033 2094 2153 2195 2058 1933 1856 1930 2159 2194 2527 2726 2918 2860 2752 2522 2450 2351 2310 2294 2423 2346 2383 2324 2352 2270 2180 1878 1972 2166 1948 1752 1840 1470 1592 1814 1817 2364 2473 2290 2708 2859 3212 3028 3123 3359 3483 3546 3109 2726 2840 2725 2569 2699
341 556 948 1282 1602 1730 1833 2042 2171 2092 2085 2150 2145 2163 2056 2091 2155 2176 2340 2570 2757 2881 2863 2782 2662 2481 2438 2423 2399 2462 2401 2394 2436 2365 2348 2389 2302 2247 2314 2324 2033 2189 2039 1535 1558 2199 2420 2970 2765 2742 2864 2908 3040 2941 3187 3408 3470 3172 2482 2791 2781 2675 2712
169 400 639 1115 1390 1582 1787 1850 2062 2004 2083 2070 2104 2133 2071 2166 2264 2387 2416 2550 2808 2981 2909 2826 2792 2603 2517 2545 2505 2504 2624 2538 2512 2504 2468 2405 2503 2126 2303 2531 2413 2357 2483 2050 1921 2369 2850 3198 3280 2857 2733 2698 2570 2726 3051 3068 3282 3111 2863 2892 2776 2457 2835
27 230 394 891 1361 1625 1773 1753 1930 1935 1934 1964 2023 2084 2146 2311 2287 2374 2476 2574 2798 2866 2995 2842 2754 2584 2535 2559 2567 2668 2770 2679 2583 2594 2494 2334 2530 2361 2340 2677 2761 2423 2635 2650 2288 2223 2387 2756 2944 3137 3050 2648 2512 2326 2816 2632 2746 3089 3064 3227 2771 2538 2867
9 114 232 678 1245 1558 1673 1688 1742 1873 1779 1854 1998 2184 2200 2230 2216 2291 2412 2485 2529 2688 2743 2695 2526 2480 2523 2542 2535 2592 2770 2827 2704 2588 2549 2375 2446 2638 2444 2565 2693 2568 2475 2760 2658 2656 2476 2591 2670 3092 3253 3157 2612 2575 2744 2963 2662 2944 3154 3190 2937 2538 2632
0 13 74 371 909 1310 1611 1674 1641 1726 1672 1724 1793 1999 2064 2114 2094 2094 2258 2382 2465 2498 2610 2644 2552 2515 2506 2415 2438 2472 2656 2803 2862 2741 2682 2553 2499 2586 2580 2627 2552 2717 2375 2754 2783 2770 2880 2780 2724 2934 2798 2880 2588 2081 2342 2628 2571 2539 2872 3063 2877 2398 2274
0 2 4 1 333 1019 1466 1641 1519 1553 1615 1548 1612 1908 1977 1957 1959 1992 2060 2226 2303 2450 2375 2453 2361 2390 2566 2469 2540 2560 2666 2676 2867 2654 2632 2578 2497 2618 2700 2670 2606 2705 2590 2750 2879 2798 3028 3113 2930 2875 2956 2629 2476 2188 2188 2644 2519 2428 2727 3081 3142 2978 2866
0 0 10 25 8 382 967 1554 1596 1591 1568 1523 1564 1761 1780 1745 1842 1834 1964 2136 2134 2153 2205 2223 2174 2334 2555 2528 2471 2478 2543 2693 2711 2723 2688 2507 2483 2621 2739 2757 2833 2806 2816 2644 2953 2905 2970 3208 3114 2913 2975 2837 2729 2802 2552 2850 3263 2700 2474 2869 3216 3252 2799
0 0 26 62 73 63 531 1456 1693 1540 1628 1593 1502 1634 1694 1736 1735 1779 1939 1963 2020 1950 2021 2042 2016 2152 2575 2575 2613 2572 2580 2623 2680 2778 2715 2500 2416 2493 2608 2852 2933 2779 2890 2676 2733 3037 2928 3000 2940 3031 3104 3057 2941 3140 3118 3265 3380 3106 2803 2936 3244 3465 2832
0 5 371 199 48 63 616 1479 1772 1666 1661 1689 1586 1697 1780 1738 1770 1830 1886 1855 1857 1816 1875 1947 2000 2105 2453 2571 2593 2608 2640 2697 2662 2629 2606 2487 2332 2492 2581 2502 2696 2860 2867 2769 2484 2843 3032 2844 2865 3036 3356 3374 3217 3247 3423 3402 3413 3333 3183 3304 3545 3587 3599
0 150 596 310 205 436 883 1180 1579 1761 1754 1943 1761 1560 1751 1743 1750 1863 1850 1746 1740 1723 1752 1891 1978 2033 2277 2576 2609 2525 2655 2627 2553 2626 2666 2507 2358 2405 2485 2354 2328 2701 2816 2771 2505 2584 2988 3020 2954 3110 3437 3472 3475 3366 3573 3597 3645 3679 3230 3140 3233 3497 3381
287 279 1072 1034 798 822 865 1188 1762 1993 2013 2017 1732 1568 1754 1919 1851 1796 1778 1775 1746 1771 1847 1894 2000 2040 2247 2488 2484 2633 2618 2738 2619 2562 2690 2599 2379 2336 2384 2322 2207 2380 2807 2783 2660 2592 2686 3087 3069 3060 3455 3641 3514 3476 3622 3646 3613 3720 3533 2979 2956 3205 3236
0 69 696 1088 1221 992 1139 1548 1965 2114 2205 1962 1774 1624 1728 1791 1824 1725 1818 1848 1735 1786 1907 2010 2030 2174 2199 2488 2490 2664 2635 2746 2703 2572 2592 2693 2547 2376 2387 2324 2194 2222 2583 2788 2728 2565 2514 2786 3254 3196 3372 3692 3597 3419 3567 3649 3575 3724 3812 3364 2991 3050 3270
25 0 110 406 659 900 1279 1667 2048 2314 2280 2002 1770 1648 1718 1801 1787 1747 1857 1892 1818 1855 1906 1981 2155 2247 2350 2593 2598 2641 2619 2706 2815 2880 2745 2770 2853 2767 2545 2482 2351 2365 2565 2858 2826 2528 2480 2568 3053 3341 3264 3492 3584 3420 3356 3537 3642 3752 3863 3708 3169 2931 3266
1088 301 3 108 713 1062 1410 1513 2347 2675 2550 2201 1861 1695 1752 1790 1758 1810 1881 1916 1898 1814 1937 2135 2178 2281 2338 2586 2687 2830 2864 2886 2824 2910 2968 2903 3048 3010 2816 2726 2712 2671 2728 2931 2904 2642 2548 2554 2688 3164 3294 3256 3365 3320 3175 3217 3441 3513 3680 3747 3612 3161 2954
1513 1435 982 345 247 870 1528 1768 2505 3044 2870 2522 1982 1899 1775 1834 1894 1844 1903 1911 1850 1898 1905 2074 2220 2345 2389 2646 2848 2876 2942 3021 3075 3144 3152 3117 3252 3274 3120 2972 2996 2909 2941 2998 3020 2949 2801 2721 2726 2855 3218 3233 3261 3186 3196 3175 3181 3186 2819 3092 3529 3421 2938
1851 2080 2195 2390 2706 472 1101 1589 1941 2918 3014 2760 2222 1953 1833 1832 1859 1826 1820 1891 1937 1968 1993 2060 2329 2425 2497 2682 2808 2944 3058 3152 3197 3336 3402 3362 3351 3460 3440 3271 3217 3199 3260 3267 3263 3228 3182 3062 2862 2742 2870 3060 3118 3129 3118 3095 3033 2600 2584 2576 2747 3255 3536
1728 2005 2145 2308 2618 2873 2232 780 1438 2115 2830 2595 2192 1975 1858 1998 1942 1904 1815 1952 1965 1945 1906 2156 2396 2460 2719 2746 2914 3101 3254 3243 3362 3477 3570 3563 3575 3664 3620 3453 3432 3437 3451 3404 3395 3454 3283 3202 3130 3093 2789 2820 2953 2962 3023 3081 2662 2514 2412 2323 2314 2450 3202
1208 1532 1930 2257 2419 2622 2707 1918 682 1661 2266 2220 1932 1778 1890 2066 1989 2072 1957 2100 2113 2057 2033 2139 2342 2597 2902 2841 3017 3328 3570 3561 3564 3617 3740 3698 3722 3822 3746 3679 3586 3573 3468 3347 3405 3442 3506 3480 3326 3327 3115 2835 2980 2874 2876 3034 2632 2442 2308 2159 2053 1990 2071
423 748 1322 1841 2132 2423 2553 2350 1295 572 1940 2200 2067 1702 1856 2077 1990 2054 2000 2069 2170 2134 2198 2314 2534 2851 3011 3039 3204 3552 3859 3777 3657 3738 3884 3910 3858 3889 3802 3699 3648 3531 3464 3356 3446 3507 3532 3372 3420 3397 3454 3217 3043 3082 2981 2995 2525 2395 2220 2079 1958 1862 1823
68 272 583 1256 2034 2310 2584 2661 1697 404 788 2006 1922 1791 1858 1991 1942 2155 1969 2133 2193 2191 2444 2502 2777 3018 3184 3256 3454 3796 3962 3861 3887 3988 3938 3960 3861 3874 3864 3756 3671 3528 3294 3194 3304 3508 3530 3480 3395 3468 3460 3370 3151 3029 3007 2863 2444 2392 2242 2041 1887 1760 1672
288 444 447 1122 1691 2078 2509 2424 1795 568 282 1634 1881 1751 1808 1936 1984 2057 2040 2038 2140 2186 2366 2722 2910 3052 3238 3296 3534 3871 3872 3847 3902 3891 3947 3937 3920 3921 3847 3770 3828 3627 3421 3233 3166 3293 3451 3490 3285 3398 3408 3396 3301 2935 2938 2932 2330 2320 2249 2139 1949 1750 1598
452 666 564 1219 1792 2022 2399 2247 1653 815 367 1125 1634 1479 1762 1899 1999 1980 1901 1930 2108 2346 2342 2578 2976 3134 3393 3376 3474 3641 3722 3741 3718 3840 3913 3927 3873 3808 3679 3690 3736 3695 3499 3280 3105 3092 3207 3333 3293 3349 3314 3409 3405 3232 3226 3152 2772 2309 2179 2095 2001 1856 1722
613 757 716 1588 1932 2127 2429 1916 1297 902 772 1550 1638 1522 1754 1961 1948 1994 2030 1993 2153 2294 2373 2664 2897 3108 3416 3305 3398 3568 3671 3686 3672 3717 3690 3828 3816 3776 3712 3664 3682 3611 3498 3384 3030 2830 2996 3223 3362 3324 3263 3281 3442 3299 3389 3266 3022 2619 2328 2087 1928 1848 2210
702 755 952 1644 1809 1964 2404 2407 1645 1016 1104 1710 1603 1546 1879 2038 1977 2052 2159 2253 2270 2390 2560 2719 2874 3084 3392 3316 3277 3504 3670 3544 3622 3717 3751 3883 3800 3670 3657 3520 3578 3553 3438 3270 3148 2891 2978 3047 3227 3312 3269 3119 3218 3088 3183 3374 3103 2776 2610 2314 2055 1867 2374
798 774 1004 1576 1695 2050 2240 2608 1869 1252 1586 1869 1809 1802 2193 1951 2076 2293 2344 2390 2428 2473 2745 2871 2956 3113 3245 3250 3296 3499 3563 3455 3597 3628 3658 3759 3788 3676 3631 3513 3423 3488 3511 3352 3199 3070 2951 2964 3045 3202 3280 3281 3210 3236 3158 3208 3719 3003 2683 2515 2294 2051 2177
1078 1072 1000 1489 1778 2014 2609 2658 2125 1717 1611 1734 1900 1733 2065 2193 2266 2449 2674 2632 2614 2639 2746 2896 3018 3192 3398 3389 3150 3242 3454 3401 3519 3541 3668 3749 3806 3560 3460 3452 3394 3444 3502 3395 3183 3189 3203 2985 2997 3056 3310 3314 3440 3432 3379 3334 3446 3697 2944 2752 2488 2237 2085
1218 1240 1137 1339 1900 2050 2453 2480 2201 1813 1432 1913 2090 2372 2343 2319 2588 2845 2899 2682 2663 2779 2650 2865 3038 3138 3309 3427 3220 3236 3411 3465 3479 3518 3581 3681 3749 3686 3549 3508 3449 3454 3582 3371 3339 3420 3492 3445 3264 3261 3387 3441 3540 3695 3653 3480 3112 3862 3065 2849 2664 2449 2343
1402 1455 1394 1242 1747 2131 2014 2975 2360 1855 1677 1969 2125 1863 1959 2417 2811 2991 3059 2926 3077 2902 2866 2943 3140 3383 3544 3595 3213 3374 3535 3600 3616 3619 3685 3642 3712 3768 3536 3588 3501 3510 3618 3649 3641 3674 3688 3898 3788 3699 3679 3785 3855 3779 3903 3971 3808 2952 3014 2994 2798 2664 2608
1583 1557 1632 1524 1522 2020 2527 2676 3343 3446 2113 2110 2310 2404 2586 2728 3291 3530 3358 3330 3380 3051 2985 3211 3511 3724 3810 3619 3554 3441 3695 3764 3760 3971 3779 3783 3778 3862 3839 3695 3675 3760 3900 3953 3955 3878 3943 3971 4084 4017 3931 3848 3837 3831 3928 4110 4324 3643 3048 2883 2918 2924 2899
1759 1852 1777 1726 1693 1926 2497 2268 2880 3337 3098 2406 2590 2609 2958 3144 3741 3880 3821 3866 3655 3368 3409 3658 3875 4067 4116 3902 3670 3858 3944 4051 3980 4062 3903 3887 3838 3954 4010 3992 3952 4042 4164 4348 4242 4133 4081 4169 4002 3900 3906 3858 3880 4063 4145 4334 4277 4556 3708 3226 3125 3141 3122
2129 2104 2239 2093 1965 1961 2229 2635 2415 2835 3337 3662 3048 2900 3242 3340 3843 4232 4119 3982 3879 3616 3718 4047 4435 4491 4538 4366 4173 4188 4117 4221 4124 4233 4128 4107 4022 4214 4348 4301 4267 4299 4466 4348 4101 3986 3937 4222 3982 3873 3894 3994 4201 4117 4195 4214 4590 4603 4510 3982 3506 3264 3311
2147 2360 2391 2305 2161 2081 2249 2723 2832 2990 3245 3539 3722 3693 3693 3580 3834 4239 4225 4733 4103 3767 4528 4748 4969 4714 4692 4647 4480 4528 4459 4527 4500 4534 4480 4473 4284 4377 4502 4529 4626 4595 4685 4563 4345 4346 4249 4149 4065 3970 3534 4036 4019 4080 3966 4062 4527 4631 4721 4274 4034 3592 3467
2170 2353 2385 2508 2504 2244 2267 2299 2550 2988 3093 3238 3598 3959 4365 4732 4866 4926 5068 4807 4581 4614 4980 4832 4904 4773 4740 4753 4574 4697 4684 4691 4652 4715 4728 4624 4455 4518 4543 4577 4630 4702 4827 4810 4635 4617 4524 4343 4161 3644 4083 4040 4080 3832 4144 4063 4632 4816 4860 4591 4106 3815 3597
1847 2360 2422 2604 2653 2579 2317 2239 2320 2488 2865 3054 3432 3627 3922 4306 4557 4829 5042 4815 4578 4797 4960 4934 4865 4568 4602 4605 4689 4716 4752 4585 4695 4536 4710 4894 4895 5018 4302 4581 5093 4873 4818 4766 4936 4792 4710 4984 4489 4372 4298 4372 4245 4448 4805 4280 4686 4975 4612 5757 4744 5259 4104
1678 2077 2426 2474 2635 2623 2545 2524 2452 2343 2522 3129 3404 3547 3634 3720 3996 4081 4149 4515 4804 5113 4908 4928 4871 4686 4724 4564 4339 4230 4458 4387 4485 4485 4511 4845 5068 4328 4136 4166 4193 4238 4327 4354 4232 4310 4317 4649 6276 6618 4682 4297 4598 4639 5485 4691 6109 4244 3993 4014 4102 4127 4016
1671 1877 2208 2138 2157 2679 2592 2576 2526 2519 2485 2520 2690 2750 3202 3456 3606 3890 4006 4681 4929 4947 5118 5343 5149 4852 5049 5006 4717 4473 4759 4688 4413 4772 4865 4803 5020 4513 4282 4072 4066 4162 4186 4217 4222 4210 4157 4124 4310 4506 4358 6890 4611 3997 4017 4176 4222 4127 3979 4023 3848 3757 3525
1486 1611 1978 1954 2155 2420 2682 2488 2532 2528 2482 2572 2700 2664 2656 2702 2842 3060 3361 3653 3974 4765 5039 4943 4956 4675 4732 4373 5375 6178 5907 5693 5184 5304 5340 5150 5229 4471 4393 4108 3871 3894 4031 4108 4192 4270 4276 4063 4052 4145 4174 4160 4120 4027 4075 3939 3730 3704 3766 3785 3633 3593 3593

ECMWFFLT1_con_mucape_051.txt.gz
CAPE
86 119 1057 1271 1367 1236 1157 1535 2072 2286 2335 2401 2304 2062 1804 1439 1806 1980 2203 2779 3260 3509 3298 3270 3141 3022 2768 2696 2514 2528 2138 1973 1735 1476 1241 923 474 540 1346 1606 1420 934 507 820 1362 956 1377 1562 1587 2075 2062 2664 2741 2719 2958 3258 3312 3033 2869 2917 2879 2738 2576
310 143 672 1337 1345 1599 1887 2051 2294 2524 2407 2446 2428 2370 1987 1982 2190 2200 2423 2874 3280 3565 3350 3375 3362 3221 2916 2940 2654 2674 2657 2446 2513 2058 1813 1754 1557 1271 1340 1714 1500 1397 1204 712 1038 1340 1316 1604 1564 2046 2232 2639 2784 2773 2827 3245 3431 3188 2506 2826 3064 3100 2876
277 179 320 375 1002 800 941 1695 1863 2513 2469 2517 2619 2523 2200 2329 2265 2410 2613 2918 3405 3674 3628 3509 3601 3456 3123 3186 3035 3000 2756 2644 2624 2488 2098 1853 1994 1466 1538 1800 1665 1474 1474 971 1037 1253 1387 1789 2019 2057 2175 2513 2830 2768 2801 2952 3156 3214 2816 2659 2876 2855 3170
192 151 210 593 1175 808 1558 1596 1936 2522 2378 2480 2726 2644 2455 2552 2485 2662 2634 2973 3299 3639 3761 3670 3580 3259 3251 3180 3063 3223 3093 2834 2760 2573 2013 1726 2052 1852 1699 1745 2089 1748 1782 1627 1080 1017 1080 1712 2324 2333 2509 2345 2322 2270 2407 2363 2650 2952 2896 2819 2807 2560 2795
143 180 160 435 560 1426 1668 1594 1665 2648 2451 2408 2730 2766 2620 2600 2565 2450 2715 2959 3250 3527 3615 3512 3262 3152 3113 3091 2906 3023 3047 2980 2948 2632 2364 1990 2214 2336 1782 1706 2138 2115 1700 1905 1693 1473 1590 1972 2422 2598 2555 2434 2327 2252 2272 2541 2474 2694 2809 2911 2903 2495 2566
0 36 88 257 456 653 1952 1280 1808 1951 2426 2403 2561 2826 2710 2604 2610 2664 2694 2880 3203 3394 3558 3444 3146 3136 3220 3074 2805 2834 3091 3233 3146 3069 2804 2484 2244 2297 2045 1978 2192 2382 1806 1940 1965 1790 1982 2050 2202 2658 2553 2496 2083 1725 2137 2388 2448 2459 2817 2928 2866 2478 2176
0 0 26 183 383 532 1039 968 1022 1744 2393 2330 2467 2733 2656 2562 2601 2570 2650 2825 3101 3380 3372 3212 3081 3056 3213 3057 2813 3008 3143 2944 3364 3080 2792 2594 2248 2400 2574 2481 2379 2323 2183 2047 2163 1952 2138 2293 2494 2422 2470 2272 2098 1567 1856 2370 2453 2350 2441 2889 2976 2926 2706
0 0 0 90 338 531 701 1602 1903 1535 1322 2093 2255 2594 2635 2468 2229 2618 2733 2753 2962 3162 3252 3185 3020 3087 3213 3070 2798 2849 2995 3130 3343 3066 2830 2559 2382 2674 2722 2630 2527 2365 2463 1995 2246 2118 2106 2381 2257 2410 2673 2322 2187 1889 1744 2370 2466 2166 2148 2612 2938 3184 2744
0 0 0 5 217 380 513 464 742 1016 1481 1332 1844 2502 2470 2591 2563 2539 2612 2730 2855 2997 3182 3008 2872 2931 3176 3030 2875 2865 3116 3089 3176 3075 2653 2555 2428 2350 2397 2700 2718 2616 2651 2166 1954 2424 2270 2524 2495 2540 2921 2694 2272 2179 1986 2518 2400 2334 2257 2530 2830 3070 2649
0 0 0 0 69 236 401 684 1286 1777 1487 1873 2119 2439 2530 2421 2533 2633 2632 2647 2841 2840 2983 2812 2732 2721 3069 2913 2828 2845 2981 2976 3036 2839 2712 2381 2216 2222 2120 2197 2586 2722 2765 2575 1771 1953 2425 2324 2632 2770 3123 3124 2663 2574 2410 2353 2502 2812 2546 2382 2553 2930 3072
0 0 0 0 15 114 398 334 520 1698 1815 2568 2371 2229 2622 2544 2584 2506 2533 2617 2688 2713 2827 2737 2598 2535 2946 2807 2602 2609 2884 2744 2627 2645 2534 2264 2027 2007 2052 1880 1944 2370 2585 2623 2144 1762 2388 2698 2764 3065 3350 3296 3021 2991 2946 2716 2887 3022 2754 2455 2524 2806 2986
0 0 0 1 11 31 14 309 1030 2164 2889 2910 2137 2060 2483 2655 2514 2534 2524 2622 2657 2648 2636 2506 2477 2464 2801 2798 2628 2679 2636 2610 2286 2398 2579 2242 1997 1877 2002 1931 1823 1987 2442 2438 2310 1851 1743 2732 2864 2892 3461 3624 3444 3237 3379 3323 3342 3354 3133 2408 2334 2711 2927
0 0 0 4 56 62 301 1078 2638 2934 3236 2272 2120 1959 2240 2491 2544 2426 2563 2600 2509 2520 2524 2517 2386 2456 2709 2822 2506 2582 2448 2490 2216 2356 2530 2325 1942 1894 1955 1812 1768 1677 2062 2334 2298 2008 1701 2161 3097 2934 3323 3854 3759 3477 3631 3667 3579 3814 3723 2956 2375 2501 2840
0 89 0 11 60 130 279 1602 2409 2709 2769 2296 2231 2011 2022 2297 2341 2403 2532 2540 2540 2480 2440 2428 2267 2407 2638 2809 2644 2574 2428 2526 2393 2403 2506 2485 2510 2309 1947 1984 1788 1686 1752 2306 2369 2117 1825 1703 2712 3121 3233 3644 3824 3695 3705 3886 3862 3925 3975 3770 2893 2440 2666
21 12 253 433 805 1076 1504 973 2386 3005 2710 2603 2291 2046 1948 2134 2279 2323 2460 2558 2567 2439 2452 2480 2348 2419 2519 2883 2872 2873 2770 2992 2648 2492 2747 2725 3012 2764 2332 2294 2295 2104 1948 2450 2522 2245 1978 1752 1844 2878 2948 3065 3674 3678 3523 3660 3803 3708 3859 4109 3669 3028 2576
958 956 456 375 710 337 1025 1119 1986 2835 2958 3038 2440 2204 1926 2144 2396 2259 2365 2530 2262 2424 2375 2398 2502 2581 2603 2873 2952 3085 3252 3677 3366 3179 3128 3152 3491 3461 2810 2460 2522 2333 2368 2410 2582 2737 2397 2144 1852 2056 2914 2990 3324 3511 3428 3336 3538 3515 3296 3577 3938 3426 2740
1485 1602 1555 1677 2017 1948 2038 1030 1516 2515 3153 3174 2808 2368 2070 2152 2356 2307 2275 2490 2491 2467 2326 2054 2663 2578 2640 3014 3152 3322 3601 3769 3588 3619 3712 3832 3726 3633 3427 3282 2772 2768 3037 2882 2863 3247 3367 2708 1928 1776 2188 2829 2920 3130 3184 3116 2963 3054 3170 3317 3410 3591 3365
666 934 1188 1405 1585 2391 2784 2256 1790 1854 2771 3000 2752 2408 2134 2300 2279 2291 2214 2339 2426 2112 1970 2068 2511 2741 3036 3060 3399 3823 3838 3664 3834 3943 3951 3984 3928 3892 3774 3301 3079 3276 3123 2713 2811 3541 3249 2784 2501 2644 2164 2424 2783 2764 2916 3052 2514 2749 3061 3142 3270 3391 3710
543 467 616 778 1028 1312 2001 2002 1809 2198 1974 2679 2666 2283 2052 2115 2192 2425 2302 2410 2352 2323 2251 2170 2302 2868 3286 3156 3501 3897 4004 4000 3964 4082 4021 4036 4036 4017 3916 3828 3622 3242 3049 2600 3196 3155 3649 3538 2965 2898 2694 2422 2794 2721 2697 2799 2283 2553 2824 2951 3074 3126 3302
261 279 335 450 631 908 1251 1970 2645 3149 3362 2723 2531 2599 2054 2139 2157 2375 2254 2224 2407 2402 2503 2646 2737 2893 3202 3488 3868 4092 4071 4185 4128 4181 4281 4222 4237 4289 4139 3878 3756 3471 3303 3078 3437 3677 3710 3472 3306 3210 3406 3010 2902 3194 2728 2833 2307 2415 2649 2784 2818 2857 3030
10 16 102 243 396 574 979 1652 2389 2801 2920 2658 2423 2227 2469 1973 2051 2329 2247 2125 2193 2487 3214 2797 3127 3332 3337 3627 3865 4096 4289 4264 4154 4333 4475 4529 4367 4474 4345 4108 3954 3826 3583 3425 3496 3808 3984 3764 3495 3443 3438 3200 2947 3098 2946 2704 2566 2527 2510 2580 2628 2645 2602
0 0 2 40 129 293 604 1284 2100 2509 2638 2796 2885 1514 2112 1634 1862 2004 2154 2058 2354 2457 2565 3097 3510 3234 3438 3607 3888 4160 4234 4339 4367 4469 4661 4716 4656 4618 4625 4398 4395 4207 3922 3565 3370 3691 4002 4009 3554 3571 3679 3526 3181 2977 3026 2925 2467 2557 2593 2592 2498 2469 2369
0 0 0 0 0 15 430 1240 1895 2305 2789 2843 2522 1941 1478 2110 1841 1695 2069 2110 2169 2671 2571 2732 3198 3292 3624 3764 3888 4122 4275 4277 4422 4596 4771 4777 4667 4698 4585 4566 4558 4332 4052 3758 3386 3381 3681 3982 3588 3644 3710 3739 3670 3238 2790 3035 2645 2440 2610 2608 2581 2443 2391
406 409 402 0 0 0 306 1185 1838 2203 2311 2913 2400 1693 1244 1910 1992 1941 2364 2052 2295 2501 2261 2690 3027 3341 3739 3673 3870 4107 4367 4454 4452 4682 4856 4828 4791 4744 4599 4565 4480 4374 4188 3899 3309 2976 3318 3772 3764 3483 3504 3615 3794 3511 3336 3119 4412 2482 2475 2563 2544 2480 2828
0 322 223 464 532 377 205 955 1846 2282 2227 2377 2692 1532 1150 1722 1990 2040 2482 2426 2335 2636 2777 2862 3070 3405 3806 3827 3940 4281 4510 4481 4612 4709 4736 4865 4774 4506 4542 4442 4552 4313 4203 3879 3331 2882 3052 3291 3538 3572 3416 3288 3597 3704 3475 3128 3436 2690 2538 2452 2440 2420 3098
0 0 0 289 620 686 951 1362 1618 2401 2700 2532 2476 1540 1090 1687 2272 2378 2411 2425 2471 2649 2816 2972 3193 3538 3959 3977 3991 4359 4666 4565 4684 4708 4881 5055 4886 4713 4900 4700 4576 4522 4286 3817 3424 3168 2776 2760 3168 3450 3330 3219 3196 3541 3479 3234 3156 2680 2738 2688 2520 2388 3060
265 376 426 510 732 936 1440 1428 1786 2374 2430 2718 2195 1412 1090 1839 2280 2482 2930 2752 2780 2826 2909 3045 3359 3795 4216 4165 3988 4309 4679 4676 4814 4877 4871 5014 4886 4559 4562 4391 4236 4186 4180 3886 3276 3084 3032 2608 2718 2911 3116 2992 2964 3038 3332 3246 3679 3144 2779 2805 2726 2524 2485
482 810 806 843 949 1010 1351 1594 1942 2559 2381 2518 1873 1669 1886 2412 2789 3361 3398 2829 2799 3004 2848 3123 3528 3761 4192 4224 4091 4298 4596 4554 4697 4738 4784 4877 4815 4660 4480 4244 4138 4119 4115 3707 3551 3602 3414 3176 2857 2715 2904 2907 2933 3122 3198 3348 3359 3934 3133 2924 2870 2782 2604
509 734 840 846 962 1027 1413 1754 2135 2451 3363 1951 1740 1890 1964 1676 3035 3087 3353 3069 3292 3034 3162 3232 3547 3954 4303 4369 4114 4332 4503 4590 4728 4723 4664 4666 4686 4598 4349 4276 4100 4055 4280 4159 3919 3790 3511 3802 3401 3177 3019 2927 3206 3074 3452 3968 4183 4051 3448 3187 3099 3050 2888
707 778 974 1108 1190 1334 1327 1920 2156 2656 3211 3605 2339 2053 1990 2414 3613 3425 3151 3411 3650 3077 3292 3504 3901 4218 4316 4295 4114 4284 4480 4513 4491 4624 4701 4710 4638 4539 4350 4309 4184 4165 4249 4217 4037 3868 3932 4048 3979 3795 3432 3224 3157 3007 3262 3879 4259 3976 3333 3372 3320 3249 3122
983 1221 1143 1316 1367 1296 1720 2064 2430 2485 3260 3284 2689 2048 2431 2663 3248 3680 3460 3594 3994 4141 3604 3828 4085 4183 4373 4195 4108 4228 4472 4484 4652 4601 4569 4519 4485 4499 4387 4256 4113 4157 4247 4416 4189 4077 4043 4130 4063 4083 3813 3496 3388 3436 3368 3650 4352 4797 3722 3646 3497 3310 3250
1106 1288 1467 1530 1603 1522 1847 2242 2226 2613 3033 3605 2779 2569 3431 2928 3016 3617 3651 3712 4128 4018 4248 4199 4471 4426 4579 4477 4261 4361 4394 4446 4412 4436 4374 4525 4528 4595 4550 4366 4084 4171 4326 4333 4229 4151 4169 4097 3928 3976 4020 3913 3876 3753 3709 4076 4135 4616 4706 3839 3731 3644 3505
1451 1478 1646 1871 1694 1611 2148 2185 2544 2845 3470 3560 3093 2516 2232 2899 3556 3916 4229 4295 3926 3821 4352 4486 4572 4597 4697 4522 4302 4443 4482 4518 4467 4477 4431 4592 4377 4394 4341 4249 4101 4144 4365 4218 4138 4211 4083 3939 3852 3849 3782 3922 3915 4015 4231 4045 4310 4455 4534 4117 4016 3950 3902
1424 1488 1892 1999 1785 1746 2074 2309 2507 2671 3199 3734 3198 4272 3035 3287 3645 4112 4343 4398 3964 3820 4327 4756 4699 4675 4830 4409 4295 4335 4488 4626 4672 4557 4369 4426 4218 4311 4209 4171 4131 4127 4194 4198 4021 4055 4043 3897 3858 3582 3800 3858 3954 4187 4239 4253 4478 4603 4845 4538 4199 4138 4156
1394 1868 2048 1930 1944 1964 2044 2057 2199 2414 3071 3287 3603 4570 4992 4660 4074 4416 4489 4513 4331 4547 4836 5030 4984 4788 4999 4420 4444 4247 4484 4473 4463 4454 4372 4319 4214 4640 6051 6169 4293 4206 3968 3931 4075 4153 4242 4098 3739 3988 4041 4061 4337 4704 4565 4598 4543 4893 4797 5686 4385 4341 4272
1342 1603 1913 1933 2017 1969 2039 2115 2281 2492 2899 3299 3428 3766 4005 4565 4965 4669 4110 4213 4120 4716 5040 5244 4962 5033 4981 4693 4445 4331 4289 4222 4257 4299 4396 4313 3965 3758 3859 3818 3751 3817 4532 4308 3945 4131 3786 3964 5974 6150 4209 4715 4621 4784 5147 5106 5926 4660 4630 4527 4258 4401 4482
1278 1413 1780 1922 2009 2011 2105 2129 2183 2068 2542 3062 3488 3656 3352 3322 3914 4187 3700 3696 4196 4627 5023 5143 4786 4701 4736 4549 4265 4278 4264 4130 4488 4432 4622 4505 4301 3753 3775 3787 3714 3718 3841 3664 3734 3844 3650 3525 3746 4131 4750 5957 4640 3994 3675 4599 4513 4637 4664 4399 4276 4301 4292
1110 1414 1642 1658 1608 1935 1963 1962 1904 1920 2120 2453 2725 3053 3272 3127 3354 3775 3523 3957 4202 4331 4631 4749 4479 4345 4353 4357 4236 4869 4941 4504 4526 4575 4696 4674 4952 4156 3975 3770 3729 3686 3812 3974 4028 3874 3904 3667 3762 4039 4378 4613 4456 3968 3730 4091 4218 4152 4207 4256 4295 4246 4214

ECMWFFLT1_con_mucape_054.txt.gz
CAPE
772 1146 1470 1564 1621 1404 1271 1421 2139 2127 2384 2293 2211 1562 1033 966 1466 1607 1848 2304 2479 2460 2085 1773 2011 2143 1644 1270 1327 1350 1212 820 754 697 671 664 372 646 1511 1190 1233 1384 982 1528 1630 1684 2237 2302 2489 2313 2727 3279 3208 3461 4120 3967 3928 3632 3879 3490 3434 3501 3336
1277 1059 692 526 678 1091 1784 1997 2459 2076 1915 1747 1707 1742 1499 1321 1634 1767 2048 2611 2824 2651 2335 1892 2179 2242 1709 1231 1187 1370 1225 1062 808 754 559 610 622 775 1326 1720 1554 1864 1708 1141 1877 1829 2187 2089 2520 2564 2772 3188 3021 3411 3530 4010 4029 3980 3601 3897 3722 4050 3729
972 1036 812 807 1265 1598 1690 1920 2350 2002 1858 1960 1913 1452 1272 1548 1745 1974 2230 2704 3072 2973 2617 2132 2304 2406 1818 1638 1197 1321 1307 1240 1109 751 517 462 536 153 587 1552 2057 2076 1642 1308 2033 1974 1768 2034 2182 2793 2621 2634 2462 3345 3489 3691 4110 4071 4029 4018 3769 3700 4075
985 982 986 846 1012 1460 1432 1927 1987 1414 1348 1374 1271 1405 1791 1933 2050 2181 2308 2549 2889 3131 3088 2388 2255 2042 2107 1761 1493 1493 1484 1361 1148 785 319 195 375 186 299 862 1892 1571 1724 1140 848 1372 1031 1509 2194 2586 3069 2875 3078 3169 3099 3118 3387 3912 3932 3865 3548 3550 4112
1215 900 580 1005 1186 1060 1873 2095 1853 2246 2461 2189 2316 2247 2035 2029 2028 1884 2122 2069 2628 3210 2922 2719 2151 2269 2242 1864 1382 1530 1477 1198 1276 937 569 366 471 331 290 218 1192 1395 1322 1411 978 1130 1971 2004 2071 2233 2845 3120 3242 3485 3393 3406 3319 3830 3850 3881 3598 3295 3623
1196 414 1445 1229 1333 1860 1869 1852 1996 1722 1674 1664 1764 1999 1888 1832 1895 1561 1724 2112 2619 3076 3172 2844 2514 2748 2529 1800 1801 1886 2007 1410 1320 1411 971 892 1105 763 556 735 763 1207 993 1588 1404 1325 1668 2535 1875 2194 2391 2701 2635 2646 2800 3052 2778 3156 3731 3748 3540 3158 2899
76 360 1118 1032 1232 1197 1152 1212 975 1532 2186 1752 1996 2031 2158 1740 1654 1522 1570 1936 2603 3207 3078 3176 2760 2486 2678 2640 2356 2350 2405 2038 1793 1501 1640 1186 1325 1490 1234 1136 1252 1397 1357 1598 1643 1607 1406 2145 2093 2456 2487 2230 2354 2274 2369 2756 2708 2779 3269 3549 3739 3715 3630
56 205 1567 1065 1031 982 820 850 1337 1469 1638 1632 1461 1577 2589 1818 1612 2154 1792 2034 2570 2868 2985 2932 2789 2896 2896 2804 2303 2062 2352 2094 1873 1972 1792 1319 1235 1487 1725 1619 1659 1773 1946 1723 1920 2006 1592 1732 2086 2658 2737 2611 2647 2447 2555 2897 3223 2919 3008 3456 3565 3540 3019
5 210 629 1101 979 759 899 940 983 1536 1584 1552 1506 2388 1787 1803 1643 1473 1769 2114 2488 2797 3006 2998 2847 2859 3152 2877 2676 2700 2651 2314 2329 1980 1760 1357 1042 969 1104 1807 1802 1881 2176 1820 1541 2226 2025 1920 1879 2374 2992 2785 2847 2755 2517 2918 3133 2919 2894 3074 3382 3428 3108
0 21 134 1951 1178 689 1597 1844 1980 1907 1700 1352 1428 1958 2005 1725 1600 1571 1777 2150 2480 2861 3114 3118 2939 2899 3035 2932 2543 2238 2839 2774 2710 2054 1719 1753 1297 1092 1056 1495 1432 1853 2066 1996 1746 1949 2324 2303 2101 2698 3053 3008 3108 2994 2490 2924 2737 2686 2769 3015 3177 3253 3362
0 2 4 23 54 1154 1438 1592 1381 1598 1568 1622 1406 1644 1982 1860 1866 1675 1995 1908 2175 2502 3190 3110 2970 2944 2926 2784 2451 2243 2486 2352 2227 2111 1915 1815 1466 1361 1282 1512 1726 1745 1559 1704 1734 1863 2165 2410 2517 2788 3142 3046 3131 3246 2614 2801 2754 2662 2434 2621 2829 3089 3101
0 83 0 0 127 1428 1573 1298 1131 1224 1579 1744 1467 1096 1882 1984 1621 1795 1695 1721 2120 2602 3137 3178 3051 2836 2884 2866 2500 2380 2526 2438 2396 2338 2215 1798 1602 1504 1486 1457 1797 1960 1869 1822 2086 1949 2110 2424 2624 2785 3049 3115 3100 3368 2951 2691 2855 2857 2623 2347 2418 2844 2926
166 597 35 7 193 928 1160 1468 1287 1744 2221 1941 1450 1135 1280 1895 2212 1982 1813 1541 1622 2138 2918 3086 2947 3159 2836 2847 2442 2482 2544 2585 2108 2591 2338 2262 2003 1669 1783 1603 1864 1881 1940 2012 2215 1970 1877 2238 2626 2834 3146 3323 3296 3235 3208 2850 2756 2982 3058 2787 2581 2640 2788
274 0 123 192 323 714 1784 1654 1565 2182 1881 1638 1398 1399 1832 2274 2374 1862 2220 2230 2214 2522 2755 2976 2909 3133 3252 3148 2893 2760 2535 2297 2582 2790 2738 2370 2084 2015 1944 1892 1625 2092 2357 2459 2387 1877 1758 1973 2433 2988 2967 3345 3344 3366 3388 3275 2991 3109 3355 3313 3022 2830 2848
1120 1469 52 366 2160 3140 998 1934 1895 2189 2214 1931 1530 1550 1690 1640 1632 2379 2724 2562 2384 2410 2510 3175 3171 3011 3056 3283 3095 2912 2656 2872 2848 2784 2812 2544 2381 2236 2027 2038 2118 2139 2373 2686 2438 2278 2060 1767 2150 2509 2644 2950 3250 3346 3294 3292 3203 3039 3472 3456 3273 2871 2549
1013 1320 1652 1476 1602 1743 2459 2978 2719 2859 2308 2081 1704 1909 1833 2164 2666 2835 2690 2686 2418 2649 2481 3261 3240 3190 3098 3092 3107 2993 2883 3039 2904 2860 2974 2924 2755 2534 2290 2225 2341 2285 2390 2730 2646 2565 2562 2014 2168 2536 2654 2818 3424 3663 3411 3189 3088 3051 2976 3126 3308 3069 2256
616 681 761 803 838 1119 2121 2523 2146 1867 3204 2938 2494 2357 2105 2649 2852 2462 2231 2292 2349 2923 2572 3011 3272 3164 3132 3183 3109 3098 3097 3233 3118 2981 2958 3037 2995 2745 2613 2517 2536 2529 2594 2777 2764 2642 2949 2642 2236 2290 2614 2631 2861 3382 3229 2950 2902 2973 2977 3012 3177 3158 2876
376 279 405 568 769 825 1296 1489 2325 2697 2378 2476 2650 2676 2485 2870 2783 2472 2058 2207 2278 2354 2337 2364 2978 2810 3042 3309 3326 3495 3382 3309 3327 3068 3034 3154 3180 3028 2842 2751 2744 2707 2742 2750 2742 2786 2852 2806 2533 2296 2651 2867 2994 3126 3202 3243 2768 2817 3124 3234 3303 3222 3330
321 188 160 417 492 522 732 1214 1422 2110 2446 1838 1648 1492 1469 1642 1574 2092 2379 2501 2599 2292 2185 2247 2404 2945 3273 3276 3540 3731 3534 3455 3458 3271 3192 3253 3341 3304 3053 2976 3020 2942 2824 2738 2754 2954 2827 2744 2670 2513 2358 2787 3005 2690 2883 3197 2715 2437 2941 3167 3227 3286 3293
192 170 90 120 164 150 343 512 902 1617 2172 2320 2568 2217 1640 1484 1164 2219 2039 2169 2696 2336 2504 2732 2768 2864 3418 3482 3777 3904 3740 3659 3613 3442 3371 3375 3520 3527 3250 3088 3075 3006 2840 2503 2564 3014 3015 2898 2772 2666 2585 2467 2986 3003 2945 3104 2793 2462 2660 3035 3132 3214 3176
0 106 21 8 16 13 49 134 271 594 1964 2079 2488 2537 2544 1002 585 1496 2178 1574 1560 2643 3266 3274 3318 3311 3350 3645 3987 4175 4067 3936 3809 3738 3677 3599 3696 3706 3506 3208 3116 3115 2689 2280 2383 2915 3259 2996 2738 2804 2774 2544 2677 3275 2834 2723 2531 2382 2441 2829 3005 3077 3089
0 0 0 0 0 0 3 2 44 191 530 1614 1919 1943 1910 2252 1146 1078 1202 1577 1558 2008 2738 3439 3884 3956 3488 3909 4165 4327 4284 4166 4022 4060 3976 3907 3823 3830 3706 3438 3312 3267 2905 2370 2126 2307 3409 3420 2913 3005 3007 2748 2486 2362 2670 2218 2457 2418 2342 2475 2789 2882 2887
0 0 0 0 0 0 0 0 0 31 904 1125 1727 2111 2106 1719 1495 667 742 1569 1627 1740 2179 2904 4115 3890 3743 3952 4188 4344 4354 4123 4114 4198 4214 4169 4006 3943 3795 3623 3513 3400 3151 2784 2454 2438 2593 3234 2756 3145 2972 2975 2983 2766 2786 2786 2434 2168 2246 2301 2528 2680 2741
0 0 0 0 0 0 0 0 0 4 73 340 1081 1967 2328 2485 1057 1043 1275 1438 1262 1604 2223 1970 3424 3978 3833 3783 4016 4200 4265 4211 4205 4360 4413 4333 4148 4102 3944 3836 3668 3396 3357 3133 2740 2351 2506 2940 3398 3388 3218 2879 3052 3035 3202 3085 3061 2359 2274 2093 2313 2454 2653
0 0 0 0 0 0 0 0 0 238 667 1096 1193 1577 2208 2440 2695 882 1387 1901 1667 1482 1819 1950 3205 3931 3877 3679 3681 4054 4295 4348 4280 4411 4564 4494 4308 4015 3977 3778 3762 3442 3438 2974 2680 2675 3048 3328 3440 3288 3365 2854 2872 2952 3081 2900 4234 2562 2476 2254 2202 2370 2636
0 0 0 0 0 0 0 0 16 465 787 1006 1295 2129 2381 2639 2682 2498 1658 1771 2031 1538 1535 2108 2758 3502 3818 3599 3647 4220 4564 4300 4523 4535 4534 4783 4562 4545 4673 4441 3824 3538 3220 3124 2905 2818 2866 3133 3083 3429 3328 3003 3182 3486 3225 2809 4273 2865 2383 2432 2324 2311 2584
0 0 0 0 0 249 144 126 203 516 827 1007 1393 2142 2385 2601 3259 2746 2776 2318 2109 1904 1656 2708 2905 3402 3901 3811 3527 3937 4612 4512 4650 4641 4800 4817 4780 4434 4465 4306 4199 3853 3600 3156 2982 2921 2732 2742 3000 2982 3561 3060 3065 3040 3216 3146 3420 3295 2742 2443 2410 2353 2500
0 0 0 125 203 272 348 380 30 528 744 859 1680 2178 2390 2495 3220 3173 3046 2801 2543 2492 2435 2789 3156 3492 4020 4066 3739 3809 4381 4458 4699 4737 4721 4865 4906 4649 4544 4588 4553 4365 4001 3332 3376 3344 3029 2636 2788 3176 3439 3371 3348 3182 3340 3454 3268 3026 2909 2666 2403 2377 2385
0 60 72 210 269 302 381 197 157 582 807 903 1843 2260 2512 2653 3022 2704 3630 3301 2856 2667 2754 3313 3395 3836 4312 4344 4027 4180 4551 4631 4762 4577 4616 4787 4894 4662 4559 4562 4527 4515 4332 4058 3932 3834 3326 3170 3108 3025 3256 3557 3606 3388 3498 3616 3372 3223 2977 2695 2493 2356 2363
51 185 278 399 501 594 464 440 578 738 818 1300 1777 2208 2581 2780 3678 3304 3944 3947 3434 2921 3221 3767 3848 4235 4541 4303 4203 4440 4518 4708 4631 4791 4682 4735 4730 4782 4690 4668 4554 4740 4670 4533 4296 3918 3642 3491 3407 3176 3019 3178 3295 3197 3179 3538 4389 3317 3126 2949 2663 2476 2398
152 229 270 358 464 485 560 698 940 899 1108 1503 1914 2302 2754 3362 4401 4229 4719 4396 3876 3386 3876 4059 4088 4278 4543 4476 4329 4522 4558 4706 4737 4743 4637 4765 4752 4702 4782 4854 4676 4838 4930 4795 4547 4175 3880 3838 3571 3458 3153 2933 2991 2984 2974 3422 4664 3600 3039 2981 2850 2774 2668
151 216 241 317 444 622 849 1044 1252 1208 1327 1654 2135 2610 2939 3909 4483 4441 4908 4804 4211 3872 4596 4423 4511 4348 4673 4561 4444 4642 4727 4820 4608 4773 4631 4610 4671 4825 4860 4857 4651 4704 4998 4734 4441 4336 4103 4044 3702 3623 3284 3206 3096 3089 3243 3738 4093 4373 3280 3086 3026 3034 2980
145 226 315 372 483 768 937 1068 1316 1209 1376 1829 2226 2568 2811 3639 5051 5433 5337 4838 4376 4167 5115 4706 4764 4354 4650 4796 4590 4728 4793 4773 4451 4561 4576 4756 4576 4865 4883 4751 4586 4576 4759 4530 4225 4231 4131 4028 3672 3676 3473 3394 3341 3345 3582 3731 4055 4563 3783 3373 3262 3282 3323
182 345 450 640 908 943 1023 1233 1462 1219 1407 1851 2309 2612 2839 3504 5375 5909 5438 4885 4246 4431 5280 4867 4676 4509 4745 4787 4691 4632 4768 4664 4304 4260 4371 4633 4460 4387 3907 4337 4414 4292 4494 4245 4093 4036 3984 3990 3818 3858 3712 3670 3566 3570 3704 3807 3880 4085 4894 3726 3531 3504 3504
202 352 508 764 832 864 1082 1392 1347 1342 1757 2126 2486 2690 2902 3813 4728 5872 5169 4830 4315 4131 5348 4948 4440 4470 4641 4480 4187 4174 3989 4292 4182 4281 4328 4550 4263 3834 4918 4482 4398 4060 4008 3688 4164 3920 3878 3848 3882 3927 3971 4016 3835 3837 3936 3886 3806 4018 4355 4141 3876 3764 3745
221 367 521 686 789 906 1236 1402 1144 1350 1711 2060 2381 2566 3020 3430 3593 3665 3576 3792 4050 4292 5160 5206 4710 4530 4504 4268 4018 3938 3919 3833 4037 4004 3691 3729 3708 3464 3481 3504 3724 3719 4683 4006 3899 3856 3718 3722 4211 4166 3977 3935 4097 4815 4249 4456 4219 4237 3958 4510 4192 4048 3933
281 422 586 768 816 1086 1379 1291 1246 1479 1767 1950 2158 2350 2641 3008 3307 3520 3257 2997 2799 2616 2750 3696 4602 4512 4488 4221 4056 3576 3863 3971 4022 4073 4174 4082 3492 3430 3538 3539 3603 3549 3670 3625 3767 3779 3692 3579 3694 3730 3827 4474 5425 3752 3869 4296 4701 4459 4181 4402 4423 4387 4327
292 369 540 704 713 518 978 1191 1303 1587 1840 1939 1941 2109 2530 2632 2728 3065 3089 2836 2681 2281 1971 2528 3320 3346 4246 4125 4155 3450 3371 4131 4058 4105 4354 4424 3987 3383 3500 3552 3529 3462 3438 3599 3525 3576 3489 3434 3401 3488 3745 3808 5251 4173 3756 4082 4580 4605 4441 4399 4469 4423 4388

ECMWFFLT1_con_mucape_057.txt.gz
CAPE
1250 1160 1104 1205 1164 969 946 782 637 598 811 987 891 875 885 906 1159 1140 1024 874 868 920 879 1310 1298 775 505 498 637 385 328 551 389 308 408 278 210 1 110 104 494 370 1326 1537 1710 1810 1803 1492 1479 2022 2290 2359 2204 2872 3067 2846 3240 3211 2995 2809 2655 3149 3229
1136 1090 1094 1116 1186 1109 1034 976 803 646 608 957 1097 1064 964 989 980 1178 1185 1004 826 838 810 974 1371 975 546 448 554 546 354 360 483 398 195 271 476 79 56 104 122 526 814 1282 1240 1675 1633 1751 1470 1536 2250 2402 2235 2399 3128 2920 2892 2914 2868 3104 2598 2543 2778
1011 1162 1088 1126 1156 1126 1088 1011 929 836 766 788 1105 1138 1037 1029 1056 1156 1194 1152 955 823 788 668 1193 1136 719 432 458 543 417 278 308 297 113 143 238 361 136 185 53 300 545 1108 1250 1214 1604 1581 1704 1367 2024 2224 2166 2340 2790 3092 2912 2949 2840 2993 2871 2768 2743
988 999 1144 1100 1097 1154 1054 953 916 976 938 1070 1190 1194 1129 1077 1054 1030 1250 1205 1124 956 897 602 760 1045 840 491 402 454 439 274 174 171 89 34 68 198 458 428 231 268 543 802 1162 1133 1100 1475 1542 1728 2519 2139 2150 2253 2553 3007 3055 3012 3046 3164 2752 2938 2930
972 1052 1016 958 1031 1127 1101 1124 1098 1153 1214 1223 1376 1298 1186 1100 1056 1026 1166 1293 1315 1072 1090 773 615 814 843 606 414 404 407 292 131 50 42 1 18 2 311 728 576 515 548 708 1006 1255 917 1041 1301 1750 2010 2160 2100 2247 2449 2775 2960 3158 3100 3237 2912 2809 2995
942 915 870 1026 1228 1260 1354 1445 1389 1330 1337 1389 1440 1404 1222 1122 1062 1079 1236 1474 1411 1360 1280 1058 689 774 807 684 441 340 346 294 162 55 9 0 0 0 0 263 894 860 898 759 673 1152 1099 859 1142 1337 1866 2025 2065 2247 2384 2507 2832 3116 3138 3156 2934 2605 2820
772 796 1045 1293 1368 1493 1514 1560 1581 1501 1418 1370 1419 1457 1322 1178 1097 1133 1168 1542 1668 1522 1431 1286 855 795 868 788 505 309 272 284 215 98 7 0 0 0 0 0 211 932 986 1045 750 405 920 1172 996 1149 1570 1820 2005 2275 2441 2438 2474 3009 3069 3154 2965 2594 2594
778 972 1180 1329 1365 1470 1549 1560 1526 1556 1486 1372 1298 1383 1380 1216 1102 1060 1271 1494 1915 1837 1680 1524 1194 878 989 964 702 306 197 223 234 192 79 0 0 0 0 0 0 137 695 937 1014 661 330 524 1303 1224 1338 1640 1904 2044 2396 2481 2403 2567 3004 2992 2945 2763 2651
975 1147 1169 1116 1142 1168 1318 1508 1717 1640 1432 1331 1300 1359 1437 1324 1211 1128 1286 1594 1967 2120 2026 1834 1542 1175 1039 1111 924 561 224 164 205 214 172 54 0 0 0 0 0 25 306 468 798 917 650 328 950 1442 1333 1514 1715 1912 2066 2348 2427 2360 2517 2825 2832 2730 2706
1139 1135 1156 1002 930 1116 1178 1374 1688 1722 1591 1356 1199 1258 1411 1491 1418 1336 1309 1530 1925 2175 2239 2136 1929 1569 1262 1333 1179 836 461 276 179 193 205 141 47 23 15 0 0 44 226 413 514 904 966 633 552 1391 1519 1463 1571 1723 1825 2038 2219 2256 2166 2440 2624 2642 2620
1014 1078 1053 989 987 1164 1300 1462 1625 1578 1551 1609 1656 1700 1607 1537 1498 1397 1362 1458 1855 2209 2467 2512 2420 2153 1828 1668 1500 1153 760 562 344 201 209 197 94 70 95 83 61 116 257 519 620 790 1058 1059 767 1046 1721 1655 1637 1724 1727 1889 2042 2089 2079 2172 2454 2512 2535
564 869 975 994 992 1156 1457 1576 1613 1591 1683 1739 1708 1862 1870 1756 1586 1526 1540 1572 1650 2139 2568 2711 2695 2556 2301 2046 1734 1457 1105 929 726 420 241 236 199 131 150 228 305 332 439 642 839 878 1060 1199 1089 1023 1660 1874 1842 1925 1833 1837 1986 2052 2061 2089 2241 2408 2462
828 1053 1019 1021 1009 1159 1350 1401 1474 1519 1690 1710 1712 1889 1994 1892 1726 1559 1523 1544 1560 1780 2327 2656 2732 2739 2624 2437 2158 1888 1553 1226 1070 844 523 353 331 302 296 303 434 647 726 808 971 1045 1123 1276 1311 1262 1434 1864 1955 2041 2065 1889 1913 1957 1986 1987 2071 2231 2345
1010 1163 1079 1267 1685 1029 1121 1173 1194 1344 1549 1668 1611 1806 1978 1894 1816 1673 1569 1486 1517 1533 1839 2297 2615 2769 2696 2572 2428 2201 1831 1530 1348 1134 904 663 548 523 494 438 472 730 942 991 1020 1127 1163 1368 1451 1446 1492 1729 1917 2026 2154 2033 1898 1880 1828 1808 1816 1956 2178
808 1087 919 1455 1707 1988 2159 1016 1370 1587 1637 1566 1520 1696 1804 1814 1771 1683 1608 1595 1561 1525 1471 1979 2442 2757 2766 2693 2576 2384 2112 1745 1539 1379 1216 1004 800 780 753 636 560 773 1082 1148 1093 1187 1221 1389 1541 1560 1638 1760 1949 2032 2203 2162 1948 1808 1831 1742 1673 1681 1901
986 1105 1262 1442 1525 1628 1584 1590 2224 2110 1739 1669 1572 1559 1665 1689 1696 1670 1602 1612 1655 1681 1554 1844 2325 2682 2792 2832 2723 2563 2353 1984 1728 1644 1533 1308 1056 981 957 882 814 932 1241 1349 1242 1264 1330 1375 1591 1635 1709 1791 1958 2069 2202 2314 2090 1911 1884 1831 1786 1730 1805
736 686 638 831 1424 1638 1652 1701 1822 1841 2082 1994 2034 2165 1786 1508 1643 1660 1642 1673 1722 1732 1680 1798 2236 2515 2732 2858 2838 2771 2594 2308 1861 1742 1649 1600 1366 1176 1075 1075 1059 1117 1383 1573 1511 1443 1477 1432 1560 1675 1744 1808 1946 2050 2114 2305 2323 2053 1828 1924 1930 1920 1930
676 733 707 815 1274 1508 1616 1577 1642 1726 1788 1966 1910 1934 1831 1992 2274 1770 1745 1745 1724 1683 1748 1849 2004 2427 2740 2794 2902 2887 2756 2528 2099 1814 1725 1717 1658 1433 1280 1240 1236 1264 1445 1676 1706 1631 1645 1550 1476 1688 1776 1830 1950 2096 2136 2193 2325 2327 2032 1815 1973 2020 2094
631 662 749 768 833 1268 1505 1643 1628 1682 1787 1744 1658 1626 1682 1722 2009 1952 1856 1778 1766 1848 1858 1678 1728 2490 2857 2901 3004 2898 2792 2616 2303 2008 1884 1859 1826 1658 1451 1355 1361 1366 1437 1691 1821 1769 1746 1737 1543 1613 1803 1847 1898 2110 2250 2264 2291 2437 2375 2064 1933 2059 2065
704 596 608 585 677 913 1150 955 1691 1772 1753 1832 1821 1657 1728 1689 1765 1954 1939 1976 1990 1970 1841 1677 1376 1911 2088 3034 3052 2979 2841 2635 2395 2156 2082 1999 1953 1810 1596 1433 1422 1438 1444 1601 1867 1882 1822 1816 1705 1603 1804 1904 1914 2016 2295 2442 2420 2451 2502 2444 2203 2135 2148
670 565 548 528 445 337 351 416 428 921 1354 1823 1943 1865 1709 1784 1588 1708 2013 1831 1872 1902 1885 1854 1944 2025 2280 2858 2963 2924 2831 2653 2428 2188 2215 2118 2064 1938 1728 1523 1449 1483 1504 1536 1785 1919 1875 1830 1814 1703 1775 2003 2031 2035 2269 2551 2658 2625 2544 2517 2468 2300 2282
301 481 478 429 399 298 326 349 348 0 458 1160 1538 1792 1799 1785 1865 1702 1692 1599 1768 1666 1589 1575 1810 1938 2189 2711 2878 2851 2752 2619 2483 2267 2292 2197 2134 2073 1885 1630 1492 1515 1581 1563 1653 1886 1885 1840 1833 1791 1729 1902 2166 2160 2220 2490 2753 2778 2726 2649 2613 2561 2435
200 271 280 306 301 272 253 271 323 336 390 449 839 1091 1333 1467 1471 1880 2136 1837 1228 1306 1451 1446 1680 1784 1928 2424 2797 2802 2692 2607 2473 2335 2327 2244 2174 2157 2079 1851 1606 1548 1643 1660 1596 1778 1887 1873 1848 1840 1786 1733 2019 2313 2294 2376 2634 2798 2794 2723 2673 2659 2630
109 197 204 184 179 43 165 159 123 34 13 48 332 570 1160 1339 1323 1476 1662 2010 1857 1089 1250 1338 1529 1700 1856 2458 2790 2725 2762 2684 2533 2365 2411 2307 2208 2192 2192 2055 1799 1638 1740 1753 1658 1669 1867 1894 1834 1806 1789 1737 1694 1981 2360 2362 2373 2556 2689 2658 2563 2499 2493
32 125 185 181 123 81 0 0 0 0 0 0 0 0 121 904 1255 1354 1556 1612 1952 2101 1206 1375 1557 1453 1963 2554 2763 2855 2879 2771 2609 2422 2492 2424 2300 2238 2263 2200 2027 1794 1795 1831 1736 1632 1743 2000 1926 1839 1819 1782 1737 1674 1751 2096 2297 2325 2462 2558 2534 2460 2364
0 54 112 184 104 0 0 0 0 0 0 0 0 0 0 325 850 1237 1377 1590 1840 1929 2178 1322 1613 1894 2078 2558 2746 2868 2952 2875 2754 2626 2586 2545 2449 2360 2336 2350 2246 2014 1884 1878 1814 1685 1588 1874 1999 1979 1945 1955 1959 1894 1747 1645 2039 2104 2222 2324 2418 2410 2317
0 0 0 94 102 0 0 0 0 0 0 0 0 0 0 0 131 799 1332 1637 1774 1908 2088 2233 1549 1668 1918 2786 2819 2897 3078 3016 2907 2780 2715 2691 2657 2531 2494 2476 2438 2259 2057 1970 1885 1740 1607 1643 1962 2074 2107 2151 2175 2145 2076 1900 1894 1981 2003 1999 2048 2124 2175
0 0 0 0 0 0 0 0 0 0 0 0 0 0 0 0 0 662 1408 1658 1842 2019 2130 2279 2196 1440 1579 2849 2920 2951 3194 3197 3098 2946 2860 2896 2890 2789 2671 2631 2591 2474 2276 2114 1969 1843 1745 1758 1983 2184 2310 2384 2411 2362 2336 2262 2088 2075 2193 2140 2091 2020 2023
0 0 0 0 0 0 0 0 0 0 0 0 0 0 0 0 0 236 1444 1807 1966 2125 2345 2586 2769 2092 1353 2314 2948 3015 3266 3338 3256 3138 3160 3177 3151 3024 2878 2837 2793 2668 2497 2302 2098 1937 1871 1946 2218 2352 2483 2585 2580 2539 2501 2483 2433 2244 2246 2305 2217 2161 2122
0 0 0 0 0 0 0 0 0 0 0 0 0 0 79 481 0 393 1226 1856 2069 2291 2554 3112 3625 2836 1769 2088 2725 2904 3203 3394 3374 3308 3342 3395 3381 3257 3092 3093 3044 2904 2719 2494 2256 2070 1955 1958 2212 2457 2558 2691 2728 2692 2582 2525 2591 2503 2375 2354 2337 2199 2170
0 0 0 0 0 0 0 0 0 0 0 0 0 0 248 594 608 737 1276 1959 2174 2370 2536 3481 4004 3260 2130 1772 2747 2910 3102 3414 3476 3459 3469 3573 3606 3490 3334 3337 3342 3235 3025 2716 2441 2243 2148 2059 2035 2287 2477 2591 2740 2797 2762 2687 2638 2701 2645 2558 2414 2336 2228
0 0 0 0 0 0 0 0 2 9 2 107 179 340 482 626 822 892 1288 2000 2194 2582 3128 3906 4517 3601 2246 2157 2418 2819 3134 3500 3622 3651 3648 3724 3765 3706 3563 3518 3560 3494 3386 3109 2778 2553 2419 2310 2122 2072 2221 2448 2611 2740 2816 2811 2758 2784 2775 2776 2709 2550 2385
0 0 0 0 0 0 0 0 0 0 0 0 158 260 393 746 879 1050 1499 2044 2560 2905 3131 3626 4316 3890 2618 2762 2891 2900 3174 3582 3728 3809 3824 3886 3917 3882 3779 3686 3714 3638 3598 3511 3230 2901 2716 2542 2355 2115 1996 2136 2448 2654 2772 2821 2786 2875 2783 2802 2837 2790 2727
0 0 0 0 0 0 0 24 97 8 36 0 0 0 178 626 856 1346 1911 2323 2555 2987 3332 3724 4231 3726 2900 3036 3131 3117 3333 3641 3767 3908 3935 3954 4028 4066 4006 3837 3768 3717 3679 3706 3554 3264 2994 2818 2577 2339 2104 1961 2077 2361 2634 2745 2754 2864 2822 2798 2812 2871 2880
0 0 0 0 0 0 0 0 169 180 7 6 63 179 392 622 894 1454 2031 2263 2593 3319 3361 3555 3919 3529 3006 3218 3244 3223 3419 3714 3823 3996 4048 4019 4006 4072 4097 4026 3848 3767 3767 3805 3801 3562 3303 3055 2834 2599 2312 2066 2011 2059 2260 2538 2621 2836 2822 2711 2659 2667 2736
0 0 0 0 0 0 0 114 180 223 191 177 207 365 597 792 1054 1362 1897 2214 2694 3346 3372 3326 3720 3354 3246 3464 3376 3391 3475 3795 3957 4045 4088 4062 4028 4059 4158 4149 4091 4014 3883 3852 3888 3866 3605 3278 3038 2828 2566 2293 2080 1981 2001 2173 2383 2628 3041 2690 2472 2452 2494
0 0 0 0 0 0 0 119 236 305 324 302 353 558 773 985 1189 1376 1666 2081 2572 3249 3375 3172 3727 3528 3667 3650 3573 3534 3553 3776 3970 4010 4066 4065 4040 4050 4131 4196 4177 4130 4084 4007 3964 4007 3907 3595 3261 2994 2754 2522 2405 2251 2090 2080 2334 2668 3198 3210 2800 2530 2480
0 0 0 0 0 0 0 143 303 415 439 459 496 759 923 1043 1190 1334 1528 1890 2258 3019 3228 3091 3415 3697 3589 3810 3732 3548 3553 3668 3855 4016 4004 3854 3999 4040 4022 4139 4212 4152 4191 4123 4071 4019 3992 3786 3473 3197 2963 2767 2710 2738 2555 2486 2674 2896 3148 3322 3274 3077 2852

ECMWFFLT1_con_mucape_060.txt.gz
CAPE
1282 1180 1050 925 828 752 686 586 578 565 546 513 552 559 533 496 493 58 298 475 527 612 583 831 880 552 413 392 298 14 6 2 217 5 0 0 0 8 0 12 577 1020 1186 1343 1479 1443 1436 1776 1766 1930 2137 2199 2302 2422 2407 2388 2415 2332 1954 2432 2039 2105 2144
1267 1197 1098 965 893 816 727 631 602 568 535 538 513 610 540 522 512 422 218 442 468 570 666 704 863 536 356 369 235 10 0 4 211 245 1 0 0 0 1 0 80 638 1071 1169 1276 1284 1228 1508 1766 1709 1953 2148 2160 2297 2400 2364 2383 2331 1962 2275 2256 2261 2138
1270 1171 1093 1005 909 816 710 643 622 581 560 557 552 591 640 577 551 557 440 431 475 480 716 733 829 707 349 322 272 43 0 13 77 281 30 0 0 0 0 0 1 133 755 990 1099 1227 1276 1250 1532 1706 1712 1896 2058 2092 2470 2388 2335 2376 2126 2239 2098 2184 2323
1237 1159 1081 1006 936 842 777 693 650 604 594 616 583 666 743 801 690 603 607 611 611 496 615 789 832 717 477 284 284 127 0 2 30 201 123 0 0 0 0 0 0 25 310 870 946 1114 1314 1343 1276 1377 2030 1776 1874 1891 2083 2487 2358 2423 2322 2349 2284 2114 2048
1162 1124 1067 1045 997 892 728 641 599 570 609 650 622 721 794 860 863 736 670 676 666 600 522 759 888 785 574 283 283 240 42 0 23 59 159 45 0 0 0 0 0 0 125 886 974 1042 1246 1391 1402 1295 1315 1661 1825 1857 1836 2280 2430 2371 2351 2310 2330 2320 2217
1039 1059 1051 1089 1088 1036 899 720 606 576 618 687 736 756 821 870 942 924 824 771 772 753 734 640 854 930 682 401 259 281 158 4 17 58 69 86 42 0 0 0 0 0 9 174 881 1056 1168 1335 1395 1393 1318 1422 1648 1759 1781 1942 2349 2423 2342 2387 2321 2316 2343
938 963 1013 1050 1098 1121 1032 873 709 612 615 646 787 830 902 905 983 1030 993 898 861 877 842 779 704 896 816 570 350 266 231 104 11 45 38 28 17 30 3 0 0 0 0 54 256 633 806 890 999 1079 1220 1324 1513 1602 1677 1777 2112 2438 2449 2442 2482 2433 2435
933 932 976 1021 1060 1076 1111 1028 890 732 641 623 802 871 905 943 984 1051 1090 1064 1002 951 922 892 823 702 871 702 482 216 227 203 65 33 40 12 0 4 8 5 0 0 0 0 43 280 623 413 380 726 969 1239 1442 1546 1612 1701 1875 2280 2494 2487 2495 2531 2534
908 937 945 998 1020 1028 1096 1122 1053 934 809 736 703 958 1010 1004 1007 1050 1114 1130 1104 1039 1019 996 966 867 722 798 626 268 192 197 170 65 32 23 0 0 0 0 18 62 29 4 5 87 268 424 380 346 525 915 1286 1500 1584 1687 1785 2063 2422 2500 2500 2516 2534
844 909 957 975 978 986 1040 1105 1096 1058 962 797 679 919 1083 1086 1071 1072 1096 1142 1171 1125 1074 1063 1033 969 872 746 626 496 231 194 189 141 57 14 2 0 0 0 0 67 168 132 100 96 133 184 373 445 429 610 944 1316 1542 1692 1777 1857 2232 2429 2483 2508 2504
825 851 868 923 980 1009 1054 1121 1137 1144 1107 1021 906 995 1053 1104 1118 1104 1105 1123 1185 1212 1166 1121 1093 1053 1002 910 802 681 471 222 198 192 126 37 0 0 0 0 0 0 41 226 279 276 227 188 131 421 708 692 745 985 1278 1560 1776 1822 1940 2227 2410 2467 2474
758 789 904 823 858 941 1078 1173 1233 1184 1119 1092 1080 1105 1188 1123 1092 1094 1102 1120 1151 1292 1258 1213 1154 1125 1069 1015 916 867 793 626 201 190 166 92 16 0 0 0 0 0 0 0 132 282 385 352 204 130 402 792 828 865 1046 1264 1581 1808 1842 1940 2188 2357 2419
840 842 718 754 842 1036 1119 1266 1340 1372 1297 1173 1179 1211 1279 1290 1186 1128 1119 1133 1172 1353 1312 1270 1203 1145 1089 1036 986 944 909 829 706 456 131 121 64 4 0 0 0 0 0 0 0 9 146 386 441 323 168 432 788 902 988 1126 1318 1601 1794 1846 1910 2115 2297
910 958 998 1027 1030 1109 1182 1343 1347 1411 1418 1363 1288 1220 1270 1341 1316 1252 1185 1187 1175 1335 1514 1406 1323 1226 1117 1052 1027 998 972 913 877 810 631 71 63 33 1 0 0 0 0 0 0 0 0 63 321 447 382 318 591 849 971 1083 1198 1377 1599 1740 1794 1865 2039
891 960 992 984 970 1014 1052 1238 1324 1379 1478 1574 1511 1342 1272 1288 1345 1321 1262 1223 1201 1336 1594 1706 1582 1496 1342 1186 1118 1080 1046 1016 995 961 908 824 608 45 26 2 0 0 0 0 0 0 0 0 101 328 494 475 540 816 1031 1119 1180 1277 1439 1585 1685 1732 1815
868 955 1031 1036 1000 983 1074 1153 1170 1317 1374 1562 1542 1555 1500 1383 1326 1377 1361 1290 1225 1222 1659 1828 1836 1774 1686 1552 1345 1242 1189 1161 1132 1130 1101 1094 1011 833 411 6 0 0 0 0 0 0 0 8 98 272 450 557 645 798 1065 1250 1316 1404 1381 1498 1590 1652 1705
894 1002 1052 1074 1034 1055 1126 1209 1259 1348 1426 1480 1524 1531 1471 1644 1687 1710 1372 1318 1278 1207 1770 2060 2132 2108 2090 2033 1932 1799 1476 1414 1376 1340 1343 1375 1357 1239 988 651 7 0 0 0 0 0 12 84 153 326 495 620 707 813 1032 1299 1463 1500 1454 1496 1568 1592 1640
461 916 1041 1099 1110 1102 1154 1231 1318 1374 1410 1437 1520 1529 1571 1546 1623 1791 1672 1507 1375 1336 1516 2100 2353 2430 2448 2448 2431 2344 2205 1960 1778 1721 1714 1736 1727 1591 1323 1049 726 40 22 18 54 150 160 203 278 396 572 729 807 866 1009 1211 1436 1612 1626 1590 1580 1579 1558
266 146 832 981 1107 1216 1211 1269 1316 1350 1375 1432 1480 1534 1553 1501 1568 1661 1788 1742 1475 1451 1471 1525 1982 2332 2507 2588 2576 2560 2491 2403 2306 2268 2211 2160 2120 2040 1731 1381 1056 737 296 108 134 227 373 406 430 501 658 842 971 1012 1084 1223 1346 1586 1716 1711 1677 1650 1592
217 206 292 672 692 755 1289 1263 1276 1310 1335 1387 1437 1475 1468 1466 1449 1477 1522 1577 1711 1620 1569 1480 1467 1673 2040 2338 2560 2654 2631 2572 2542 2514 2487 2458 2444 2403 2240 1848 1382 1046 714 249 244 350 496 557 585 629 736 890 1039 1142 1192 1294 1398 1556 1718 1761 1748 1718 1697
49 204 280 376 596 531 545 987 1188 1306 1418 1475 1427 1419 1430 1447 1425 1542 1552 1576 1636 1712 1700 1708 1552 1511 1696 1901 2185 2461 2673 2731 2716 2668 2636 2604 2619 2571 2529 2363 1925 1429 1073 723 425 468 631 748 787 814 870 968 1119 1220 1296 1368 1495 1602 1726 1829 1834 1787 1756
80 126 211 345 489 474 341 102 0 643 962 953 1182 1574 1530 1537 1479 1471 1748 1721 1711 1830 1777 1664 1642 1648 1662 1648 1886 2156 2411 2677 2818 2838 2813 2766 2721 2697 2658 2572 2443 2020 1465 1068 721 690 790 926 957 982 1010 1041 1168 1291 1375 1459 1556 1646 1737 1864 1939 1939 1907
0 111 190 252 293 208 340 51 0 0 38 74 672 1060 1497 1519 1636 1641 1714 1815 1806 1767 1816 1776 1720 1725 1726 1751 1791 1833 2064 2338 2681 2796 2830 2821 2793 2759 2715 2658 2617 2415 1961 1430 1073 828 991 1128 1197 1224 1199 1182 1235 1357 1433 1505 1593 1709 1776 1826 1918 1968 1982
0 0 9 0 4 41 58 0 5 0 123 143 157 899 1340 1025 1296 1623 1573 1652 1804 1784 1810 1811 1838 1830 1806 1797 1789 1797 1782 2046 2538 2699 2768 2796 2769 2718 2714 2690 2702 2593 2288 1798 1373 1099 1082 1260 1375 1405 1417 1388 1351 1421 1513 1554 1618 1742 1852 1868 1886 1903 1916
0 0 0 0 0 0 0 0 0 0 0 0 193 108 431 1014 1064 1046 1580 1656 1589 1686 1753 1822 1861 1864 1885 1897 1910 1911 1858 1690 2332 2662 2759 2780 2782 2765 2765 2746 2740 2632 2450 2130 1652 1329 1117 1324 1472 1523 1537 1540 1515 1470 1580 1629 1668 1750 1881 1965 1963 1959 1948
0 0 0 0 0 0 0 0 0 0 0 0 74 178 0 370 632 594 737 1214 1555 1680 1764 1849 1908 1882 1877 1851 1884 1861 1747 1532 2248 2558 2686 2790 2845 2869 2860 2821 2733 2683 2551 2311 1958 1546 1332 1288 1481 1593 1625 1635 1646 1608 1573 1692 1747 1795 1897 2026 2068 2055 2015
0 0 0 0 0 0 0 0 0 0 0 0 0 0 149 0 0 247 537 720 1072 1542 1699 1745 1762 1804 1742 1802 1800 1641 1412 1636 2102 2514 2644 2711 2785 2833 2870 2845 2797 2770 2602 2416 2216 1796 1516 1356 1416 1573 1643 1675 1698 1694 1683 1706 1830 1884 1948 2071 2172 2181 2147
0 0 0 0 0 0 0 0 0 0 0 0 0 0 0 0 0 2 580 901 1123 1268 1431 1503 1487 1521 1705 1847 1880 2142 2083 1716 2020 2436 2627 2701 2781 2848 2871 2878 2855 2826 2691 2451 2291 2072 1696 1492 1429 1522 1640 1679 1700 1707 1722 1701 1718 1891 2002 2081 2202 2304 2322
0 0 0 0 0 0 0 0 0 0 0 0 0 0 0 0 0 0 29 624 964 1144 1341 1455 1402 1411 1560 1702 1928 2325 2682 2330 1916 2307 2580 2641 2706 2779 2840 2843 2828 2797 2735 2501 2277 2155 1966 1587 1485 1476 1604 1689 1698 1703 1720 1711 1712 1695 1860 2051 2183 2287 2376
0 0 0 0 0 0 0 0 0 0 0 0 0 0 0 0 0 0 0 0 343 860 1217 1324 1290 1301 1715 2208 2450 2692 2936 3079 2454 2335 2530 2619 2631 2659 2725 2765 2747 2756 2722 2560 2329 2194 2070 1829 1589 1498 1562 1681 1738 1740 1734 1731 1735 1701 1684 1710 2030 2239 2324
0 0 0 0 0 0 0 0 0 0 0 0 0 0 0 0 0 0 0 0 0 402 842 1260 1507 1881 2139 2394 2543 2730 3110 3295 2916 2444 2582 2638 2636 2634 2652 2692 2710 2703 2657 2573 2426 2246 2170 2006 1727 1587 1550 1613 1726 1797 1826 1826 1800 1779 1768 1701 1636 1804 2075
0 0 0 0 0 0 0 0 0 0 0 0 0 0 0 0 0 0 0 0 296 586 1033 1413 1648 1796 1945 2122 2310 2508 2763 2977 3233 2802 2755 2743 2726 2718 2701 2706 2680 2670 2646 2589 2502 2326 2214 2114 1925 1702 1619 1620 1708 1810 1907 1984 2016 2021 1999 1984 1891 1759 1655
0 0 0 0 0 0 0 0 0 0 0 0 0 0 0 0 0 0 0 0 357 631 934 1217 1386 1528 1716 2012 2352 2542 2636 2878 3307 3024 2917 2905 2833 2800 2797 2764 2707 2668 2648 2624 2530 2365 2260 2188 2061 1862 1686 1688 1778 1848 1977 2116 2154 2184 2204 2216 2211 2163 2081
0 0 0 0 0 0 0 0 0 0 0 0 0 0 0 0 0 0 0 64 337 563 793 1045 1259 1437 1722 2178 2555 2679 2733 2979 3416 3105 2932 3031 3000 2941 2892 2864 2828 2766 2736 2657 2539 2420 2296 2201 2180 2056 1854 1730 1777 1933 2060 2181 2264 2303 2337 2366 2382 2402 2393
0 0 0 0 0 0 0 0 0 0 0 0 0 0 0 0 0 0 0 148 329 456 690 938 1137 1397 1794 2321 2703 2802 2903 3140 3329 3171 2842 3089 3130 3096 3027 2984 2900 2870 2805 2696 2597 2471 2392 2310 2279 2215 2075 1894 1804 1912 2063 2163 2293 2371 2430 2471 2464 2464 2480
0 0 0 0 0 0 0 1 0 0 0 0 0 0 0 0 0 0 0 218 364 466 512 728 982 1283 1812 2450 2806 2897 3109 3246 3406 3222 2871 3128 3251 3263 3218 3176 3102 3055 2989 2935 2745 2649 2578 2501 2445 2398 2317 2153 2048 1926 1952 2087 2220 2323 2445 2564 2615 2609 2567
1 0 0 0 0 0 0 0 0 0 0 0 0 0 0 0 0 0 34 246 313 396 499 709 926 1248 1789 2524 2900 3022 3231 3370 3409 3294 2853 3164 3320 3358 3440 3467 3360 3292 3237 3231 3216 3168 2982 2726 2654 2582 2527 2445 2365 2188 2016 1930 2044 2147 2314 2489 2640 2707 2718
0 0 0 0 0 0 0 0 0 0 0 0 0 0 0 0 0 0 0 201 382 451 556 692 898 1179 1660 2383 2903 3107 3299 3257 3273 3270 2987 3320 3417 3494 3562 3546 3546 3518 3469 3407 3414 3439 3402 3353 3184 3022 2868 2811 2729 2597 2386 2151 1973 1944 2064 2252 2466 2680 2782

ECMWFFLT1_con_mucape_063.txt.gz
CAPE
942 925 879 849 777 715 788 770 752 749 720 688 670 650 629 618 618 580 572 549 542 495 439 453 494 434 367 344 221 141 49 7 0 0 0 0 0 198 854 987 1075 1148 1327 1488 1587 1629 1667 1721 1812 1900 1965 2122 2254 2320 2344 2404 2432 2382 2313 2314 2290 2204 2098
952 917 914 879 823 766 710 789 774 739 727 718 704 681 654 642 615 585 566 574 590 572 466 492 594 489 414 372 284 150 61 17 20 52 0 0 0 0 0 786 978 1079 1181 1266 1386 1526 1578 1561 1650 1831 1916 2006 2144 2234 2304 2360 2422 2414 2333 2260 2207 2167 2058
971 1006 967 943 896 831 775 694 768 759 732 730 726 697 686 654 623 596 584 594 619 602 510 532 625 549 464 395 336 204 72 20 14 23 0 0 0 0 0 0 437 925 1012 1094 1140 1273 1374 1396 1504 1716 1862 1917 2027 2123 2226 2307 2370 2402 2335 2247 2190 2179 2078
1043 1075 1089 1042 989 928 860 775 694 740 736 750 723 714 699 680 633 610 604 617 626 608 552 537 644 627 498 420 366 270 98 12 2 11 15 0 0 0 0 0 0 68 472 914 1036 1124 1258 1321 1364 1582 1941 1809 1939 2014 2091 2209 2267 2304 2323 2274 2223 2127 2089
1042 1140 1165 1161 1128 1072 1000 901 804 730 723 740 739 717 699 677 652 622 614 622 624 597 499 490 646 660 536 423 396 332 167 17 0 0 16 3 0 0 0 0 0 0 104 376 846 997 1118 1217 1253 1322 1568 1696 1788 1921 1985 2094 2221 2268 2312 2318 2267 2153 2100
932 1158 1219 1224 1210 1166 1104 996 880 795 767 749 712 728 708 676 644 628 618 622 618 574 405 432 608 721 580 413 383 348 222 30 0 0 6 9 0 0 0 0 0 0 0 96 470 840 971 1096 1139 1140 1295 1580 1679 1754 1875 1976 2122 2247 2279 2297 2281 2222 2164
463 1072 1214 1247 1240 1218 1176 1079 943 852 796 756 716 704 716 700 675 647 634 622 595 569 530 505 500 632 618 434 336 342 244 87 0 0 0 16 0 0 0 0 0 0 0 11 219 440 785 942 1074 1096 1112 1286 1555 1657 1707 1759 1853 2056 2204 2240 2246 2249 2216
365 830 1119 1214 1247 1224 1202 1124 1008 886 804 757 725 680 646 678 666 664 631 608 574 551 526 541 530 510 584 493 346 276 238 155 2 0 0 4 1 0 0 0 0 0 0 0 68 321 460 742 915 1044 1093 1090 1186 1431 1570 1629 1674 1796 2084 2178 2198 2243 2246
524 658 936 1106 1164 1186 1132 1128 1024 911 820 776 738 692 650 624 621 628 620 596 572 556 552 551 551 541 552 566 407 290 237 161 54 0 0 0 4 4 0 0 0 0 0 0 0 161 393 436 737 926 1071 1123 1139 1201 1350 1475 1569 1664 1880 2076 2143 2180 2226
583 688 824 967 1012 1070 1098 1068 1043 918 837 801 754 736 703 668 625 615 601 592 586 582 586 576 577 589 608 625 611 342 250 196 114 6 0 0 0 3 4 0 0 0 0 0 0 0 183 305 322 774 954 1087 1162 1209 1236 1317 1418 1511 1662 1892 2027 2077 2117
616 678 788 864 933 998 1002 960 928 910 850 782 744 724 688 666 666 647 696 623 614 622 619 616 602 624 644 672 699 676 632 238 174 92 3 0 0 0 0 1 0 0 0 0 0 0 0 116 174 158 360 738 908 916 965 1129 1270 1394 1504 1699 1894 1989 2037
658 709 774 840 914 927 963 996 960 899 815 702 670 638 611 663 671 698 789 796 736 696 664 657 650 666 682 703 761 801 768 698 427 164 80 2 0 0 0 0 0 0 0 0 0 0 0 0 9 142 114 123 148 204 418 831 1095 1276 1395 1516 1728 1933 2035
697 752 767 802 883 906 968 1020 1034 1059 946 770 616 458 539 648 708 741 784 848 875 838 773 738 714 722 744 773 830 875 873 848 789 640 128 66 3 0 0 0 0 0 0 1 0 0 0 0 0 8 41 102 139 150 186 360 748 1101 1304 1414 1540 1774 1964
531 699 768 772 825 895 962 1000 1039 1096 1114 1007 877 667 499 570 742 772 753 822 891 940 917 877 838 812 822 840 901 937 922 924 901 814 666 71 19 0 0 0 0 0 0 0 0 5 6 2 0 0 1 6 88 180 237 260 429 824 1139 1348 1464 1574 1777
570 706 748 791 785 831 935 1008 1045 1066 1110 1119 1081 991 852 836 866 839 861 851 863 958 1026 1004 962 939 922 942 980 975 984 972 988 950 886 789 687 10 0 0 0 0 0 0 0 0 0 12 30 42 45 32 13 69 258 365 420 574 854 1141 1374 1489 1586
538 633 723 799 850 836 894 973 1055 1140 1164 1173 1152 1109 1068 1012 941 984 908 978 842 946 1004 1094 1114 1082 1061 1068 1040 1062 1045 1060 1037 1024 989 931 867 825 756 443 0 0 0 0 0 0 0 0 0 15 72 115 103 58 86 237 438 690 754 917 1154 1343 1464
426 531 636 719 824 856 864 954 1014 1131 1226 1293 1290 1223 1175 1124 1097 1198 1210 1187 1071 1080 1072 1091 1212 1204 1185 1148 1158 1142 1132 1105 1090 1071 1047 994 950 911 886 846 755 552 0 0 0 0 0 0 0 0 0 7 86 151 153 180 254 305 39 814 978 1142 1313
320 424 507 634 734 848 883 926 1010 1112 1213 1274 1350 1387 1365 1299 1221 1168 1372 1369 1282 1139 1081 1042 1163 1292 1263 1254 1226 1208 1183 1144 1130 1111 1086 1051 1008 975 969 941 901 861 810 728 550 0 0 0 0 0 0 0 0 20 98 177 222 17 0 547 826 992 1169
245 236 371 526 634 750 827 895 959 1036 1119 1210 1278 1387 1460 1467 1445 1386 1400 1516 1392 1402 1345 1264 1212 1377 1341 1295 1284 1233 1200 1168 1148 1146 1115 1084 1049 1031 1022 1017 1006 1007 1034 1029 988 862 720 42 33 0 0 0 0 0 9 68 78 0 0 457 773 878 1018
196 212 264 396 495 622 718 795 854 946 1022 1080 1153 1230 1373 1470 1553 1560 1506 1401 1575 1376 1464 1421 1378 1307 1306 1442 1283 1296 1306 1233 1212 1201 1171 1138 1108 1099 1096 1098 1126 1163 1207 1333 1412 1328 1184 1017 793 406 0 0 0 0 2 34 70 0 0 360 777 884 955
130 202 210 284 389 439 506 544 670 720 902 949 996 1052 1163 1341 1445 1555 1632 1658 1621 1569 1580 1448 1428 1763 1763 1704 1623 1518 1470 1410 1370 1338 1304 1264 1240 1229 1214 1248 1288 1348 1413 1482 1649 1778 1727 1450 1152 932 680 92 0 0 8 74 76 0 0 0 731 895 993
105 104 113 234 250 312 341 383 558 664 747 751 733 909 1078 1212 1336 1426 1536 1610 1648 1642 1563 1540 1456 1657 1878 2024 1981 1940 1894 1758 1579 1531 1479 1458 1433 1422 1450 1504 1561 1632 1684 1715 1796 1970 2100 2068 1743 1246 968 676 18 34 80 142 22 0 0 26 720 865 978
0 10 97 169 60 146 134 260 356 315 366 450 328 493 818 978 1164 1360 1496 1542 1658 1748 1794 1708 1543 1559 1568 1779 2013 2165 2190 2150 2074 1953 1740 1707 1688 1686 1722 1771 1833 1900 1948 1974 2020 2115 2235 2298 2224 1886 1376 935 620 238 189 230 110 0 0 725 822 893 974
0 0 0 1 2 0 0 0 61 69 158 265 276 262 477 824 1012 1230 1318 1534 1661 1728 1816 1886 1830 1756 1660 1616 1597 1698 2008 2328 2372 2327 2247 2101 2048 2045 2065 2081 2118 2164 2184 2203 2200 2251 2326 2357 2352 2324 2118 1534 1035 663 358 350 293 0 676 809 928 984 1035
0 0 0 0 2 0 0 0 0 0 0 0 83 25 0 217 766 944 1250 1402 1595 1711 1730 1737 1758 1744 1748 1710 1698 1680 1695 1656 1962 2461 2590 2582 2502 2454 2445 2431 2396 2398 2383 2375 2358 2382 2415 2404 2366 2422 2436 2147 1536 1056 710 531 487 204 774 878 986 1054 1120
0 0 0 0 0 0 1 0 0 0 0 0 0 0 0 0 183 539 1015 1468 1605 1720 1632 1642 1615 1610 1641 1667 1716 1744 1730 1720 1715 1692 1848 2407 2619 2636 2610 2580 2545 2522 2494 2480 2478 2493 2485 2481 2450 2508 2606 2516 2122 1541 1026 713 753 801 868 961 1043 1114 1183
0 0 0 0 0 0 1 0 0 0 0 0 0 0 0 0 63 424 598 1022 1358 1550 1620 1647 1576 1620 1630 1671 1698 1705 1736 1762 1747 1738 1726 1704 2186 2483 2560 2579 2583 2578 2555 2557 2530 2518 2516 2517 2499 2546 2623 2629 2454 2077 1538 1042 903 932 978 1036 1100 1160 1232
0 0 0 0 0 0 0 0 0 0 0 0 0 0 0 0 0 1 492 607 990 1341 1461 1585 1622 1610 1627 1650 1679 1736 1760 1736 1708 1717 1703 1712 1696 2146 2434 2509 2530 2546 2548 2514 2492 2486 2503 2512 2536 2575 2664 2724 2639 2364 2060 1554 1089 1136 1153 1173 1198 1244 1296
0 0 0 0 0 0 0 0 0 0 0 0 0 0 0 0 0 0 88 369 570 818 910 1061 1253 1555 1664 1715 1735 1737 1717 1744 1745 1803 2033 1960 1716 1759 2120 2345 2428 2460 2472 2477 2469 2475 2500 2537 2564 2634 2701 2734 2722 2592 2332 2062 1604 1350 1328 1340 1350 1370 1393
0 0 0 0 0 0 0 0 0 0 0 0 0 0 0 0 0 0 0 222 308 351 597 767 700 648 850 1467 1703 1689 1709 1735 2010 2226 2562 2676 2346 1910 2016 2192 2298 2345 2381 2423 2469 2505 2560 2572 2618 2679 2692 2704 2736 2696 2511 2266 2050 1661 1482 1494 1496 1483 1487
0 0 0 0 0 0 0 0 0 0 0 0 0 0 0 0 0 0 0 72 34 179 248 310 493 557 462 588 890 1446 1679 1671 1872 2287 2593 2858 2960 2642 2104 2219 2285 2327 2381 2440 2508 2539 2570 2632 2678 2698 2652 2612 2651 2671 2607 2426 2223 2024 1682 1590 1612 1607 1606
0 0 0 0 0 0 0 0 0 0 0 0 0 0 0 0 0 0 0 0 0 0 0 0 194 242 268 378 612 848 1216 1545 1619 1732 2068 2318 2595 2894 2697 2271 2323 2342 2382 2442 2522 2584 2622 2676 2686 2645 2561 2538 2559 2612 2610 2525 2286 2176 2010 1721 1635 1642 1651
0 0 0 0 0 0 0 0 0 0 0 0 0 0 0 0 0 0 0 0 0 0 0 3 2 104 130 300 545 911 1327 1322 1425 1793 2150 2400 2512 2746 2856 2701 2370 2396 2432 2478 2520 2571 2620 2639 2640 2583 2500 2464 2505 2545 2573 2540 2405 2214 2097 1961 1702 1661 1670
0 0 0 0 0 0 0 0 0 0 0 0 0 0 0 0 0 0 0 0 0 0 86 4 3 1 5 124 351 593 1026 1263 1506 1984 2276 2476 2570 2698 2812 2793 2615 2395 2454 2496 2522 2516 2522 2514 2512 2475 2432 2432 2470 2508 2523 2511 2414 2262 2145 2057 1892 1708 1680
0 0 0 0 0 0 0 0 0 0 0 0 0 0 0 0 0 0 0 0 0 0 0 2 3 2 0 40 241 409 831 1154 1531 2090 2384 2574 2712 2764 2807 2796 2710 2541 2450 2448 2442 2422 2414 2394 2375 2363 2363 2394 2431 2446 2457 2453 2384 2262 2138 2126 2020 1861 1667
0 0 0 0 0 0 0 0 0 0 0 0 0 0 0 0 0 0 0 0 0 0 0 2 3 2 1 0 202 428 631 1093 1558 2187 2503 2650 2791 2885 2887 2835 2811 2685 2510 2480 2462 2429 2402 2336 2303 2306 2336 2386 2418 2418 2415 2395 2286 2139 2177 2170 2106 2007 1824
0 0 0 0 0 0 0 0 0 0 0 0 0 0 0 0 0 0 0 0 0 0 0 0 3 3 1 1 115 380 635 960 1604 2256 2602 2792 2963 3050 2956 2908 2845 2772 2707 2518 2474 2433 2453 2457 2414 2408 2408 2411 2414 2400 2410 2357 2264 2267 2289 2273 2222 2123 1954
0 0 0 0 0 0 0 0 0 0 0 0 0 0 0 0 0 0 0 0 0 0 14 1 2 2 52 241 355 456 631 908 1462 2269 2669 2915 3102 3158 3046 2967 2886 2826 2759 2724 2656 2518 2494 2493 2503 2517 2503 2514 2519 2522 2519 2427 2362 2358 2360 2335 2345 2284 2178

ECMWFFLT1_con_mucape_066.txt.gz
CAPE
804 878 896 848 789 765 834 872 877 860 851 829 800 765 720 716 687 671 620 529 506 443 382 407 478 507 670 749 840 924 999 1021 1009 914 698 0 20 377 722 883 993 1051 1228 1402 1433 1445 1522 1626 1701 1784 1902 2075 2246 2269 2264 2349 2403 2415 2361 2468 2488 2459 2394
776 820 890 922 916 854 822 807 821 891 882 862 849 798 760 731 710 702 691 634 530 472 459 461 517 494 500 567 773 841 895 952 959 931 288 0 7 164 528 763 930 975 1074 1273 1362 1367 1425 1496 1647 1735 1795 2047 2238 2180 2210 2258 2293 2337 2381 2410 2392 2355 2329
649 775 854 896 930 911 906 867 821 837 847 877 867 820 789 744 726 712 726 723 587 520 539 534 548 582 485 492 682 748 787 832 840 834 781 0 0 4 194 536 781 913 978 1103 1215 1325 1422 1485 1579 1703 1767 1850 2037 2101 2147 2214 2258 2325 2381 2430 2410 2317 2268
216 675 821 869 902 935 931 903 857 843 828 836 866 827 802 783 755 748 744 760 659 587 600 574 560 591 548 447 422 562 686 707 722 259 229 1 0 0 5 118 404 770 904 996 1109 1241 1399 1486 1542 1628 2179 1786 1896 2005 2064 2170 2210 2253 2313 2377 2405 2345 2259
0 0 648 832 932 938 943 927 895 852 846 830 783 836 804 800 789 764 767 763 677 631 653 634 618 599 587 580 429 379 324 506 145 89 73 16 0 0 0 1 32 298 750 895 989 1142 1269 1382 1458 1541 1618 1704 1770 1876 2000 2033 2148 2200 2243 2291 2335 2336 2293
0 0 72 686 872 937 904 917 896 874 872 838 798 754 790 804 784 769 739 695 678 682 686 672 660 636 602 625 607 433 335 234 186 145 96 65 2 0 0 0 0 20 184 520 864 980 1076 1173 1254 1322 1405 1556 1660 1781 1872 1948 2042 2159 2224 2198 2253 2296 2317
0 0 0 289 765 940 923 909 872 877 847 830 782 729 725 780 795 771 742 720 696 720 708 695 681 629 627 642 628 500 356 267 154 97 82 66 15 0 0 0 0 0 6 156 464 796 914 1024 1111 1154 1237 1410 1631 1685 1780 1852 1924 2048 2217 2212 2207 2220 2243
362 0 47 529 822 1004 1014 966 941 890 860 830 805 767 726 781 771 777 759 739 737 726 724 724 691 641 644 665 635 602 396 323 163 108 48 44 32 34 0 0 0 0 0 1 84 446 675 840 966 1054 1102 1191 1405 1579 1647 1684 1781 1828 2080 2214 2200 2175 2150
440 494 569 652 867 1027 1100 1109 1070 1014 980 943 883 812 748 717 643 738 731 734 736 723 717 717 695 654 641 666 665 616 546 355 263 103 33 20 28 33 8 0 0 0 0 0 0 158 461 620 786 928 994 1032 1114 1316 1492 1550 1612 1682 1808 2044 2136 2179 2175
519 553 771 829 936 1051 1148 1154 1148 1135 1121 1091 1044 992 894 823 711 643 686 694 718 711 722 709 692 660 659 673 668 624 574 402 320 149 39 6 14 27 24 0 0 0 0 0 0 16 258 412 546 746 859 915 967 1006 1236 1373 1455 1529 1591 1790 1986 2080 2142
525 625 740 895 982 1086 1144 1183 1195 1206 1167 1124 1091 1013 913 846 782 716 624 594 640 673 694 678 679 664 664 668 652 552 594 574 368 240 104 22 7 13 15 6 0 0 0 0 0 0 54 360 427 532 693 826 905 929 997 1160 1294 1399 1476 1603 1783 1943 2030
404 604 726 767 918 1008 1088 1137 1202 1218 1173 1130 1101 1070 1008 917 819 754 564 603 611 619 632 663 663 658 655 665 659 634 593 592 594 589 590 568 270 9 9 9 2 0 0 0 0 0 0 100 337 463 497 652 788 865 936 1029 1126 1248 1378 1470 1596 1758 1904
122 438 614 795 890 967 1024 1102 1118 1146 1166 1154 1116 1058 1048 1002 911 808 775 748 670 663 601 596 614 650 648 665 658 626 603 605 610 607 622 638 620 537 4 1 3 0 0 0 0 0 0 0 84 386 411 425 534 661 780 882 1008 1134 1227 1307 1406 1577 1791
212 465 568 588 786 942 1034 1043 1044 1078 1092 1093 1068 1052 1041 1004 931 902 825 778 783 766 712 703 652 648 645 647 626 639 620 628 628 623 625 637 701 692 635 247 0 0 1 1 0 0 0 0 0 13 235 284 290 358 434 579 764 898 1046 1148 1270 1412 1571
106 343 478 625 722 863 940 992 1031 1039 1053 1068 1048 1044 1002 970 949 901 845 786 757 775 767 744 699 689 675 657 662 674 651 660 664 642 658 656 714 792 798 718 607 0 0 2 4 4 0 0 0 0 1 40 111 191 256 245 284 449 712 978 1143 1268 1376
130 178 382 524 597 670 770 892 956 988 1054 1098 1092 1052 1041 985 949 915 855 811 752 733 782 760 758 726 748 724 725 723 713 724 740 729 724 723 771 848 871 860 802 705 0 0 0 0 3 1 0 0 0 0 0 18 88 184 228 305 71 329 853 1059 1207
79 97 194 439 486 488 594 713 819 882 961 1076 1130 1126 1073 1010 957 922 856 799 795 836 842 857 864 843 794 784 783 748 751 784 812 817 815 800 823 899 921 931 896 853 767 383 0 0 0 0 0 7 9 2 1 1 7 39 96 45 0 0 19 647 1019
0 77 123 215 330 423 447 480 619 747 880 943 1076 1124 1151 1105 1047 984 956 932 882 893 937 918 955 952 945 896 855 808 822 815 872 888 876 856 923 980 989 972 944 944 923 843 768 701 0 0 0 0 2 11 24 48 62 55 8 0 0 0 0 134 801
0 5 128 112 174 276 385 419 501 603 652 750 868 999 1072 1102 1138 1096 1044 981 974 972 945 969 987 997 1013 1012 961 964 920 913 938 930 955 973 1040 1052 1047 1042 1044 1020 997 961 908 836 818 792 685 139 36 0 0 3 38 88 1 0 0 0 0 0 162
0 0 0 88 138 185 268 327 351 398 509 562 701 762 879 975 1066 1138 1142 1106 1110 1086 1037 1019 996 991 982 1083 1037 1054 1054 1044 1049 1039 1036 1019 1062 1100 1100 1078 1105 1103 1067 1034 1002 950 905 883 868 842 798 724 605 342 0 0 0 0 0 0 0 0 14
0 0 0 1 83 185 179 202 241 256 351 451 519 570 635 769 961 1012 1164 1220 1205 1207 1240 1199 1103 1099 1092 1076 1060 1070 1125 1148 1170 1162 1141 1130 1123 1141 1146 1147 1168 1177 1160 1123 1076 1039 994 973 964 990 1037 1061 1041 1022 916 844 710 537 93 0 0 0 0
0 0 0 0 20 46 119 184 172 179 237 297 350 484 544 598 686 895 1121 1181 1227 1260 1255 1312 1291 1228 1209 1409 1611 1166 1160 1203 1237 1260 1268 1277 1301 1285 1263 1225 1218 1224 1228 1211 1181 1146 1123 1132 1141 1184 1267 1361 1422 1434 1374 1264 1138 966 803 433 0 0 0
0 0 0 0 0 0 0 106 124 119 123 132 202 329 393 427 512 599 859 992 1095 1200 1118 1065 1373 1405 1324 1282 1540 1390 1340 1325 1277 1284 1328 1346 1339 1315 1298 1271 1260 1266 1264 1285 1305 1320 1311 1336 1394 1445 1478 1499 1580 1777 1787 1684 1520 1252 978 749 564 0 0
0 0 0 0 0 0 0 0 0 60 83 104 112 157 228 298 350 422 470 737 778 824 947 750 1069 1439 1438 1402 1422 1632 1616 1421 1427 1364 1353 1329 1319 1331 1330 1306 1342 1381 1409 1440 1458 1463 1472 1516 1533 1602 1630 1661 1699 1762 1942 2087 2052 1776 1411 982 658 0 0
0 0 0 0 0 0 0 0 0 0 0 71 100 92 122 156 192 260 281 370 571 657 838 1060 1161 1311 1446 1506 1482 1483 1664 1740 1694 1622 1582 1514 1535 1539 1545 1548 1554 1552 1558 1565 1579 1592 1625 1652 1694 1744 1798 1821 1856 1863 1945 2091 2192 2218 2035 1582 1056 639 0
0 0 0 0 0 0 0 0 0 0 0 23 30 0 0 0 69 138 171 189 225 390 583 808 1022 1289 1407 1481 1520 1496 1484 1578 1763 1860 1871 2100 1807 1822 1829 1878 1824 1832 1792 1793 1769 1764 1778 1801 1815 1845 1896 1918 1956 1970 1963 2119 2294 2359 2330 2127 1666 1124 626
0 0 0 0 0 0 0 0 0 0 0 0 0 0 0 0 0 87 160 150 130 158 422 456 655 982 1221 1297 1418 1476 1536 1504 1477 1507 1679 1840 1988 2043 2122 2130 2139 2151 2130 2099 2069 2040 2021 1989 1991 1979 1996 2014 2037 2061 2089 2110 2327 2458 2470 2355 2074 1623 1076
0 0 0 0 0 0 0 0 0 0 0 0 0 0 0 0 0 0 67 152 148 120 128 342 437 662 921 1144 1244 1436 1523 1512 1528 1502 1495 1524 1516 1654 2352 2301 2237 2280 2329 2306 2311 2269 2237 2165 2131 2103 2087 2069 2082 2104 2107 2134 2296 2463 2537 2488 2300 1985 1553
0 0 0 0 0 0 0 0 0 0 0 0 0 0 0 0 0 0 0 0 79 49 91 222 408 557 673 852 1057 1154 1173 934 926 1298 1446 1566 1555 1558 1572 2194 2383 2308 2324 2345 2362 2354 2324 2278 2231 2180 2149 2137 2135 2144 2127 2131 2270 2474 2555 2572 2480 2248 1901
0 0 0 0 0 0 0 0 0 0 0 0 0 0 0 0 0 0 0 0 0 0 29 80 173 367 428 503 563 692 885 930 1119 1374 1350 1391 1403 1459 1514 1543 1990 2336 2247 2284 2285 2279 2244 2237 2219 2193 2159 2116 2128 2125 2129 2082 2149 2327 2435 2559 2572 2481 2203
0 0 0 0 0 0 0 0 0 0 0 0 0 0 0 0 0 0 0 0 0 0 0 0 77 199 379 364 289 180 308 697 985 1263 1474 1497 1444 1905 2118 1968 1682 1817 2224 2270 2188 2193 2161 2150 2124 2114 2107 2098 2087 2073 2053 2066 2068 2166 2350 2453 2507 2536 2439
0 0 0 0 0 0 0 0 0 0 0 0 0 0 0 0 0 0 0 0 0 0 0 0 22 166 187 181 221 8 159 393 587 777 890 1177 1433 1902 2320 2462 2554 2349 1946 2156 2228 2211 2120 2113 2082 2060 2054 2039 2016 1987 1991 2040 2114 2201 2327 2406 2396 2442 2499
0 0 0 0 0 0 0 0 0 0 0 0 0 0 0 0 0 0 0 0 0 0 0 0 0 0 29 0 262 168 207 279 326 482 1028 1183 1222 1362 1666 2053 2532 2680 2642 2424 2142 2205 2148 2049 2052 2039 2014 1993 1964 1938 1948 2028 2122 2222 2323 2405 2380 2357 2428
0 0 0 0 0 0 0 0 0 0 0 0 0 0 0 0 0 0 0 0 0 0 0 0 0 0 0 24 193 59 6 222 232 262 664 1056 1148 1208 1441 1703 2008 2356 2650 2728 2603 2282 2149 2111 2011 1989 1972 1956 1938 1928 1960 2004 2061 2164 2278 2348 2342 2300 2309
0 0 0 0 0 0 0 0 0 0 0 0 0 0 0 0 0 0 0 0 0 0 0 0 0 0 0 0 1 1 4 4 4 88 452 804 943 1134 1477 1741 1988 2145 2377 2581 2666 2552 2263 2179 2161 2118 1980 1956 1958 1956 1968 2017 2072 2113 2110 2175 2188 2192 2213
0 0 0 0 0 0 0 0 0 0 0 0 0 0 0 0 0 0 0 0 0 0 0 0 0 0 0 1 2 2 3 4 6 74 393 714 916 1132 1618 1889 2011 2141 2302 2459 2615 2666 2552 2267 2183 2194 2115 1997 2002 1995 2017 2016 1991 2001 2027 2041 2050 2104 2143
0 0 0 0 0 0 0 0 0 0 0 0 0 0 0 0 0 0 0 0 0 0 0 0 0 0 1 4 3 3 5 5 5 69 346 627 783 1053 1544 1871 2071 2230 2401 2498 2565 2600 2647 2556 2411 2147 2011 2002 2130 2019 2022 2044 2020 1980 1969 1953 1944 1945 2113
0 0 0 0 0 0 0 0 0 0 0 0 0 0 0 0 0 0 0 0 0 0 0 0 0 0 2 3 4 5 4 4 36 132 224 525 762 1122 1576 1976 2180 2300 2404 2623 2709 2675 2592 2597 2534 2391 2197 2090 2041 2009 1994 2033 2053 2062 2048 2013 1970 2015 2144

ECMWFFLT1_con_mucape_069.txt.gz
CAPE
804 904 1135 1138 1217 1166 1139 1057 892 890 966 914 814 754 710 726 711 1118 1175 1481 1580 1799 1860 1866 1822 1878 1983 1952 1947 1994 1869 1844 1768 1605 1427 1390 1361 1672 1961 1882 2066 2444 2261 2454 2598 2950 3279 3428 3366 3349 3420 3387 3179 3449 3661 3818 3848 3620 3890 4062 3936 3810 3803
685 765 827 830 1254 1256 1314 1226 1164 932 929 908 854 800 740 737 826 1012 1198 1556 1638 1782 1787 1715 1760 1816 1877 1973 1882 1944 1909 1799 1741 1669 1382 1500 1545 1778 1791 2087 2133 2644 2733 2467 2804 3054 3198 3253 3161 3267 3209 3314 3065 3455 3468 3639 3704 3700 3280 3754 3556 3799 3747
513 703 782 793 827 918 1396 1369 1274 1158 1057 928 882 834 811 748 787 790 1189 1373 1549 1652 1685 1642 1759 1730 1771 1910 1849 1896 1810 1698 1664 1567 1410 1248 1170 925 1355 1834 2077 2099 2164 2352 2840 2836 2845 2906 3057 3138 3107 3070 2810 3466 3502 3486 3713 3500 3510 3664 3425 3208 3763
267 487 620 742 797 820 1096 1409 1314 1212 1128 843 860 838 815 966 791 877 1091 1158 1408 1594 1634 1530 1581 1568 1655 1801 1813 1840 1771 1714 1602 1390 1304 1215 1129 880 1325 1682 1855 1816 2168 2195 2183 2390 2307 2666 2907 3032 3072 3154 3216 3244 3207 3161 3228 3522 3482 3670 3416 3327 3600
344 176 0 398 745 824 781 1129 1291 1340 1208 830 795 784 794 774 788 789 834 813 1092 1312 1376 1348 1328 1418 1534 1624 1561 1586 1637 1636 1571 1385 1330 1219 1171 1081 1064 1047 1366 1460 1636 1880 2287 2570 2725 2775 2624 2868 3012 3191 3200 3325 3335 3460 3309 3643 3562 3673 3511 3385 3365
451 463 405 150 0 464 797 797 1007 1256 1224 1032 843 808 789 790 779 785 804 808 791 1124 1307 1318 1271 1420 1501 1452 1408 1390 1557 1642 1626 1540 1362 1309 1226 983 793 966 1114 1245 1437 1714 1924 2045 2573 2618 2591 2758 2740 2867 2826 2781 2905 3159 3095 3273 3532 3623 3449 3131 2963
458 574 528 435 400 484 740 824 824 843 866 1229 869 825 827 822 790 784 768 770 770 876 1095 1186 1174 1284 1522 1376 1386 1507 1555 1520 1575 1412 1320 1251 1150 1015 879 880 965 989 1087 1672 1779 1912 2166 2466 2635 2723 2765 2670 2804 2656 2910 3260 3062 3151 3439 3633 3706 3658 3528
451 605 673 662 580 624 724 806 842 883 890 1294 904 877 881 838 792 793 744 661 668 718 782 1036 1114 1295 1436 1380 1358 1383 1428 1354 1347 1372 1292 1156 1123 1016 902 848 876 913 1160 1332 1637 1894 1875 2297 2347 2514 2614 2567 2766 2930 2932 3348 3525 3182 3164 3484 3519 3526 3169
492 561 678 722 770 786 788 835 907 895 930 911 921 924 903 837 858 863 946 641 584 493 507 695 712 1109 1463 1482 1468 1450 1361 1316 1352 1323 1246 1127 1051 962 827 783 744 795 820 701 937 1625 1675 2048 2019 2432 2625 2458 2660 3030 2962 3281 3180 3064 3182 3275 3455 3443 3030
457 584 719 836 870 875 941 932 963 968 1006 1000 957 954 906 922 948 919 1155 996 865 750 1047 411 547 678 1352 1454 1388 1372 1373 1380 1305 1133 1118 1016 994 938 871 730 646 739 590 545 580 989 1522 1742 1920 2375 2627 2477 2676 2843 2811 3050 2927 2944 3017 3221 3341 3334 3442
450 581 685 833 873 973 1038 1100 1100 1107 1087 1060 1004 986 955 944 1608 1209 1059 995 818 773 996 613 605 472 867 1201 1209 1253 1288 1283 1210 1119 1041 954 901 890 837 778 651 581 500 486 437 538 907 1499 1829 2164 2404 2088 2269 2476 2605 2601 2732 2876 2632 2755 2904 3207 3054
341 470 592 684 838 838 1004 1003 1088 1113 1087 1069 1070 1052 1011 1020 995 982 1007 984 930 808 1044 711 657 516 611 940 1046 1231 1291 1313 1205 1114 1051 954 878 825 800 773 719 583 518 472 476 528 546 1027 1278 1521 2022 2028 2011 2205 2431 2471 2589 2698 2608 2370 2481 2783 2839
198 363 322 407 543 700 773 870 923 1022 1025 1062 1082 1061 1064 1075 1070 1074 986 930 915 900 811 766 673 647 629 686 680 1217 1308 1283 1246 1249 1107 1064 936 697 599 503 490 636 534 477 475 508 502 597 1014 1296 1459 1921 1967 1875 2174 2400 2305 2550 2655 2472 2399 2592 2774
0 95 243 405 522 622 764 796 886 950 1035 1048 1061 1071 1095 1090 1071 1100 1088 1044 975 929 848 774 748 693 708 722 763 1211 1327 1319 1330 1351 1301 1188 1176 1060 798 573 572 551 512 554 483 436 443 462 666 1120 1224 1431 1653 1748 2000 2312 2243 2534 2598 2505 2359 2486 2562
0 0 52 285 273 556 573 769 801 867 906 976 1113 1129 1115 1109 1065 1012 1054 1054 1037 1006 934 865 817 820 795 783 907 1302 1468 1390 1306 1397 1450 1369 1370 1267 1051 706 618 633 636 601 544 410 367 378 413 705 974 1059 1371 1458 1577 1597 1744 1837 2166 2322 2427 2357 2231
0 0 51 224 335 334 443 539 625 790 806 847 992 1081 1135 1107 1067 1062 1044 996 996 968 962 946 945 908 846 808 1183 1400 1534 1675 1550 1504 1588 1509 1536 1585 1279 1057 798 664 707 707 702 634 484 394 381 401 657 894 1206 1279 1288 1309 1386 1493 1167 1480 2041 2323 1927
0 0 0 4 182 298 335 411 484 585 667 784 874 945 1062 1042 1076 1085 1072 1024 957 985 989 965 962 917 872 848 1056 1375 1567 1897 1866 1696 1686 1697 1749 1681 1503 1257 884 714 752 772 817 798 774 675 435 275 274 400 686 906 924 956 896 558 4 38 640 1582 2209
0 0 0 0 0 0 137 203 262 380 493 623 675 703 837 968 1024 1070 1030 1033 1007 957 971 981 939 900 930 1409 1200 1539 1857 1773 1762 1816 1802 1836 1730 1654 1642 1433 1199 1104 959 842 879 907 900 858 782 612 312 247 310 403 529 686 424 2 0 0 0 290 1436
0 0 0 0 0 0 49 131 197 310 386 417 526 632 743 883 914 985 995 1001 967 938 930 936 916 873 838 1440 1799 1479 1771 1778 1902 1960 1875 1916 1799 1788 1720 1613 1398 1238 924 949 947 963 963 969 927 896 780 504 409 283 282 362 109 0 0 0 0 0 216
0 0 0 0 0 0 0 65 124 200 283 327 392 488 561 656 749 869 942 939 1035 1040 998 928 988 984 921 854 1788 2118 1831 1914 1838 1834 1970 2032 1978 1879 1710 1542 1489 1140 1044 1042 1042 1050 1040 1039 1018 999 966 892 801 648 506 363 142 0 0 0 0 0 27
0 0 0 0 0 0 0 0 72 93 104 141 222 313 332 418 507 620 702 829 1018 1070 1078 1096 1050 1024 1037 994 967 1116 2067 2084 1928 1989 2088 2136 2104 1964 1794 1606 1582 1244 1095 1085 1103 1112 1098 1113 1098 1073 1062 1018 963 915 892 861 783 707 296 111 0 0 0
0 0 0 0 0 0 0 0 0 11 66 84 34 150 181 263 274 335 499 615 757 893 925 1072 1104 1084 1043 1032 1062 1068 1143 1501 1836 2113 2011 2080 2058 2008 1867 1752 1772 1658 1176 1162 1166 1156 1162 1177 1169 1152 1138 1105 1057 1032 991 974 976 964 964 937 894 798 668
0 0 0 0 0 0 0 0 0 0 0 0 50 95 92 86 166 249 320 434 622 691 736 820 910 986 1061 1105 1125 1124 1154 1136 1262 1497 1921 2027 2018 1996 1850 1857 1844 1744 1378 1274 1257 1236 1215 1224 1216 1198 1186 1162 1131 1117 1087 1095 1122 1173 1214 1243 1260 1204 1148
0 0 0 0 0 0 0 0 0 0 0 0 0 0 34 77 113 118 145 219 285 404 600 734 788 833 886 1027 1153 1206 1249 1333 1220 1196 1242 1876 1941 1981 1861 1738 1747 1401 1339 1308 1297 1277 1253 1258 1244 1254 1253 1253 1263 1245 1256 1283 1333 1361 1422 1522 1602 1606 1547
0 0 0 0 0 0 0 0 0 0 0 0 0 0 0 0 5 43 0 106 134 211 253 394 487 538 652 774 844 1061 1215 1263 1329 1357 1227 1262 1607 1616 1352 1366 1342 1371 1332 1329 1307 1297 1295 1303 1318 1329 1335 1367 1378 1390 1436 1487 1548 1580 1591 1600 1708 1842 1859
0 0 0 0 0 0 0 0 0 0 0 0 0 0 0 0 0 0 0 0 4 101 75 200 301 380 422 541 646 756 1076 1194 1270 1286 1422 1404 1325 1305 2025 1450 1382 1402 1357 1356 1361 1389 1409 1411 1444 1458 1476 1482 1488 1507 1536 1593 1642 1693 1706 1724 1736 1865 1996
0 0 0 0 0 0 0 0 0 0 0 0 0 0 0 0 0 0 0 0 0 0 88 45 102 177 230 287 335 462 596 833 1045 1187 1232 1254 1424 1401 1352 1808 1624 1364 1364 1396 1473 1521 1561 1613 1614 1611 1623 1621 1624 1641 1644 1673 1710 1741 1771 1800 1791 1919 2058
0 0 0 0 0 0 0 0 0 0 0 0 0 0 0 0 0 0 0 0 0 0 0 0 0 107 134 154 164 199 269 386 625 791 883 948 966 834 1272 1420 1512 1821 1747 1624 1618 1720 1785 1811 1835 1838 1848 1855 1863 1842 1816 1803 1823 1828 1843 1838 1857 2017 2180
0 0 0 0 0 0 0 0 0 0 0 0 0 0 0 0 0 0 0 0 0 0 0 0 0 43 106 112 122 121 51 148 318 419 458 598 665 545 848 1227 1636 1990 2131 2062 2018 1996 2040 2038 2025 2018 2023 2010 1977 1937 1937 1926 1925 1914 1900 1905 1882 1973 2188
0 0 0 0 0 0 0 0 0 0 0 0 0 0 0 0 0 0 0 0 0 0 0 0 0 0 41 102 0 72 73 0 1 225 288 283 427 669 648 950 1540 2283 2304 2344 2351 2378 2572 2559 2534 2409 2135 2085 2032 1975 1925 2016 2025 2030 1994 1961 1922 1931 2120
0 0 0 0 0 0 0 0 0 0 0 0 0 0 0 0 0 0 0 0 0 0 0 0 0 0 0 97 57 0 0 0 1 1 172 280 318 418 788 932 1325 1987 2616 2619 2499 2475 2952 2988 2934 2858 2725 2588 2508 2542 2528 2450 2391 2425 2121 1990 1971 1947 2112
0 0 0 0 0 0 0 0 0 0 0 0 0 0 0 0 0 0 0 0 0 0 0 0 0 0 0 0 84 64 0 68 0 1 2 92 216 428 805 1238 1643 2151 2508 2679 2332 2851 3120 3144 3063 2986 2885 2838 2837 2939 2927 2831 2911 2729 2623 1974 1970 1910 2068
0 0 0 0 0 0 0 0 0 0 0 0 0 0 0 0 0 0 0 0 0 0 0 0 0 0 0 0 54 32 22 80 17 2 4 2 1 170 448 1020 1407 1802 2255 2686 2658 2614 2791 2880 2933 2840 2713 2602 2835 2947 2688 2751 3062 3038 2901 2746 2069 1886 2030
0 0 0 0 0 0 0 0 0 0 0 0 0 0 0 0 0 0 0 0 0 0 0 0 0 0 0 0 0 45 61 77 50 19 3 2 2 94 262 426 889 1156 1442 1920 2609 2845 2707 2907 2910 2863 2900 2955 2994 3041 3143 3230 3230 3159 3084 2848 2636 2003 1925
0 0 0 0 0 0 0 0 0 0 0 0 0 0 0 0 0 0 0 0 0 0 0 0 0 0 0 0 0 0 0 0 1 0 1 1 5 4 45 189 543 884 1328 1609 1992 2601 2867 2587 2645 3084 3266 3261 3194 3350 3449 3366 3319 3284 2819 2806 2584 2575 2280
0 0 0 0 0 0 0 0 0 0 0 0 0 0 0 0 0 0 0 0 0 0 0 0 0 0 0 0 0 0 0 0 0 1 2 2 4 6 41 133 388 688 861 1160 1342 1829 2130 2341 2569 2922 3155 2907 3224 3450 3431 3560 3558 2789 2442 2325 2240 2103 1947
0 0 0 0 0 0 1 0 1 0 0 0 0 0 0 0 0 0 0 0 0 0 0 0 1 1 0 0 0 0 0 0 0 2 3 2 3 6 14 61 138 331 540 552 657 912 1331 1687 2054 2232 2410 2540 2678 2705 2669 2661 2627 2507 2334 2203 2085 1989 1896
0 1 2 3 4 4 5 5 4 3 1 0 0 0 0 0 0 0 0 0 0 0 0 0 2 4 2 0 0 0 0 2 2 4 6 4 5 5 26 124 317 483 495 532 684 893 1120 1367 1557 1741 1932 2118 2271 2374 2842 2558 2378 2302 2174 2049 1964 1908 1862

ECMWFFLT1_con_mucape_072.txt.gz
CAPE
808 920 1391 973 1489 1655 1606 1688 1558 1680 1878 1637 1536 1488 1464 1542 1636 1823 2070 2674 3075 3422 3520 3610 3533 3371 3447 3293 3174 3251 2965 2786 2542 2354 2362 2231 1991 1924 2039 1790 1786 1898 1532 1394 2012 1987 2483 2170 2491 2912 2922 2750 2572 2716 2927 3265 3561 3664 3884 4670 3704 3816 4146
892 884 920 754 945 1302 1331 1460 1663 1588 1714 1684 1658 1761 1608 1609 1765 1815 2163 2649 3002 3290 3520 3534 3474 3443 3417 3427 3226 3308 3232 2971 2700 2530 2282 2264 2281 2241 2107 2016 1777 1852 1904 1515 1787 2127 2149 2468 2452 2554 2874 2815 2477 2578 2718 2825 3169 3478 3359 3889 3656 4020 3748
627 924 917 885 811 759 1657 1684 1800 1318 1515 1486 1541 1575 1694 1795 1819 2005 2197 2530 2951 3158 3423 3460 3488 3302 3378 3490 3322 3361 3307 3048 2763 2636 2347 1970 2268 1818 1961 1946 1926 1730 1842 1602 1598 2029 2186 2189 2570 2557 2500 2460 2084 2467 2666 2646 2785 2947 3019 3506 3584 3471 3679
433 710 855 944 971 1005 1076 1128 1687 1830 1709 1582 1170 1327 1639 1709 1739 1980 2238 2401 2863 2985 3130 3209 3237 3100 3142 3350 3370 3418 3469 3182 2801 2369 2022 1569 1722 1772 1696 1887 1980 1809 1700 1670 1472 1434 1452 1607 2151 2711 2855 2339 2305 2335 2636 2382 2415 2643 2752 3103 3053 3157 3472
273 316 552 733 833 924 976 1016 1273 2034 1361 1223 1572 1695 1716 1625 1665 1741 2060 2122 2244 2633 2701 2824 2883 2789 2922 3123 3064 3126 3273 3225 2912 2384 2038 1524 1482 1802 1651 1659 1774 1811 1516 1612 1746 1790 1715 1777 1869 2164 2935 2709 2426 2525 2677 2629 2410 2627 2788 2950 2975 2857 3141
562 334 170 183 373 647 737 911 1224 1357 1328 1251 1391 1720 1261 1276 1603 1572 1776 1922 1882 1990 2315 2318 1913 2411 2765 2844 2838 2637 2992 3160 3058 2744 2235 1842 1769 1807 1833 1826 1582 1730 1352 1644 1599 1619 2101 1923 1537 1768 2077 2380 1973 1877 2176 2217 2020 2296 2705 2920 2745 2550 2523
351 495 433 301 169 225 579 818 790 1000 1173 1420 1254 1222 1685 1514 1392 1238 1409 1567 1573 1680 1735 1615 1896 2099 2358 2667 2718 2730 2918 2927 2985 2756 2292 1981 1820 2005 1888 1847 1761 1487 1422 1512 1743 1597 1734 1929 1562 1717 1971 1775 1816 1663 1842 2140 1957 1949 2179 2705 2939 2909 2799
506 528 532 537 502 448 645 839 824 978 1174 1218 1207 1243 1671 1207 1161 1117 1152 1394 1412 1382 1659 1528 1562 1582 2321 2285 1776 2526 2660 2642 2726 2778 2398 1997 1782 2082 1834 1763 1886 1800 1699 1383 1741 1758 1434 1619 1537 1638 1851 1729 1746 1902 1772 2156 2493 2078 1922 2318 2666 2884 2474
482 634 568 648 797 717 775 884 915 872 922 1065 1168 1180 2002 1159 1102 1041 1226 1325 1394 1477 1502 1396 1625 1670 1698 2499 2257 2345 2503 2412 2571 2675 2514 2070 1645 1627 1419 1548 1807 1867 1822 1391 1180 1734 1593 1314 1302 1504 1863 1828 1769 2188 2058 2298 2314 1994 1869 2098 2565 2754 2248
485 677 788 693 850 797 885 818 942 966 952 988 1059 1146 1114 1147 1128 1638 2337 2353 1526 1326 1480 1417 1471 1564 1822 1918 2014 2032 2161 2436 2403 2268 2358 1985 1537 1356 1371 1138 1367 1755 1776 1549 999 1029 1538 1396 1217 1415 2004 2327 1994 2354 2473 2264 2168 1942 1902 2226 2566 2694 2920
386 578 684 701 679 718 834 938 888 937 920 915 1026 1034 1038 1023 1903 1294 1580 1833 1124 868 1235 1425 1374 1340 1539 1805 1759 1794 2047 2139 2175 2079 2084 1971 1580 1393 1268 1116 890 1350 1591 1377 1005 686 928 1576 1496 1490 2086 2426 2022 2110 2521 2279 2373 2356 1912 1877 2026 2372 2290
288 396 512 596 798 978 956 972 1048 1072 1052 1017 994 974 972 940 931 1510 1327 845 934 890 912 1370 887 1194 1210 1276 1520 1983 2036 2077 2024 1962 1956 1934 1791 1464 1252 1131 906 916 1440 1309 1025 836 634 1134 1622 1537 1946 2496 2119 1831 2336 2482 2334 2392 2187 1595 1640 1881 1989
139 192 276 344 378 389 356 684 959 1014 1082 1118 1097 1038 1038 992 962 976 978 936 911 930 855 945 762 1133 1140 1247 1456 1954 2016 1944 1932 1986 1855 1952 1885 1682 1467 1249 1100 992 1099 1425 1131 925 762 693 1391 1744 1750 2281 2219 1644 1808 2352 2299 2344 2560 2021 1492 1616 1929
96 114 139 191 299 482 618 686 777 872 964 1014 1082 1109 1083 1068 1033 1013 1011 1022 986 933 859 851 824 878 1182 1244 1340 1538 1644 1724 1825 1985 2003 1934 2041 1999 1742 1552 1380 1286 1230 1457 1464 1161 932 729 928 1513 1681 1607 1717 1789 1604 2014 2338 2509 2726 2572 1759 1445 1776
0 118 199 227 266 358 478 595 639 661 783 991 1072 1027 1024 1040 1065 1045 1008 1021 1082 999 928 916 888 860 803 1260 1458 1531 1609 1764 1774 1873 2118 2092 2134 2170 2015 1828 1761 1680 1608 1604 1632 1410 1235 1134 892 1058 1338 1298 1278 1292 1290 1258 1719 1930 2263 2508 2412 1740 1297
0 0 139 186 328 269 290 319 325 636 649 669 922 962 963 1040 1080 1088 1073 1048 1004 1018 1045 1000 939 905 859 824 1124 1273 1551 1896 1992 1889 1976 2266 2379 2450 2328 2044 1935 1808 1834 1752 1745 1707 1573 1427 1289 1072 1156 1357 1389 1343 1092 940 843 1379 1399 1772 2004 2028 1261
0 0 0 89 175 294 236 316 373 419 554 665 725 718 830 871 976 1064 1097 1075 1050 994 1031 1011 1022 983 915 1179 895 1122 1790 1974 2159 2161 2099 2372 2594 2620 2642 2364 2048 1965 2032 1982 1854 1897 1872 1670 1442 1231 1125 1126 1280 1370 1126 860 582 635 1117 1343 1543 1654 1861
0 0 0 0 38 105 111 168 248 334 419 535 651 768 752 782 803 854 960 1025 1107 1068 991 1016 1013 1026 1094 1238 1415 1536 1403 1921 2210 2479 2448 2431 2682 2789 2828 2655 2299 2142 2146 2045 1903 2060 1876 1743 1647 1560 1280 1086 1117 1139 1120 1051 587 70 734 978 1037 1199 1336
0 0 0 0 0 0 0 57 182 219 230 267 380 477 537 597 694 751 814 790 862 921 991 993 991 992 1052 1448 1474 1670 1664 1809 1961 2196 2361 2401 2538 2745 2880 2930 2677 2347 2128 1964 2041 1864 2057 2040 1794 1756 1575 1308 1214 1103 1074 1013 690 8 0 484 0 0 460
0 0 0 0 0 0 0 0 11 128 182 220 269 363 398 500 567 766 789 777 863 830 826 891 933 958 962 943 1321 1709 1708 2043 1630 2086 2254 2288 2594 2752 2867 2807 2840 2485 2109 1940 1980 2054 2005 1952 1972 1834 1865 1678 1452 1390 1277 1171 784 151 0 0 0 0 219
0 0 0 0 0 0 0 0 0 0 0 116 154 200 262 304 407 475 675 742 764 785 807 884 858 917 928 964 939 834 1198 1362 1742 1776 1919 2289 2401 2528 2399 2671 2642 2517 2202 1891 1854 1951 2044 1942 1893 1881 1900 1754 1630 1571 1354 1248 898 726 283 0 0 0 20
0 0 0 0 0 0 0 0 0 0 0 0 0 0 0 130 182 262 360 462 626 771 786 762 835 896 928 943 909 954 940 885 1096 1633 1949 1968 2310 2536 2423 2392 2607 2641 2465 2149 1788 1753 1851 1973 1844 1799 1818 1770 1742 1654 1550 1464 967 866 796 728 485 382 29
0 0 0 0 0 0 0 0 0 0 0 0 0 0 0 0 0 109 132 198 329 429 556 683 706 736 764 840 848 905 943 959 948 1253 1480 1780 1884 1965 2152 2454 2224 2562 2700 2395 2047 1854 1787 1904 1882 1970 1819 1772 1810 1741 1722 1642 1329 958 941 902 843 792 722
0 0 0 0 0 0 0 0 0 0 0 0 0 0 0 0 0 0 0 106 138 208 309 426 499 536 570 622 696 778 807 780 902 960 1008 1343 1542 1765 2385 2049 1695 2189 2595 2558 2361 2122 1915 1876 2004 1966 1941 1841 1781 1683 1761 1720 1500 1046 1006 986 922 892 856
0 0 0 0 0 0 0 0 0 0 0 0 0 0 0 0 0 0 0 0 0 110 116 159 228 354 492 603 610 593 636 698 838 924 1101 1152 1207 1395 1646 1584 1440 1528 1523 1870 2372 1808 2244 2166 2086 2006 2035 1903 1662 1388 1440 1692 1576 1128 1124 1055 1008 967 928
0 0 0 0 0 0 0 0 0 0 0 0 0 0 0 0 0 0 0 0 0 0 0 4 0 109 158 280 357 381 414 450 560 628 846 1014 1091 1120 1263 1364 1260 1405 1456 1256 1393 1584 1894 1476 2123 2143 2160 2001 1599 1828 1552 1422 1712 2052 1207 1161 1145 1084 1073
0 0 0 0 0 0 0 0 0 0 0 0 0 0 0 0 0 0 0 0 0 0 0 0 0 0 0 0 18 202 230 339 408 310 382 388 552 736 993 1164 1223 1169 1200 1918 1652 1379 1688 2032 2080 2339 2381 2176 2166 1979 1705 1645 1622 2266 1329 1346 1313 1268 1272
0 0 0 0 0 0 0 0 0 0 0 0 0 0 0 0 0 0 0 0 0 0 0 0 0 0 0 0 0 0 0 125 228 273 232 198 248 590 956 1132 1402 1670 1278 1520 1588 1776 2304 2136 1544 1821 2003 2111 2358 2247 2133 1896 1627 1935 1488 1440 1480 1465 1445
0 0 0 0 0 0 0 0 0 0 0 0 0 0 0 0 0 0 0 0 0 0 0 0 0 0 0 0 0 0 0 0 0 6 57 198 260 444 570 654 431 644 1014 1099 1773 2425 2331 2098 2033 1986 1988 2508 2438 2192 2474 2333 2582 1655 1569 1578 1622 1657 1658
0 0 0 0 0 0 0 0 0 0 0 0 0 0 0 0 0 0 0 0 0 0 0 0 0 0 0 0 0 0 0 0 0 0 12 62 158 168 525 704 710 793 1153 1457 1778 2417 2554 2273 2416 2427 2334 2324 2420 2137 2516 2723 2744 2177 1790 1684 1692 1736 1736
0 0 0 0 0 0 0 0 0 0 0 0 0 0 0 0 0 0 0 0 0 0 0 0 0 0 0 0 0 0 0 0 0 0 0 26 67 182 285 428 754 924 1179 1230 1510 2148 2529 2572 2279 2396 2357 2409 2698 2786 2603 2291 2985 3203 2880 2073 1827 1686 1614
0 0 0 0 0 0 0 0 0 0 0 0 0 0 0 0 0 0 0 0 0 0 0 0 0 0 0 0 0 0 0 0 0 0 0 20 35 115 227 385 524 780 1001 1350 1607 1944 2549 2735 2680 2756 2758 2688 2803 2936 3052 2773 2917 3270 3712 2595 2409 2159 1967
0 0 0 0 0 0 0 0 0 0 0 0 0 0 0 0 0 0 0 0 0 0 0 0 0 0 0 0 0 0 0 0 0 0 0 0 10 52 94 196 468 648 901 1122 1469 1887 2321 2334 2570 2600 2738 2868 2698 2587 2776 3152 2734 2804 3036 3804 2838 2760 2664
1 0 0 0 0 0 0 0 0 0 0 0 0 0 0 0 0 0 0 0 0 0 0 0 0 0 0 0 0 0 0 0 0 0 0 0 7 44 69 116 242 420 726 967 1101 1432 1736 2047 1881 2530 2313 2107 2062 2443 2365 2978 2882 2744 3057 3273 2906 3180 2851
4 4 0 0 2 0 0 0 0 0 0 0 0 0 0 0 0 0 0 0 0 0 0 0 0 0 0 0 0 0 0 0 0 0 0 0 9 14 43 117 164 275 411 528 768 1032 1288 1589 2164 1840 1808 1805 2390 1825 1967 2215 2668 2789 2294 2288 2454 2897 3751
0 0 0 1 0 0 1 0 1 0 0 0 0 0 0 0 0 0 0 0 0 0 0 0 0 0 0 0 0 0 0 0 0 0 0 0 0 0 1 11 6 64 87 154 142 226 379 722 884 1068 1517 1795 1950 2044 2002 2276 2700 2454 2231 2325 2466 2474 2772
0 0 1 2 0 0 2 0 1 0 0 0 0 0 0 0 0 0 0 0 0 0 0 0 0 0 0 0 0 0 0 0 0 0 0 0 0 0 9 27 56 0 12 0 0 0 41 0 277 730 852 918 1330 1880 2133 2198 2126 2153 2182 2328 2680 2827 2701
0 0 0 0 2 6 7 6 5 5 4 2 0 0 0 0 0 0 0 0 0 0 0 1 0 0 0 0 0 0 0 0 0 0 0 0 0 1 5 17 37 94 53 0 0 151 266 202 207 283 234 460 739 887 955 1335 1765 2117 2292 2474 2588 2655 2591

ECMWFFLT1_con_mucape_075.txt.gz
CAPE
989 1188 863 1068 1501 1625 1566 1487 1602 1204 1731 1867 2006 1695 1616 1088 1316 1677 2141 2572 3645 3702 3290 3082 2819 2806 2644 2507 2444 2350 2099 2137 2099 2013 2117 2181 1963 1853 1635 1363 1550 1705 1699 1515 1762 2036 2268 2250 2574 2666 2970 2690 2472 2646 3288 3727 3736 3531 4553 4172 3384 3875 2937
553 897 1487 721 1154 1469 1478 1375 1427 1587 1590 1868 2252 2093 1836 1413 1538 1697 2178 2915 3029 3205 3333 3370 3293 3203 2911 2658 2505 2544 2409 2122 2091 2024 1860 2038 1998 1873 1586 1634 1402 1661 1716 1348 1706 1815 2512 1931 2198 2657 2843 2804 2461 2587 2563 3071 3548 3970 3536 4212 3352 3972 4008
274 388 900 585 542 984 1532 1540 1754 1849 1662 1767 1712 1845 1700 1759 1884 2160 1961 2620 2654 2778 3576 3683 3692 3164 3461 3106 2820 2901 2812 2280 2005 1982 1834 1673 1955 1506 1637 1747 1636 1520 1537 1507 1652 2040 1890 2299 2047 2143 2199 2553 2119 2241 2483 2512 2713 3038 3495 4347 3401 3202 4222
150 258 353 465 653 1018 1168 1325 1262 1299 1436 1925 1591 1878 1870 2636 2458 2263 2094 2536 3013 3271 3824 3730 3761 3377 3159 3513 3208 3160 3166 2719 2159 1808 1590 1152 1329 1417 1409 1662 1749 1349 1450 1371 1225 1508 1682 1736 1956 2096 2215 2279 2252 2049 2160 2155 2255 2561 2848 3446 3619 3256 3824
193 205 492 606 832 1148 771 845 1678 1406 1924 1504 1602 1759 1611 2046 1642 1529 1938 1976 2072 2773 2444 3094 3144 2890 3140 3701 3468 3212 3322 3069 2461 1866 1636 1158 1028 1337 1188 1228 1509 1408 1168 1265 1239 1234 1347 1685 1641 1848 2190 2335 2164 2123 2180 2288 2249 2390 2441 2699 2878 2372 2793
619 613 420 383 458 701 734 905 1434 2173 2117 2176 2017 1195 1019 1901 1650 1505 1622 1472 1737 1899 2096 2266 2265 2918 2590 2845 2698 2703 3368 3376 2932 2336 1700 1314 1036 1035 1166 1202 1211 1305 966 1142 1151 1155 1409 1507 1621 1727 1888 2052 1995 1748 1836 2077 2039 2142 2394 2594 2675 2382 2249
174 596 786 652 316 437 558 604 837 1648 1834 1633 1904 1586 1369 1350 1716 1636 1613 2108 2068 1744 1870 1954 2444 2647 3013 2630 2604 2802 3019 3201 3317 2690 1812 1478 1250 1047 1121 1218 1242 1122 912 1007 1176 1201 1369 1576 1624 1707 1729 1642 1622 1398 1490 1986 1869 1810 1942 2496 2707 2610 2474
233 317 121 570 526 389 476 508 533 825 1642 1550 1456 1665 1981 1978 2256 1423 1165 1167 1457 1644 1963 1620 2615 2407 3197 3204 3075 2911 2682 2884 3204 3172 2332 1498 1204 1255 1006 1169 1207 1160 1032 812 994 1212 961 1594 1495 1572 1592 1581 1496 1490 1277 1736 2044 1683 1729 1960 2311 2504 2228
337 476 514 189 85 150 314 528 605 771 868 909 889 992 1981 1780 1100 1120 1513 1693 1356 1309 1583 1570 1711 1553 1608 2083 3008 3155 2672 2682 2876 2800 2391 1638 1072 1068 821 968 1198 1156 1208 871 738 1123 1251 1404 1451 1518 1566 1694 1716 1630 1439 1681 1989 2026 1664 1665 1903 2277 2043
422 388 552 514 528 245 192 532 810 866 971 1037 1075 961 927 1440 1368 1823 1704 1712 1892 1795 1793 1506 1050 1500 2100 2293 2355 2684 2382 2283 2665 2064 2315 1572 1066 787 755 492 739 1117 1164 1042 540 698 1155 1161 1310 1444 1659 1694 1802 1726 1751 1737 1894 2026 1859 1813 1884 2043 2298
394 454 440 592 740 525 518 600 664 796 914 986 970 797 895 882 1064 1066 1579 1524 1271 1018 1178 1212 1464 1441 1310 1611 1879 2151 2095 2175 2659 2320 2179 2011 860 870 780 460 346 603 882 816 409 215 604 1100 1214 1427 1608 1640 1778 1816 1973 1987 2032 2203 1853 1697 1732 2095 1906
344 377 518 589 643 660 667 609 709 739 794 838 871 841 844 848 889 704 893 896 1364 1780 961 1389 1047 1170 1469 1365 1524 1928 1597 1610 2026 2288 1598 1388 897 964 708 540 286 288 632 720 382 267 146 612 1029 1070 1454 1742 1904 1961 2058 2181 2238 2312 2155 1666 1344 1437 1722
160 177 195 342 394 616 668 702 713 740 790 770 832 850 820 845 768 727 771 794 990 1172 946 1278 1374 1082 1260 1703 1597 1546 1412 1150 1752 2201 2063 1897 1600 1150 981 652 440 230 309 510 496 279 136 154 877 1136 1178 1640 1867 1896 1994 2008 2086 2402 2412 2236 1504 1043 1392
158 175 246 241 223 374 499 732 762 719 832 818 795 848 898 873 818 772 679 695 721 699 769 809 868 966 981 1296 1165 1288 1166 1713 1744 2263 2354 2160 2170 1732 1556 959 617 423 296 389 390 284 224 124 194 1003 1244 1317 1639 1921 1793 1884 1996 2272 2460 2426 1971 1291 1169
103 146 210 357 362 462 550 509 681 798 813 796 842 856 846 834 813 790 770 706 708 665 710 716 765 922 1000 1050 955 1386 1665 1974 2297 2318 2273 2062 2349 2398 2063 1715 975 762 755 580 466 314 111 62 44 363 1052 1205 1408 1593 1353 1151 1506 1940 2256 2221 2264 1756 1122
40 116 171 273 356 369 421 447 392 384 662 824 886 868 856 865 865 857 813 801 742 710 739 727 704 684 825 1101 980 1049 1524 1882 2207 2641 2161 2233 2771 2832 2426 2070 1890 1168 981 798 588 752 675 569 246 92 400 883 1126 1180 1102 858 681 1298 1347 1732 2044 2026 1173
28 116 96 108 162 247 242 317 439 444 419 474 629 839 868 840 841 859 889 841 759 725 756 749 738 706 632 706 1052 961 1082 1597 1806 2131 2376 2583 2611 2976 2867 2629 2312 1910 2300 1684 1168 1296 1704 1217 556 346 194 346 678 826 635 386 268 398 956 1163 1374 1715 1768
0 12 87 98 122 129 148 191 374 423 490 407 414 389 474 599 675 779 874 913 868 836 817 789 755 741 807 1061 1286 1623 1627 1819 1673 2032 2336 2715 2569 2867 2830 2461 2735 2608 2122 1848 1490 2008 1418 1330 1342 1405 660 343 356 393 521 356 126 0 9 922 1099 1499 1880
0 0 0 0 0 85 117 127 155 245 302 498 536 538 498 518 553 514 638 749 827 875 895 776 752 736 745 829 1395 1388 1310 1518 1741 1803 1869 2578 2731 3079 2284 1915 1962 1843 1756 1877 1988 1600 2120 2297 1768 1856 1706 1148 819 490 347 308 176 0 0 438 887 1061 1329
0 0 0 0 0 0 27 86 122 160 225 238 331 509 597 646 572 519 478 445 563 726 756 850 831 768 766 778 732 729 857 1125 1166 1336 1521 2034 2194 2065 1913 1832 1993 2202 1727 1367 1911 2320 2144 2025 2156 2001 2230 2002 1727 1599 982 593 294 0 0 0 248 803 1117
0 0 0 0 0 0 0 82 108 132 144 180 220 245 254 351 450 516 554 570 568 535 604 720 830 819 772 753 745 680 644 497 579 932 1224 1311 1874 1426 1357 1494 1717 1604 1863 1980 1402 1745 2540 2190 1796 2260 2303 2157 2108 2014 1585 1104 939 256 0 0 0 0 51
0 0 0 0 0 0 0 0 0 24 96 96 120 148 155 179 197 258 360 483 569 619 566 556 578 691 641 693 739 726 668 548 575 610 711 1205 1313 1447 1780 1804 1833 1742 1880 1586 2148 1614 1450 1982 2205 2233 2233 2245 2305 2026 1897 1615 997 983 996 886 686 649 489
0 0 0 0 0 0 0 0 0 0 0 0 0 81 104 113 133 140 159 192 268 366 480 539 549 521 579 604 554 654 643 636 550 561 572 670 753 1078 1265 1329 1885 1924 1911 1733 1730 1792 2500 1946 2095 1757 2192 2235 2536 2410 2238 2014 1738 1198 1056 1041 997 864 812
0 0 0 0 0 0 0 0 0 0 0 0 0 0 0 0 9 77 90 106 136 160 152 185 247 374 421 322 354 561 566 648 528 522 568 598 588 852 1123 1159 1428 1826 2175 2195 2279 2091 1946 2265 1834 1830 1944 2196 2354 2296 2444 2354 2063 1686 1485 1315 1172 1058 1191
0 0 0 0 0 0 0 0 0 0 0 0 0 0 0 0 0 0 0 0 0 50 120 133 124 73 0 146 103 382 446 514 529 512 542 602 567 673 868 921 1167 1498 1674 1974 2084 1796 1632 1720 1680 1734 1690 1532 1869 2057 2006 2200 2162 1916 1797 1614 1435 1262 1397
0 0 0 0 0 0 0 0 0 0 0 0 0 0 0 0 0 0 0 0 0 0 0 0 0 0 0 0 0 9 181 267 318 344 375 447 546 861 1194 1136 956 1095 1478 1701 1925 1680 1311 1588 1963 1997 1772 1633 1712 1874 1923 1756 2199 2548 1860 1745 1604 1440 1409
0 0 0 0 0 0 0 0 0 0 0 0 0 0 0 0 0 0 0 0 0 0 0 0 0 0 0 0 0 0 0 0 41 74 151 282 295 860 996 1536 1253 950 879 944 992 1218 1632 1708 1802 1997 2256 2035 1899 1899 1853 1766 1518 3124 1793 1723 1655 1548 1406
0 0 0 0 0 0 0 0 0 0 0 0 0 0 0 0 0 0 0 0 0 0 0 0 0 0 0 0 0 0 0 0 0 0 0 4 99 416 849 1154 1326 1196 1047 684 1168 1404 1483 1698 1974 2128 2132 2142 2222 1983 1997 2018 1625 1964 1771 1669 1637 1502 1401
0 0 0 0 0 0 0 0 0 0 0 0 0 0 0 0 0 0 0 0 0 0 0 0 0 0 0 0 0 0 0 0 0 0 0 0 20 82 235 497 410 1007 1016 774 1145 1445 1638 1687 1953 2146 2292 2296 2344 1978 2076 2623 2634 2213 1828 1555 1559 1598 1615
0 0 0 0 0 0 0 0 0 0 0 0 0 0 0 0 0 0 0 0 0 0 0 0 0 0 0 0 0 0 0 0 0 0 0 0 0 1 45 122 230 676 1189 1139 1327 1388 1525 1741 1765 1823 1984 2322 2360 1684 1838 1980 2463 2400 2602 2082 1763 1760 1761
0 0 0 0 0 0 0 0 0 0 0 0 0 0 0 0 0 0 0 0 0 0 0 0 0 0 0 0 0 0 0 0 0 0 0 0 0 0 11 57 92 277 804 1230 1282 1178 1141 1237 1705 1920 1902 2061 2504 2047 1935 1417 2680 2417 2920 2388 2273 2015 2132
0 0 0 0 0 0 0 0 0 0 0 0 0 0 0 0 0 0 0 0 0 0 0 0 0 0 0 0 0 0 0 0 0 0 0 0 0 7 27 29 44 109 177 376 808 1002 1154 1337 1482 1637 1763 2129 2628 1379 1473 1639 1453 1786 2374 3104 2591 2546 2451
0 0 0 0 0 0 0 0 0 0 0 0 0 0 0 0 0 0 0 0 0 0 0 0 0 0 0 0 0 0 0 0 0 0 0 0 0 0 0 2 26 131 312 463 708 764 811 904 1258 1697 1930 3042 1777 1693 1650 1628 1765 1928 2166 3289 3263 2296 2189
0 0 0 0 0 0 0 0 2 0 0 0 0 0 0 0 0 0 0 0 0 0 0 0 0 0 0 0 0 0 0 0 0 0 0 0 0 0 0 0 12 67 202 465 659 888 1040 1199 1278 1854 2186 2581 1955 1481 1682 1674 1676 1659 1791 2954 3403 2684 2185
0 0 0 0 0 0 0 0 0 2 0 0 0 0 0 0 0 0 0 0 0 0 0 0 0 0 0 0 0 0 0 0 0 0 0 0 0 0 0 2 23 25 43 69 71 169 348 412 491 684 1119 1666 1637 1622 1703 1598 1700 2127 1799 1896 1927 2115 2206
0 0 0 0 0 0 0 0 0 0 2 4 0 0 0 0 0 0 0 0 0 0 0 0 0 0 0 0 0 0 0 0 0 0 0 0 0 0 0 0 0 47 0 0 6 0 0 0 24 180 228 435 576 814 1000 1340 1937 1761 1805 1761 1833 1879 2082
0 0 0 0 0 0 0 0 0 0 0 0 0 0 0 0 0 0 0 0 0 0 0 0 0 0 0 0 0 0 0 0 0 0 0 0 0 0 0 0 0 0 0 0 0 0 0 0 0 0 0 0 150 298 277 516 929 1304 1562 1710 1710 1768 1940
0 0 0 0 0 0 0 0 0 0 0 0 0 0 0 0 0 0 0 0 0 0 0 0 0 0 0 0 0 0 0 0 0 0 0 0 0 0 1 0 0 0 20 0 0 0 0 0 0 0 16 135 220 242 228 226 244 381 555 938 1589 1744 1832

ECMWFFLT1_con_mucape_078.txt.gz
CAPE
1023 1384 1455 1447 2152 2214 2127 2058 1800 1571 1458 1017 1176 1127 936 1145 1820 2555 2359 2894 2775 2875 2738 2936 3079 3013 2875 2481 2670 2798 2608 2577 2605 2500 2589 3085 2767 2645 2362 1873 1887 2608 2119 2245 2353 2733 3292 3208 3108 3131 3314 3293 3346 3830 3993 3943 3823 3896 3729 4134 3805 4256 3742
1227 1149 1624 1979 1941 1958 1814 1836 2064 2332 2060 2532 1652 1526 1148 1059 2080 1906 2937 3202 3152 3178 2984 3022 3284 3206 2932 2714 2594 3032 2823 2708 2747 2656 2361 3017 3466 3408 2485 2364 2327 2594 3134 2167 2752 2621 2973 2700 2826 2998 3221 3344 2950 3796 3570 3904 4002 3634 3819 4045 4080 4552 4312
1089 1190 1121 1359 1852 1391 1673 1950 1880 1798 1994 1792 1899 1823 1310 1788 1282 1694 2676 3119 3324 3442 2606 2936 3318 3161 2899 2961 2844 2895 2641 2543 2623 2245 2180 2027 2260 1854 2002 2350 2171 2135 1836 1838 2652 2470 2392 2420 2994 3116 3104 2953 2451 3539 3605 3691 3956 3665 3727 4216 4154 3524 4452
901 706 1009 1226 1319 1609 1442 1681 1925 1788 1768 1752 1658 1583 1894 996 828 1044 1634 1930 2210 2550 2219 2395 2957 2734 2838 3082 2931 2964 2816 2720 2481 1943 1744 1722 1956 1910 2094 2327 2317 1844 2117 1790 1230 1424 1333 2342 2690 3086 3140 3296 3136 2788 2793 3054 2970 3481 3665 4520 4383 3744 4053
358 875 578 599 1018 1292 1641 1761 2134 2584 2234 2153 2130 1818 1463 1092 1245 1038 1619 2074 1624 2705 2766 2613 2992 2738 3008 3134 2455 2416 2596 2460 2373 2073 1915 1628 1937 2003 1862 1440 1800 1738 1777 1464 1873 2481 2751 2670 2252 2720 2964 3320 2849 3208 3142 3096 2942 3526 3520 3857 4127 3643 3540
345 469 670 774 1062 978 1605 1678 1726 2411 2511 2001 2137 1970 1619 1137 921 1367 1922 2118 2133 2064 3052 3063 3251 2683 2369 2725 2008 1931 2669 3008 2872 2656 2278 2008 1868 1530 1472 1621 1746 1790 1414 1652 1533 1466 2124 2317 2091 2208 2254 2154 1973 2109 2232 2549 2336 2750 3499 3522 3485 3078 2698
274 243 406 444 478 844 954 1414 1840 1377 2173 2498 1835 1570 1208 1026 1456 1442 1775 2151 2177 2379 2848 2746 2793 2838 3026 3031 3495 3495 2706 2270 2295 2257 1925 1478 1363 1525 1531 1546 1673 1356 1206 1610 1515 1428 1450 1961 2184 2447 2357 2209 2318 2044 2298 2860 2772 2507 3178 3435 3784 3647 3622
224 195 309 398 442 449 607 836 1285 1376 1320 1891 2052 1623 1257 1588 2138 1817 1426 1413 1379 1970 2151 2498 2738 2584 2450 3494 3130 3198 2178 1602 1542 1744 2109 1353 929 1227 1430 1438 1435 1857 1685 1231 1680 1666 950 1763 1556 1998 2244 1930 2282 2185 2194 3024 3242 2162 2361 3183 3520 3261 2521
287 244 156 213 382 402 574 674 687 868 957 1096 1274 1454 1536 1788 2029 1981 2273 2124 2202 2278 2400 2271 1836 2066 2591 2779 2923 2671 2560 1985 1851 1618 2028 1350 1133 780 849 1119 1147 1500 1574 884 952 1490 1495 1772 1506 2058 2486 2212 2414 2767 2302 3219 2743 2416 2519 2727 3284 3154 2524
358 223 170 162 174 217 472 532 550 549 588 773 967 1320 1544 1780 2137 1895 2051 1973 1682 1921 2318 2293 2198 1908 1843 1967 2037 2239 2038 2016 2077 1784 2221 1123 836 849 737 748 835 1279 1217 828 819 982 1518 1700 1728 2334 2656 2504 2784 3022 2516 3134 2537 2414 2306 2984 3097 2936 3135
214 256 236 220 196 274 346 402 519 694 677 738 916 980 1059 1200 1396 1465 2137 2022 1664 1885 1828 1591 1638 1745 1814 1625 1854 2178 3289 2008 2620 2655 2732 2609 1325 619 574 609 696 900 991 932 821 846 1134 1635 2106 2607 2858 2058 2337 2689 2717 2535 2633 2863 2293 2081 2110 2661 2490
187 272 346 367 344 277 183 421 543 753 762 818 893 926 904 946 846 1010 1548 1808 1603 1589 1756 1678 1137 1648 1346 1300 1254 1487 1710 1907 2001 1726 2126 2915 2383 1622 526 546 390 514 903 970 985 963 890 1485 1425 1759 2961 2430 2234 2394 2672 2666 2593 2871 2705 2070 1942 2174 2281
221 323 372 410 380 432 419 521 657 775 799 823 912 870 914 928 947 911 972 927 1246 1524 1130 1697 1428 1615 1487 1402 1416 1542 1729 2062 1733 1488 1778 2508 2081 1804 1135 519 362 277 440 707 882 804 558 868 1480 1597 1941 2655 2427 2172 2472 2704 2584 2902 3080 2702 2347 2243 2255
138 213 386 428 498 429 466 498 608 637 725 764 772 870 876 860 893 912 1006 961 897 858 767 682 691 845 1496 1360 1470 1228 1712 1382 1160 1376 1217 2105 2812 2629 1812 1202 860 476 492 811 802 619 496 241 1045 1630 1406 1924 2033 2234 2558 2890 2692 3057 3380 2966 2552 2364 2280
36 154 173 322 392 578 548 541 569 644 682 707 707 676 773 802 872 769 817 864 828 843 765 744 668 808 889 1138 1009 1152 1611 1588 1447 2062 2260 2250 2636 2925 2540 2443 2566 2292 1463 1214 750 530 480 380 175 785 1144 1183 1558 1862 1978 1949 2146 2209 2648 2864 3041 2731 2199
0 78 264 299 429 562 720 651 630 649 696 698 691 773 796 784 781 715 629 788 830 826 783 761 789 734 910 910 1286 1258 1018 1103 861 1240 1490 1676 2041 2306 2514 2506 2245 1766 1701 1955 1111 1165 1090 826 687 305 943 1269 1555 1703 1460 1461 1586 1887 1571 1985 2445 2676 2098
0 38 192 328 331 592 516 691 720 735 734 734 723 766 779 801 782 769 795 519 403 493 636 675 703 698 710 700 888 1476 1207 1051 980 1221 1640 2093 2081 1790 2596 2421 2309 2415 1934 1943 2562 2088 1912 1602 776 362 179 589 963 1248 1022 1139 1060 997 1410 1577 1918 2478 2724
0 137 209 223 228 197 353 466 466 586 741 711 752 781 780 798 807 805 744 711 685 534 419 436 462 419 498 583 646 724 752 839 937 1417 1415 1262 1459 1406 1765 2136 1978 2013 1638 1334 1599 1549 1440 1623 1651 1533 1207 419 346 622 873 988 822 133 449 1264 1620 1907 2433
20 147 198 183 231 215 231 331 428 408 502 651 795 808 782 733 773 820 814 792 775 667 618 546 503 489 521 519 503 603 734 1161 930 867 1025 1182 1843 1792 1820 1932 1944 1902 1884 2050 1842 1738 2262 1802 1189 1265 1796 1456 1471 909 395 731 499 8 0 0 1192 1555 1752
0 0 0 82 124 189 202 354 422 316 383 381 428 503 545 589 584 577 621 617 710 735 584 662 677 644 626 588 547 576 693 692 930 961 1017 1010 1290 1379 1664 1519 1364 2050 2367 2263 2331 2296 2157 1890 2118 1891 1605 1534 1828 2110 1910 1340 419 0 0 0 344 1108 1367
0 0 0 0 0 30 85 121 215 325 428 364 295 380 403 380 360 433 482 497 546 563 556 515 767 825 755 676 636 616 592 617 712 810 1043 1205 1131 1028 1156 1254 1309 1724 2104 2181 2528 2552 2358 2126 2184 2261 2132 1760 1535 1650 1843 1516 1314 1040 160 0 0 137 920
0 0 0 0 0 0 0 0 0 132 157 199 247 293 345 362 357 412 422 429 400 404 418 457 476 608 691 769 720 670 594 591 642 643 726 899 948 892 1150 1340 1341 1526 1954 2563 2720 2585 2377 2273 2083 1928 1681 1638 1571 1718 2005 1966 1481 1341 1211 1004 526 0 23
0 0 0 0 0 0 0 0 0 0 0 60 114 128 160 179 196 229 275 319 312 356 412 425 435 415 430 488 589 669 658 612 527 558 702 702 749 855 866 1346 1534 1574 2057 1996 2260 2012 2151 2341 2085 1917 1857 1580 1562 1551 1747 2108 2058 1673 1593 1394 1132 950 781
0 0 0 0 0 0 0 0 0 0 0 0 0 12 71 88 103 129 148 164 172 191 213 288 326 389 442 435 384 371 386 554 539 600 698 629 574 573 633 1233 1537 1688 1984 1914 1942 2091 2026 2142 2275 2207 2084 1773 1561 1432 1673 1897 2280 2124 1852 1618 1489 1242 1099
0 0 0 0 0 0 0 0 0 0 0 0 0 0 0 0 0 46 82 87 90 88 101 104 110 132 136 174 166 91 90 194 221 311 539 665 641 551 579 906 1011 1080 1361 1500 1249 1553 2013 1988 1907 1664 1674 1835 1876 1641 1753 1837 2005 2138 1990 1769 1725 1631 1375
0 0 0 0 0 0 0 0 0 0 0 0 0 0 0 0 0 0 0 0 0 0 28 34 0 0 0 0 0 0 0 0 125 210 250 366 570 572 522 590 713 747 780 961 1099 1176 1238 1336 1388 1586 1665 1655 1634 1651 1739 1543 1900 2388 2408 2132 1844 1814 1815
0 0 0 0 0 0 0 0 0 0 0 0 0 0 0 0 0 0 0 0 0 0 0 0 0 0 0 0 0 0 0 0 0 0 0 14 152 225 172 334 674 759 1077 930 991 1027 1089 1094 1068 1272 1422 1552 1697 1836 2052 1843 1608 1314 1444 1723 1855 1816 1686
0 0 0 0 0 0 0 0 0 0 0 0 0 0 0 0 0 0 0 0 0 0 0 0 0 0 0 0 0 0 0 0 0 0 0 2 10 129 735 611 490 691 716 620 709 731 830 883 883 862 1071 1529 1521 1667 2234 1735 1407 1093 1089 1308 1585 1677 1950
0 0 0 0 0 0 0 0 0 0 0 0 0 0 0 0 0 0 0 0 0 0 0 0 0 0 0 0 0 0 0 0 0 0 0 0 14 22 17 160 235 272 962 1207 1125 944 916 1070 1245 1075 903 1152 1615 1828 1838 1690 1885 1714 1421 1300 1497 1838 1848
0 0 0 0 0 0 0 0 0 0 0 0 0 0 0 0 0 0 0 0 0 0 0 0 0 0 0 0 0 0 0 0 0 0 0 0 0 0 2 16 47 231 609 849 955 1295 1431 1550 1482 1537 1383 1167 1026 1276 2659 1515 1506 1632 1497 1182 1259 1422 1665
0 0 0 0 0 0 0 0 0 0 0 0 0 0 0 0 0 0 0 0 0 0 0 0 0 0 0 0 0 0 0 0 0 0 0 0 0 0 0 0 0 29 247 511 385 683 1331 1428 1292 1229 1203 1274 1348 1588 3336 2084 1605 1474 1453 1521 1272 1274 1598
0 0 0 0 0 0 0 0 0 0 0 0 0 0 0 0 0 0 0 0 0 0 0 0 0 0 0 0 0 0 0 0 0 0 0 0 0 0 0 0 16 91 184 224 346 516 641 1010 1235 1256 1272 1312 1716 2549 3158 2962 2230 1914 1724 1632 1573 1770 2087
0 0 0 0 0 0 0 0 0 0 0 0 0 0 0 0 0 0 0 0 0 0 0 0 0 0 0 1 0 0 0 0 0 0 0 0 0 0 0 1 1 0 36 84 145 330 618 603 859 1027 1040 1889 1875 2058 2426 2548 2137 1748 1682 1556 1953 2151 1812
0 0 0 0 0 0 0 0 0 0 0 0 0 0 0 0 0 0 0 0 0 0 0 0 0 0 0 0 0 0 0 0 0 0 0 0 0 0 0 0 0 0 0 34 91 422 617 371 269 584 794 936 1244 1412 1664 1736 1834 1817 1601 1632 1648 2405 2529
0 0 0 0 0 0 0 0 0 0 0 0 0 0 0 0 0 0 0 0 0 0 0 0 0 0 0 0 0 0 0 0 0 0 0 0 0 0 0 0 0 0 0 0 30 34 0 0 0 11 14 8 91 423 321 281 341 1578 1421 1744 1696 1710 1884
0 0 0 0 0 0 0 0 0 0 0 0 0 0 0 0 0 0 0 0 0 0 0 0 0 0 0 0 0 0 0 0 0 0 0 0 0 0 0 0 0 0 0 0 0 0 0 0 0 0 0 0 0 1 33 17 47 146 314 605 1272 1705 1684
0 0 0 0 0 0 0 0 0 0 0 0 0 0 0 0 0 0 0 0 0 0 0 0 0 0 0 0 0 0 0 0 0 0 0 0 0 0 0 0 0 0 0 0 0 0 0 0 0 0 0 0 0 0 0 0 0 0 0 175 341 672 1184
0 0 0 0 0 0 0 0 0 0 0 0 0 0 0 0 0 0 0 0 0 0 0 0 0 0 0 0 0 0 0 0 0 1 2 4 3 1 0 1 0 0 0 0 0 0 0 0 0 0 0 0 0 0 0 0 0 0 0 0 13 121 313

ECMWFFLT1_con_mucape_081.txt.gz
CAPE
1365 1686 1662 1522 1545 2432 2392 2337 1715 1004 1494 1479 852 366 659 978 873 1003 1359 1281 1739 1582 1702 2282 1943 1989 2047 1949 2159 2031 1922 1852 2561 2164 2861 2525 2401 2195 2396 2454 2436 2448 2565 2778 2367 2692 2577 2387 2249 2662 2828 3037 2386 2859 2830 3229 3010 3892 4085 3419 2899 3031 3140
1841 1658 1706 1768 1707 2123 2153 1946 2324 1472 944 1041 1147 646 584 947 945 1297 1860 1298 1794 1620 1886 2310 2083 2107 2164 1972 2147 2092 2156 1951 2275 2568 2674 2508 2949 2216 2319 2335 2250 2214 2210 2297 2360 2606 2751 2536 3004 2618 2716 3070 3038 3067 2943 3082 3031 3577 3813 3389 2586 3303 3820
1588 1696 1606 1635 1938 2003 1876 1569 1777 2080 1217 1150 1048 1008 1012 973 1036 1416 2079 1815 1939 1824 1974 2244 2473 2247 2300 2183 2126 2209 2280 2058 2197 2316 2203 2411 2663 2970 2146 2115 1928 2017 2256 2054 2015 2528 2616 2709 2577 2677 2963 2538 3164 3289 3288 3367 3528 3459 3452 3444 3281 4014 3976
1444 1439 1769 1948 1848 1747 1864 1786 1826 1656 1726 1600 1387 1081 1018 1096 1214 1563 2009 2308 2363 2428 2171 2333 2681 2527 2386 2339 2089 2315 2260 2283 2208 2120 2034 2072 2276 2438 2264 1929 1998 2024 1723 1970 2580 1963 2635 2303 2120 2807 3710 2395 2512 3077 3223 3305 3454 3379 3576 3593 3544 3186 3760
1123 1382 1633 1720 1615 1421 1516 1678 2171 1596 1088 1289 1368 1146 1007 1243 1399 1660 1997 2140 2343 2409 2081 2259 2767 2894 2565 2420 2223 2310 2315 2235 2267 2119 1916 1806 1902 2018 1895 1794 2090 1950 1608 1438 1687 1883 1930 2096 2042 2956 2955 2415 2670 2925 2947 2939 3086 3164 3376 3582 3426 3305 3121
936 1057 1143 1007 949 1154 1334 1866 1289 1386 1398 1168 1534 1360 1010 1012 1332 1571 1869 1953 2094 2312 2038 2101 2325 2552 2601 2746 2401 2302 2357 2157 2132 2080 1870 1672 1702 1867 1891 1815 1579 1793 1682 1501 1439 1393 2572 1902 2119 2596 2481 2558 2583 2553 2667 2730 2840 2908 3055 3639 3381 3186 2996
620 749 812 777 782 1063 1246 1240 1160 1508 1508 1562 1367 1793 1313 1084 1228 1595 1905 1820 2143 2310 2190 2048 2092 2240 2320 2430 2367 2266 2766 2243 2097 2111 2028 1598 1726 1784 1781 1790 1574 1530 1498 1619 1277 1308 2275 1863 2118 2217 2314 2464 2517 2351 2197 2351 2468 2730 2671 3298 3280 3033 2958
566 522 635 688 694 716 857 985 1260 1357 1505 1523 1618 1557 1338 1303 1682 1851 2254 1719 1670 1898 2112 2060 2218 2454 2301 2074 2088 2174 2481 2522 2432 2301 2183 2025 1860 1712 1663 1599 1575 1622 1326 1603 1309 1268 1479 2036 2077 1930 2100 2027 1963 1960 2053 2150 1982 2317 2493 2828 2760 2842 3022
535 497 487 385 405 523 630 830 1075 1318 1353 1300 1288 1379 1360 1426 1871 2007 1807 1988 1842 1793 2358 2505 2479 2386 2394 2189 2164 2212 2657 2393 2373 2260 2150 1974 1886 1702 1226 1344 1282 1370 1438 1484 1346 1151 1351 1237 1497 2091 1891 1922 1914 1841 1840 2157 2254 2024 2359 2575 2533 2721 2597
352 359 335 316 431 412 466 676 884 1018 1255 1295 1192 1288 1871 2085 2191 2124 2115 2150 2240 2613 2270 2286 2462 2424 2327 2097 2107 2104 2530 2568 2475 2179 2168 2030 1854 1748 1265 985 1213 1244 1549 1438 1368 1065 1336 1290 1172 1322 2107 1871 1929 1875 1754 2324 2227 2189 1992 2424 2513 2482 2445
292 340 352 416 486 574 546 563 653 881 1110 1254 1306 1242 1530 1627 1948 2099 1891 1936 2070 2011 2132 1823 1964 2117 2272 2171 2011 2102 2104 2024 2046 2064 1668 1380 1470 1102 1174 827 549 1183 1102 1452 1174 958 1037 1555 1247 986 1608 1990 2011 2569 2018 2506 2247 1985 1863 2188 2454 2451 2341
420 308 300 366 466 510 557 617 653 726 881 1021 1270 1237 1316 1415 1384 1462 1492 1392 1726 1597 1574 1450 1296 1463 1624 1694 1726 1868 1664 1788 1500 1650 1615 1432 1511 1446 1093 682 442 703 730 1090 1041 1000 848 1060 1573 1539 1646 1624 1651 1936 2374 2233 2468 2023 1798 1692 1958 2410 2371
410 390 283 268 355 427 449 576 644 665 722 780 872 942 1140 1169 1237 1266 1176 1157 1078 1014 905 1762 1272 1396 974 1064 1324 1472 1506 1490 1730 1948 1925 1769 1654 1362 1315 1076 962 752 874 708 982 919 872 748 1145 1898 1939 1697 1521 1552 1973 2148 1996 2272 2249 1882 1694 1542 1906
378 327 298 267 244 245 271 316 544 658 844 711 722 801 976 1084 1183 1137 1055 1018 945 890 815 616 478 912 1299 1283 1408 1474 1195 1302 1691 1474 1606 1847 1752 1502 1365 1168 906 1141 1522 1674 816 876 819 937 749 1145 2090 1989 1670 1525 1677 1918 1922 1893 2273 2242 1982 1908 1842
196 222 248 207 283 268 245 262 424 596 583 741 863 896 937 998 1059 996 945 817 806 767 728 505 702 816 947 987 693 985 1081 1174 1226 1194 1344 1355 1334 1326 1188 1056 1233 1622 1856 1835 1578 817 769 625 991 992 1099 1941 1855 1710 1735 1861 1876 1854 2067 2334 2108 1900 1936
220 223 297 348 391 337 429 470 559 609 616 579 730 810 904 965 988 976 870 834 734 680 637 525 560 542 597 706 774 768 729 862 1098 1536 1392 1310 1267 1236 1286 1246 1816 2230 2090 2002 1813 1238 1372 1420 621 925 974 1090 1690 1748 1729 1824 1946 2064 1887 2086 2320 2079 1794
136 197 243 256 319 332 366 470 577 654 644 607 617 619 662 735 916 892 902 881 802 684 676 416 322 469 636 698 801 747 691 994 1272 1257 1172 1325 1726 1602 1955 2490 2343 2138 2065 1724 1417 1368 1467 1451 1234 1238 714 931 1022 1416 1533 1495 1619 1911 1914 1878 2109 2232 2124
122 190 215 276 276 288 380 422 478 624 574 583 622 709 711 505 533 701 762 764 701 628 593 475 488 538 646 723 804 824 743 741 813 838 1112 1329 1418 1376 1261 1669 1670 1614 1666 1612 1473 1497 1588 1400 1440 1381 1381 1162 939 906 1113 1265 1322 1410 1652 1810 1869 2045 2141
143 255 288 351 381 359 358 439 492 610 675 626 548 560 536 652 678 692 690 523 579 563 544 607 625 625 702 708 692 727 767 773 800 835 856 908 1203 1373 1520 1566 1728 1792 1776 2219 2392 2012 1830 1762 1655 1507 1488 1371 1284 1434 1556 1086 1089 1182 1187 1312 1563 1773 1868
117 237 267 275 300 379 414 413 470 590 549 569 583 591 599 574 675 736 703 627 588 576 504 486 473 485 544 601 608 579 596 650 714 863 820 833 857 996 1179 1338 1463 1510 1976 2136 2101 2107 2138 2117 1920 1699 1520 1504 1430 1330 1342 1327 1470 1387 1097 1022 1148 1330 1516
135 229 269 261 246 226 275 309 366 390 411 512 582 603 491 582 457 486 595 580 594 595 617 656 638 581 517 447 429 433 428 454 510 531 784 701 762 831 994 1090 1090 1258 1440 1954 2428 2410 2285 2087 1988 1940 1818 1622 1475 1362 1292 1223 1199 1314 1460 1484 1214 915 1010
168 210 234 188 198 232 260 280 311 322 358 382 435 418 444 453 404 453 473 482 444 461 512 546 579 593 588 489 495 502 538 540 530 475 458 560 688 783 921 938 1165 1276 1524 1865 1962 2192 2224 2206 2094 1920 1764 1632 1530 1450 1391 1346 1250 1174 1184 1326 1604 1749 1467
77 125 148 151 165 206 232 268 315 328 322 313 287 330 365 358 363 354 352 342 346 361 363 350 330 360 369 400 398 396 366 390 464 532 517 630 691 777 922 981 1303 1486 1711 1486 1562 1704 1778 1894 1989 1945 2018 1949 1786 1713 1580 1461 1391 1365 1282 1274 1350 1604 1866
0 0 0 113 135 161 176 188 221 283 302 284 257 273 281 277 286 250 259 290 304 308 273 191 250 248 291 314 354 370 355 364 378 383 446 618 597 644 761 925 990 961 931 1092 1393 1290 1296 1400 1744 1884 1935 2077 2027 1961 1928 1825 1737 1623 1456 1339 1471 1600 1762
0 0 0 9 0 0 42 46 100 169 259 188 211 163 209 244 218 213 231 238 250 250 228 192 221 222 232 233 232 246 240 250 202 0 44 375 517 537 661 778 862 921 908 879 774 817 1004 1212 1260 1298 1476 1562 1636 1611 1939 1891 1759 1839 1781 1615 1585 1687 1786
0 0 0 0 0 0 0 0 0 0 83 59 54 154 198 198 193 167 136 176 171 186 192 159 135 123 128 125 113 100 85 5 4 14 23 0 242 348 543 698 752 721 708 723 739 777 806 880 996 1086 1166 1162 1205 1635 1657 1682 1646 1653 1662 1645 1591 1512 1591
0 0 0 0 0 0 0 0 0 0 0 0 0 0 0 0 44 54 51 56 68 96 95 48 29 0 0 0 0 0 0 0 0 0 0 0 0 43 220 387 540 528 508 549 594 650 731 745 862 950 984 1002 1011 1025 1384 1393 1468 1573 1668 1636 1522 1354 1237
0 0 0 0 0 0 0 0 0 0 0 0 0 0 0 0 0 0 0 0 0 0 0 0 0 0 0 0 0 0 0 0 0 0 0 0 0 0 0 48 181 250 408 473 550 651 704 737 700 761 787 835 850 815 1101 1364 1306 1372 1423 1469 1519 1556 1430
0 0 0 0 0 0 0 0 0 0 0 0 0 0 0 0 0 0 0 0 0 0 0 0 0 0 0 0 0 0 0 0 0 0 0 0 0 0 0 0 0 74 348 494 525 460 597 697 713 675 655 876 1037 1029 1176 1452 1512 1572 1567 1500 1460 1416 1498
0 0 0 0 0 0 0 0 0 0 0 0 0 0 0 0 0 0 0 0 0 0 0 0 0 0 0 0 0 0 0 0 0 0 0 0 0 0 0 0 0 0 8 85 184 238 367 546 801 992 1123 1204 1166 1060 1304 1756 1549 1552 1604 1586 1589 1507 1312
0 0 0 0 0 0 0 0 0 0 0 0 0 0 0 0 0 0 0 0 0 0 0 0 0 0 0 0 0 0 0 0 0 0 0 0 0 0 0 0 0 0 0 0 0 39 243 281 415 705 959 1080 1035 1037 1374 2333 1997 1889 1858 1797 1588 1555 1605
0 0 0 0 0 0 0 0 0 0 0 0 0 0 0 0 0 0 0 0 0 0 0 0 0 1 1 0 0 0 0 0 0 0 0 0 0 0 0 0 0 0 0 0 1 1 4 15 53 285 403 843 1370 1837 1531 1845 2113 2036 1878 1703 1480 1278 1390
0 0 0 0 0 0 0 0 0 0 0 0 0 0 0 0 0 0 0 0 0 0 0 0 3 1 1 0 0 0 0 0 0 0 0 0 0 0 0 0 0 0 0 0 0 0 0 61 592 536 504 648 746 868 959 800 1322 1682 1677 1676 1521 1372 1383
0 0 0 0 0 0 0 0 0 0 0 0 0 0 0 0 0 0 0 0 0 0 0 0 0 0 0 0 0 0 0 0 0 0 0 0 0 0 0 0 0 0 0 0 0 0 0 0 0 0 194 414 438 437 408 352 87 83 152 987 968 1088 1140
0 0 0 0 0 0 0 0 0 0 0 0 0 0 0 0 0 0 0 0 0 0 0 2 2 0 0 0 0 0 0 0 0 0 0 0 0 0 0 0 0 0 0 0 0 0 0 0 0 0 0 0 115 120 0 0 0 0 24 46 17 0 0
0 0 0 0 0 0 0 0 0 0 0 0 0 0 0 0 0 0 0 0 0 0 0 0 0 0 0 0 0 0 0 0 0 0 0 0 0 0 0 0 0 0 0 0 0 0 0 0 0 0 0 0 0 0 0 0 0 0 0 0 0 0 0
0 0 0 0 0 0 0 0 0 0 0 0 0 0 0 0 0 0 0 0 0 0 0 0 0 1 0 0 0 0 0 0 0 0 0 0 0 0 0 0 0 0 0 0 0 0 0 0 0 0 0 0 0 0 0 0 0 0 0 0 0 0 0
0 0 0 0 0 0 0 0 0 0 0 0 0 0 0 0 0 0 0 0 0 0 0 0 0 0 0 0 0 0 0 0 0 0 0 0 0 0 0 0 0 0 0 0 0 0 0 0 0 0 0 0 0 0 0 0 0 0 0 0 0 0 0

ECMWFFLT1_con_mucape_084.txt.gz
CAPE
1714 1706 1772 1696 1564 1304 506 12 80 101 62 6 55 134 152 127 521 542 482 705 627 886 1110 976 891 1278 1439 1227 1312 1367 1098 1250 1896 1634 1563 1302 966 1504 1442 2034 1922 1872 2053 2381 2085 2130 2428 2497 2694 2899 2808 2760 2754 2667 2392 2818 2958 3241 3180 2805 2864 2982 3279
1299 1445 1705 1747 1608 1824 1591 1319 938 37 127 190 158 185 316 405 598 585 517 743 686 743 1294 1172 829 1237 1412 1423 1329 1485 1317 1148 1728 2138 1658 1608 1936 1632 1503 1920 2059 1898 2025 2061 2375 2269 2342 2429 2456 2631 2682 2884 2763 2714 2449 2606 2592 2856 3773 3006 2354 2632 2846
973 1138 1412 1426 1284 1254 911 1086 624 540 722 479 220 180 370 537 760 710 548 753 816 723 1214 1449 1013 1123 1423 1494 1506 1548 1531 1306 1524 2107 2169 1786 2161 1711 1812 1714 2014 2074 2031 2179 2016 2346 2443 2422 2364 2414 2514 2764 2673 2538 2309 2345 2543 2633 3390 3288 2553 2572 3189
1078 1147 1224 1048 1083 898 986 982 1059 883 851 651 692 253 227 547 779 901 732 750 997 830 1041 1612 1348 1225 1423 1534 1638 1701 1676 1531 1486 1882 2169 2024 2254 1974 1855 1858 1776 1977 2074 2142 2180 2212 2511 2444 2342 2388 3123 2575 2743 2616 2494 2434 2762 2980 3230 3365 2813 2741 3316
1125 1148 1163 1224 1075 917 1097 1006 1017 857 686 839 642 881 353 305 702 1092 1080 907 1166 1082 1057 1621 1652 1505 1554 1553 1615 1763 1781 1682 1579 1741 1922 2056 2072 2372 1945 1895 1811 1792 1914 1954 1930 1920 2419 2413 2351 2455 2746 2398 2674 2855 2818 2638 2838 3151 3235 3257 3081 2864 2979
1136 1244 1296 1413 1312 1312 1445 1365 1153 973 867 905 775 933 839 727 708 1170 1498 1359 1433 1431 1304 1730 1855 1869 1725 1766 1698 1814 1931 1899 1769 1745 1758 1835 1950 2074 2281 2039 1787 1793 1767 1747 1878 1911 2032 2333 2269 2295 2636 2493 2277 2766 2922 2836 2892 3067 3096 3303 3231 3149 2991
820 990 1180 1346 1178 1290 1350 1536 1264 1127 938 878 970 1231 1045 1006 1123 1482 1880 1749 1816 1760 1603 1911 2192 2190 1973 2100 2006 2046 2067 2032 1996 1923 1780 1701 1720 1788 1893 2055 1968 1865 1587 1640 1573 1674 1825 2076 2126 2022 2313 2472 2305 2469 2754 2774 2826 2847 2861 3125 3213 3090 3011
753 721 787 835 1062 1159 1215 1216 1234 1155 1280 1272 1464 1226 970 1176 1087 1241 1644 1766 1750 1926 1661 1844 2025 2133 1877 1870 2024 1978 1989 1884 1888 1896 2033 1836 1663 1627 1636 1654 1644 1838 1692 1674 1634 1414 1580 1726 1927 1888 2232 2356 2293 2343 2472 2569 2558 2584 2644 2760 2990 3045 2942
654 724 753 728 849 967 1168 1262 1431 1401 1268 1312 1321 1121 1219 1436 965 1064 1260 1694 1697 1724 1688 1624 1641 1831 1669 1776 1949 1559 1501 1604 1553 1461 1636 1835 1806 1558 1558 1627 1634 1686 1647 1546 1459 1312 1141 1605 1744 1826 2083 2271 2285 2210 2311 2399 2417 2425 2507 2540 2696 2725 2757
569 649 789 881 880 819 838 1162 1451 1483 1320 1210 1131 1082 1054 1554 1319 1152 1074 1143 1506 1438 1486 1497 1341 1498 1476 1686 1958 1909 1664 1385 1525 1441 1547 1590 1722 1687 1572 1582 1621 1608 1588 1545 1373 1366 1325 1229 1628 1788 1869 1949 1978 1989 2042 2141 2140 2094 2255 2375 2432 2505 2442
474 536 652 737 755 716 726 994 1242 1409 1424 1309 1164 1360 1106 1075 1025 962 1185 868 920 1028 1008 1454 1708 1652 1782 1679 1715 1543 1570 1425 1300 1384 1430 1427 1576 1608 1514 1429 1412 1479 1455 1356 1405 1350 1341 1238 1212 1723 1800 1788 1787 1836 1860 1779 1819 1849 1810 1972 2180 2221 2212
487 444 462 515 559 549 567 753 981 1115 1160 1181 1190 1108 1162 1162 1087 996 1103 1275 1461 1408 1363 1506 1741 2009 2018 1885 1813 1877 1827 1854 1716 1382 1322 1416 1370 1402 1467 1391 1162 1010 1101 1090 1160 1293 1304 1293 1151 1232 1622 1713 1700 1695 1697 1669 1640 1790 1834 1787 1905 2069 2085
399 427 426 360 335 467 586 701 811 1007 1034 1012 966 1018 898 1079 1174 1151 1010 1186 1216 1391 1395 1525 1573 1861 2085 2078 1788 1842 1974 1974 1835 1644 1584 1593 1475 1358 1316 1115 1139 981 712 738 1058 1062 1109 1163 1180 1066 957 1338 1584 1622 1685 1712 1666 1719 1776 1790 1792 1944 2035
369 373 408 400 331 380 459 506 682 816 1015 1042 1007 956 972 1071 1000 584 878 1062 1207 1219 1244 1307 1355 1530 1559 1573 1532 1435 1586 1791 1927 1724 1763 1855 1741 1628 1453 1369 1231 1015 709 855 1282 1259 1056 1019 1060 1013 839 955 1111 1396 1594 1767 1802 1825 1813 1724 1655 1688 1938
303 341 362 380 275 285 372 408 508 597 732 760 949 919 853 914 862 708 677 778 764 1141 1020 1009 1051 1085 1113 1204 1139 1084 1076 1127 1327 1502 1557 1618 1879 1888 1774 1677 1523 1277 1366 1545 1481 1400 1156 999 945 949 1063 1042 974 1031 1156 1330 1494 1674 1836 1857 1722 1563 1461
249 353 317 300 267 269 258 323 307 371 504 574 618 758 811 699 699 539 515 557 784 849 752 816 870 927 904 834 887 893 931 1026 1397 1325 1329 1460 1688 1732 1743 1761 1636 1648 1846 1831 1707 1531 1236 1163 914 896 867 1163 1249 1121 1064 1099 1181 1468 1455 1610 1765 1708 1592
258 335 327 317 303 330 281 188 245 310 436 500 570 546 514 500 599 487 447 426 616 791 836 819 860 874 746 840 879 922 1006 1026 1059 1123 1264 1397 1452 1454 1564 1528 1804 2123 2028 1559 1360 1277 1380 1178 938 889 828 750 1172 1386 1262 1175 1189 1277 1314 1345 1469 1647 1649
231 255 278 284 297 306 296 296 272 274 331 388 482 535 541 529 526 559 547 429 440 610 723 733 670 767 789 860 891 893 985 1017 1066 1178 1222 1337 1213 1186 1494 1656 1611 1450 1334 1317 1493 1564 1524 1281 1226 1170 1108 872 830 932 1285 1387 1321 1292 1288 1293 1300 1387 1587
236 248 269 277 232 276 326 325 393 509 430 392 404 421 557 567 572 586 584 523 622 626 655 636 611 598 687 756 853 897 940 904 860 915 1045 1307 1437 1456 1299 1329 1406 1355 1663 2106 2239 1951 1769 1731 1594 1506 1382 1210 1087 1053 1116 1089 1258 1348 1364 1406 1448 1388 1376
174 186 186 232 242 300 351 264 225 374 411 420 418 458 498 462 442 516 537 534 544 525 447 504 567 412 426 578 687 818 895 904 872 776 714 726 1003 1241 1322 1346 1327 1289 1379 1676 2044 2109 2060 1995 1778 1666 1509 1332 1228 1114 1116 1059 1058 1050 1112 1167 1190 1287 1462
30 167 164 251 301 318 368 373 361 295 225 190 246 399 465 340 367 431 420 475 505 534 538 505 486 508 554 515 546 525 669 716 803 813 783 748 800 828 890 1036 1112 1236 1328 1524 1684 1898 2112 1996 1927 1779 1657 1503 1423 1371 1327 1248 1061 1017 1086 1134 1170 1131 1093
155 187 217 252 294 360 373 387 454 462 446 306 275 278 323 372 394 376 368 360 338 381 441 468 458 323 471 489 469 500 546 617 674 684 647 640 681 694 743 828 932 1049 1105 1235 1339 1397 1449 1593 1855 1875 1799 1828 1761 1591 1448 1355 1264 1208 1151 1081 927 1000 1069
11 72 50 111 180 260 224 257 266 292 391 418 348 285 245 237 203 278 318 375 368 389 445 496 471 399 409 448 510 544 578 511 512 525 552 548 562 586 616 672 765 836 890 910 1098 1251 1313 1381 1470 1436 1628 1803 1850 1846 1790 1697 1598 1468 1344 1179 1060 1001 944
0 130 93 142 130 140 152 151 158 167 188 243 288 250 275 244 203 207 248 239 280 345 416 436 420 419 428 423 396 366 388 443 456 464 492 546 596 618 601 563 577 630 791 840 882 948 1065 1128 1200 1251 1200 1335 1568 1668 1638 1612 1631 1651 1642 1559 1395 1244 1190
0 141 203 217 212 226 220 244 153 123 159 183 194 198 188 204 190 162 204 192 183 234 283 302 288 282 269 271 272 266 290 320 346 386 421 424 467 542 587 553 542 569 651 786 890 874 817 812 874 970 1014 1063 1070 1421 1630 1516 1529 1585 1576 1545 1537 1530 1482
0 145 226 246 237 160 161 178 154 176 204 202 210 147 136 129 88 133 172 207 187 182 200 179 149 142 124 95 107 180 253 284 295 266 271 292 323 390 473 531 541 554 553 618 720 795 779 709 710 792 819 894 970 1037 1088 1092 1248 1258 1275 1320 1351 1392 1394
0 145 231 204 181 165 179 200 171 160 152 166 168 122 83 10 150 174 175 150 121 120 141 140 134 121 130 168 171 163 190 222 195 170 133 134 182 217 252 308 394 456 468 529 574 609 656 664 633 682 675 695 788 854 913 941 942 946 939 960 1069 1160 1248
0 0 0 168 161 157 147 159 198 188 182 198 198 152 132 144 82 5 102 134 152 147 100 105 111 124 129 123 20 0 0 0 0 0 0 0 0 0 105 150 202 262 334 461 544 579 572 503 504 478 569 657 685 716 742 773 860 996 1001 870 963 1052 1218
0 0 0 0 46 46 0 38 93 106 96 93 129 136 118 148 155 143 125 126 122 61 118 129 41 33 25 0 0 0 0 0 0 0 0 0 0 0 0 0 0 0 71 243 355 430 441 424 408 455 471 475 509 569 624 657 1025 1192 1164 1244 1390 1485 1519
0 0 0 0 0 0 0 0 0 0 0 0 0 0 0 0 113 154 146 131 7 0 0 0 0 0 0 0 0 0 0 0 0 0 0 0 0 0 0 0 0 0 0 0 0 0 147 211 267 362 388 432 473 515 835 777 1353 1615 1566 1535 1478 1462 1331
0 0 0 0 0 0 0 0 0 0 0 0 0 0 0 0 0 14 83 27 0 0 0 0 0 0 0 0 0 0 0 0 0 0 0 0 0 0 0 0 0 0 0 0 0 0 0 0 0 0 4 110 320 645 1034 1464 1458 1218 1096 1288 1492 1516 1350
0 0 0 0 0 0 0 2 4 0 0 0 0 0 0 0 0 0 0 0 0 0 0 0 0 0 0 0 0 0 0 0 0 0 0 0 0 0 0 0 0 0 0 0 0 0 0 0 0 0 0 0 0 0 342 400 491 596 550 766 1026 1242 1291
0 0 0 0 0 0 0 0 0 2 0 0 0 0 0 0 0 0 0 0 0 0 0 0 0 0 0 0 0 0 0 0 0 0 0 0 0 0 0 0 0 0 0 0 0 0 0 0 0 0 0 0 0 0 0 1 365 468 502 411 380 358 789
0 0 0 0 0 0 0 0 0 0 0 0 0 0 0 0 0 0 0 0 0 0 0 0 0 0 0 0 0 0 0 0 0 0 0 0 0 0 0 0 0 0 0 0 0 0 0 0 0 0 0 0 0 0 0 0 0 379 422 372 0 0 22
0 0 0 0 0 0 0 0 0 0 0 0 0 0 0 0 0 0 0 0 0 0 0 0 0 0 0 0 0 0 0 0 0 0 0 0 0 0 0 0 0 0 0 0 0 0 0 0 0 0 0 0 0 0 0 0 0 0 0 0 0 0 0
0 0 0 0 0 0 0 0 0 0 0 0 0 0 0 0 0 0 0 0 0 0 0 0 0 0 0 0 0 0 0 0 0 0 0 0 0 0 0 0 0 0 0 0 0 0 0 0 0 0 0 0 0 0 0 0 0 0 0 0 0 0 0
0 0 0 0 0 0 0 0 0 0 0 0 0 0 0 0 0 0 0 0 0 0 0 0 0 0 0 0 0 0 0 0 0 0 0 0 0 0 0 0 0 0 0 0 0 0 0 0 0 0 0 0 0 0 0 0 0 0 0 0 0 0 0
0 0 0 0 0 0 0 0 0 0 0 0 0 0 0 0 0 0 0 0 0 0 0 0 0 0 0 0 0 0 0 0 0 0 0 0 0 0 0 0 0 0 0 0 0 0 0 0 0 0 0 0 0 0 0 0 0 0 0 0 0 0 0

ECMWFFLT1_con_mucape_087.txt.gz
CAPE
697 635 623 948 999 301 68 63 0 0 0 0 3 1 12 99 249 282 392 558 522 522 631 770 725 720 767 834 989 954 1105 902 859 1084 962 969 928 1071 1223 1184 1153 1217 1343 1506 1620 1809 2164 2240 2455 2783 2880 2817 2827 2830 2758 2704 2468 2708 2671 2659 2563 2804 2701
734 664 523 740 952 746 230 90 105 113 119 87 130 78 89 80 165 218 307 494 518 470 548 769 742 788 822 825 949 924 967 1291 1231 1534 1211 1013 1184 1008 1226 1486 1410 1340 1416 1591 1642 1694 2000 2288 2392 2644 2874 2900 2828 2553 2600 2619 2478 2559 2922 2846 2337 2511 2723
691 499 699 679 936 952 591 454 151 165 47 171 176 155 163 190 200 211 263 392 505 492 493 696 789 807 871 878 860 1015 861 961 1478 1674 1450 1269 1221 1112 1144 1567 1566 1509 1472 1662 1787 1727 1936 2152 2374 2472 2681 2796 2747 2513 2477 2530 2514 2338 2823 3179 2591 2204 2336
886 925 1029 984 860 996 894 719 639 493 179 170 163 166 187 219 227 232 244 340 429 509 560 581 698 790 911 958 894 958 1000 894 1020 1551 1831 1522 1353 1319 1290 1409 1699 1649 1586 1715 1884 1904 2101 2096 2133 2225 2869 2482 2562 2534 2504 2521 2462 2171 2357 2934 2958 2660 2397
1003 1031 996 1015 945 864 1019 1011 690 702 482 229 166 174 206 238 244 233 244 280 383 341 644 703 656 741 906 970 965 948 1014 1015 959 1176 1728 1827 1646 1601 1389 1418 1552 1758 1692 1704 1808 1869 2081 2240 2154 2127 2205 2355 2414 2460 2428 2419 2335 2222 2341 2728 2868 2854 2664
875 882 959 1067 1031 977 1075 1241 1108 895 668 506 496 286 201 223 229 238 241 459 495 379 588 977 839 930 927 1043 1107 1168 1161 1144 1074 1118 1345 1714 1819 1881 1673 1474 1467 1490 1691 1782 1789 1837 1918 2168 2223 2209 2193 2255 2290 2354 2417 2400 2355 2364 2572 2777 2925 2977 2865
812 863 825 818 970 1115 1122 1230 1174 1012 941 928 776 1095 700 553 997 1361 1047 622 668 468 817 1175 1228 1180 1281 1387 1298 1467 1410 1382 1357 1298 1312 1468 1702 1862 1944 1804 1621 1483 1323 1498 1653 1804 1803 1874 2095 2150 2150 2224 2200 2219 2440 2534 2507 2435 2666 2895 3009 3020 2956
1045 1118 997 870 1012 1274 1574 1429 1252 1302 1224 1051 1076 1005 877 1197 1178 1243 1085 725 814 844 966 1138 1224 1136 1311 1458 1411 1550 1571 1588 1587 1558 1500 1470 1488 1629 1815 1951 1919 1812 1690 1607 1726 1520 1642 1664 1792 1966 2047 2164 2245 2168 2231 2460 2534 2560 2633 2782 2912 2938 2953
854 892 1095 1195 1127 1117 1204 1147 1016 1299 1302 1209 1125 1138 1121 670 912 1351 1226 996 986 1012 890 1054 1142 1218 1222 1438 1468 1485 1532 1584 1634 1628 1602 1578 1521 1481 1516 1604 1713 1820 1871 1729 1812 1617 1494 1445 1551 1706 1839 1978 2130 2150 2123 2214 2345 2444 2544 2658 2699 2719 2781
737 715 774 953 1115 1178 1101 1091 1152 1147 1040 1090 1013 1241 1014 649 680 1084 1323 1189 1168 1175 1138 1044 1235 1348 1442 1428 1522 1513 1493 1520 1566 1617 1626 1628 1609 1564 1502 1456 1438 1457 1507 1565 1652 1717 1561 1436 1451 1458 1622 1767 1893 1962 2016 2067 2151 2253 2334 2423 2438 2455 2480
777 715 795 958 1045 1035 1135 1113 1156 1227 1124 1000 912 905 851 774 722 784 1100 1262 1314 1348 1312 1199 1188 1213 1540 1549 1576 1580 1567 1550 1557 1553 1576 1590 1623 1644 1630 1578 1502 1389 1404 1426 1471 1548 1586 1528 1372 1271 1383 1557 1701 1804 1855 1940 2025 2108 2193 2252 2271 2257 2280
593 615 638 683 879 1002 1062 1161 1123 1038 1076 1080 982 959 915 928 942 864 768 1100 1131 1249 1366 1309 1267 1216 1410 1622 1584 1558 1551 1538 1534 1526 1563 1560 1528 1533 1600 1632 1624 1573 1477 1399 1458 1506 1522 1514 1407 1256 1238 1382 1534 1660 1776 1868 1951 1988 1995 2044 2099 2106 2142
500 500 495 515 633 824 892 932 935 968 927 922 967 1118 1005 817 893 869 782 844 1064 1131 1368 1432 1350 1293 1358 1487 1597 1733 1744 1659 1484 1317 1362 1398 1399 1417 1486 1536 1565 1529 1467 1378 1330 1376 1433 1423 1369 1310 1232 1243 1380 1505 1626 1711 1754 1746 1778 1849 1855 1833 1851
486 422 410 400 532 626 839 934 918 877 729 877 760 1086 1237 1164 979 785 839 797 774 921 1116 1312 1278 1281 1364 1326 1513 1646 1732 1790 1790 1752 1560 1314 1282 1280 1289 1389 1481 1517 1459 1326 1218 1141 1188 1195 1121 1130 1180 1201 1191 1381 1475 1537 1564 1571 1604 1624 1616 1632 1655
447 453 410 374 417 461 477 589 625 682 709 767 747 953 895 983 1153 1146 1078 1056 929 923 870 721 746 962 1238 1403 1471 1652 1726 1706 1750 1747 1740 1718 1603 1460 1390 1358 1366 1371 1380 1319 1173 1030 1084 1051 968 829 873 953 1024 1092 1294 1417 1463 1498 1512 1509 1520 1532 1564
273 325 350 334 325 381 430 479 535 689 666 694 724 740 785 777 830 818 966 1097 1170 1046 1047 1010 1189 1318 1361 1409 1542 1382 1578 1560 1630 1779 1842 1804 1708 1621 1722 1733 1606 1424 1332 1340 1279 1222 1281 1149 958 945 826 785 867 929 979 1061 1246 1438 1438 1461 1485 1484 1522
210 250 274 288 280 269 253 276 289 340 426 575 621 582 593 622 638 726 779 836 746 692 849 1003 1054 983 956 1078 1089 1047 959 1058 1102 1150 1317 1448 1543 1521 1440 1549 1698 1727 1652 1565 1502 1406 1218 1391 993 966 869 760 709 801 857 880 926 1017 1254 1431 1517 1547 1522
202 268 306 308 290 255 250 228 226 278 318 381 462 574 545 560 536 767 738 709 659 558 575 708 830 745 704 732 731 683 746 798 902 954 1098 1167 1243 1265 1327 1511 1541 1530 1558 1584 1578 1503 1343 1042 1139 1038 958 866 757 745 824 882 870 887 894 994 1159 1347 1465
14 244 292 345 350 301 241 117 212 201 211 200 277 476 486 454 432 549 734 690 629 596 590 536 527 576 635 595 530 645 657 887 938 1014 1103 1107 1097 1109 1216 1351 1378 1360 1307 1506 1877 1945 1719 1574 1382 1272 1322 1218 900 774 738 883 1006 1021 983 965 986 1018 1086
202 232 257 264 259 224 223 225 275 288 202 56 136 261 443 426 390 566 564 455 406 496 472 375 599 774 800 720 673 598 698 750 842 898 987 1059 1135 1163 1112 1080 1139 1188 1191 1283 1619 1904 1957 1853 1710 1602 1481 1356 1180 1041 940 817 833 935 1069 1146 1177 1190 1194
151 218 238 225 203 184 180 195 208 278 359 321 315 345 410 467 552 544 602 541 457 443 419 412 451 550 541 585 596 591 549 624 722 747 744 765 768 797 780 971 1027 1068 1168 1191 1246 1460 1583 1556 1649 1712 1750 1665 1526 1429 1365 1308 1154 943 854 921 997 1057 1100
0 121 174 203 211 149 192 196 185 191 265 304 370 422 437 449 451 442 488 460 453 455 445 439 489 531 500 476 491 482 497 569 718 813 776 771 748 693 620 601 640 729 842 1032 1104 1224 1346 1465 1473 1483 1492 1494 1598 1664 1645 1665 1602 1418 1140 954 950 915 973
0 120 176 188 140 139 150 256 227 228 206 208 208 277 366 393 413 394 457 465 457 430 422 434 434 438 419 459 476 457 424 417 412 506 592 643 681 746 699 571 482 484 500 634 746 839 930 1203 1345 1390 1386 1355 1294 1288 1321 1284 1338 1333 1494 1553 1455 1259 1111
0 111 196 203 208 223 208 193 243 200 236 250 248 253 283 322 365 382 405 433 432 423 423 375 388 423 435 420 431 400 387 388 407 435 442 418 431 463 491 494 474 426 442 502 503 567 728 735 935 1130 1140 1254 1296 1275 1219 1114 1152 1180 1208 1292 1388 1513 1516
0 0 78 196 219 186 176 162 182 131 90 127 167 207 281 331 341 371 420 414 404 390 384 382 398 422 418 393 366 336 314 337 418 464 469 445 432 439 452 458 433 427 410 419 419 430 520 598 697 758 848 860 868 1101 1224 1234 1103 1030 945 956 972 1129 1228
0 0 0 118 156 131 107 80 3 35 51 24 0 5 65 89 133 182 234 256 247 276 297 277 280 319 328 320 295 266 253 270 271 298 359 400 413 399 375 363 352 360 399 447 434 411 405 513 604 690 711 715 756 862 1004 1095 1120 1067 994 871 778 780 878
0 0 0 53 184 164 149 122 100 24 0 0 0 0 84 112 104 99 89 0 0 36 0 92 141 177 174 159 146 126 92 94 139 182 233 264 284 313 343 349 335 312 306 330 374 419 422 415 466 565 647 670 720 734 766 796 857 868 861 807 752 890 1067
0 0 0 0 171 254 210 180 132 97 0 0 0 0 8 26 90 84 82 0 105 80 0 89 140 126 78 0 66 109 102 83 108 159 172 179 183 183 211 205 217 235 236 235 248 297 358 426 477 502 534 598 659 684 667 685 692 919 912 843 811 920 1253
15 0 0 0 97 184 215 180 140 121 109 40 0 0 0 0 0 0 0 0 0 0 0 4 107 134 150 147 124 72 74 79 119 143 179 180 157 120 107 48 51 55 118 120 152 182 228 300 372 416 434 446 470 492 490 499 724 787 587 569 540 581 908
26 14 1 0 0 0 0 60 114 126 117 96 85 0 0 0 0 0 0 50 0 0 12 14 0 0 44 85 100 17 0 0 11 68 90 106 0 0 0 0 0 0 0 0 0 0 0 0 150 258 328 353 367 362 333 334 293 334 399 392 410 485 542
96 74 26 11 1 0 0 0 0 0 21 21 23 23 21 0 0 0 0 0 0 0 0 16 70 76 58 72 118 97 10 0 0 0 0 0 0 0 0 0 0 0 0 0 0 0 0 0 0 0 0 14 50 50 165 206 289 332 309 284 335 438 460
22 9 0 0 0 0 0 0 0 0 0 0 0 0 0 0 0 0 0 0 0 0 0 0 0 0 0 103 80 0 0 0 0 0 0 0 0 0 0 0 0 0 0 0 0 0 0 0 0 0 0 0 0 0 0 18 205 276 253 93 0 15 0
3 19 0 0 0 0 0 0 0 0 0 0 0 0 0 0 0 0 0 0 0 0 0 0 0 0 0 0 0 0 0 0 0 0 0 0 0 0 0 0 0 0 0 0 0 0 0 0 0 0 0 0 0 0 0 0 0 0 0 0 228 291 262
0 0 0 0 0 0 0 0 0 0 0 0 0 0 0 0 0 0 0 0 0 0 0 0 0 0 0 0 0 0 0 0 0 0 0 0 0 0 0 0 0 0 0 0 0 0 0 0 0 0 0 0 0 0 0 0 0 0 0 0 0 92 265
0 0 0 0 0 0 0 0 0 0 0 0 0 0 0 0 0 0 0 0 0 0 0 0 0 0 0 0 0 0 0 0 0 0 0 0 0 0 0 0 0 0 0 0 0 0 0 0 0 0 0 0 0 0 0 0 0 0 0 0 0 0 0
0 0 0 0 0 0 0 0 0 0 0 0 0 0 0 0 0 0 0 0 0 0 0 0 0 0 0 0 0 0 0 0 0 0 0 0 0 0 0 0 0 0 0 0 0 0 0 0 0 0 0 0 0 0 0 0 0 0 0 0 0 0 0
0 0 0 0 0 0 0 0 0 0 0 0 0 0 0 0 0 0 0 0 0 0 0 0 0 0 0 0 0 0 0 0 0 0 0 0 0 0 0 0 0 0 0 0 0 0 0 0 0 0 0 0 0 0 0 0 0 0 0 0 0 0 0
0 0 0 0 0 0 0 0 0 0 0 0 0 0 0 0 0 0 0 0 0 0 0 0 0 0 0 0 0 4 4 0 0 0 0 0 0 0 0 0 0 0 0 0 0 0 0 0 0 0 0 0 0 0 0 0 0 0 0 0 0 0 0

ECMWFFLT1_con_mucape_090.txt.gz
CAPE
677 800 884 620 90 74 0 0 0 0 0 16 38 45 117 196 272 353 469 575 614 626 680 760 770 767 805 871 943 995 981 983 940 810 687 746 807 853 848 966 1160 1303 1362 1406 1439 1559 1852 2173 2388 2792 2823 2865 2889 2870 2830 2796 2674 2576 2520 2947 2628 2832 2506
773 641 728 697 352 0 0 0 0 0 0 3 20 37 53 137 248 324 423 528 583 596 657 738 770 769 750 789 854 906 945 975 946 1138 771 734 886 783 825 886 992 1080 1158 1234 1307 1414 1824 2122 2316 2534 2715 2828 2829 2766 2768 2754 2626 2580 2659 2672 2513 2704 2924
578 610 744 899 728 282 0 0 0 0 0 0 6 12 39 74 217 289 364 450 510 546 568 652 732 725 658 640 685 779 847 897 871 1036 894 785 811 794 898 1067 1019 1027 1031 1133 1311 1433 1846 1991 2201 2338 2563 2590 2667 2692 2742 2695 2512 2511 2618 2738 2583 2460 2466
612 705 724 840 885 710 202 66 52 6 0 0 0 13 92 94 112 151 299 371 446 469 484 549 654 663 585 529 567 672 752 846 991 1050 1054 901 842 818 926 1159 1251 1195 1189 1259 1538 1632 1798 1981 2098 2151 3060 2544 2587 2656 2657 2622 2444 2415 2469 2750 2743 2472 2288
523 636 715 828 988 888 878 226 81 68 84 89 96 100 108 100 120 124 134 171 398 425 420 445 544 588 553 549 548 614 687 724 955 1177 1294 1097 1038 1021 1014 1086 1273 1375 1352 1318 1478 1849 1914 2058 2029 2045 2240 2473 2435 2452 2475 2479 2456 2415 2419 2442 2740 2599 2533
608 690 743 904 844 524 880 824 533 157 43 26 80 88 43 36 61 104 231 341 390 586 551 379 432 620 560 607 624 616 681 691 736 973 1305 1433 1341 1311 1261 1222 1190 1390 1416 1409 1568 1653 1741 1978 2095 2064 2026 2179 2297 2363 2327 2364 2404 2384 2307 2342 2584 2688 2710
752 713 747 850 953 1017 1191 1306 1189 1052 652 146 241 411 191 104 174 462 440 381 490 503 720 659 597 618 607 742 758 844 710 754 737 760 1002 1280 1436 1485 1476 1426 1349 1224 1415 1470 1507 1553 1608 1784 2008 2052 2059 2124 2335 2271 2406 2423 2397 2305 2396 2462 2614 2644 2735
773 791 792 986 1213 1226 1364 1341 1277 1136 985 872 694 618 750 922 776 560 472 424 165 164 857 1043 966 779 768 910 898 961 902 876 832 830 884 1099 1268 1474 1579 1590 1497 1373 1271 1308 1421 1544 1625 1644 1775 1992 1990 2109 2199 2243 2247 2414 2444 2285 2410 2553 2658 2754 2738
966 918 876 1039 1399 1574 1384 1306 1278 1145 1024 943 772 607 742 1069 901 703 606 584 490 213 517 1197 1144 1015 970 1029 1007 1078 1105 1083 1036 964 1026 1106 1137 1284 1451 1600 1677 1663 1635 1626 1642 1578 1566 1654 1657 1706 1840 1946 2164 2165 2108 2230 2398 2379 2455 2541 2607 2730 2766
1222 1132 1073 1093 1134 1053 1065 1024 979 911 815 831 845 755 756 1031 1029 811 588 503 496 467 521 1054 1115 1069 1084 1065 1115 1196 1161 1102 1090 1089 1160 1237 1228 1242 1313 1448 1616 1737 1775 1779 1741 1718 1721 1760 1788 1688 1558 1693 1932 2036 2088 2057 2145 2280 2325 2467 2515 2599 2679
1027 1002 974 980 1045 1081 1072 1034 943 899 805 663 830 873 805 830 792 694 586 573 657 684 656 910 927 846 1007 1123 1149 1123 1129 1156 1168 1196 1241 1302 1362 1386 1376 1385 1448 1531 1582 1616 1640 1642 1618 1529 1716 1694 1600 1540 1645 1828 1928 1983 2025 2092 2159 2241 2342 2432 2494
1186 1184 1163 1086 996 938 990 1005 1053 1138 1164 1082 906 819 618 635 707 819 822 806 830 872 830 907 944 771 685 918 1159 1151 1194 1211 1248 1283 1329 1377 1410 1440 1462 1462 1447 1450 1433 1410 1384 1382 1396 1405 1426 1389 1488 1514 1519 1610 1750 1822 1862 1936 2031 2054 2108 2154 2228
873 890 960 1057 1124 1168 1184 1168 1138 1112 1214 1255 1137 951 759 653 587 675 838 966 938 906 823 688 683 741 684 700 910 1101 1168 1219 1278 1330 1361 1397 1420 1469 1495 1531 1554 1557 1527 1474 1456 1486 1450 1392 1382 1414 1450 1484 1483 1447 1557 1639 1648 1734 1807 1875 1926 1970 2095
892 844 852 891 1024 1023 1065 1097 927 890 928 1155 1246 1173 1063 945 824 668 760 820 976 1070 1000 941 893 900 820 800 836 1041 1221 1247 1307 1343 1378 1319 1356 1448 1522 1551 1576 1582 1592 1557 1544 1513 1450 1361 1308 1310 1341 1367 1333 1318 1440 1485 1500 1518 1590 1684 1724 1746 1782
695 642 577 561 622 585 594 636 646 514 822 883 907 902 907 972 975 850 733 644 772 945 1035 1116 1154 1107 1069 977 890 1062 1232 1450 1433 1403 1394 1382 1224 1137 1277 1419 1488 1492 1511 1518 1512 1447 1366 1314 1263 1192 1178 1193 1178 1118 1273 1312 1361 1397 1412 1446 1518 1575 1587
655 575 498 460 407 405 546 660 698 730 676 591 558 702 802 869 926 872 944 879 708 726 762 855 961 970 1027 1114 992 1020 1096 1170 1272 1394 1526 1583 1458 1182 1186 1221 1353 1414 1364 1416 1481 1497 1492 1429 1364 1219 1070 943 869 836 829 1129 1296 1382 1213 1276 1533 1470 1440
616 548 458 400 349 328 364 451 523 622 529 593 678 624 709 826 968 1059 1140 1092 913 707 637 717 798 733 750 827 955 845 834 982 1220 1365 1529 1594 1562 1502 1470 1458 1430 1548 1512 1474 1442 1412 1438 1499 1294 1187 1065 984 846 758 799 781 872 988 1071 1165 1233 1476 1526
480 434 389 357 318 287 341 360 529 545 550 532 506 447 424 523 690 848 856 883 906 889 854 849 804 778 739 643 544 589 693 885 1131 1243 1291 1352 1510 1530 1529 1471 1348 1436 1515 1694 1672 1554 1441 1459 1453 1392 1317 1184 1037 866 884 850 794 748 746 824 947 1089 1493
307 290 294 297 312 271 284 280 301 365 349 333 451 448 411 414 499 521 684 811 848 801 655 743 888 869 704 640 621 705 738 816 772 834 945 1140 1182 1241 1269 1168 1142 1222 1330 1462 1764 1819 1797 1777 1722 1711 1535 1400 1407 1348 1281 935 879 807 731 768 847 842 878
263 254 276 302 296 301 305 294 317 309 316 301 451 555 551 586 573 580 636 609 476 417 451 601 630 672 526 377 431 601 611 718 738 795 853 898 941 1017 1051 1030 1101 1187 1248 1280 1439 1466 1504 1519 1542 1524 1465 1416 1423 1518 1537 1435 1367 1267 945 738 838 930 986
284 286 331 356 388 392 370 287 262 207 210 221 326 319 328 377 376 539 513 491 497 472 342 520 428 471 504 570 604 569 624 632 800 827 934 955 932 948 936 972 985 992 1064 1124 1194 1209 1194 1249 1298 1219 1268 1359 1387 1412 1398 1356 1296 1302 1286 1119 968 912 940
299 300 309 361 380 338 342 365 332 351 389 342 214 60 242 381 447 412 369 457 469 458 387 448 381 681 663 621 497 437 518 644 759 782 842 847 837 807 821 876 895 959 922 954 1009 1064 1106 1158 1154 1116 1165 1238 1294 1345 1354 1381 1322 1254 1296 1368 1404 1402 1315
184 239 297 317 323 309 301 260 237 245 287 395 387 338 371 401 480 427 396 399 450 507 459 464 434 517 473 404 369 425 440 448 528 572 613 660 685 637 512 624 748 735 698 699 806 923 1072 1145 1239 1179 1152 1162 1179 1192 1261 1273 1258 1239 1239 1265 1314 1340 1392
60 128 186 245 290 232 169 178 191 189 247 248 235 412 411 322 386 398 253 371 407 427 445 482 465 429 395 358 372 406 438 438 431 437 471 482 511 505 544 548 574 640 654 630 576 578 689 767 850 987 1056 1112 1100 1094 1128 1128 1128 1078 1093 1215 1237 1191 1192
0 43 126 162 162 162 145 87 102 152 223 278 204 209 238 272 343 351 387 387 388 384 372 368 321 304 303 319 346 372 399 374 325 318 317 325 329 333 370 410 449 504 563 599 573 546 524 548 559 602 764 869 915 948 1005 988 975 1006 1077 1093 1118 1120 1086
15 0 0 0 58 90 120 107 61 0 97 144 190 208 200 218 244 284 291 322 348 358 353 347 327 317 323 356 344 303 351 345 296 280 295 338 357 372 387 390 379 386 405 440 455 473 446 445 454 429 440 510 618 684 762 833 832 831 880 996 1093 1081 989
0 0 0 0 0 44 28 24 43 7 0 0 102 141 140 168 192 202 207 210 246 258 273 286 261 247 277 309 320 312 304 302 302 304 296 306 343 352 360 353 346 330 328 337 352 359 320 262 242 324 403 485 521 449 379 360 432 551 644 652 809 932 929
84 64 0 0 0 0 12 11 1 3 0 0 0 0 0 0 10 83 102 122 143 162 198 230 229 213 224 236 235 226 196 170 155 130 98 83 96 141 155 126 97 72 0 0 0 106 150 165 9 132 280 367 377 322 317 335 338 344 358 482 604 696 736
29 37 18 0 0 0 0 23 0 0 0 0 0 0 0 13 10 0 0 0 6 0 0 0 16 36 101 125 130 102 67 55 55 55 21 55 61 75 65 28 0 0 0 0 0 0 0 41 41 0 46 143 249 313 314 296 273 209 66 0 299 496 596
49 47 37 11 0 0 0 17 9 0 0 0 1 3 0 1 0 24 39 24 0 0 0 0 0 0 0 0 0 0 0 0 0 0 0 0 52 71 72 75 70 10 0 0 0 0 0 0 0 0 0 0 0 0 110 168 158 126 20 78 172 159 258
0 45 14 13 5 0 0 0 0 2 0 0 0 0 0 0 0 0 0 0 0 0 0 0 0 0 0 0 0 0 0 0 0 0 0 0 0 0 61 78 58 60 0 0 0 0 0 0 0 0 0 0 0 0 0 0 0 0 0 0 41 42 0
0 0 42 0 0 0 0 0 0 0 0 0 1 0 0 0 0 0 0 0 0 0 0 0 0 0 0 0 0 0 0 0 0 0 0 0 0 0 0 38 50 66 0 0 0 0 0 0 0 0 0 0 0 0 8 2 26 25 23 14 30 37 0
0 0 95 2 0 0 0 0 0 0 0 0 0 0 0 0 0 0 0 0 1 0 0 0 0 0 0 0 0 0 0 0 0 0 0 0 0 0 0 0 0 0 0 0 0 0 0 0 0 0 0 0 0 0 0 0 0 0 7 56 17 28 16
73 89 25 40 8 28 12 4 0 0 0 0 0 0 0 0 0 0 0 0 7 0 0 0 0 0 0 0 0 0 0 0 0 0 0 0 0 0 0 0 0 0 0 0 0 0 0 0 0 0 0 0 0 0 0 0 0 0 0 0 0 0 0
0 6 13 38 32 17 20 17 5 0 0 0 0 0 0 0 0 0 0 0 0 0 0 0 0 0 0 0 0 0 0 0 0 0 0 0 0 0 0 0 0 0 0 0 0 0 0 0 0 0 0 0 0 0 0 0 0 0 0 0 0 0 0
0 0 0 0 0 0 0 0 0 0 0 0 0 0 0 0 0 0 0 0 0 0 0 0 0 0 0 0 0 0 0 0 0 0 0 0 0 0 0 0 0 0 0 0 0 0 0 0 0 0 0 0 0 0 0 0 0 0 0 0 0 0 0
0 0 0 0 0 0 0 0 0 0 0 0 0 0 0 0 0 0 0 0 0 0 0 0 0 0 0 0 0 6 0 0 0 0 0 0 0 0 0 0 0 0 0 0 0 0 0 0 0 0 0 0 0 0 0 0 0 0 0 0 0 0 0
0 0 0 0 0 0 0 0 0 0 0 0 0 0 0 0 0 0 0 0 0 0 0 0 0 0 0 0 0 3 0 0 0 0 0 0 0 0 0 0 0 0 0 0 0 0 0 0 0 0 0 0 0 0 0 0 0 0 0 0 0 0 0

ECMWFFLT1_con_mucape_093.txt.gz
CAPE
646 709 886 448 236 237 231 207 364 418 525 571 636 582 718 849 1205 1490 1465 1859 1960 2175 2150 2163 2166 2391 2431 2278 2303 2373 2206 2352 2357 2294 2347 2447 2326 2525 2530 2347 2505 3044 2784 2707 2745 3037 3272 3659 3507 3551 3860 4052 3888 4097 4219 4157 4042 3643 3703 3766 3564 3574 3563
653 746 842 557 174 192 212 201 352 366 469 498 601 710 828 982 1359 1314 1506 1816 1906 2101 2090 2049 2084 2184 2283 2423 2282 2441 2364 2268 2369 2632 2287 2866 2885 2740 2444 2630 2678 3204 3384 3052 3187 3430 3439 3359 3422 3668 3761 3912 3829 4168 3968 4075 3972 3861 3374 3739 3518 3654 3603
868 958 1203 924 160 170 193 188 170 311 377 430 525 648 825 1038 1307 1404 1637 1690 1848 2041 2058 2011 2114 2009 2050 2347 2379 2418 2273 2117 2195 2180 2163 1800 2138 1705 2066 2482 2590 2599 2531 2832 3242 3057 2999 3052 3591 3631 3624 3542 3364 4017 4111 4037 4190 3919 3808 3998 3631 3074 3650
1556 1484 1468 1390 656 156 176 191 186 317 359 433 482 603 849 1223 1351 1503 1657 1632 1747 1927 1964 1817 1912 1830 1903 2092 2109 2287 2256 2270 2074 1780 1749 1736 1914 1964 2339 2570 2654 2567 2780 2598 2461 2704 2502 2979 3310 3729 3726 3817 3948 3811 3821 3718 3583 3800 3932 4091 3831 3506 3614
1121 1593 1683 1416 1081 359 178 193 179 308 294 448 576 665 870 1092 1198 1270 1335 1417 1688 1747 1714 1606 1546 1693 1768 1798 1734 1848 1949 1978 2088 1936 1918 1971 2170 2267 2138 1886 2328 2416 2433 2477 2987 3276 3333 3326 3121 3527 3720 4087 3893 4024 4050 4169 3834 4201 4069 4154 3905 3710 3213
897 1065 1300 1621 1732 1297 666 174 149 256 327 446 515 647 687 824 721 750 940 1170 1459 1563 1656 1484 1486 1702 1734 1618 1555 1530 1774 2019 2266 2456 2281 2394 2347 2026 1928 2115 2146 2249 2163 2401 2590 2758 3396 3254 3214 3245 3151 3132 3203 3246 3489 3692 3486 3552 3933 4043 3832 3365 3047
953 690 562 614 900 1258 1197 1396 838 374 480 394 377 510 480 513 536 718 813 984 1331 1494 1336 1234 1251 1619 1717 1614 1746 1827 1741 1585 1798 1804 2050 2071 2126 2136 2212 2335 2479 2254 2193 2836 2794 2796 2899 3271 3417 3498 3299 2968 3172 2984 3423 4025 3875 3779 4036 4187 4141 3991 3754
1061 657 589 899 930 858 852 945 1434 1450 536 357 381 578 603 448 770 1013 848 911 1130 962 1308 1322 1487 1819 1933 1842 1876 1758 1764 1658 1647 1633 1973 1890 2203 2192 2321 2349 2638 2701 2961 2546 2785 2896 2556 3057 2848 3157 3345 3065 3277 3521 3394 3972 4435 3796 3642 3828 3843 3640 3160
1105 1026 892 1391 1522 1339 1808 1955 1946 1506 1108 759 616 790 652 816 796 1052 1088 1194 1239 1177 1614 1734 1802 1923 2145 2185 2174 2140 2056 2046 1973 1642 1637 1526 1632 1583 1534 1818 2144 2691 2518 2105 2106 2795 2671 2790 2586 3375 3593 3231 3412 3855 3632 4049 3852 3791 3858 3865 4013 3690 3137
1174 1228 1471 1650 1733 1826 1821 1892 1903 1764 1442 1444 1350 1160 965 978 1320 1417 1626 1610 1582 1402 1964 2159 2198 2116 2232 2101 2004 2159 2388 2268 2171 1951 1597 1464 1404 1354 1321 1319 1631 2310 2030 2013 1803 2222 2865 2797 2809 3197 3580 3411 3518 3682 3639 3729 3627 3622 3716 4019 4002 3763 3750
1091 1340 1298 1356 1437 1554 1589 1538 1432 1492 1472 1437 1450 1154 1370 1573 1856 1887 1762 1716 1496 1587 1918 2137 2549 2309 1922 1703 1585 1783 1890 2116 2396 2218 2326 2288 2291 1764 1404 1373 1376 1696 1684 1630 1645 1930 2217 2894 2936 3135 3318 2914 3130 3352 3534 3472 3521 3696 3433 3508 3596 3818 3390
1091 1181 1221 1197 1027 1040 1139 1172 1068 1004 1162 1436 1582 1564 1818 1996 1687 1345 1470 1508 1782 1679 1713 1810 2303 2127 1972 1673 1205 1482 1904 2058 2225 2411 2467 2480 2548 2465 1951 1573 1619 1653 1745 1686 1835 2188 1925 2210 2445 2567 2971 2990 2950 3041 3274 3404 3502 3538 3512 3196 3257 3497 3512
1165 1114 1098 1017 948 861 892 904 923 917 919 1112 1329 1444 1694 1847 1718 1460 1438 1758 1927 1955 1987 1989 1710 1444 1175 964 1270 1516 2062 2135 2227 2317 2542 2696 2730 2714 2388 2019 1865 1749 1664 1786 1879 1879 1684 1713 2231 2483 2447 2769 2788 2654 2941 3211 3090 3477 3575 3337 3183 3356 3517
1303 1322 1277 1207 1146 1109 1030 924 1008 1007 982 908 1249 1453 1124 1129 1319 1325 1478 1773 1810 1936 1798 1402 1186 1339 1422 1183 1309 1274 1785 1934 1709 1456 1543 1668 1846 2243 2414 2273 1866 1877 1786 1622 1636 1654 1646 1607 1690 1961 2087 2244 2396 2576 2679 2980 2935 3270 3422 3229 3074 3097 3203
1202 1235 1237 1215 1220 1099 1064 936 1097 913 1042 1136 1162 1134 1115 1071 1045 1055 1179 1360 1443 1512 1466 1433 1319 1345 1297 1335 1148 880 921 941 869 908 1108 1069 1033 1145 1506 1941 2000 1991 1947 1903 1685 1365 1368 1347 1302 1537 1642 1760 1999 2151 2193 2062 2272 2384 2801 3031 3278 3043 2857
1123 1132 1142 1093 1105 998 922 778 504 541 627 769 908 1070 1155 1164 1162 1082 968 888 1133 1225 1140 1283 1072 1120 1152 988 850 724 607 652 784 914 929 825 952 1095 1139 1249 1376 1696 1944 1942 1850 2000 1990 2050 1972 1430 1490 1578 1673 1682 1542 1627 1680 2112 1803 1928 2315 2840 2626
1031 924 857 742 732 580 644 750 731 704 669 690 769 876 944 858 759 874 916 865 827 813 908 904 944 914 873 810 761 686 573 588 692 815 849 765 929 1140 1206 1173 1207 1252 1368 1522 1873 2118 2286 2140 2051 1888 1826 1741 1474 1378 1293 1286 1082 1139 1062 1057 1011 1503 2259
808 743 642 565 560 502 554 552 532 583 598 599 674 723 715 797 790 777 862 907 842 802 787 744 784 845 826 896 889 860 863 896 882 858 814 920 980 996 1185 1344 1340 1280 1173 1273 1324 1666 1680 1900 2059 2280 1996 1865 1858 1700 1534 1452 977 892 748 732 701 731 1542
732 663 544 483 429 444 456 557 588 561 477 485 526 473 588 650 694 750 866 843 797 777 751 688 693 679 712 724 865 548 594 640 766 770 712 743 966 1204 1412 1486 1456 1352 1461 1626 1521 1669 1780 2031 1791 2073 2054 2213 2297 2052 2001 1544 1102 1031 850 763 757 733 806
610 540 469 438 366 358 428 481 512 432 466 486 466 429 446 461 488 596 669 665 668 760 767 706 730 729 754 711 691 676 689 628 541 466 407 611 871 1110 1330 1438 1457 1452 1379 1336 1663 1352 1339 1460 1650 1790 1841 2046 2218 2409 2001 1377 1333 1200 929 826 804 757 756
458 400 350 334 295 298 312 308 322 367 433 576 659 639 591 608 566 608 635 674 735 680 674 673 601 583 658 709 670 571 467 457 518 520 447 437 647 865 1121 1268 1324 1284 1169 1088 1131 1190 1197 1241 1152 1132 1184 1295 1647 2144 1462 1434 1379 1252 984 1018 1074 1020 878
390 313 307 347 333 317 334 313 246 284 346 420 642 648 547 499 518 597 583 470 499 448 470 504 510 542 605 653 536 456 454 475 385 478 564 518 447 709 892 994 995 1000 1008 1025 1028 1000 1020 1062 1030 1013 1056 1093 1152 1216 1246 1235 1230 1194 1064 1095 1112 1176 1701
417 378 361 379 369 352 299 286 300 292 273 280 365 440 322 400 451 497 450 443 443 461 325 355 368 342 398 437 460 435 487 380 76 366 256 453 596 742 865 901 894 897 907 878 826 827 803 891 942 955 932 970 1036 1080 1155 1162 1184 1205 1162 1132 1167 1158 1788
471 400 336 271 308 350 343 230 167 198 178 241 306 258 235 242 364 456 442 464 404 384 338 311 321 387 424 442 428 322 313 309 291 214 209 162 299 441 586 588 638 670 705 686 670 680 749 752 802 896 928 973 984 951 983 998 990 1107 1194 1171 1120 1124 1491
395 349 303 275 307 300 164 97 114 128 192 185 226 262 225 311 397 391 409 433 482 391 280 309 290 284 293 312 330 293 263 263 300 313 358 408 302 332 432 464 472 483 403 556 545 486 454 456 472 555 607 665 752 829 848 932 973 1052 1051 1074 1098 1080 1101
274 234 183 176 170 136 90 73 115 142 156 128 127 257 242 211 166 256 377 428 322 300 270 294 162 8 300 307 272 247 26 245 277 293 270 277 300 313 336 335 344 354 389 438 449 433 388 310 297 421 510 513 515 515 541 672 765 807 865 909 945 977 1017
0 0 0 91 107 92 90 60 64 81 115 123 150 161 109 64 111 142 232 279 251 228 232 241 147 170 96 261 240 226 245 77 64 261 118 151 220 241 276 297 323 333 339 358 358 347 310 2 236 369 406 415 419 410 408 428 477 500 500 518 516 526 663
11 0 0 0 0 17 58 54 54 0 49 74 114 76 116 127 104 142 179 224 173 190 151 172 143 59 0 10 126 276 311 238 180 35 237 193 207 250 286 276 262 260 261 272 280 275 260 0 214 290 324 331 327 303 325 348 384 419 432 409 363 332 332
31 11 15 6 0 0 2 17 6 0 0 0 35 61 71 69 85 94 108 93 136 16 0 0 24 148 157 152 147 136 175 239 238 112 151 235 240 237 228 170 134 108 90 28 0 0 0 0 0 0 70 179 201 212 217 234 263 280 293 301 294 268 249
20 18 36 33 22 0 0 0 5 14 19 0 0 0 0 0 0 0 0 0 0 0 0 0 0 0 62 130 120 99 48 0 177 204 193 180 166 166 132 25 0 0 0 0 0 0 0 0 0 0 0 0 0 52 97 148 177 208 207 216 228 208 133
0 0 1 14 24 21 18 9 0 0 3 10 12 0 14 11 0 0 1 0 0 0 0 0 0 0 71 98 105 92 88 125 76 147 125 98 28 24 0 0 0 0 0 0 0 0 0 0 0 0 0 0 0 0 0 0 0 0 0 0 0 0 27
0 0 0 0 2 2 4 10 10 1 1 0 0 0 0 0 8 0 0 0 0 0 0 0 0 0 0 0 0 0 0 28 40 0 0 0 0 0 0 0 0 0 0 0 0 0 0 0 0 0 0 0 0 0 0 0 0 0 0 0 0 0 0
2 0 0 0 0 0 0 0 0 0 0 0 0 0 1 0 0 0 0 0 0 0 0 0 0 0 0 0 0 0 0 0 0 0 0 0 0 0 0 0 0 0 0 0 0 0 0 0 0 0 0 0 0 0 0 0 4 0 0 0 0 0 0
2 0 0 0 0 0 0 0 0 0 0 0 0 0 0 0 0 0 0 0 0 0 0 0 0 0 0 0 0 0 0 0 0 0 0 0 0 0 0 0 0 0 0 0 0 0 0 0 0 0 0 0 0 0 0 0 0 0 0 0 0 0 0
0 0 0 0 0 0 1 0 0 0 0 0 0 0 0 0 0 0 0 0 0 0 0 0 0 0 0 0 0 0 0 0 0 0 0 0 0 0 0 0 0 0 0 0 0 0 0 0 0 0 0 0 0 0 0 0 0 0 0 0 0 0 0
4 0 0 0 0 2 6 0 0 0 0 0 0 0 0 0 0 0 0 0 0 0 0 0 0 0 0 0 0 0 0 0 0 0 0 0 0 0 0 0 0 0 0 0 0 0 0 0 0 0 0 0 0 0 0 0 0 0 0 0 0 0 0
0 0 0 0 0 0 0 0 0 0 0 0 0 0 0 0 0 0 0 0 0 0 0 0 0 0 0 0 0 0 0 0 0 0 0 0 0 0 0 0 0 0 0 0 0 0 0 0 0 0 0 0 0 0 0 0 0 0 0 0 0 0 0
0 0 0 0 0 1 4 9 0 0 0 0 0 0 0 0 0 0 0 0 0 0 0 0 0 0 0 0 0 0 0 0 0 0 0 0 0 0 0 0 0 0 0 0 0 0 0 0 0 0 0 0 0 0 0 0 0 0 0 0 0 0 0

ECMWFFLT1_con_mucape_096.txt.gz
CAPE
1316 1508 1454 1215 1134 944 852 818 879 836 805 970 1284 1104 1106 911 1078 1407 1597 2163 2320 2450 2726 2858 2811 2612 2616 2584 2516 2574 2481 2307 2348 2393 2356 2663 2386 2495 2510 2468 2655 2691 2526 2385 2645 2648 3075 2896 3137 3143 3254 3614 3821 4529 4752 4549 3679 3606 3811 4128 3780 3592 3635
1208 1404 1496 1272 1112 1019 897 998 973 909 1057 1097 1344 1367 1211 1266 1505 1952 2218 2861 2805 2634 2684 2402 2748 2475 2580 2613 2444 2575 2525 2271 2246 2173 2156 2572 2690 2563 2426 2383 2438 2744 2829 2677 2738 2767 2984 3005 3021 3175 3217 3529 3486 4268 4254 4003 3793 3740 3521 4105 3673 4022 3985
1267 1365 1607 1540 1185 1089 1095 1081 902 938 983 1115 1193 1228 1497 1699 2264 2668 2906 3088 3030 2926 2838 2364 2677 2312 2388 2505 2558 2554 2458 2318 2231 2208 2022 1776 2193 2001 2005 2066 2235 2289 2413 2370 2715 2647 2488 2925 2695 3054 3280 3195 3187 4000 4203 4376 4145 3782 3660 3464 3367 3300 4184
1708 1331 1193 1633 1525 1251 1204 1143 1084 1036 1063 1172 1116 1195 1709 2188 2518 2942 3072 3145 3096 3074 3082 2131 2214 1816 2157 2471 2482 2526 2466 2308 2151 1924 1742 1491 1546 1670 1917 2024 1932 2082 2128 2203 2208 2015 2015 2437 2942 3130 2904 3378 3439 3484 3956 3969 3788 3866 3781 3757 3661 3582 3360
1294 1192 1147 1454 1622 1330 1165 1151 1265 1308 1158 1296 1350 1420 1849 2326 2627 2922 2912 2823 3034 2873 2745 2171 1337 1242 1609 2068 2113 2012 2148 2165 2094 2014 1671 1392 1648 1641 1739 1754 1780 1745 1791 1851 2102 2411 2348 2604 2698 2930 3299 3372 3522 3582 3603 3917 3551 3787 4029 4081 3994 3752 3244
1349 1193 1361 1605 1643 1399 1240 1149 1246 1329 1398 1583 1736 1694 1745 2334 2344 2438 2672 2686 2888 2830 2779 2260 1166 1112 1326 1469 1595 1454 1795 2011 2086 2072 1868 1576 1638 1539 1754 1708 1758 1866 1643 1804 1945 2034 2405 2369 2350 2535 2614 2937 2815 3006 3184 3530 3409 3420 3904 4126 3718 3645 3111
2004 2369 2101 1606 1833 1592 1308 1135 1038 1284 1460 1602 1723 1727 1810 2254 2240 2151 2313 2478 2827 2768 2490 2105 1362 1284 1639 1120 1123 1202 1561 1805 1908 1765 1716 1459 1669 1601 1417 1551 1596 1650 1692 2050 1988 2052 2313 2401 2330 2504 2500 2501 2835 2729 3183 3657 3648 3453 3661 3962 4310 3879 3262
1488 2074 2136 2469 2336 1750 1228 1147 967 1115 1360 1332 1524 1772 1953 2077 1936 1956 1365 1539 2370 2168 2594 2384 2245 2212 2577 1744 1377 1252 1371 1292 1215 1601 1296 1214 1130 1268 1160 1243 1595 1643 1793 1766 1892 1692 2051 2298 2141 2302 2591 2584 2643 2875 3176 3574 3574 3323 3346 3730 3994 3931 3302
1490 1644 1776 1926 1512 1079 1076 1837 1414 1054 1055 1095 1113 1476 1622 1514 1359 1627 1637 1738 1962 2068 2432 2511 2655 2866 3248 2876 2307 2108 1718 1558 1250 1204 1102 828 693 762 686 947 1194 1392 1425 1248 931 1630 1765 2206 2083 2520 3064 2874 2991 3286 3344 3563 3610 3376 3392 3581 3774 3799 3390
1567 1639 1524 1586 1286 678 483 645 580 1010 867 738 1026 1278 1298 1110 1194 1185 1712 1887 2183 2187 2269 2437 2716 3073 3392 3307 3115 3014 2325 2056 1676 1310 792 490 422 421 483 367 502 892 1061 850 496 836 1924 2113 2429 2838 3301 3182 3298 3472 3389 3535 3376 3323 3415 3602 3540 3628 3808
1145 1466 1600 1617 1460 1590 1838 1707 1406 1195 1478 2040 1925 1083 834 843 1084 1389 1642 1984 2032 2090 2142 2434 2742 3090 3313 3320 3287 3068 2944 2600 2272 1865 1761 1600 1221 662 383 288 267 337 535 495 328 385 1373 2381 2508 2902 3500 3126 3202 3264 3302 3258 3366 3497 3177 3142 3374 3536 3392
1294 1352 1452 1514 1650 1571 1638 1772 1821 1757 1823 1459 1091 899 1069 1698 1788 1891 2030 1785 2055 2051 2196 2594 2553 2475 2610 2696 2800 2975 2705 2017 1720 1856 2010 2259 2118 1885 1205 635 409 363 376 552 400 417 712 1652 2272 2176 2832 2907 3000 3079 3286 3121 3418 3459 3440 2997 2882 2946 3081
1511 1539 1503 1288 1490 1553 1856 1579 1572 1650 1859 2006 1684 1244 1216 1448 1598 1851 1533 1348 1896 1988 2211 2392 2408 2620 2715 2422 1928 1987 1437 1103 1607 1942 2315 2661 2640 2648 2232 1432 789 509 567 660 613 482 575 860 1226 1700 2029 2238 2283 2405 2828 3095 3010 3245 3445 3193 3010 2917 3024
1243 1368 1363 1391 1425 1564 1614 1671 1618 1411 1463 1493 1793 1797 1836 1669 1726 1434 988 776 983 1675 2076 2231 2154 2085 2385 2331 2047 1801 1759 1752 1876 2125 2580 3027 2968 3055 2858 2388 1676 1381 1374 1372 1156 954 801 740 934 1213 1418 1526 1569 1726 2317 3006 3031 3264 3149 3083 2814 2789 2868
1119 1201 1184 1056 1005 950 872 758 1046 1274 1401 1456 1368 1406 1405 1394 1524 1852 1660 1427 1086 1456 1788 1519 1540 1703 1648 1973 1881 1995 2297 2418 2152 2228 2753 2855 2884 2852 2895 3085 2615 2203 2057 1922 1740 1316 1035 802 714 1038 1410 1339 1460 1450 1941 2202 2477 2486 2730 2592 2536 2560 2560
1006 1022 990 983 929 941 891 859 787 823 956 1059 1278 1118 1048 1159 1068 1243 1300 1470 1539 1489 1639 1572 1556 1721 1819 1761 1738 1926 1911 2073 2203 2078 1887 1946 1864 1886 2156 2281 2358 2251 2443 2238 2034 1770 1538 1416 1192 1340 1334 1588 1757 1592 1566 1660 1795 1955 1766 2079 2348 2706 2564
1032 841 784 852 1038 923 1016 870 891 918 979 1044 1023 1056 920 905 923 918 1477 1604 1603 1580 1644 1599 1602 1846 1652 1597 1566 1426 1605 1777 1876 1557 1093 904 933 1358 1413 1430 1861 2014 2178 2202 2160 2305 2416 2275 1974 1555 1485 1386 1429 1398 1109 1252 1637 1461 1446 1247 838 1609 1762
921 781 842 876 922 855 782 761 715 616 638 702 771 861 848 903 982 987 980 976 1196 1615 1780 1691 1598 1547 1494 1596 1633 1385 1076 1216 1389 1432 1382 1189 975 897 970 1097 1442 1835 1689 2007 1994 2205 2331 2636 2656 2766 2489 1952 1778 1596 1404 1571 1367 1224 1048 882 714 1068 1776
859 847 855 722 776 746 724 652 565 603 513 582 554 576 656 722 758 879 913 899 953 963 1181 1291 1393 1343 1371 1142 1152 1135 1115 946 1117 1196 1225 1306 1409 1399 1318 1313 1241 1494 1590 1544 1841 1898 2221 2587 2683 2812 2754 2611 2668 2350 2104 2246 1545 1268 1133 981 895 816 878
766 691 623 594 523 435 461 455 532 494 452 473 560 640 690 698 680 745 804 826 861 852 784 765 656 788 829 814 895 1114 1208 1488 949 985 924 1058 1124 1134 1185 1274 1281 1395 1796 1728 1920 1920 2209 2592 2646 2747 2858 2650 2763 2863 2456 1809 1627 1358 1208 1140 1079 991 844
618 560 491 448 514 369 514 574 533 442 373 432 457 495 490 496 504 580 701 811 835 796 652 610 658 671 673 663 724 637 632 595 615 725 605 528 571 696 949 1174 1253 1109 1212 1622 1798 1649 2311 2432 2486 2482 2496 2345 2401 2385 1658 1438 1445 1414 1331 1240 1182 1092 825
531 472 428 366 548 378 426 440 417 401 465 486 524 503 448 473 543 562 552 646 667 656 637 675 633 637 679 629 599 676 542 407 495 585 568 565 527 644 651 782 969 1065 1183 1512 1721 1712 1783 1632 1857 1903 1888 2007 1920 1607 1375 1413 1277 1247 1169 1158 1164 1136 1431
479 434 386 335 267 306 294 314 322 308 474 529 561 493 494 413 431 413 542 432 624 582 580 549 547 575 549 497 495 429 480 466 473 507 480 435 385 364 417 555 676 732 908 1281 1450 1447 1298 1148 1110 1272 1183 1264 1751 1705 1523 1335 1162 1084 1022 1017 1035 1120 2372
470 419 369 311 250 282 328 334 295 254 270 336 425 448 371 316 330 291 331 352 384 367 427 484 497 488 410 366 412 334 365 383 396 394 232 250 302 342 351 370 493 622 592 881 965 1018 925 860 833 806 765 795 887 1030 1123 1128 1068 993 1060 1141 1089 1060 2102
405 419 379 338 278 217 199 251 166 131 136 154 232 241 194 211 292 296 306 412 373 332 298 300 467 423 338 241 236 223 343 315 258 207 176 0 166 359 349 478 491 656 730 607 575 523 528 748 645 543 566 610 666 778 761 771 797 807 826 881 975 1025 1467
367 343 352 282 303 232 173 96 99 99 28 153 262 290 225 142 192 304 275 189 148 237 247 214 263 307 305 96 104 243 325 299 257 197 133 26 145 8 135 98 1 213 357 317 602 621 605 604 481 490 580 602 596 612 589 571 592 689 754 782 836 887 1055
312 329 300 298 268 222 166 43 29 0 97 123 147 230 259 208 206 208 229 220 194 243 259 0 177 269 238 209 126 215 264 303 287 116 166 51 97 137 222 227 223 70 104 228 211 235 243 242 325 454 458 437 449 448 463 459 455 444 412 468 517 554 571
12 0 0 0 0 0 46 31 65 87 7 21 106 236 342 263 123 90 174 218 223 230 201 173 80 81 188 163 257 312 317 306 274 211 0 198 196 149 32 0 193 15 0 0 78 68 56 0 116 236 276 310 339 352 380 384 374 362 333 342 352 354 357
74 18 0 2 0 0 0 4 0 47 76 91 118 214 213 190 169 116 106 160 222 219 163 147 139 189 195 66 226 295 290 254 195 138 153 174 144 232 144 166 112 130 0 6 74 56 0 0 108 60 59 167 242 286 289 302 298 289 281 282 286 288 292
0 0 7 2 0 0 0 0 0 0 2 58 97 98 94 115 131 143 151 163 169 169 148 140 149 174 203 201 112 0 179 207 171 0 0 0 96 30 199 206 187 112 116 201 24 44 36 164 162 142 167 191 216 221 240 242 239 216 204 180 159 157 161
4 0 0 0 1 0 0 0 0 0 0 28 43 27 0 0 31 85 112 114 125 137 158 143 154 152 137 154 169 158 152 126 94 112 98 0 40 167 188 172 158 169 162 160 154 69 0 0 0 0 0 32 80 106 95 116 126 137 133 116 102 96 32
25 0 0 0 0 0 0 0 0 0 0 0 0 0 0 0 0 0 0 0 12 67 99 146 172 160 143 136 124 127 157 154 112 79 47 105 0 0 82 89 45 0 0 86 90 0 0 0 0 0 0 0 0 0 0 0 0 0 0 0 0 0 0
36 18 4 0 0 0 0 0 0 0 0 0 0 0 0 4 19 0 0 0 0 0 0 0 8 68 94 115 117 89 73 89 119 96 53 0 0 0 0 0 75 108 83 10 63 0 0 0 0 0 0 0 0 0 0 0 0 0 0 0 0 0 0
21 29 13 2 0 0 0 0 0 0 0 0 0 0 0 0 7 0 0 0 0 0 0 0 0 0 0 0 0 0 0 11 56 54 94 111 46 0 0 0 0 0 0 0 0 0 0 0 0 0 0 0 0 0 0 0 0 0 0 0 0 0 0
135 157 127 12 7 0 0 0 0 0 0 0 0 0 0 0 0 0 0 0 0 0 0 0 0 0 0 0 0 0 0 0 0 0 20 62 88 79 0 0 0 0 0 0 0 0 0 0 0 0 0 0 0 0 0 0 0 0 0 0 0 0 0
24 188 65 6 4 1 0 0 0 0 0 0 0 0 0 0 0 0 0 0 0 0 0 0 0 0 0 0 0 0 0 0 0 0 0 3 0 0 0 0 0 0 0 0 0 0 0 0 0 0 0 0 0 0 0 0 0 0 0 0 0 0 0
157 85 44 20 14 0 0 0 0 1 0 0 1 0 0 0 0 0 0 0 0 0 0 0 0 0 0 0 0 0 0 0 0 0 0 0 0 0 0 0 0 0 0 0 0 0 0 0 0 0 0 0 0 0 0 0 0 0 0 0 0 0 0
85 18 6 9 6 9 1 0 0 0 0 0 1 2 0 0 0 0 0 0 0 0 0 0 0 0 0 0 0 0 0 0 0 0 0 0 0 0 0 1 8 0 0 0 0 0 0 0 0 0 0 0 0 0 0 3 0 0 0 0 0 0 0

ECMWFFLT1_con_mucape_099.txt.gz
CAPE
1335 525 868 1056 1092 939 819 750 664 894 873 717 712 623 570 544 745 932 1236 1516 1721 2082 2518 2506 2474 2654 2646 2940 2711 2536 2742 2426 2390 2972 2841 2688 2144 2282 2469 2205 2479 2303 1900 1710 1989 2678 1835 3221 2727 2952 3400 3174 3920 4277 4397 3846 3384 3492 3264 4054 3077 3270 3057
1520 1172 800 906 1020 888 764 930 1018 1019 982 759 927 897 905 849 685 990 1068 1426 1522 1854 2297 2290 2503 2419 2948 3101 2968 3078 2551 2645 2567 2473 2497 2809 2908 3020 2536 2421 2251 2216 3116 2364 2156 2312 3149 2516 2894 3177 3341 3296 3196 4373 4060 3391 3806 3881 3558 3559 3327 4632 4331
1312 1574 851 869 968 795 1086 1026 1125 1049 1072 1158 1082 991 1097 1088 961 1110 1268 1305 1378 1620 2002 1874 2220 2348 2604 3004 3014 3104 2520 2581 2556 2490 2430 2287 2462 2364 2413 2384 2250 2345 2062 2280 2457 2260 2418 3017 2558 3408 3332 2754 2776 3200 4376 4381 3510 2931 3697 3894 3266 3056 3393
2032 2054 1884 1702 783 1028 1086 1129 1179 1162 1163 1217 1088 1300 908 1155 1362 1366 1512 1621 1294 1396 1357 1283 1640 1756 1614 2529 2922 3006 2825 2433 2460 2105 1642 1629 1366 2116 2163 2158 2130 2066 2066 2279 2086 1620 1386 2028 2717 3322 2822 3179 3302 3287 3291 3392 3151 2966 3440 3625 3237 3766 3201
1649 1821 1749 1738 1418 1181 1086 1058 1007 1396 1278 1201 1091 1218 1233 1290 1446 1739 1701 1640 1495 1049 1016 991 860 829 1164 1538 2294 2357 2319 2329 2086 2183 1873 1614 1611 1723 1718 1852 1690 1701 1663 1870 2109 1865 2428 2393 2470 2752 2877 3201 3668 3381 4243 3707 2983 3848 3621 3205 3161 3532 3540
1655 1902 2018 2285 1729 1449 593 729 967 1184 1294 1337 1261 1012 1510 1456 1347 1162 1838 1686 1595 1334 1122 894 518 497 839 1244 1617 1702 2120 2067 1976 2016 1868 2032 1595 1628 1580 1515 1668 1486 1577 1718 1677 1990 2137 1873 2070 2283 2607 2882 2672 2902 2776 3384 3015 3124 3572 3419 3016 2939 2412
2086 2074 1840 1837 1899 1604 1122 843 1057 1080 1110 1152 1216 1210 1586 1573 1815 1811 1963 2213 2488 2050 1237 1133 669 542 754 834 1315 1705 1798 1806 1961 1789 1595 1498 1523 1666 1566 1549 1389 1616 1414 1423 1544 1752 2084 1940 2010 2382 2302 2418 2104 2151 2399 3287 3130 2952 3463 3722 4136 3160 3040
1691 1874 1359 1645 2026 2063 1604 1531 1251 1204 1347 1335 1450 1103 1072 1755 2082 1665 2037 2220 2361 1940 2007 1347 988 932 866 806 918 1174 1438 1632 1744 1679 1435 1165 937 1054 1338 1369 1428 1532 1615 1543 1653 1670 1886 2236 2050 2279 2334 2070 2200 2350 2700 3453 3608 3440 2999 3126 4057 3659 3237
1371 1282 1820 1901 2039 1785 1772 1683 1978 2082 1294 1747 1373 1147 1188 1100 1113 1767 2172 2435 2664 2669 2579 2092 1457 1155 1004 912 650 681 702 973 1068 1179 972 871 637 658 631 851 984 1111 1303 1118 1499 1758 1357 1849 1898 1938 2185 2108 2123 2513 2654 3918 3775 3064 3103 3297 3937 4076 3011
1273 2276 2376 2290 2030 1936 1862 1594 1681 1332 948 1230 1819 2026 1934 1884 1408 1652 2572 2564 2907 2633 2828 2792 2541 1858 1540 1299 1110 771 655 711 733 599 636 656 460 361 380 264 350 710 960 678 780 768 1378 1189 1765 2002 3026 2753 2930 3900 2777 3497 2923 3201 3292 3440 3760 3339 3057
1284 2113 1927 1985 1601 1403 1171 1132 751 1277 2102 1383 1754 1626 1761 1302 1388 1416 2023 2370 2701 2642 2814 3082 3205 3625 3611 3305 1985 1294 1098 969 847 594 666 561 281 220 259 242 258 294 520 629 563 365 655 1386 1692 2343 3382 2740 2745 3104 2682 2891 3068 3046 3138 3432 3118 3020 2466
1337 1089 1699 1233 1725 1160 1019 804 574 1020 911 818 1932 1956 1439 1339 1460 1777 1973 2295 2577 2899 2872 3243 3100 4422 4521 3848 3571 3305 2268 1719 1317 1086 997 960 872 595 273 151 145 192 343 395 561 300 180 900 1710 2095 3324 3034 2774 2877 3073 2814 2987 3172 2998 2957 2992 2957 2901
1000 1209 1191 1147 1452 1232 1691 1630 1512 1223 591 869 1393 1627 2212 2301 2490 2425 2454 2562 2361 2315 2618 3163 3279 3738 3446 3343 3032 3355 2824 2261 1796 1503 1254 1478 1547 1539 1397 525 154 110 189 293 315 353 239 184 1365 1988 2463 2916 2747 2676 2942 3384 3018 3188 3214 2934 2881 2728 2907
1219 1123 1094 1212 1483 1464 1608 1658 1798 1851 2013 1697 1716 1656 1591 1107 2022 2599 2546 2210 2027 2145 2661 3005 2810 3054 3080 3178 2838 2684 2672 2103 1681 1709 1908 1819 1881 1917 1799 1110 343 192 133 164 219 144 217 175 320 1268 1714 2258 2349 2371 2407 3073 3212 3074 3289 3421 2756 2598 2762
1441 1278 1079 1134 1440 1734 1968 1914 1895 1583 1724 1762 1704 1965 2100 2207 2274 2108 2037 1765 1362 1429 1940 2549 2591 2440 2355 3047 3149 2644 2633 2160 1633 2116 2798 2908 3282 3306 3147 2495 1440 630 380 251 213 259 410 181 115 402 1001 1111 1220 1374 1332 1392 1977 2405 2694 2370 2570 2306 2132
1661 1599 1324 1326 1606 1199 1582 1584 1644 1606 1737 1659 1568 1577 1683 1720 1523 1480 1894 1904 1836 1768 1934 1910 2213 2396 2059 2042 2638 2791 2687 2777 2776 2883 2926 3030 3092 3954 3894 3528 3281 2695 1930 1267 975 1188 1012 712 208 178 560 946 1065 860 826 568 714 1640 1697 2262 2451 2290 1923
1598 1366 1070 1126 1030 963 1041 1160 1142 1181 1470 1462 1530 1566 1467 1486 1640 1608 1768 1647 1582 1497 1426 1460 1792 2013 1888 2114 2588 2606 2376 2178 2057 1996 2330 2661 2720 2646 2775 2670 2570 2383 2480 2500 2465 2177 1740 1254 987 516 164 536 941 1252 772 681 1647 1454 1347 1618 1700 1764 2444
1152 992 844 797 873 868 916 907 728 1162 1068 885 862 886 1010 1469 1596 1413 1278 1362 1488 1676 2137 2198 2278 2138 1997 1752 1928 1860 1763 1907 1896 1861 1810 1677 1714 1809 1822 1956 1915 1860 2336 2692 2249 2587 2194 1521 1409 1449 1044 747 874 890 772 481 1332 1372 1197 1273 1410 1392 2293
983 664 602 744 829 697 633 691 683 759 722 699 699 750 794 1211 1187 1133 1280 1183 1467 1768 1922 1942 1978 1748 1597 1292 1254 1403 1265 1444 1436 1235 1396 1668 1600 1426 1391 1627 1678 1703 1755 1799 2178 1849 2031 1744 1500 1620 1620 1081 1054 1288 986 1245 1159 1150 1077 1041 980 841 995
442 737 926 833 684 597 620 618 613 576 577 590 648 702 756 772 768 772 850 842 877 1056 937 1002 1032 963 921 1073 1191 1268 1444 1500 1283 1354 1523 1700 1501 1368 1302 1371 1629 1676 1718 1699 1747 1818 2144 2016 1708 2064 2351 1939 1964 2536 1341 1043 1131 1233 1118 1007 913 887 936
756 1033 870 745 681 636 634 619 606 538 492 501 525 529 555 553 578 634 652 738 823 520 636 770 796 815 859 992 904 830 836 982 976 920 883 981 1011 1021 1458 2293 1960 1606 1580 2283 2434 2302 1909 1896 1224 2019 1532 2391 2062 1956 1844 1012 1402 1513 1562 1378 1196 1058 959
731 841 733 652 614 491 541 500 485 408 378 384 417 468 475 512 497 441 452 446 403 697 663 784 643 572 674 647 662 762 784 864 779 786 807 808 805 748 1015 1303 1189 2102 2229 2221 1626 954 1139 1883 1780 1590 1394 1041 957 1166 1422 1476 1364 1379 1348 1311 1207 1114 1072
592 652 667 602 458 425 432 490 390 354 414 370 356 374 442 428 374 339 329 335 400 475 608 656 720 623 491 453 559 595 638 665 710 709 616 666 675 687 636 561 807 1003 1092 1488 1716 1176 1079 1144 1239 1416 1252 1231 874 1078 1041 842 801 976 1200 1258 1115 990 1346
398 515 597 564 523 476 397 339 344 319 412 453 419 330 279 267 326 307 286 285 364 424 463 520 592 626 619 601 562 551 564 561 575 503 451 483 480 493 474 428 440 606 909 995 1046 1165 1030 1114 1226 1023 631 766 697 795 888 962 941 1003 1175 1154 990 936 862
479 562 448 328 407 429 352 294 322 308 328 428 461 438 317 210 172 232 292 258 314 402 404 379 420 390 432 376 390 459 387 202 277 376 398 432 413 388 390 380 349 230 548 854 788 796 831 1004 854 768 655 620 740 742 715 839 909 940 993 968 865 858 966
114 243 224 174 71 192 360 300 249 240 246 255 246 169 170 147 101 193 274 291 256 208 231 142 36 315 379 393 294 54 405 331 350 360 406 344 257 230 250 234 215 200 207 307 506 630 623 560 723 413 539 570 658 720 810 837 796 838 757 636 590 623 619
190 133 132 104 314 220 255 342 317 265 199 120 50 0 163 155 0 32 212 297 310 263 105 185 169 155 261 53 0 0 256 373 330 277 240 236 233 113 39 209 116 16 54 137 244 262 285 326 347 411 337 333 424 479 573 610 603 569 526 472 478 509 561
107 110 7 147 288 150 2 0 226 290 229 139 0 206 306 243 111 0 126 265 306 316 266 186 219 192 202 12 8 0 88 277 267 182 111 232 212 164 166 207 216 146 1 101 92 139 160 262 221 266 272 226 228 294 373 424 431 397 366 353 323 298 283
38 44 214 241 220 32 0 0 0 0 0 0 54 214 258 255 188 159 177 258 298 318 270 206 245 242 213 193 187 168 0 166 209 11 98 236 203 198 140 146 177 170 0 0 4 0 57 177 227 228 222 170 196 227 298 329 343 330 324 311 285 286 273
102 72 126 129 145 121 17 0 0 0 0 0 105 156 190 237 244 191 168 197 278 340 352 303 254 253 240 216 192 178 170 207 200 129 0 176 214 171 203 182 204 169 167 0 5 54 3 0 117 145 153 171 135 150 203 233 253 269 249 221 210 200 209
61 115 38 36 2 0 27 0 0 0 0 0 0 8 120 232 295 284 194 148 143 168 201 223 229 222 190 170 173 199 211 166 150 158 128 132 142 138 184 241 233 202 152 15 0 0 1 18 19 45 2 0 0 30 38 17 0 43 77 167 168 166 156
54 61 35 17 3 1 0 0 0 0 0 0 0 18 124 145 220 209 189 169 146 138 158 166 182 180 171 157 162 211 253 215 173 104 23 31 84 119 62 93 132 132 146 6 145 94 0 0 0 2 30 0 1 0 0 0 22 122 159 152 113 86 82
101 74 48 36 17 2 0 0 0 0 0 0 0 0 0 101 110 124 132 151 146 120 124 135 170 199 173 121 134 142 165 195 215 184 135 110 109 91 38 0 0 0 0 0 0 65 82 0 0 25 86 73 0 0 0 0 0 0 0 0 0 0 0
179 115 75 50 0 0 0 0 0 0 0 0 0 0 0 0 0 0 9 46 96 110 115 120 134 137 116 114 143 141 146 162 169 181 177 144 78 0 0 0 0 0 0 0 0 0 0 68 46 83 73 56 0 0 0 0 0 0 0 0 0 0 0
292 185 167 73 11 2 2 0 0 0 0 0 0 0 0 0 0 0 0 0 0 0 0 0 3 0 0 3 93 101 89 102 121 130 114 80 3 0 0 0 0 0 0 0 0 0 0 0 85 42 2 3 56 0 0 0 0 0 0 0 0 0 0
347 390 262 150 86 44 2 0 0 0 0 0 0 0 0 0 0 0 0 0 0 0 0 0 0 0 0 0 0 0 0 0 0 0 0 0 0 0 0 0 0 0 0 0 0 0 0 0 0 0 0 0 0 0 0 0 0 0 0 0 0 0 0
440 474 375 246 150 134 58 20 0 0 0 0 0 0 0 0 0 0 0 0 0 0 0 0 0 0 0 0 0 0 0 0 0 0 0 0 0 0 0 0 0 0 0 0 0 0 0 0 0 0 0 0 0 0 0 0 0 0 0 0 0 0 0
565 499 263 228 233 224 51 8 2 0 0 0 0 0 0 0 0 0 0 0 0 0 0 0 0 0 0 0 0 0 0 0 0 0 0 0 0 0 0 0 0 20 0 0 0 0 0 0 0 0 0 0 0 0 0 0 0 0 0 0 0 0 0

ECMWFFLT1_con_mucape_102.txt.gz
CAPE
944 650 480 776 365 315 187 188 256 316 458 283 325 245 458 419 1185 1486 2073 2506 2885 2874 2910 3102 2896 2865 2654 2482 2725 3184 2783 3160 2602 2535 2553 3012 2910 2661 2598 2640 2646 3300 2612 2833 3395 3794 3246 2935 2825 2927 3493 3748 3711 3918 4292 4452 4091 3094 3716 4308 3552 4462 3826
930 606 754 546 589 568 232 403 403 348 557 496 448 602 579 520 1326 1353 1979 2478 2698 2703 2604 2784 2917 2766 2786 2927 2405 3026 3276 3465 3085 3300 2789 3340 3836 3623 2759 2507 2629 3646 3337 4141 3951 3179 3376 2926 3021 3109 3793 3702 3713 4056 3832 3802 4051 3801 3752 4067 3998 5072 5024
1136 581 800 852 933 885 740 776 423 532 527 483 298 272 463 1032 1480 2098 2276 2240 2677 2785 2486 2226 2590 2405 2556 2827 2832 2700 2589 2999 2706 2756 2482 2406 2343 2322 2018 2662 2488 2431 2976 3086 3372 2663 3230 2197 3089 3536 3714 3418 2543 4211 4121 3926 3602 3532 4266 5079 4198 4037 4646
1371 1145 1063 1125 1243 1240 930 896 788 783 757 751 360 217 840 1790 1484 2230 2138 2247 1944 2574 2642 2006 2014 1638 2270 2812 2547 2750 2439 2558 2576 2205 1960 2022 2230 2016 2513 2460 2684 2104 2241 2208 2116 1799 1743 2457 2156 3677 3385 3263 3610 3332 3289 3309 3097 3230 3544 3887 3651 4325 5096
1238 1016 975 1537 2164 1675 1143 1161 1003 1108 1166 1085 962 918 1125 1734 1573 1723 1665 1555 1866 2158 2029 1450 1467 1657 2114 2071 1746 1767 2001 1458 1909 1567 1765 1827 2083 1961 2028 1741 1592 1707 2244 1523 2495 2907 2139 2654 2740 2982 3089 3499 3613 4006 3945 3369 3229 4235 4168 3796 4035 4117 4470
1547 1942 1688 1813 1022 875 858 794 1022 1122 1162 1299 1421 1365 1092 1351 647 694 1062 1218 1618 1930 2164 1639 1237 1624 1270 1581 1466 1231 2001 2385 2476 2627 1803 2156 2154 1581 1574 1876 1395 1329 1837 1806 2041 961 2648 2337 2470 2635 2453 2018 2065 2514 2799 3504 2710 3504 3828 3800 3804 3447 2555
1775 1971 1115 1832 3320 1530 1612 961 574 1227 1466 2057 1571 1386 1320 1311 1012 1043 1028 1149 1686 1770 1154 960 627 1161 1402 1552 1933 2079 1772 1636 1938 1515 1401 956 1412 1557 1752 1562 1750 1128 601 1663 1628 1722 1817 2280 1885 2424 2335 2082 2475 2216 2871 3260 3388 3334 4021 3916 4234 4300 4263
1876 1962 2265 2514 1765 1849 742 845 577 1113 1319 714 1129 1256 1524 1305 1471 1486 1132 725 1109 386 877 695 975 1266 1472 1426 1622 1384 1722 1686 1245 1549 1508 1112 1062 1419 1174 834 1228 1448 1467 820 1331 1459 1240 1979 1121 1504 2166 1294 2250 2282 2904 3167 3899 3127 3090 3953 4079 3565 2262
2074 1819 1593 1416 1713 1680 1864 764 1410 976 693 1420 1076 1557 1644 1572 1935 1619 2493 4310 2623 1507 1589 1198 1450 2064 2186 2016 1975 1844 1824 1668 1762 1520 1112 770 582 645 675 788 861 1254 1148 871 793 1324 1388 1698 1361 2140 2348 2217 2849 3035 2734 3243 3341 3107 3267 3438 3771 3780 2942
1354 1269 1112 1072 1315 1223 1436 1507 1787 1650 1756 1942 1666 1164 736 1097 2104 3122 2957 3552 2416 2254 2464 2068 2347 2450 2495 1877 1801 1584 1711 1613 1789 1107 1024 714 542 360 302 309 464 774 809 782 681 790 1639 1369 1563 2348 2901 2590 2519 2824 2840 3760 3735 3517 2778 3504 3684 3974 4297
1044 1120 1218 1240 1679 1769 1838 2539 2110 1352 1730 1660 1451 1373 1550 874 1348 1586 2506 1992 2348 1335 1029 2625 2503 2390 2485 1864 1405 1285 1409 1150 1284 886 1480 1614 1252 365 254 165 126 289 416 523 535 464 552 1618 1534 2130 3275 1960 2490 2726 3447 3121 3321 3424 2452 2941 2788 3368 2969
1157 1142 1127 1312 1481 1135 1217 1176 1651 1687 1899 1733 1588 1839 2232 2245 1694 2023 2566 2348 2423 2029 2197 1975 3119 2819 2520 2176 1696 1646 1136 591 519 839 1113 1407 1230 1000 196 130 146 126 116 160 356 681 274 958 1114 1250 2923 3137 2863 2642 3045 3138 3097 3375 3214 2312 2750 2917 3006
908 1013 1007 1217 1459 1124 996 957 1121 1595 1780 1390 1574 1647 2346 2724 2546 2488 2579 2995 3093 3005 2404 2355 3138 4257 3845 3349 2288 2040 1507 796 716 538 808 1457 1687 1562 925 337 115 48 73 158 252 280 235 112 1025 1662 2078 3420 2920 2414 2592 3033 2689 3161 3360 2928 2666 2670 2933
1276 1287 1246 1208 1098 1155 1066 1004 898 1173 1369 2080 2427 2244 2016 2474 2168 2485 2552 3003 3118 3299 2618 2390 2267 4104 4596 3763 3524 3752 2838 2070 1545 1920 2180 2333 2275 2199 2048 1600 1145 790 485 131 168 146 128 135 210 915 1224 2028 2658 2760 2934 3140 3159 3565 3514 3132 2827 1916 2775
1239 1165 1246 1148 1112 933 962 968 1200 873 735 1567 2062 1786 1991 2023 2637 2473 2484 2443 2484 2081 2616 3027 2873 3006 2975 3325 3440 3463 3451 3108 3058 2769 2914 2953 2924 2788 2687 2544 1675 1586 1492 1109 673 64 152 204 177 204 734 1277 2466 2744 2216 1607 2470 3025 2938 2686 3429 2614 2059
950 1038 1088 1139 1410 1401 1515 1495 1729 1731 1548 1901 1774 1604 1818 2189 2494 1995 2513 2242 2017 2012 2348 3095 3192 3178 3115 3355 3532 3456 3450 3444 3052 2586 2798 3130 3202 3329 3145 2814 2934 2469 2800 3075 3119 1994 1393 1698 1429 495 224 623 1110 1661 1673 1325 1214 1445 2595 2220 2641 2764 2187
636 779 871 1210 1519 1061 1352 1286 1532 1595 1659 1658 1496 1771 1597 1618 1755 1805 1758 1837 2039 2164 2884 2762 2550 2886 2804 3021 3131 3285 3257 3276 2957 3108 3263 3366 3383 3609 3964 3711 3591 3383 3258 3237 3107 3548 3462 3261 2188 1246 612 154 213 516 548 447 1395 1180 1290 1477 2152 2436 2780
1026 988 939 1310 973 1203 1186 1524 1490 1473 1535 1560 1379 1484 1479 1282 1687 1546 1581 1595 1550 1789 2040 1941 1692 1836 1919 2033 2444 2842 2765 2700 2590 2667 2563 2573 2665 2707 2822 3002 3049 2941 2763 2632 2699 3010 2377 2262 2408 2316 1841 644 540 728 764 219 941 1024 1058 1080 1378 1651 2931
913 796 739 776 1186 1163 967 1021 1055 1068 1000 1040 1012 1063 1068 1223 1224 1206 1144 1136 1173 1543 1540 1527 1844 1918 1864 1562 1540 1439 1469 1775 1991 1863 1918 2091 2041 2141 2206 2433 2487 2626 2385 1843 1622 2279 2439 2041 2114 2441 1464 1028 906 1212 1074 1071 753 1127 912 938 1151 1362 1675
563 778 915 898 907 906 847 817 772 745 753 707 741 806 842 954 1177 1218 1082 1015 1039 1055 895 838 878 982 988 1059 1145 1293 1524 1447 1573 1330 1395 1375 1613 2092 2185 2043 1957 2051 1930 1644 1740 1924 2368 2254 2604 2917 1835 1472 1122 1418 943 1132 1088 1110 1103 1046 1092 1148 1291
781 1059 879 725 704 692 655 652 596 606 604 628 640 657 633 719 767 811 837 813 843 813 793 747 820 905 955 964 954 944 938 1055 1129 1115 1045 1159 1413 1456 1620 1619 1601 1435 1666 2084 1928 1884 2134 2519 2984 2151 1766 1460 1686 1466 550 699 1136 1092 1291 1259 1114 1050 1066
918 950 877 690 602 615 588 590 571 570 627 629 597 619 602 606 638 669 679 644 662 742 726 672 693 677 737 794 771 782 839 900 964 985 934 975 1015 966 920 908 935 979 1138 1276 1285 1422 2211 2350 1921 1704 1461 1237 1131 1161 976 881 1109 1342 1389 1464 1513 1513 1761
943 863 762 655 589 587 542 524 585 616 620 582 568 510 518 500 490 513 494 487 490 459 449 418 512 646 648 665 696 656 700 738 711 776 772 754 750 778 748 683 754 885 916 977 1056 1477 1523 1712 1578 1503 1506 1271 1022 1029 1028 920 1005 1187 1317 1297 1373 1411 1827
684 609 579 508 581 645 610 547 583 564 566 484 518 476 435 463 467 452 415 396 386 382 368 368 395 448 538 573 578 624 599 612 632 684 727 680 690 682 701 653 615 794 903 899 974 1112 1148 1149 1142 1052 1028 1049 1099 805 1045 912 861 882 932 990 908 1066 1151
573 555 532 512 528 484 405 446 462 428 447 426 351 363 329 364 372 331 311 315 320 360 360 362 389 403 411 414 398 530 506 500 500 536 604 582 555 576 565 605 622 633 655 616 587 800 927 1012 1061 827 746 848 930 949 1077 837 694 642 735 852 945 1021 1039
335 323 302 310 354 369 309 234 221 292 259 323 402 478 462 358 252 219 206 244 327 374 362 367 391 343 235 10 286 420 484 468 461 495 504 515 506 521 332 339 373 312 305 319 462 517 570 680 816 770 555 498 460 507 693 722 693 748 832 844 886 884 952
196 285 266 196 138 126 97 152 150 54 207 232 243 293 265 170 19 0 78 170 240 311 299 274 281 276 237 221 301 327 252 261 359 418 373 300 327 345 272 269 286 270 299 316 331 324 430 227 375 450 348 402 481 563 657 636 639 580 562 645 711 724 685
128 23 7 36 122 103 0 0 0 0 12 163 187 238 232 219 183 163 0 71 169 240 318 300 229 221 218 240 253 198 0 180 259 331 348 294 260 324 298 264 246 251 227 222 214 239 269 270 385 398 438 404 415 435 331 466 544 632 667 696 689 648 551
125 80 14 0 0 56 49 0 0 0 50 69 140 124 114 206 325 348 252 109 6 142 237 330 314 254 203 208 228 174 119 0 110 265 267 246 141 14 209 249 234 208 197 214 224 190 129 9 248 351 330 256 220 149 210 287 330 402 496 545 565 517 484
141 92 19 0 0 38 0 0 0 0 0 0 0 84 119 188 295 310 278 207 157 151 158 202 267 273 254 231 218 207 182 181 114 120 25 66 75 0 143 194 216 194 180 194 203 206 160 26 40 13 110 123 145 0 37 133 223 322 352 390 404 419 389
178 147 15 0 0 0 0 0 0 0 0 0 0 0 102 148 177 208 226 246 208 173 181 207 228 235 239 246 213 190 126 158 172 73 0 103 90 0 138 188 183 169 160 169 189 222 204 118 34 67 103 191 139 0 0 73 84 149 235 277 323 317 293
218 188 43 2 2 0 0 0 0 0 0 0 0 0 54 114 138 178 244 246 238 210 141 130 86 95 170 206 223 210 176 134 142 146 143 156 148 121 18 36 118 129 145 157 171 161 48 10 5 10 36 17 24 22 14 17 2 123 104 54 108 154 158
246 233 89 11 2 0 0 0 0 0 0 0 0 0 0 0 0 18 144 201 223 226 179 102 24 0 0 106 144 157 146 169 162 152 169 172 178 151 109 88 111 122 107 0 0 146 0 0 10 24 12 23 31 100 24 106 0 0 0 0 67 110 125
296 100 131 116 31 36 1 0 0 0 0 0 0 0 0 0 0 0 0 0 0 68 123 122 89 24 0 0 0 93 99 87 88 137 154 120 100 119 139 124 109 112 106 92 17 0 0 0 2 0 0 0 2 36 108 0 0 0 0 0 59 102 67
198 130 90 19 2 4 0 0 0 0 0 0 0 0 0 0 0 0 0 0 0 0 0 3 81 78 24 0 0 0 0 21 71 109 118 94 100 65 95 117 7 0 3 0 0 0 0 0 0 0 0 0 0 3 0 0 0 0 0 0 0 0 0
352 392 174 40 22 13 0 0 0 0 0 0 0 0 0 0 0 0 0 0 0 0 0 0 0 0 0 0 0 0 0 0 0 0 33 49 44 76 81 74 37 0 0 0 0 0 0 0 0 0 0 0 0 0 0 0 0 0 0 0 0 0 0
485 392 436 155 119 90 14 1 0 0 0 0 0 0 0 0 0 0 0 0 0 0 0 0 0 0 0 0 0 0 0 0 0 0 0 0 0 0 0 0 0 0 0 0 0 0 0 0 0 0 0 0 0 0 0 0 0 0 0 0 0 0 0
569 555 500 336 300 322 154 70 28 17 14 0 0 0 0 0 0 0 0 0 0 0 0 0 0 0 0 0 0 0 0 0 0 0 0 0 0 0 0 0 0 0 0 0 0 0 0 0 0 0 0 0 0 0 0 0 0 0 0 0 0 0 0

ECMWFFLT1_con_mucape_105.txt.gz
CAPE
668 470 374 74 77 21 11 18 41 41 53 213 151 145 593 1121 1519 1811 1899 2081 1943 2210 2192 2097 2154 2138 2291 2877 3072 2867 2707 2756 2935 2616 2979 3092 2969 2929 3297 2631 3390 3297 3418 2424 2694 2474 2839 3867 3146 3385 3588 4049 3859 4098 3868 3628 3833 3942 4268 4610 3814 4334 4261
875 584 404 191 104 44 13 17 47 81 100 288 136 132 294 1028 1449 1785 1970 2166 2065 2368 2407 2124 2150 1989 2322 2534 2854 2566 2385 2304 2526 2679 2430 3041 3636 3147 2712 2603 3041 3074 2982 3404 3289 2806 2871 2708 3327 3040 3529 4133 3626 3936 3839 4223 3615 3541 3435 3766 3263 4151 4330
916 746 415 289 187 52 32 39 50 184 160 238 199 204 749 1345 1580 1756 1946 2244 2174 2454 2455 2326 2280 1905 2245 2019 2771 2393 2548 2576 2620 2844 2442 2329 2751 3312 2664 2543 2578 2794 2553 2717 2616 3182 3420 3085 3034 2648 3483 3582 3710 3645 3827 3638 3435 3448 4276 3340 4068 4231 3688
922 840 764 367 202 132 62 99 96 283 247 172 232 255 1020 1406 1520 1745 1982 2326 2237 2482 2266 2500 2262 2206 2036 2171 2639 2694 2494 3005 2548 2942 2694 2388 2545 2363 2198 2470 2354 2756 2403 1707 2720 2525 2667 2852 3143 2644 4717 3448 3636 3594 3867 3597 3391 3518 3865 3928 4102 3936 3991
966 1102 881 657 539 291 190 81 175 400 368 96 303 314 950 1264 1522 1907 1995 2343 2291 2359 2257 2307 2253 2288 2196 2280 2189 2604 2572 2942 2575 2660 2519 2152 2328 2203 2255 2286 1571 2360 2434 1858 1880 2382 2875 2634 2808 3008 3463 3135 3566 3366 3614 3518 3097 3139 3929 3857 3465 3476 4054
1027 1130 967 667 928 1276 194 135 405 413 388 181 221 521 1047 1046 1758 1924 2023 2383 2296 2264 2256 2106 1965 2025 2136 2329 2182 2106 2301 2698 2509 2032 2013 1970 2042 2047 2020 2059 1959 1557 2264 1791 1868 2232 2294 1980 2590 2537 3118 2881 3094 3229 3364 3566 3126 3540 3609 4015 3054 3188 4056
1036 1214 1180 594 467 841 708 302 703 718 396 475 822 1203 1157 1320 1707 1762 1928 2216 2211 2124 2131 1868 1708 1682 1944 2200 2092 2057 1982 2197 2249 1987 1920 1795 1899 1654 1723 1725 1987 1558 1725 1899 2049 1927 1665 1885 2138 2152 2632 2481 2705 3078 3052 3358 2996 3410 3428 3338 3265 3410 3511
1006 1331 881 844 988 760 582 1097 1322 620 347 636 764 889 1050 1271 1562 1648 1714 1905 1920 1963 2000 1770 1619 1622 1871 1971 1939 1680 1898 1680 1955 1819 1825 1741 1695 1538 1381 1470 1370 1481 1250 1674 1948 1602 1846 2357 1724 1995 2469 2387 2394 2352 2516 2802 2946 3160 3568 3375 3333 3706 3865
1055 926 938 877 842 326 643 492 531 1045 1000 974 848 812 1026 1209 1761 2222 1584 1703 1680 1888 1829 1653 1294 1648 1688 1677 1671 1650 1832 1778 1852 1617 1564 1470 1604 1352 1396 1396 1352 1335 1401 1503 1462 1534 1858 2134 1964 1654 1931 2055 2105 2180 2298 2742 3006 3344 3062 3073 3403 3426 3401
1156 1160 1166 1025 924 813 1190 934 771 856 794 799 840 791 903 1173 1351 2054 2287 1544 1867 1594 1607 1260 1186 1270 1146 1531 1440 1449 1658 1546 1694 1547 1418 1368 1145 1070 1109 1210 1070 1160 844 928 869 1390 1505 1596 1613 1146 1884 1668 2237 2424 2328 2194 2315 3395 2964 2570 3248 3516 3395
1243 1223 1131 1034 792 709 964 897 832 846 715 667 892 829 810 1078 1223 1770 2691 2199 1801 1712 1742 2419 1843 1004 1135 1639 1185 1207 1384 1590 1422 1536 1283 1212 1109 892 818 684 664 1058 877 878 872 735 1098 1457 1413 1733 2594 1965 2608 2544 2643 2898 2984 3419 3242 3089 3225 3252 3318
1299 1356 1396 1188 893 955 1103 975 887 1033 974 872 1089 859 675 843 1174 1546 2396 2134 1649 1534 1511 1538 2395 2066 1335 1616 1279 1201 1553 1456 1460 1279 1240 1138 1011 1228 490 409 322 593 833 825 765 686 655 1202 1161 1026 2679 2129 2099 2310 2939 3219 3325 3378 3040 2745 2704 2932 3258
1312 1302 1335 1220 1058 1033 901 849 970 1072 984 1296 1576 1546 1183 712 939 1629 2451 2224 1939 1859 1467 1913 3176 3685 1715 1391 1110 1083 991 1034 1021 941 1275 1195 1101 1185 532 393 495 566 220 444 564 532 484 1135 970 865 2098 2222 2670 2696 2801 3000 2772 2656 3020 2908 2614 2636 2511
799 1001 1073 1117 957 982 926 1031 1176 1104 1056 1110 1219 1217 1337 839 825 1903 2640 2541 2712 2555 1880 2293 2494 3000 3569 1693 1223 1391 1183 838 776 771 681 1004 1371 1190 797 1309 1560 1665 1509 1352 1421 253 224 227 790 830 1645 2711 2508 2482 2508 2743 3021 2718 2993 3174 2717 2582 2812
814 972 1001 999 979 895 859 913 1103 1010 752 815 795 1316 2205 2404 2366 2629 2879 2934 3165 2304 2113 1909 2156 2641 2881 3156 2248 2072 2226 2017 1906 1878 1509 2439 1648 1651 1428 1378 1615 1400 2179 2848 2696 2326 2151 1775 628 714 1202 2460 2579 2589 2491 2326 2114 1707 1824 2144 2912 2728 2410
734 811 831 1000 1000 924 830 771 893 700 1056 1317 1675 2042 2171 2054 1826 2048 2272 2362 2536 2163 2002 2356 2405 2653 2865 2267 2525 2181 2638 2192 1890 1775 1842 2500 2851 2170 2062 2073 2126 3048 3150 2946 2968 3066 2963 2353 1910 1498 845 705 1595 2116 2268 2169 2055 1579 1668 2308 2576 2690 2608
967 853 853 826 1062 894 940 858 810 902 1281 1225 1266 1568 1741 1605 1541 1808 1938 1906 1829 1724 1840 1729 1621 1583 2307 2206 2122 1863 1885 1551 1338 1374 1766 1955 2944 3435 3603 3397 3223 3053 2890 2775 3060 2814 2456 1989 2132 1407 1117 850 632 890 1219 1454 1650 1160 891 878 1365 2854 2673
892 955 990 822 736 652 876 898 720 731 824 1032 1054 1063 1372 1664 1576 1860 1874 1681 1441 1537 1656 1683 1865 1888 1895 1910 2012 2126 1830 1945 1531 1147 1345 1465 2099 2527 2891 3277 3196 2980 2682 2315 2284 2246 1896 1622 1802 1711 1441 1022 756 542 357 513 660 484 597 824 1072 1615 3111
640 594 689 788 722 797 964 736 645 627 727 609 789 1038 985 1035 1129 1481 1530 1534 1273 1210 1198 1433 1552 1644 1750 1703 1656 1808 1767 1928 1890 1886 1872 1625 1584 2003 2320 2645 2813 2718 2416 1956 1638 2298 1843 1884 1981 1984 1737 1315 1056 816 554 418 543 607 675 805 1076 1338 2120
837 725 632 688 686 724 747 829 717 706 774 710 778 750 830 901 790 746 799 978 1044 912 829 619 727 770 662 761 1061 1226 1480 1416 1554 1676 1770 1760 1767 1775 1988 1939 1796 1952 1974 1942 1814 1644 1909 1828 2456 2030 1819 1716 1473 1163 884 797 861 878 858 857 863 979 1434
854 812 950 868 702 685 706 653 576 752 812 759 779 760 787 776 793 830 927 1009 993 902 844 779 624 575 693 851 938 1067 1172 1223 1262 1317 1241 1177 1024 1054 1498 1537 1656 1555 1398 1293 1322 1407 1729 1707 2008 1793 1625 1552 1532 1345 1164 918 901 978 1010 1008 1020 995 1675
803 712 874 814 712 809 744 777 783 819 809 712 684 697 696 819 726 762 805 819 837 886 838 756 707 664 645 667 776 897 937 916 952 996 1024 1048 996 875 1010 1108 1146 1218 1187 1093 1094 1102 1203 1931 2175 1585 879 872 1030 988 1228 1206 1063 827 791 964 1106 1232 2092
686 735 712 662 753 600 712 615 620 623 663 653 619 615 615 626 608 631 688 722 704 695 680 663 667 675 681 675 697 744 790 820 816 838 924 1007 1027 1025 1024 887 890 908 888 815 804 880 1121 1296 1681 1609 1418 852 537 424 584 870 1051 1002 772 851 972 1172 1948
399 329 514 465 476 583 616 596 584 582 604 608 589 588 584 536 476 495 492 455 452 471 523 528 525 532 524 537 567 626 636 702 704 698 807 880 903 886 828 841 863 836 724 689 646 755 790 796 944 1148 1236 998 750 555 609 743 841 944 834 997 1178 1237 1420
337 234 204 439 504 573 580 606 606 616 583 574 536 486 436 419 382 376 359 338 341 361 386 379 377 379 402 400 401 450 529 574 625 644 661 661 674 657 662 705 743 729 704 686 607 598 664 701 681 772 837 747 878 855 770 788 845 865 802 818 914 940 1016
237 160 92 353 350 456 472 480 459 472 514 532 514 455 429 354 284 244 11 28 316 331 378 378 354 341 293 285 249 255 282 357 424 494 517 540 563 566 598 610 606 596 527 516 508 538 542 534 466 332 316 229 523 812 751 794 864 791 770 776 681 705 858
316 290 430 364 298 270 333 344 392 406 348 344 328 346 357 319 230 0 0 80 0 0 0 217 241 252 272 270 253 223 238 284 312 353 391 415 462 481 498 376 279 323 357 353 332 295 248 185 204 129 198 38 112 408 639 653 549 534 475 456 466 510 615
295 340 286 309 290 273 292 352 295 320 252 170 176 0 112 0 0 0 9 78 76 0 0 0 221 245 224 219 231 242 248 264 254 263 251 246 304 385 442 396 322 304 298 290 262 226 186 154 143 152 145 42 13 276 600 562 470 353 336 425 381 529 508
69 153 195 183 175 190 191 228 221 185 170 10 0 0 0 0 0 43 99 161 138 0 0 0 38 236 250 231 217 235 226 193 154 118 164 227 300 344 392 229 121 148 192 202 184 151 122 98 93 90 86 125 300 420 556 394 215 175 193 289 472 531 553
13 0 0 0 129 162 201 178 55 0 0 0 0 0 0 0 0 170 238 235 171 0 0 0 146 216 240 255 245 232 217 200 164 126 168 212 235 249 257 188 0 0 95 136 137 130 80 16 77 88 97 12 147 217 215 144 144 176 197 233 371 367 304
40 2 0 0 0 136 169 124 0 0 0 0 0 0 0 0 0 0 87 70 0 0 0 0 0 156 165 171 185 209 193 175 188 203 203 153 0 59 0 0 0 0 0 0 126 126 116 1 24 15 3 0 0 77 96 0 0 0 0 37 148 166 181
104 4 0 0 0 0 0 0 0 0 0 0 0 0 0 0 0 0 34 41 116 122 88 29 25 0 83 92 88 0 95 95 51 0 0 0 0 0 18 0 0 0 0 0 0 69 78 58 1 4 2 10 5 3 1 0 0 41 31 0 72 120 155
161 151 73 0 0 0 0 0 0 0 0 0 0 0 0 0 0 0 0 0 15 0 115 116 95 38 0 0 0 0 0 0 0 0 0 0 14 0 0 0 0 0 0 87 94 42 0 0 0 0 0 0 0 0 0 0 0 0 0 0 0 0 71
150 137 36 2 12 1 0 0 0 0 0 0 0 0 0 0 0 0 0 0 0 0 0 0 42 35 16 0 0 0 0 0 0 0 0 0 0 0 0 0 0 0 37 83 79 62 8 0 0 0 0 0 0 0 0 0 0 0 0 0 0 0 23
161 62 75 26 0 0 0 0 0 0 0 0 0 0 0 0 0 0 0 0 0 0 0 0 0 0 0 0 0 2 0 0 0 0 0 0 0 0 0 0 0 0 0 0 0 0 2 0 0 0 0 0 0 0 0 0 0 0 0 0 0 0 0
54 99 56 1 0 0 0 0 0 0 0 0 0 0 0 0 0 0 0 0 0 0 0 0 0 0 0 0 0 0 0 0 0 0 0 0 0 0 0 0 0 0 0 0 0 0 0 0 0 0 0 0 0 0 0 0 0 0 0 0 0 6 31
334 231 77 45 0 0 0 0 0 0 0 0 0 0 0 0 0 0 0 0 0 0 0 0 0 0 0 0 0 0 0 0 0 0 0 0 0 0 0 0 0 0 0 0 0 0 0 0 0 0 0 0 0 0 0 0 0 0 0 0 0 0 0
408 308 160 227 69 27 22 4 0 0 0 0 0 0 0 0 0 0 0 0 0 0 0 0 0 217 0 0 0 0 0 0 0 0 0 0 0 0 0 0 0 0 0 0 0 0 0 0 0 0 0 0 0 0 0 0 0 0 0 0 0 0 0

ECMWFFLT1_con_mucape_108.txt.gz
CAPE
252 292 112 0 0 0 0 4 63 85 475 560 510 445 905 1029 1045 1202 1369 1542 1769 1762 1997 2131 2173 2618 2561 2188 2636 2398 1791 2428 2396 2114 2209 2429 2997 2947 2837 2920 2823 2593 2568 2216 2384 2289 2258 3280 2778 2685 3139 3332 3353 4029 4040 3843 3614 3780 4106 3351 3622 3898 3334
280 247 314 14 0 0 0 0 41 44 140 498 485 483 1102 1177 1141 1304 1374 1423 1814 1782 1875 2025 2097 2425 2576 2388 2760 2562 2120 2639 2517 2860 2488 2524 3272 2958 2830 2799 2851 2740 2802 2094 1724 1926 2145 2713 2967 2831 3085 3470 3153 3624 3921 3317 3184 3111 3314 3559 2996 2775 4019
317 223 287 211 0 0 0 0 14 26 24 295 400 609 1155 1244 1240 1372 1426 1328 1783 1861 1819 1944 2051 2203 2621 2532 2678 2607 2206 2573 2493 2506 2504 2584 2858 2829 2816 2550 2698 2737 2785 2235 2159 2225 2548 2170 2850 2772 2854 3210 3158 3293 3501 3184 3300 3054 3262 3065 3036 3132 3266
347 332 292 319 33 0 0 1 15 19 21 56 267 731 1118 1294 1308 1431 1502 1320 1668 1914 1813 1789 1968 1990 2349 2618 2458 2484 2182 2380 2424 2171 2087 2371 2550 2785 2660 2272 2452 2777 2776 2760 2463 2516 2756 2135 2480 2630 4149 3116 3287 3166 3269 3208 3045 2920 3325 3160 3040 3314 3292
342 429 408 412 145 1 0 0 13 18 22 64 147 798 1095 1319 1384 1486 1623 1405 1598 2045 1775 1730 1856 1826 2010 2535 2368 2232 2197 2140 2292 2154 2059 1932 2259 2436 2561 2333 2180 2577 2432 2466 2338 2436 2533 2448 2496 2346 2912 3064 2990 3089 3285 3221 3127 2964 2949 3159 3117 3266 3387
403 457 497 466 354 114 9 4 19 26 38 50 119 712 1078 1387 1479 1586 1722 1650 1559 2134 1878 1756 1844 1808 1801 2316 2421 2127 2160 2233 2129 2210 2325 2062 1939 1982 2142 2301 2088 2217 2217 1875 1822 2044 2127 2302 2505 2447 2466 3032 2921 3037 3201 3124 2997 2884 2688 3161 3030 2882 3257
479 540 616 587 461 336 272 262 216 64 37 45 267 783 1117 1402 1554 1667 1821 1822 1728 2153 2097 1902 1907 1898 1804 1955 2307 2298 2039 2372 2239 2151 2317 2250 1981 1934 1970 1946 1925 2041 2129 1706 1503 1610 2079 2089 2328 2411 2343 2682 2725 2753 2925 2951 3016 2891 2836 3105 3127 2954 2977
573 770 731 665 575 693 660 478 261 319 410 267 492 920 1076 1314 1509 1706 1940 1944 1813 2104 2149 2075 1963 2015 1797 1851 2013 2153 2184 2225 2431 2184 2188 2202 2014 1959 2055 1949 1885 1732 1858 1801 1608 1434 1735 1884 2118 2218 2311 2399 2453 2408 2564 2678 2800 2820 2816 2688 2649 2749 2989
685 1053 914 835 687 541 726 487 382 458 522 491 639 941 1098 1334 1506 1717 1974 1996 1881 2014 2073 2129 2022 2052 1892 1803 1885 1941 2083 2119 2373 2419 2284 2047 1901 1855 1933 1927 1822 1695 1610 1748 1674 1468 1440 1498 1381 1748 1926 2138 2222 2142 2308 2575 2694 2808 2898 2883 2730 2642 2803
627 793 948 1070 827 623 594 236 455 719 749 699 764 975 1207 1382 1537 1706 1960 2030 1954 1966 2004 2006 2005 2001 2017 1895 1898 1910 1912 1908 2040 2199 2163 1850 1734 1810 1792 1662 1533 1630 1607 1475 1558 1518 1441 1363 1374 1352 1566 1725 1954 2103 2146 2289 2475 2655 2688 2664 2684 2756 2634
734 800 867 925 822 673 490 316 401 647 766 774 826 1019 1272 1396 1518 1632 1898 1997 1954 1922 1960 1936 1933 1920 1881 1950 1951 1968 2052 2022 1862 1913 1880 1731 1684 1705 1651 1472 1264 1154 1175 1146 1058 1380 1506 1489 1471 1406 1404 1532 1736 1976 2063 2050 2186 2262 2522 2472 2525 2601 2666
991 824 886 839 600 502 493 472 387 454 648 854 901 1098 1296 1416 1513 1576 1798 1905 1905 1894 1924 1917 1921 1792 1715 1787 1880 1902 1966 1968 1930 1844 1772 1708 1632 1504 1474 1312 1092 1114 1012 1011 883 924 1252 1323 1372 1468 1508 1464 1514 1689 1804 1845 1802 1948 2464 2629 2590 2536 2541
816 850 788 706 657 461 344 382 427 365 751 712 805 1129 1372 1526 1626 1610 1703 1786 1789 1785 1864 1937 1869 1722 1706 1750 1798 1843 1826 1802 1852 1822 1716 1572 1521 1320 1175 1186 1141 1044 909 860 882 1017 1049 1080 1214 1309 1392 1523 1513 1762 1728 1891 1930 2027 2414 2676 2720 2685 2601
827 952 925 827 727 650 473 337 389 335 549 701 808 680 1092 1396 1602 1746 1639 1602 1626 1584 1730 1839 1777 1562 1590 1674 1705 1652 1604 1646 1642 1634 1649 1601 1507 1392 1216 1058 966 1092 1516 1878 1293 865 850 818 1062 1186 1206 1460 1511 1665 1893 2106 2367 2343 2490 2617 2643 2531 2456
1023 1028 1051 998 876 730 552 494 456 424 534 662 734 703 854 991 1240 1464 1667 1649 1363 1397 1602 1675 1599 1177 1116 1236 1370 1374 1342 1314 1316 1378 1439 1446 1391 1337 1241 1027 1015 1624 2204 2014 1954 2119 1892 1194 627 858 976 1212 1585 1732 1916 2284 2488 2508 2500 2584 2558 2551 2512
1036 995 1066 1143 1122 989 787 554 470 438 497 536 596 753 592 587 654 982 1179 1164 1161 1040 763 1202 1472 1811 1448 1063 984 1093 1065 1058 1190 1172 1401 1660 1754 1826 1399 979 1663 2010 2197 2284 2403 2367 2037 1461 833 518 733 1000 1822 1951 1993 2134 2256 2234 2229 2171 2000 2009 2203
928 864 831 827 830 787 738 656 497 562 663 636 532 789 928 596 566 787 1143 855 1030 1096 1004 1432 1083 1745 2060 1350 1086 1140 1321 1183 1249 1311 1695 1849 1930 2111 2568 2400 2259 2381 2482 2510 2308 2027 2106 1312 992 648 583 820 1694 1946 1998 2053 2083 2076 2025 1911 1740 1834 1959
902 886 858 918 813 684 587 583 545 622 729 936 1155 1061 1070 868 896 786 1020 960 1131 1216 1148 1386 1590 1557 1984 1899 1610 1064 1050 1329 1321 1370 1287 2065 2413 2400 2344 2757 2647 2368 2313 2331 2180 1946 1736 1592 1297 966 687 692 1339 1778 1990 2125 2074 2006 1955 1907 1684 1470 2219
919 884 842 930 896 841 691 602 572 584 627 691 1087 1164 1152 1018 1209 1218 1064 1234 1406 1572 1357 1521 1733 1896 2095 2202 1991 1814 1445 1278 1456 1451 1346 1276 1809 2385 2538 2614 2725 2677 2415 2271 2142 2089 1791 1638 1545 1299 1066 828 616 872 1178 1234 1078 1081 1155 1280 1186 814 2420
903 961 816 856 850 808 770 739 734 643 631 734 1005 1147 1089 1057 1328 1475 1264 1283 1500 1613 1468 1495 1699 1879 1819 1838 1842 1890 2012 1945 1866 1820 1624 1348 1396 1655 1911 2233 2522 2662 2529 2249 2020 1867 1669 1713 1660 1596 1545 1306 972 732 609 599 608 588 540 531 589 831 1680
693 712 764 727 834 864 774 791 805 866 836 821 722 848 951 1197 1244 1190 1326 1446 1342 1222 1090 1039 1056 1180 1368 1481 1564 1630 1772 1824 1800 1826 1882 1813 1664 1622 1706 1798 1956 2178 2332 2280 2181 2047 1773 1574 2037 1742 1575 1444 1418 1314 1133 912 719 639 579 683 735 866 1611
606 580 625 636 686 759 458 538 726 783 826 724 701 647 515 467 655 716 803 785 671 675 606 567 563 452 536 624 725 944 1154 1411 1477 1581 1730 1836 1851 1764 1662 1544 1530 1595 1639 1847 1930 1841 1599 1242 1694 1690 1441 1279 1369 1370 1314 1185 1014 928 863 805 888 1159 1880
628 639 637 627 613 522 612 672 688 772 762 776 724 745 570 517 517 642 630 715 690 780 784 769 802 674 701 791 845 891 943 992 1167 1302 1428 1510 1554 1538 1464 1276 1035 970 1027 1014 1008 1062 953 824 1230 1458 1407 1298 1159 988 696 599 662 505 646 791 912 1448 2202
516 418 696 719 682 652 574 545 531 559 613 664 663 642 621 680 676 688 738 799 803 818 817 817 815 804 806 857 863 840 865 888 878 926 992 1051 1098 1117 1102 1054 1015 993 954 865 821 806 776 750 776 872 1118 1189 1165 1046 772 438 108 7 162 354 605 1118 2061
454 495 454 496 538 591 534 517 518 513 556 585 596 564 558 542 561 576 618 606 657 684 683 687 681 676 692 724 766 816 848 815 835 855 871 860 867 890 945 1014 1026 996 912 832 727 731 701 718 661 668 719 850 831 771 739 732 660 446 168 139 439 754 1270
0 95 331 382 369 521 549 527 506 471 495 525 520 526 527 503 486 471 426 465 437 438 447 469 499 506 519 524 540 556 581 624 673 702 710 711 739 733 746 780 758 775 745 658 610 581 549 584 632 673 662 565 689 648 626 675 727 736 586 308 413 646 861
0 186 291 455 437 462 512 464 460 492 476 465 429 405 389 370 350 337 281 196 220 283 314 330 348 367 383 378 381 370 367 381 439 500 539 565 570 560 582 604 622 614 542 501 461 434 441 423 406 259 320 318 330 369 397 443 506 535 558 616 529 619 758
116 41 249 308 315 346 354 358 356 341 296 275 285 312 291 280 256 250 215 181 158 80 3 4 107 204 230 257 282 295 312 323 314 332 366 403 427 442 437 421 426 428 385 342 292 254 250 236 262 265 248 242 266 248 208 125 166 295 371 498 643 565 526
180 236 262 206 187 216 251 265 259 265 80 0 41 124 153 150 79 60 57 62 62 0 67 67 39 162 229 264 258 270 265 272 275 277 279 288 285 304 320 344 347 340 316 289 269 247 230 216 186 163 151 134 152 187 203 125 113 217 298 435 602 631 477
23 62 9 0 33 139 150 31 0 0 0 0 0 0 0 0 0 0 0 0 0 0 0 0 0 96 159 204 247 269 251 249 242 233 213 194 234 275 322 326 292 284 267 216 115 17 23 128 154 154 150 166 187 184 173 0 69 70 108 354 526 454 187
0 0 0 13 96 43 0 0 0 0 0 0 0 0 0 0 0 0 0 0 0 0 0 0 0 0 10 113 123 150 178 207 202 185 200 137 95 188 57 45 47 43 0 0 0 0 23 28 91 138 129 96 132 149 128 108 106 90 52 151 217 147 139
0 0 0 0 0 0 0 0 0 0 0 0 0 0 0 0 0 0 0 0 0 0 0 0 0 0 0 0 0 0 0 0 0 75 76 87 43 0 0 0 0 0 0 0 0 0 0 0 0 1 0 1 20 84 65 84 52 53 0 78 137 145 115
0 0 0 0 0 0 0 0 0 0 0 0 0 0 0 0 0 0 0 0 0 0 0 0 0 0 0 0 0 0 0 0 0 0 0 0 0 0 76 81 0 0 0 0 0 0 0 0 0 1 0 0 46 32 22 91 68 31 0 0 48 98 96
0 0 0 0 0 0 0 0 0 0 0 0 0 0 0 0 0 0 0 0 0 0 0 0 0 0 0 0 0 0 0 0 0 4 0 0 0 11 0 0 0 0 0 0 0 0 0 9 13 5 0 0 0 0 0 0 0 0 0 0 0 0 8
0 0 0 0 0 0 0 0 0 0 0 0 0 0 0 0 0 0 0 0 0 0 0 0 0 0 0 0 0 0 0 0 0 0 0 0 4 0 0 0 0 0 0 0 0 0 0 0 0 0 0 0 0 0 0 0 0 0 0 0 0 0 0
0 0 0 0 0 0 0 0 0 0 0 0 0 0 0 0 0 0 0 0 0 0 0 0 0 0 0 0 0 0 0 0 0 0 0 0 0 0 0 0 0 0 0 0 0 0 0 0 0 0 0 0 0 0 0 0 0 0 0 0 0 0 0
0 0 0 0 0 0 0 0 0 0 0 0 0 0 0 0 0 0 0 0 0 0 0 0 0 0 0 0 0 0 0 0 0 0 0 0 0 0 0 0 0 0 0 0 0 0 0 0 0 0 0 0 0 0 0 0 0 0 0 0 0 0 0
0 0 0 0 0 0 0 0 0 0 0 0 0 0 0 0 0 0 0 0 0 0 0 0 0 0 0 0 0 0 0 0 0 0 0 0 0 0 0 0 0 0 0 0 0 0 0 0 0 0 0 0 0 0 0 0 0 0 0 0 0 0 0

ECMWFFLT1_con_mucape_111.txt.gz
CAPE
236 7 0 0 18 55 71 87 122 236 250 275 289 463 614 780 926 954 1063 1197 1256 1456 1974 1992 1937 1973 1988 1976 1899 1732 1609 1794 2058 1859 1778 1677 1745 1764 1651 1821 1988 2156 2222 2214 2295 2394 2564 2788 2756 2649 2622 2704 2774 2567 3038 3779 3499 3738 3594 3497 3105 3843 3144
259 119 0 0 0 37 71 96 124 227 255 270 339 362 446 672 904 1026 1149 1232 1240 1313 1840 2059 2056 2084 2079 1964 1933 1986 1672 1771 2111 2254 1902 1876 2670 2271 1889 1997 2001 2077 2158 2062 2107 2217 2270 2463 2570 2474 2411 2732 2924 2722 3298 3463 3236 3025 3102 3322 3092 2831 3239
227 259 19 0 0 15 51 85 140 230 260 279 328 402 406 564 806 1011 1178 1292 1274 1281 1671 2018 2098 2184 2208 2070 2013 2131 1807 1732 2198 2139 2053 1922 2395 2650 2365 2212 2243 2102 2142 2086 1926 2018 2151 2212 2458 2506 2426 2539 2741 2684 2999 3441 3234 2830 2760 2810 3012 2914 2619
212 263 171 0 0 2 82 138 206 249 277 290 334 429 493 571 732 915 1115 1283 1318 1318 1559 1889 2068 2168 2298 2217 2117 2196 1908 1809 2166 2165 2185 2016 2250 2703 2637 2468 2492 2450 2330 2300 2030 1804 1919 1914 1998 2373 3530 2615 2626 2645 2821 3074 2987 2752 2727 2902 2856 2800 2762
252 228 284 41 0 0 0 14 86 258 318 335 355 438 535 654 761 879 1055 1212 1321 1375 1504 1746 1943 2034 2240 2300 2234 2238 2064 1878 2122 2130 2142 2090 2172 2550 2663 2591 2490 2499 2463 2401 2310 2126 2125 2224 1916 2137 2538 2802 2553 2671 2822 2935 2886 2677 2644 2743 2767 2772 2798
299 241 224 270 0 0 0 0 46 227 311 381 410 452 566 756 827 935 1069 1242 1368 1438 1486 1645 1820 1893 2078 2290 2336 2304 2221 1968 2056 2101 2034 1994 2071 2328 2546 2545 2445 2350 2331 2387 2383 2352 2137 2267 2163 1935 2096 2574 2658 2714 2828 2922 2923 2798 2745 2692 2688 2602 2724
399 311 257 279 279 140 0 0 10 73 258 364 432 461 690 862 922 1015 1137 1194 1416 1539 1506 1565 1736 1807 1916 2236 2354 2348 2283 2128 2010 2078 2056 1907 1858 2041 2258 2369 2322 2229 2117 2251 2331 2381 2308 2179 2206 1998 1883 2053 2501 2579 2695 2806 2872 2818 2721 2653 2573 2580 2582
482 442 355 303 329 300 175 0 1 32 200 280 387 485 773 971 1015 1096 1228 1215 1367 1617 1584 1563 1666 1754 1788 2104 2345 2336 2347 2287 1969 1992 2044 2056 1864 1765 1882 1981 2028 2140 2139 2048 2071 1974 1991 1970 2027 2012 2061 2026 2191 2434 2516 2600 2708 2752 2665 2591 2575 2615 2716
620 552 486 493 424 329 180 215 388 44 22 132 280 468 809 1034 1105 1202 1322 1313 1365 1655 1667 1632 1666 1757 1754 1892 2230 2293 2277 2244 2013 1970 1982 2048 2007 1921 1830 1742 1755 1837 1914 1937 1939 1866 1689 1509 1596 1768 1994 2079 2076 2167 2300 2320 2342 2465 2600 2633 2562 2446 2396
711 606 571 535 464 394 344 434 476 287 259 264 169 387 804 1040 1180 1270 1410 1427 1392 1648 1732 1698 1690 1741 1732 1718 1978 2194 2205 2139 2015 2018 1955 1912 1929 1962 1951 1818 1778 1875 1923 1855 1797 1736 1604 1431 1376 1466 1771 1974 2002 2016 2054 2111 2085 2214 2428 2551 2541 2545 2554
722 676 602 578 556 506 428 345 399 418 383 262 304 494 747 954 1217 1291 1485 1543 1466 1650 1819 1797 1723 1757 1744 1697 1760 1950 2123 2126 2045 1987 1958 1857 1814 1846 1878 1810 1761 1850 1965 1925 1749 1672 1605 1581 1431 1267 1428 1610 1691 1746 1833 1896 1923 1996 2221 2412 2552 2624 2599
700 740 673 652 645 604 534 418 308 328 360 329 366 352 380 699 976 1218 1553 1686 1629 1739 1882 1933 1836 1814 1801 1771 1745 1779 1856 1928 1942 1923 1963 1977 1948 1954 1888 1739 1688 1752 1865 1829 1757 1737 1672 1522 1438 1351 1303 1289 1121 1298 1434 1582 1705 1858 1987 2159 2314 2382 2257
779 781 793 762 721 643 570 433 348 345 435 423 306 280 330 495 775 1060 1314 1732 1730 1715 1827 1966 1997 1905 1907 1864 1834 1732 1710 1748 1772 1798 1814 1851 1894 1886 1820 1659 1590 1683 1744 1622 1375 1284 1391 1380 1252 1325 1351 1363 1307 1166 1212 1360 1531 1699 1836 1928 2034 2040 2020
928 758 792 832 816 786 712 468 335 352 494 489 334 352 420 486 924 1213 1143 1680 1854 1786 1697 1756 2002 2025 2028 2044 1994 1865 1743 1726 1739 1761 1770 1726 1697 1700 1659 1576 1530 1589 1595 1411 1184 1066 1049 1027 900 1002 1216 1341 1336 1248 1254 1284 1382 1523 1648 1712 1790 1928 2046
974 871 757 790 840 853 874 877 575 411 539 499 411 509 593 634 811 1219 1363 1391 1683 1626 1642 1678 1802 2005 2068 2068 2047 2020 1954 1885 1836 1885 1978 2031 1876 1700 1624 1599 1552 1375 1242 1272 1058 829 831 834 845 885 911 1155 1227 1244 1313 1400 1445 1517 1591 1638 1792 1974 2053
1050 1028 959 874 828 836 850 871 893 846 640 576 468 537 679 711 858 1063 1209 1305 1363 1540 1648 1763 1910 1987 2010 2014 1998 1937 1878 1847 1864 1877 1921 1936 1889 1796 1702 1596 1534 1402 1593 1519 1671 1837 1476 1077 724 797 829 827 899 1044 1254 1474 1697 2273 2630 2252 2047 2064 2264
948 900 895 861 864 902 921 862 742 665 617 621 560 615 833 974 1042 1116 1289 1263 1483 1557 1392 1275 1570 1800 1945 1942 1834 1815 1822 1796 1782 1803 1813 1772 1765 1706 1615 1563 1483 1388 1548 1636 1873 1663 1702 1132 889 720 595 581 562 920 1295 1508 1726 2213 2264 2192 2320 2469 2302
1064 1062 1015 979 1011 1046 963 858 769 679 570 600 558 690 844 1061 1193 1230 1275 1338 1594 1503 1146 1244 1547 1654 1690 1853 1785 1689 1619 1509 1439 1494 1562 1544 1466 1465 1601 2016 1819 1651 1698 1793 1700 1545 1383 1135 979 867 737 600 578 990 1196 1400 1532 1735 1904 1972 2066 2143 2130
1055 906 836 895 841 817 793 738 689 724 627 479 519 550 727 924 1061 1165 1306 1476 1538 1360 1378 1474 1619 1626 1557 1304 942 994 1061 1086 1120 1206 1248 1562 1725 1750 1755 1929 2300 2026 1988 2045 1872 1699 1615 1497 1383 1213 1044 876 797 1043 1159 1306 1455 1642 1816 1900 1916 1925 1950
946 910 870 880 879 818 744 654 589 496 477 532 454 487 387 467 672 973 1081 1160 1340 1293 1257 1266 1336 1667 1485 1078 959 972 1046 1113 1086 1216 1263 1203 1375 1767 2029 2074 2264 2353 2234 2025 1878 1779 1689 1554 1446 1398 1367 1276 1128 929 916 1247 1494 1612 1711 1821 1922 1905 1633
1016 938 946 952 934 826 814 777 692 606 483 492 450 505 460 603 515 525 575 682 812 908 775 999 882 992 1128 1456 1616 1423 1334 1337 1327 1339 1386 1374 1332 1252 1498 1830 2077 2180 2220 2196 2102 1937 1744 1578 1663 1380 1266 1259 1249 1133 1015 861 702 1026 1305 1374 1169 846 662
915 917 938 813 828 878 944 782 651 586 560 668 752 694 673 672 829 821 681 727 857 966 1148 1295 1428 1303 1258 1450 1713 1851 1834 1767 1804 1813 1718 1604 1521 1441 1336 1442 1601 1795 1967 2060 2088 2096 2041 1882 1697 1459 1473 1358 1332 1151 1114 978 985 949 851 715 539 440 403
863 918 938 796 760 645 740 808 703 682 599 585 543 543 628 859 841 1056 993 807 1087 1262 1479 1536 1589 1681 1738 1731 1779 1778 1687 1612 1547 1584 1688 1710 1673 1645 1592 1503 1526 1565 1516 1518 1545 1510 1487 1496 1443 1133 1040 1174 1140 1118 1005 1046 1024 1017 938 819 671 552 552
774 798 780 690 693 673 636 692 727 674 533 579 499 486 470 440 536 647 706 806 823 896 1009 1158 1090 1156 1221 1346 1284 1198 1127 1085 1004 989 1102 1259 1213 1210 1282 1315 1268 1306 1286 1098 911 866 675 690 770 756 716 694 882 1104 1082 1081 1024 957 842 720 707 743 697
875 796 744 714 701 647 605 587 604 618 632 583 602 607 531 496 589 604 601 599 582 587 591 611 645 645 592 677 728 744 761 779 771 731 699 683 725 687 766 834 825 761 689 775 892 870 834 771 730 634 689 725 702 699 773 800 784 739 669 605 517 447 328
553 640 682 565 614 555 503 462 465 506 552 553 565 539 551 561 578 566 590 643 740 797 837 833 817 798 789 787 801 815 818 802 752 706 643 656 662 695 636 611 558 548 511 582 462 425 606 622 592 638 696 616 627 681 615 556 477 423 426 435 400 385 440
240 313 195 392 422 435 460 419 425 407 418 449 476 479 498 490 507 545 513 497 473 491 513 539 556 580 599 609 628 660 702 738 734 702 640 527 492 447 445 437 425 461 472 462 414 421 341 428 488 464 468 517 478 442 571 642 630 556 444 378 366 372 377
236 256 150 0 316 366 347 301 325 378 373 366 350 344 345 314 326 324 262 273 294 274 237 291 330 358 374 394 398 399 424 444 437 486 440 382 388 404 406 378 355 350 373 355 341 275 260 296 317 302 259 246 298 319 304 278 243 230 229 220 200 156 117
67 7 110 114 233 261 257 281 264 232 281 326 325 314 302 298 277 248 216 198 192 172 156 136 126 166 180 213 226 243 238 252 249 245 253 246 252 261 266 262 142 178 266 260 256 258 270 247 241 115 158 158 175 190 195 192 182 176 176 155 87 49 6
27 0 111 138 203 212 202 107 114 105 101 104 40 40 132 134 152 161 128 118 8 55 103 118 121 71 0 114 191 212 202 192 186 174 163 162 154 158 179 175 119 0 0 37 174 183 219 225 163 74 76 108 136 139 138 125 138 162 131 40 0 0 2
238 230 165 88 131 48 0 23 3 0 0 0 0 0 0 0 0 0 0 0 0 0 0 0 0 0 0 0 0 0 46 166 160 134 140 37 142 92 40 38 36 53 134 0 0 4 6 3 1 1 1 8 102 106 112 115 119 141 115 60 41 15 18
0 105 94 72 84 0 0 0 0 0 0 0 0 0 0 0 0 0 0 0 0 0 0 0 0 0 0 0 0 0 0 0 0 0 0 0 0 9 0 0 0 54 0 0 0 0 0 0 0 0 0 0 0 44 53 43 61 80 116 118 100 21 14
0 0 0 0 8 0 0 0 0 0 0 0 0 0 0 0 0 0 0 0 0 0 0 0 0 0 0 0 0 0 0 0 0 0 0 0 0 0 0 0 0 0 0 0 0 0 0 5 0 1 0 0 0 0 0 0 0 0 13 13 10 0 0
0 0 0 0 0 0 0 0 0 0 0 0 0 0 0 0 0 0 0 0 0 0 0 0 0 0 0 0 0 0 0 0 0 0 0 0 0 0 0 0 0 0 0 0 0 0 2 0 0 1 0 0 0 0 0 0 0 0 0 0 0 0 0
0 0 0 0 0 0 0 0 0 0 0 0 0 0 0 0 0 0 0 0 0 0 0 0 0 0 0 0 0 0 0 0 0 0 0 0 0 0 1 2 3 1 0 2 0 0 0 0 2 0 3 0 0 0 0 0 0 0 0 0 0 0 0
0 0 0 0 0 0 0 0 0 0 0 0 0 0 0 0 0 0 0 0 0 0 0 0 0 0 0 0 0 0 0 0 0 0 0 0 0 0 0 0 0 0 0 0 0 0 0 0 0 0 0 0 0 0 0 0 0 0 0 0 0 0 0
0 0 0 0 0 0 0 0 0 0 0 0 0 0 0 0 0 0 0 0 0 0 0 0 0 0 0 0 0 0 0 0 0 0 0 0 0 0 0 0 0 0 0 0 0 0 0 0 0 0 0 0 0 0 0 0 0 0 0 0 0 0 0
0 0 0 0 0 0 0 0 0 0 0 0 0 0 0 0 0 0 0 0 0 0 0 0 0 0 0 0 0 0 0 0 0 0 0 0 0 0 0 0 0 0 0 0 0 0 0 0 0 0 0 0 0 0 0 0 0 0 0 0 0 0 0

ECMWFFLT1_con_mucape_117.txt.gz
CAPE
10 0 0 41 126 231 349 410 495 536 642 686 719 687 833 938 1195 1495 1518 1817 1947 2181 2502 2754 2785 2757 2621 2538 2656 2706 2562 2663 2620 2556 2632 2750 2671 2743 2728 2415 2427 3024 2658 2538 2634 2943 3152 3435 3554 3648 3854 4061 3791 3941 4128 4129 3972 3531 3980 4450 4125 4060 3891
13 0 0 22 143 224 311 428 532 566 667 655 723 820 882 1019 1423 1508 1574 1914 1958 2080 2304 2491 2735 2732 2607 2599 2483 2807 2687 2660 2706 2915 2696 3192 3251 3104 2754 2763 2729 3180 3507 3066 3073 3400 3560 3423 3546 3749 3797 3834 3714 4023 3795 3746 3707 3766 3482 4146 3999 4074 3988
28 1 5 27 142 245 385 486 516 561 636 664 712 826 1012 1223 1552 1606 1801 1881 2023 2076 2260 2359 2650 2597 2613 2747 2675 2721 2516 2422 2590 2472 2482 2112 2372 2014 2451 2800 2878 2608 2592 2971 3648 3132 3326 3244 3846 3921 3759 3472 3351 3801 3957 3699 3850 3624 3696 4092 3823 3548 3970
141 15 32 114 251 351 417 485 541 578 656 678 698 821 1011 1379 1586 1776 1905 1868 1949 2167 2388 2264 2418 2364 2544 2673 2602 2745 2625 2560 2363 2064 1967 1936 2055 2198 2676 2900 2892 2817 3030 2979 2780 2971 2772 3134 3433 3838 3921 3716 3706 3478 3457 3456 3317 3617 3757 4105 3726 3596 3785
427 56 20 44 189 404 448 510 568 694 688 744 808 932 1114 1431 1508 1667 1704 1675 1884 2018 2016 2096 2102 2206 2421 2472 2302 2361 2439 2412 2440 2271 2189 2243 2404 2470 2407 2158 2494 2619 2676 2772 3176 3414 3515 3420 2896 3247 3431 3826 3513 3547 3705 3730 3504 3972 3987 4013 3645 3475 3242
574 309 48 52 178 372 423 424 525 659 738 811 907 1035 1124 1324 1210 1307 1505 1594 1815 1878 2047 2107 2120 2384 2493 2313 2160 2166 2506 2718 2758 2860 2672 2831 2864 2386 2367 2580 2530 2621 2454 2767 2632 2723 3231 3050 2856 2870 2843 2675 2736 2746 2795 3058 3094 3259 3677 3869 3531 3272 3194
664 683 222 91 152 308 382 398 391 572 745 863 854 906 1030 1261 1180 1239 1353 1530 1843 1867 1828 1930 2034 2442 2492 2233 2421 2537 2670 2533 2712 2578 2636 2633 2658 2628 2604 2687 2851 2545 2445 2831 2824 2795 2922 3144 3177 3286 3117 2827 2846 2610 2860 3458 3348 3287 3616 3865 3933 3880 3851
461 740 536 114 70 162 363 516 460 570 782 668 733 900 1086 1080 1201 1357 1424 1449 1656 1511 1739 1727 2142 2634 2728 2660 2742 2493 2574 2469 2620 2608 2732 2502 2565 2675 2532 2645 2899 2922 3025 2774 2936 3120 2933 3162 2973 3068 3196 3025 3067 3205 3046 3505 3996 3291 3233 3411 3567 3493 3318
565 801 777 316 105 143 326 595 685 753 819 667 800 853 974 1041 1211 1501 1689 1685 1798 1716 1899 1910 2287 2863 3124 3099 3125 2978 2830 2827 2860 2733 2684 2420 2344 2228 2078 2308 2559 2819 2786 2500 2453 2940 2873 2816 2789 3216 3488 3322 3338 3639 3303 3754 3366 3262 3474 3502 3569 3499 3173
751 873 1070 658 219 248 370 477 717 880 857 944 1051 1082 1011 1129 1310 1549 1821 2069 2201 2142 2330 2337 2605 2936 3076 3085 3057 3028 3053 3067 2959 2625 2495 2352 2340 2191 2003 1898 2146 2554 2509 2397 2398 2415 2869 2886 2822 3211 3732 3529 3639 3784 3547 3506 3311 3076 3155 3587 3486 3402 3557
962 867 920 936 488 186 199 361 703 1014 1160 1237 1210 1096 1181 1357 1591 1643 1827 2087 2063 2272 2474 2448 2531 2684 2939 3025 2974 3046 3104 3084 2976 2734 2876 2882 2632 2251 2034 1924 1996 2259 2354 2263 2172 2217 2340 2968 3151 3310 3468 3027 3201 3467 3590 3396 3309 3471 3003 3067 3074 3355 3112
1118 1036 1028 1040 942 484 189 325 623 856 1052 1220 1297 1290 1280 1392 1412 1601 1938 1948 2051 2312 2662 2687 2572 2625 2754 2859 2886 3104 3100 2907 2878 2889 3085 3206 3139 2892 2211 2125 2135 2184 2320 2217 2144 2307 2266 2367 2696 2893 3364 3356 3144 3114 3334 3463 3502 3530 3432 2831 2810 3077 3078
1223 969 972 1160 1198 943 660 335 304 554 987 1208 1295 1369 1414 1484 1751 1879 2016 1977 2110 2244 2590 2724 2652 2746 2781 2840 2759 2961 3028 2863 2851 2839 2924 3294 3295 3337 2910 2407 2189 2099 2094 2183 2133 2134 2110 2124 2516 2919 2963 3257 3149 2828 3054 3274 3067 3419 3536 3239 2983 3104 3221
962 998 922 1016 950 840 682 570 558 492 719 1024 1267 1484 1458 1550 1603 1870 2086 1976 2059 2316 2459 2451 2580 2832 2803 2795 2769 2901 3078 3029 3001 3172 3285 3514 3597 3588 3303 2816 2308 2262 2172 2220 2117 1959 1914 1988 2037 2304 2516 2557 2740 2830 2869 3138 3038 3208 3277 3078 2936 2912 2980
845 751 876 922 1101 1142 995 874 762 740 855 959 1241 1270 1419 1611 1807 2119 2265 2322 2540 2426 2552 2686 2893 2949 2854 2991 2970 3067 3191 3257 3310 3524 3591 3589 3615 3570 3589 3390 2907 2728 2651 2585 2324 1824 1787 1862 1859 1959 2087 2116 2353 2581 2540 2309 2548 2694 2952 3045 3237 3076 2806
749 848 823 922 880 836 1072 1100 1087 1054 1166 1229 1176 1332 1461 1639 1879 2041 2144 2309 2532 2553 2634 3000 2960 3069 2984 3119 3205 3314 3330 3383 3371 3382 3491 3514 3550 3558 3542 3318 3102 2752 2809 2642 2536 2512 2516 2416 2311 2058 1898 1865 2060 2085 2014 1854 2120 2363 2244 2064 2291 2677 2738
620 846 822 803 812 875 1077 1246 1349 1364 1300 1301 1277 1364 1458 1710 1805 1941 2106 2471 2658 2580 2877 2692 2872 3002 3068 3184 3272 3268 3233 3274 3289 3331 3382 3456 3472 3510 3445 3258 3106 2974 3048 2946 2677 2617 2732 2595 2350 2054 1649 1495 1423 1522 1530 1640 1323 1257 1026 1048 1208 1951 2460
764 902 1018 939 852 968 1023 985 1077 1236 1352 1499 1416 1398 1426 1416 1513 1754 1988 2247 2208 2527 2677 2748 2867 2946 2864 2928 2650 2181 2219 2283 2648 2778 2988 3261 3269 3280 3172 3005 2944 2992 3063 2946 2766 3041 2328 2157 1974 1905 1648 1359 1428 1310 1388 1142 565 555 561 730 848 1057 1783
1196 1278 1376 1228 1058 883 906 906 875 1061 1202 1143 1159 1186 1324 1425 1446 1530 1856 1996 2458 2501 2239 2333 2436 2300 1811 1566 1410 1212 1132 1402 1871 2204 2309 2801 2913 2949 2872 2877 2918 2082 2266 1769 1769 1701 1609 1421 2050 2062 1882 1685 1966 1701 1149 769 697 621 808 766 876 932 1070
986 1045 1046 1080 1064 1045 1010 1011 976 925 898 894 848 805 1079 1321 1515 1719 1859 1658 1596 2040 1922 1754 1509 1402 1246 1337 1336 1328 1107 978 1192 1184 1321 1500 1665 1525 2020 1859 1881 1778 1583 1589 1466 1460 1170 947 2139 2284 2344 1881 1851 1677 962 921 916 869 819 755 696 738 886
947 926 949 1014 947 951 950 976 967 980 984 960 934 916 865 832 1035 791 868 812 886 1209 1328 1254 1022 1074 1140 1219 1315 1394 1253 1048 1004 854 1070 1226 1063 825 1120 1336 1188 1354 1297 1289 1546 1939 2175 2278 2360 2470 2251 1888 1503 1210 1090 1026 912 803 712 670 642 615 620
765 800 872 925 894 857 873 881 869 830 774 690 668 688 718 759 779 784 782 758 706 854 866 902 934 912 986 1135 1233 1071 978 831 796 718 1227 1256 950 562 796 976 1090 1237 1080 1010 1143 1172 1124 1109 1400 1805 1941 1724 1498 1266 1052 999 898 830 770 767 801 806 757
840 813 906 895 858 862 869 826 792 739 701 659 601 638 684 702 698 662 632 731 632 612 696 772 812 910 955 1088 1229 792 612 604 668 896 807 738 994 884 935 1196 1326 1360 1179 1124 1123 1135 1066 1147 1292 1428 1163 1099 1081 1040 1002 974 941 952 952 958 886 720 702
757 771 802 770 854 828 815 816 729 759 707 732 694 615 558 526 559 548 564 549 516 453 520 621 696 672 658 848 905 816 661 651 765 820 992 844 674 776 997 1077 1047 1001 1035 1048 996 1027 1049 1032 1069 1118 1150 1159 1155 1124 1093 1034 971 884 853 759 671 519 455
668 702 801 785 824 875 871 787 705 629 651 680 684 666 623 548 502 491 426 393 396 367 398 520 603 637 673 745 777 631 678 710 794 768 741 641 761 801 749 859 755 821 883 793 833 870 803 785 767 767 746 717 666 582 506 487 487 477 480 472 444 412 396
658 677 750 790 790 804 709 628 619 566 624 576 504 502 521 416 498 451 416 397 308 313 254 484 547 595 772 928 627 614 712 773 790 797 550 439 526 581 497 501 481 534 489 445 392 413 418 389 397 402 407 402 379 376 362 362 373 371 359 352 344 344 348
693 667 674 694 714 715 648 593 595 596 517 524 511 499 413 300 388 358 326 389 428 467 390 337 350 519 499 400 577 685 669 511 412 192 148 240 298 359 362 379 354 291 288 279 294 264 236 208 199 211 240 268 284 294 283 269 252 224 205 172 162 175 218
642 627 620 559 570 532 516 478 460 523 502 457 465 401 292 305 316 304 389 315 380 488 519 322 388 424 396 281 314 389 578 408 332 274 227 276 358 353 325 326 353 334 315 307 281 258 234 231 282 290 264 260 235 214 218 184 206 216 191 171 158 147 140
500 499 462 452 418 322 280 400 427 374 406 339 336 234 94 275 356 358 316 322 266 234 350 323 92 254 397 144 67 216 57 220 173 153 163 250 291 305 298 289 181 157 159 174 167 171 181 141 137 155 168 196 188 162 144 129 125 107 172 163 153 168 176
383 385 362 328 286 273 306 306 242 169 27 30 70 133 197 144 95 156 229 294 270 235 69 38 0 0 86 142 134 166 177 224 254 244 204 183 176 159 26 74 110 113 120 120 118 129 138 154 181 196 200 198 190 181 173 129 0 114 104 90 0 0 0
299 312 291 259 182 208 200 183 162 170 188 196 197 213 236 210 118 0 0 0 30 124 43 0 0 18 76 104 72 83 126 137 143 127 128 107 113 105 93 82 90 93 94 114 121 123 123 130 141 148 152 149 134 119 0 0 0 0 0 0 0 0 0
235 213 175 137 116 108 124 48 0 0 0 0 0 0 0 0 0 0 0 0 0 0 0 0 0 0 67 116 100 77 77 74 69 50 9 78 76 68 10 5 14 3 1 0 1 2 0 0 77 84 81 74 73 87 31 6 0 0 0 0 0 0 0
143 128 98 74 67 72 0 0 0 0 0 0 0 0 0 0 0 0 0 0 0 0 0 0 0 0 0 0 0 0 0 9 0 0 0 0 0 11 11 0 0 0 0 1 3 9 15 12 10 4 1 3 3 0 0 0 0 0 0 0 0 0 0
168 132 32 0 0 0 0 0 0 0 0 0 0 0 0 0 0 0 0 0 0 0 0 0 0 0 0 0 0 0 0 0 0 0 0 0 0 0 0 0 0 0 0 0 0 0 2 11 14 21 20 19 20 11 5 0 0 0 0 0 0 0 0
194 179 139 0 0 0 0 0 0 0 0 0 0 0 0 0 0 0 0 0 0 0 0 0 0 0 0 0 0 0 0 0 0 0 0 0 0 0 0 0 0 0 0 0 0 0 0 0 1 1 0 0 0 0 0 0 0 0 0 0 0 0 0
193 105 107 108 0 0 0 0 0 0 0 0 0 0 0 0 0 0 0 0 0 0 0 0 0 0 0 0 0 0 0 0 0 0 0 0 0 0 0 0 0 0 0 0 0 0 0 0 0 0 0 0 0 0 0 0 0 0 0 0 0 0 0
54 56 36 8 0 0 0 0 0 0 0 0 0 0 0 0 0 0 0 0 0 0 0 0 0 0 0 0 0 0 0 0 0 0 0 0 0 0 0 0 0 0 0 0 0 0 0 0 0 0 0 0 0 0 0 0 0 0 0 0 0 0 0
0 0 0 0 0 0 0 0 0 0 0 0 0 0 0 0 0 0 0 0 0 0 0 0 0 0 0 0 0 0 0 0 0 0 0 0 0 0 0 0 0 0 0 0 0 0 0 0 0 0 0 0 0 0 0 0 0 0 0 0 0 0 0

ECMWFFLT1_con_mucape_120.txt.gz
CAPE
332 69 52 73 128 190 203 260 416 428 651 1058 1309 1097 1232 1070 1198 1397 1555 1932 2166 2373 2530 2472 2383 2301 2424 2472 2461 2335 2103 1969 2078 2403 2401 2438 2431 2600 2630 2357 2411 2750 2361 2381 2564 2486 2808 2561 2544 3288 3564 3800 3720 4109 4187 3957 3917 3309 3767 4597 4132 3769 3903
433 82 40 60 143 195 248 356 460 442 740 966 1175 1125 1179 1164 1384 1572 1727 2004 2181 2236 2362 2301 2405 2441 2384 2462 2460 2535 2488 2103 2152 2143 2315 2504 2775 2761 2581 2700 2638 2808 3040 2774 2759 3010 3147 2963 3081 3424 3609 3561 3421 4048 4018 3956 3652 3422 3380 4699 4037 4360 4218
606 134 36 55 137 272 394 404 538 477 639 768 830 888 1108 1378 1586 1853 1965 2001 2227 2201 2317 2231 2466 2392 2417 2502 2434 2571 2608 2370 2255 2266 2180 2314 2716 2258 2463 2577 2573 2502 2551 2630 2902 2877 2890 2835 3211 3438 3367 3259 2998 3634 4352 3760 3592 3488 3802 4301 3763 3461 4726
689 78 62 143 256 420 539 625 660 644 796 832 693 788 1218 1624 1796 2277 2348 2157 2094 2142 2287 2119 2203 2195 2318 2421 2474 2564 2678 2455 2284 2192 1852 1974 2166 2378 2487 2618 2339 2526 2532 2597 2671 2410 2448 2651 3122 3544 3334 3449 3503 3409 3604 3719 3366 3419 3553 4450 3747 3481 4118
505 236 198 260 432 774 790 777 892 989 977 1120 1161 990 1380 1860 2086 2441 2364 1871 1934 1994 1936 2017 1839 1687 1898 2087 2113 2191 2320 2238 2141 2050 2072 2022 2316 2456 2378 2378 2395 2283 2400 2450 2620 2958 2811 2924 2748 3041 3457 3679 3484 3521 3352 3512 3168 3482 3750 4058 3622 3248 3188
524 398 229 462 660 742 647 656 894 1175 1261 1516 1556 1426 1427 1991 1968 2119 2213 1812 1776 1759 1787 1748 1597 1708 1862 1928 1928 1789 2030 2128 2133 2168 2031 2307 2620 2420 2352 2322 2201 2311 2208 2389 2528 2612 2840 2627 2635 2668 2794 2769 2729 2620 2797 3005 2764 2759 3252 3790 3542 3107 2850
816 1031 616 690 666 683 674 653 650 1122 1489 1652 1764 1729 1516 2003 1904 1699 1766 1757 2024 1810 1585 1550 1520 1696 1963 1999 2022 1981 2034 1972 2065 1930 1868 2071 2271 2426 2353 2350 2311 2141 2179 2496 2513 2497 2524 2691 2673 2855 2700 2488 2648 2446 2707 3346 3328 2844 3105 3569 4205 3761 3075
425 825 542 478 420 382 579 674 651 828 1528 1443 1593 1763 1778 1862 2013 1759 1644 1600 1975 1514 1632 1498 1649 1841 2174 2254 2068 1902 2107 2032 1886 1842 1754 1791 2157 2058 1891 2199 2374 2434 2551 2490 2702 2618 2453 2682 2580 2641 2713 2701 2772 2867 2805 3274 3749 3159 2855 3333 3552 3438 3021
879 847 781 524 366 462 714 884 905 993 1515 1510 1484 1766 1900 1955 2018 1925 1983 2015 2268 2086 1941 1691 1837 2096 2474 2629 2320 2314 2184 2178 1968 1904 1703 1695 1872 1766 1572 1870 2088 2454 2558 2310 2274 2585 2420 2494 2324 2602 3173 2993 3052 3528 3264 3503 3312 3099 3101 3155 3443 3566 3369
1057 1217 1042 668 642 553 785 952 1119 1234 1533 1856 1783 1933 2046 2046 2270 2287 2358 2559 2731 2734 2589 2459 2404 2672 3262 3181 2647 2600 2308 2217 2036 1785 1790 1724 1858 1846 1762 1594 1900 2218 2276 2260 2067 2086 2395 2259 2370 2832 3340 3358 3417 3597 3519 3435 3242 2930 2828 3244 3343 3296 3574
608 815 925 965 813 794 932 1086 1381 1559 1830 2136 2037 1942 2104 2110 2518 2592 2650 2940 2902 3166 3103 2972 2894 3216 3684 3482 2583 2445 2264 2244 2226 1923 2018 1937 2053 1951 1718 1487 1562 2048 2122 2013 1911 1974 2240 2429 2522 2937 3691 2951 2938 3231 3462 3328 3224 3143 2748 2628 2872 3206 3245
693 710 903 1151 1230 1218 1189 1361 1678 1943 2184 2365 2366 2237 2281 2404 2557 2840 3060 3203 3160 3302 3367 3391 3312 3578 4031 3647 2707 2361 2360 2212 2210 2189 2089 2332 2245 2199 1998 1551 1320 1623 1993 1960 2037 2170 2125 2458 2602 2623 3222 3102 2792 2737 3074 3242 3353 3269 3136 2537 2371 2499 2794
1118 807 924 1523 1602 1615 1516 1554 1805 2113 2322 2428 2553 2515 2557 2572 2700 2936 3152 3276 3294 3259 3441 3633 3632 3811 4073 3985 3082 2543 2434 2212 2259 2322 2263 2464 2536 2384 2180 1894 1563 1484 1736 1918 1923 1972 1889 1984 2405 2585 2859 3180 2968 2534 2584 2888 2725 3227 3511 3013 2738 2692 2767
1291 1617 1744 1858 1811 1782 1579 1400 1580 1777 1972 2152 2350 2680 2615 2661 2688 3023 3249 3196 3244 3274 3384 3434 3564 3885 3993 3868 3590 3168 3055 2732 2415 2723 2812 2872 2990 2966 2443 1828 1764 1921 1786 2006 2053 1842 1700 1778 1887 2234 2514 2579 2618 2687 2629 2876 2807 2913 3162 3032 2347 2236 2288
1123 1269 1530 1588 1879 2013 1856 1679 1485 1407 1545 1808 2063 2317 2495 2626 2733 2870 3062 3078 3081 3116 3288 3456 3610 3934 3890 4034 3974 3853 3780 3630 3231 3398 3705 3600 3678 3525 3059 2405 1763 1904 2164 2188 2127 1744 1595 1624 1670 1820 1885 1985 2216 2361 2257 1901 1967 1933 2144 2452 2338 2335 1921
1046 1156 1360 1742 2012 2081 2078 1981 1814 1543 1403 1454 1733 2095 2335 2446 2542 2582 2726 2966 2953 3110 3295 3447 3578 3885 3924 4039 4164 4132 4164 4352 4105 4156 4469 4451 4419 4145 3387 2659 2015 1829 2147 2268 2070 2010 1928 2013 2036 1930 1958 1975 2117 2166 1837 1740 1669 1304 1628 1684 2241 2090 2218
665 945 1172 1210 1558 2379 2535 2265 2127 1908 1745 1632 1558 1663 1993 2282 2550 2633 2708 2779 2924 3149 3296 3294 3476 3699 3840 3947 4146 4166 4090 4161 4292 4235 4405 3997 3985 4354 3876 3272 3111 2534 2748 2683 2578 2434 2639 2336 2271 2071 1871 1792 1757 1695 1610 1135 1374 1251 695 790 457 1617 2134
802 842 1032 1210 1426 1469 1605 1762 1856 1959 2074 2058 1936 1918 2059 2356 2522 2656 2674 2805 2912 3192 3103 3083 3214 3103 3374 3633 3774 3814 3522 3488 3688 3386 2721 2319 2537 2186 3782 4186 3824 3945 3832 3270 2708 3366 2951 2618 2835 3169 2540 1921 1881 1665 1292 1143 1218 780 543 432 553 468 1594
1138 894 875 1260 1508 1378 1322 1494 1773 1912 1700 1729 1470 1826 2026 2202 2210 2324 2527 2775 3071 2989 3064 2918 3138 3211 3358 3404 3412 3451 3369 3589 3156 2490 2085 2053 1572 2280 2318 3361 3945 3819 3330 3167 3198 3455 3366 3364 2649 1913 2301 2233 2441 2003 1483 986 1026 818 752 658 608 569 765
1044 1055 986 948 961 1061 1180 1352 1325 1382 1569 1580 1695 1560 1680 1722 1760 2080 2293 2526 2626 2892 2924 2738 3025 2955 3045 3113 3088 3142 2769 3135 2849 2026 1876 2112 1600 1782 2127 2733 2844 3018 2561 2569 2993 3041 3213 2861 2644 3096 3040 2966 2973 2752 1408 1128 850 817 782 735 656 622 560
698 630 853 958 883 807 795 840 931 941 1115 1309 1384 1492 1564 1566 1552 1588 1668 1672 1780 1880 2365 2477 2268 2268 2436 2675 2795 2587 2473 2238 2329 1967 1434 1339 1402 1569 1607 1808 2582 2799 2619 2438 2660 2360 1948 2010 2884 3183 3332 3109 2602 2254 1088 868 797 691 762 774 757 712 654
703 712 688 687 690 891 892 888 926 902 970 986 1019 1297 1294 1409 1533 1436 1528 1630 1628 1583 1958 2587 2689 2586 2700 2625 2022 2083 1843 1662 1648 1389 1295 949 890 928 1127 1164 1445 1984 1581 1713 1988 1880 2036 1574 2200 3044 2935 2650 2428 2242 1359 1150 863 815 847 880 865 788 717
639 741 802 709 688 669 793 772 745 759 799 787 858 901 936 914 897 1012 1210 1176 1177 1352 1801 2287 2469 1598 1815 1498 1316 1255 965 955 901 1172 1101 685 467 469 603 714 679 1316 1877 1891 1880 2015 1888 1724 2362 2588 2529 2473 2283 2019 1326 1085 874 786 810 829 801 795 835
836 796 743 628 630 598 616 726 697 690 647 638 633 632 665 692 760 804 824 830 821 803 812 860 854 911 989 951 930 854 818 846 905 1159 1107 438 403 380 589 601 762 1322 1651 1753 1877 1759 1884 2065 1750 1233 1150 1041 985 977 921 897 922 962 978 931 874 802 738
664 747 771 700 651 562 654 651 692 688 665 627 606 576 583 563 534 567 606 597 554 493 539 630 642 639 632 642 592 642 574 688 617 610 470 407 364 390 421 621 764 947 953 975 925 887 871 840 884 772 788 827 897 941 970 908 803 681 555 454 376 318 260
636 620 740 772 685 601 612 529 563 638 554 668 572 542 560 543 506 449 452 348 330 289 248 229 259 288 354 457 426 546 556 641 569 426 314 442 452 398 464 585 632 689 658 648 622 500 570 730 788 794 717 647 587 558 514 445 374 328 270 210 180 156 152
710 666 723 770 666 541 462 452 457 465 422 501 531 407 384 454 466 416 376 360 389 274 232 200 238 192 105 124 204 346 403 535 513 434 356 368 449 444 455 499 471 398 338 315 285 290 311 353 372 354 342 311 278 233 196 180 174 162 146 129 114 106 98
666 665 688 666 599 554 520 500 456 466 410 416 429 357 365 364 354 323 328 363 394 306 220 172 0 67 150 262 264 401 437 329 297 218 198 164 157 211 273 263 273 223 199 236 207 206 237 238 212 192 193 194 201 176 152 140 134 125 108 112 95 69 0
641 646 627 630 559 540 449 448 523 482 432 406 340 339 393 378 328 309 273 328 318 235 118 0 0 0 38 159 231 285 290 246 209 179 154 180 235 275 299 261 214 178 223 274 283 250 234 218 171 147 159 160 153 128 127 142 129 117 39 0 32 28 55
607 568 541 530 492 428 414 448 390 331 317 326 273 300 334 381 338 310 337 266 256 194 0 0 0 105 141 74 43 72 115 107 64 67 81 93 124 156 156 176 143 136 128 163 178 183 179 147 124 116 106 100 94 88 118 129 149 147 151 137 93 0 0
522 515 481 416 374 339 343 340 290 199 105 195 215 192 194 207 269 283 321 278 234 152 0 0 46 40 58 85 90 115 114 74 74 25 44 107 109 90 54 112 112 50 58 101 126 133 96 114 116 67 110 132 161 163 151 152 138 106 90 0 0 0 0
449 436 398 388 350 348 330 305 254 196 48 158 171 204 197 151 138 164 182 185 242 221 114 0 0 0 56 67 53 64 51 60 58 46 0 0 43 19 1 27 52 60 24 49 67 70 67 55 43 48 75 25 52 72 66 54 58 55 0 0 0 0 0
375 346 328 306 277 252 216 186 193 209 233 227 224 218 240 112 159 131 96 2 0 59 64 1 0 0 0 0 10 0 0 0 0 0 0 0 0 0 0 0 0 0 1 1 4 4 7 6 3 2 2 5 3 1 0 1 0 0 0 0 0 0 0
278 240 216 181 170 162 147 120 87 0 0 0 0 0 0 0 0 0 0 0 0 0 0 0 0 0 0 0 0 0 0 0 0 0 0 0 0 0 0 0 0 0 0 0 0 0 0 0 0 0 0 1 1 1 0 0 0 0 0 0 0 0 0
153 7 5 4 40 30 4 3 3 0 0 0 0 0 0 0 0 0 0 0 0 0 0 0 0 0 0 0 0 0 0 0 0 0 0 0 0 0 0 0 0 0 0 0 0 0 0 0 0 0 0 0 0 0 0 0 0 0 0 0 0 0 0
125 0 0 0 0 0 0 0 0 0 0 0 0 0 0 0 0 0 0 0 0 0 0 0 0 0 0 0 0 0 0 0 0 0 0 0 0 0 0 0 0 0 0 0 0 0 0 0 0 0 0 0 0 0 0 0 0 0 0 0 0 0 0
123 161 0 2 2 0 0 0 0 0 0 0 0 0 0 0 0 0 0 0 0 0 0 0 0 0 0 0 0 0 0 0 0 0 0 0 0 0 0 0 0 0 0 0 0 0 0 0 0 0 0 0 0 0 0 0 0 0 0 0 0 0 0
58 77 98 100 115 62 31 14 5 0 0 0 0 0 0 0 0 0 0 0 0 0 0 0 0 0 0 0 0 0 0 0 0 0 0 0 0 0 0 0 0 0 0 0 0 0 0 0 0 0 0 0 0 0 0 0 0 0 0 0 0 0 0